<?xml version='1.0' encoding='UTF-8'?><gpx version="1.1" creator="JPX - https://github.com/jenetics/jpx" xmlns="http://www.topografix.com/GPX/1/1"><trk><trkseg><trkpt lat="37.90207122106851" lon="15.135000115897734"><ele>331.0</ele><time>2026-04-19T12:55:38Z</time></trkpt><trkpt lat="37.902178773320585" lon="15.13499599374021"><ele>331.0</ele><time>2026-04-19T12:57:37Z</time></trkpt><trkpt lat="37.90226291732613" lon="15.135014232352777"><ele>331.0</ele><time>2026-04-19T12:57:39Z</time></trkpt><trkpt lat="37.902330048852164" lon="15.135016423681183"><ele>331.0</ele><time>2026-04-19T12:57:41Z</time></trkpt><trkpt lat="37.90242679464854" lon="15.134992474342766"><ele>331.0</ele><time>2026-04-19T12:57:46Z</time></trkpt><trkpt lat="37.90245185461491" lon="15.134851900913626"><ele>331.3333333333333</ele><time>2026-04-19T12:57:48Z</time></trkpt><trkpt lat="37.902465160190246" lon="15.134756486029573"><ele>331.66666666666663</ele><time>2026-04-19T12:57:49Z</time></trkpt><trkpt lat="37.90247028611011" lon="15.134654759328786"><ele>332.0</ele><time>2026-04-19T12:57:50Z</time></trkpt><trkpt lat="37.902478219781244" lon="15.134561546645436"><ele>332.3333333333333</ele><time>2026-04-19T12:57:51Z</time></trkpt><trkpt lat="37.902491465293835" lon="15.13446722677069"><ele>332.6666666666667</ele><time>2026-04-19T12:57:52Z</time></trkpt><trkpt lat="37.90250021921206" lon="15.13437363959744"><ele>333.0</ele><time>2026-04-19T12:57:53Z</time></trkpt><trkpt lat="37.902506361775615" lon="15.13428109645745"><ele>333.0</ele><time>2026-04-19T12:57:54Z</time></trkpt><trkpt lat="37.90252356419905" lon="15.13419236671981"><ele>333.0</ele><time>2026-04-19T12:57:55Z</time></trkpt><trkpt lat="37.902543620210494" lon="15.134104338584327"><ele>333.0</ele><time>2026-04-19T12:57:56Z</time></trkpt><trkpt lat="37.90257736132336" lon="15.13399037999736"><ele>333.0</ele><time>2026-04-19T12:57:58Z</time></trkpt><trkpt lat="37.90255996910564" lon="15.133870610538462"><ele>333.0</ele><time>2026-04-19T12:58:02Z</time></trkpt><trkpt lat="37.902507599766224" lon="15.133825955297693"><ele>333.0</ele><time>2026-04-19T12:58:03Z</time></trkpt><trkpt lat="37.90243937038546" lon="15.133793175384689"><ele>332.7142857142857</ele><time>2026-04-19T12:58:04Z</time></trkpt><trkpt lat="37.902365464085" lon="15.133776482750227"><ele>332.4285714285714</ele><time>2026-04-19T12:58:05Z</time></trkpt><trkpt lat="37.902295135509846" lon="15.133755597798052"><ele>332.1428571428571</ele><time>2026-04-19T12:58:06Z</time></trkpt><trkpt lat="37.90222934754522" lon="15.13372921544128"><ele>331.8571428571429</ele><time>2026-04-19T12:58:07Z</time></trkpt><trkpt lat="37.90216696171684" lon="15.13369664976337"><ele>331.57142857142856</ele><time>2026-04-19T12:58:08Z</time></trkpt><trkpt lat="37.90210228903663" lon="15.133672673692123"><ele>331.2857142857143</ele><time>2026-04-19T12:58:09Z</time></trkpt><trkpt lat="37.90203727678626" lon="15.133646754615214"><ele>331.0</ele><time>2026-04-19T12:58:10Z</time></trkpt><trkpt lat="37.90197822104865" lon="15.133617007736046"><ele>331.0</ele><time>2026-04-19T12:58:11Z</time></trkpt><trkpt lat="37.901870324142074" lon="15.133563117220827"><ele>331.0</ele><time>2026-04-19T12:58:13Z</time></trkpt><trkpt lat="37.90180474913298" lon="15.13352841335965"><ele>331.0</ele><time>2026-04-19T12:58:15Z</time></trkpt><trkpt lat="37.90173266952978" lon="15.133540293588743"><ele>331.0</ele><time>2026-04-19T12:58:19Z</time></trkpt><trkpt lat="37.901695092854276" lon="15.133607667105071"><ele>331.0</ele><time>2026-04-19T12:58:20Z</time></trkpt><trkpt lat="37.90168160463612" lon="15.133696966932334"><ele>331.0</ele><time>2026-04-19T12:58:21Z</time></trkpt><trkpt lat="37.90164927415911" lon="15.133845187236881"><ele>331.5</ele><time>2026-04-19T12:58:23Z</time></trkpt><trkpt lat="37.90163338138257" lon="15.133926294167187"><ele>332.0</ele><time>2026-04-19T12:58:24Z</time></trkpt><trkpt lat="37.90161647726983" lon="15.13401573900907"><ele>332.5</ele><time>2026-04-19T12:58:25Z</time></trkpt><trkpt lat="37.90160454659249" lon="15.13410567050855"><ele>333.0</ele><time>2026-04-19T12:58:26Z</time></trkpt><trkpt lat="37.90160121429524" lon="15.134206399408118"><ele>333.5</ele><time>2026-04-19T12:58:27Z</time></trkpt><trkpt lat="37.90159215559444" lon="15.134309181472819"><ele>334.0</ele><time>2026-04-19T12:58:28Z</time></trkpt><trkpt lat="37.90157458904059" lon="15.134410462500867"><ele>334.0</ele><time>2026-04-19T12:58:29Z</time></trkpt><trkpt lat="37.901560994616105" lon="15.134509728621973"><ele>334.0</ele><time>2026-04-19T12:58:30Z</time></trkpt><trkpt lat="37.90154813618292" lon="15.134616994931758"><ele>334.0</ele><time>2026-04-19T12:58:31Z</time></trkpt><trkpt lat="37.90153471207534" lon="15.134718586752934"><ele>334.0</ele><time>2026-04-19T12:58:32Z</time></trkpt><trkpt lat="37.901529391760285" lon="15.134817703155221"><ele>334.0</ele><time>2026-04-19T12:58:33Z</time></trkpt><trkpt lat="37.90151899036661" lon="15.134911636481352"><ele>334.0</ele><time>2026-04-19T12:58:34Z</time></trkpt><trkpt lat="37.90150806963705" lon="15.134997142496172"><ele>333.8333333333333</ele><time>2026-04-19T12:58:35Z</time></trkpt><trkpt lat="37.90149581509886" lon="15.13508006554761"><ele>333.66666666666663</ele><time>2026-04-19T12:58:36Z</time></trkpt><trkpt lat="37.90149515358179" lon="15.135197050124647"><ele>333.5</ele><time>2026-04-19T12:58:38Z</time></trkpt><trkpt lat="37.90154411825861" lon="15.135270436311133"><ele>333.3333333333333</ele><time>2026-04-19T13:00:20Z</time></trkpt><trkpt lat="37.90153201185848" lon="15.135369742938796"><ele>333.1666666666667</ele><time>2026-04-19T13:01:02.001Z</time></trkpt><trkpt lat="37.90151944760914" lon="15.13545631015149"><ele>333.0</ele><time>2026-04-19T13:01:04.001Z</time></trkpt><trkpt lat="37.90150442110532" lon="15.13557290016314"><ele>333.0</ele><time>2026-04-19T13:01:06.001Z</time></trkpt><trkpt lat="37.90149612175533" lon="15.135684699648554"><ele>333.0</ele><time>2026-04-19T13:01:08.001Z</time></trkpt><trkpt lat="37.9014879957908" lon="15.13578372645365"><ele>333.0</ele><time>2026-04-19T13:01:10.001Z</time></trkpt><trkpt lat="37.901451505279596" lon="15.135872685531092"><ele>333.0</ele><time>2026-04-19T13:01:23.001Z</time></trkpt><trkpt lat="37.90138920917458" lon="15.135895654100471"><ele>333.0</ele><time>2026-04-19T13:01:26Z</time></trkpt><trkpt lat="37.90132604271199" lon="15.135892612670917"><ele>333.0</ele><time>2026-04-19T13:01:28Z</time></trkpt><trkpt lat="37.9012069110764" lon="15.135892377866922"><ele>333.14285714285717</ele><time>2026-04-19T13:01:30Z</time></trkpt><trkpt lat="37.90113534794358" lon="15.135902124579331"><ele>333.2857142857143</ele><time>2026-04-19T13:01:31Z</time></trkpt><trkpt lat="37.901062729827224" lon="15.13590540216601"><ele>333.42857142857144</ele><time>2026-04-19T13:01:32Z</time></trkpt><trkpt lat="37.90098631122601" lon="15.135887707487884"><ele>333.57142857142856</ele><time>2026-04-19T13:01:33Z</time></trkpt><trkpt lat="37.900918547311804" lon="15.13587763390272"><ele>333.7142857142857</ele><time>2026-04-19T13:01:34Z</time></trkpt><trkpt lat="37.900847149077606" lon="15.1358676710381"><ele>333.85714285714283</ele><time>2026-04-19T13:01:35Z</time></trkpt><trkpt lat="37.900778359732755" lon="15.135858504602295"><ele>334.0</ele><time>2026-04-19T13:01:36Z</time></trkpt><trkpt lat="37.90071461587048" lon="15.135843932206821"><ele>334.42857142857144</ele><time>2026-04-19T13:01:37Z</time></trkpt><trkpt lat="37.90065047567323" lon="15.135834214875894"><ele>334.8571428571429</ele><time>2026-04-19T13:01:38Z</time></trkpt><trkpt lat="37.90058637167045" lon="15.135829737967928"><ele>335.28571428571433</ele><time>2026-04-19T13:01:39Z</time></trkpt><trkpt lat="37.90052297520379" lon="15.135823395186764"><ele>335.7142857142857</ele><time>2026-04-19T13:01:40Z</time></trkpt><trkpt lat="37.900453131882486" lon="15.135820110150647"><ele>336.14285714285717</ele><time>2026-04-19T13:01:41Z</time></trkpt><trkpt lat="37.90033842403555" lon="15.135806617530461"><ele>336.5714285714286</ele><time>2026-04-19T13:01:43Z</time></trkpt><trkpt lat="37.90027543199874" lon="15.135796961763313"><ele>337.0</ele><time>2026-04-19T13:01:44Z</time></trkpt><trkpt lat="37.90021203667588" lon="15.135789464360878"><ele>337.0</ele><time>2026-04-19T13:01:45Z</time></trkpt><trkpt lat="37.90014290064136" lon="15.135795702231084"><ele>337.0</ele><time>2026-04-19T13:01:46Z</time></trkpt><trkpt lat="37.900016669034045" lon="15.135770682756183"><ele>337.0</ele><time>2026-04-19T13:01:48Z</time></trkpt><trkpt lat="37.89994924743975" lon="15.135759463446108"><ele>337.0</ele><time>2026-04-19T13:01:49Z</time></trkpt><trkpt lat="37.89988267354978" lon="15.135748661117587"><ele>337.0</ele><time>2026-04-19T13:01:50Z</time></trkpt><trkpt lat="37.899816100313586" lon="15.135743804280398"><ele>337.0</ele><time>2026-04-19T13:01:51Z</time></trkpt><trkpt lat="37.8997424930534" lon="15.13573792494061"><ele>337.0</ele><time>2026-04-19T13:01:52Z</time></trkpt><trkpt lat="37.89966295664875" lon="15.13572820492735"><ele>337.0</ele><time>2026-04-19T13:01:53Z</time></trkpt><trkpt lat="37.89958073554391" lon="15.135717608137218"><ele>337.0</ele><time>2026-04-19T13:01:54Z</time></trkpt><trkpt lat="37.89949755182258" lon="15.135707046380865"><ele>337.0</ele><time>2026-04-19T13:01:55Z</time></trkpt><trkpt lat="37.89940558757384" lon="15.13569337520015"><ele>337.0</ele><time>2026-04-19T13:01:56Z</time></trkpt><trkpt lat="37.89930900124672" lon="15.135683199911437"><ele>337.0</ele><time>2026-04-19T13:01:57Z</time></trkpt><trkpt lat="37.89920518286416" lon="15.135672532084678"><ele>338.0</ele><time>2026-04-19T13:01:58Z</time></trkpt><trkpt lat="37.8990913596719" lon="15.13566262412457"><ele>339.0</ele><time>2026-04-19T13:01:59Z</time></trkpt><trkpt lat="37.89897313368099" lon="15.135647288108384"><ele>340.0</ele><time>2026-04-19T13:02:00Z</time></trkpt><trkpt lat="37.89885419927501" lon="15.135630577428138"><ele>341.0</ele><time>2026-04-19T13:02:01Z</time></trkpt><trkpt lat="37.898733042326334" lon="15.135619756961777"><ele>341.0</ele><time>2026-04-19T13:02:02Z</time></trkpt><trkpt lat="37.89861647086928" lon="15.135609014528507"><ele>341.0</ele><time>2026-04-19T13:02:03Z</time></trkpt><trkpt lat="37.8985055555725" lon="15.135576615427839"><ele>341.0</ele><time>2026-04-19T13:02:04Z</time></trkpt><trkpt lat="37.89838180876447" lon="15.135571122274703"><ele>341.0</ele><time>2026-04-19T13:02:05Z</time></trkpt><trkpt lat="37.89826355714352" lon="15.135545590041449"><ele>341.5</ele><time>2026-04-19T13:02:06Z</time></trkpt><trkpt lat="37.89813481907824" lon="15.135531346846385"><ele>342.0</ele><time>2026-04-19T13:02:07Z</time></trkpt><trkpt lat="37.89800449874164" lon="15.135536916847823"><ele>342.5</ele><time>2026-04-19T13:02:08Z</time></trkpt><trkpt lat="37.89787246360357" lon="15.135515967207796"><ele>343.0</ele><time>2026-04-19T13:02:09Z</time></trkpt><trkpt lat="37.89774262474194" lon="15.135513091491225"><ele>343.0</ele><time>2026-04-19T13:02:10Z</time></trkpt><trkpt lat="37.897610414824285" lon="15.135488488887843"><ele>343.0</ele><time>2026-04-19T13:02:11Z</time></trkpt><trkpt lat="37.8974830989948" lon="15.135462821303543"><ele>343.0</ele><time>2026-04-19T13:02:12Z</time></trkpt><trkpt lat="37.89735549907776" lon="15.135447066747734"><ele>343.0</ele><time>2026-04-19T13:02:13Z</time></trkpt><trkpt lat="37.89722949985242" lon="15.135446712718048"><ele>343.75</ele><time>2026-04-19T13:02:14Z</time></trkpt><trkpt lat="37.89711257853123" lon="15.135433565521417"><ele>344.5</ele><time>2026-04-19T13:02:15Z</time></trkpt><trkpt lat="37.8969990137223" lon="15.135417979735715"><ele>345.25</ele><time>2026-04-19T13:02:16Z</time></trkpt><trkpt lat="37.89689448787497" lon="15.13538872687373"><ele>346.0</ele><time>2026-04-19T13:02:17Z</time></trkpt><trkpt lat="37.89678801287028" lon="15.135319912212076"><ele>345.75</ele><time>2026-04-19T13:02:18Z</time></trkpt><trkpt lat="37.89668112366049" lon="15.13523273405315"><ele>345.5</ele><time>2026-04-19T13:02:19Z</time></trkpt><trkpt lat="37.89656269519784" lon="15.135130405857382"><ele>345.25</ele><time>2026-04-19T13:02:20Z</time></trkpt><trkpt lat="37.896442387856105" lon="15.13504478049483"><ele>345.0</ele><time>2026-04-19T13:02:21Z</time></trkpt><trkpt lat="37.89631785825142" lon="15.13497341565205"><ele>345.0</ele><time>2026-04-19T13:02:22Z</time></trkpt><trkpt lat="37.89618623790655" lon="15.134913142405182"><ele>345.0</ele><time>2026-04-19T13:02:23Z</time></trkpt><trkpt lat="37.896056485655556" lon="15.134850479258827"><ele>345.0</ele><time>2026-04-19T13:02:24Z</time></trkpt><trkpt lat="37.89593269880837" lon="15.134788719904193"><ele>345.0</ele><time>2026-04-19T13:02:25Z</time></trkpt><trkpt lat="37.89583186393229" lon="15.134731003445662"><ele>345.1666666666667</ele><time>2026-04-19T13:02:26Z</time></trkpt><trkpt lat="37.89575185196867" lon="15.134680003455864"><ele>345.3333333333333</ele><time>2026-04-19T13:02:27Z</time></trkpt><trkpt lat="37.89568182698033" lon="15.134627915793354"><ele>345.5</ele><time>2026-04-19T13:02:28Z</time></trkpt><trkpt lat="37.89563356848348" lon="15.134568814224508"><ele>345.66666666666663</ele><time>2026-04-19T13:02:29Z</time></trkpt><trkpt lat="37.8955964537645" lon="15.134493398304603"><ele>345.8333333333333</ele><time>2026-04-19T13:02:30Z</time></trkpt><trkpt lat="37.89556866247554" lon="15.134384255216773"><ele>346.0</ele><time>2026-04-19T13:02:31Z</time></trkpt><trkpt lat="37.89554768303521" lon="15.134263657039336"><ele>346.0</ele><time>2026-04-19T13:02:32Z</time></trkpt><trkpt lat="37.895503442499006" lon="15.134144982807506"><ele>346.0</ele><time>2026-04-19T13:02:33Z</time></trkpt><trkpt lat="37.89542361741763" lon="15.134041752056262"><ele>346.0</ele><time>2026-04-19T13:02:34Z</time></trkpt><trkpt lat="37.89531074704288" lon="15.133949249652504"><ele>346.0</ele><time>2026-04-19T13:02:35Z</time></trkpt><trkpt lat="37.89517735018021" lon="15.13385922698804"><ele>349.0</ele><time>2026-04-19T13:02:36Z</time></trkpt><trkpt lat="37.89504464704841" lon="15.13375109937554"><ele>352.0</ele><time>2026-04-19T13:02:37Z</time></trkpt><trkpt lat="37.894922180862" lon="15.133624953458643"><ele>355.0</ele><time>2026-04-19T13:02:38Z</time></trkpt><trkpt lat="37.894802256120336" lon="15.133501904641092"><ele>355.0</ele><time>2026-04-19T13:02:39Z</time></trkpt><trkpt lat="37.89468078738525" lon="15.133388983232566"><ele>355.0</ele><time>2026-04-19T13:02:40Z</time></trkpt><trkpt lat="37.89455753376729" lon="15.133288300555398"><ele>355.0</ele><time>2026-04-19T13:02:41Z</time></trkpt><trkpt lat="37.89443637402242" lon="15.133197687083083"><ele>355.0</ele><time>2026-04-19T13:02:42Z</time></trkpt><trkpt lat="37.89431563027847" lon="15.133117186789416"><ele>356.6</ele><time>2026-04-19T13:02:43Z</time></trkpt><trkpt lat="37.89420470979854" lon="15.133049685323508"><ele>358.2</ele><time>2026-04-19T13:02:44Z</time></trkpt><trkpt lat="37.89411518700884" lon="15.132992534788908"><ele>359.79999999999995</ele><time>2026-04-19T13:02:45Z</time></trkpt><trkpt lat="37.8940424056706" lon="15.132911522256183"><ele>361.4</ele><time>2026-04-19T13:02:46Z</time></trkpt><trkpt lat="37.89396644053652" lon="15.1328297857933"><ele>363.0</ele><time>2026-04-19T13:02:47Z</time></trkpt><trkpt lat="37.893890663419356" lon="15.132724625006444"><ele>363.0</ele><time>2026-04-19T13:02:48Z</time></trkpt><trkpt lat="37.89384754163657" lon="15.132571068244532"><ele>363.0</ele><time>2026-04-19T13:02:49Z</time></trkpt><trkpt lat="37.893790269362924" lon="15.132434243094721"><ele>363.0</ele><time>2026-04-19T13:02:50Z</time></trkpt><trkpt lat="37.8937185356392" lon="15.132335923285906"><ele>363.0</ele><time>2026-04-19T13:02:51Z</time></trkpt><trkpt lat="37.89365472746919" lon="15.132257967830576"><ele>363.0</ele><time>2026-04-19T13:02:52.001Z</time></trkpt><trkpt lat="37.89360847143814" lon="15.132165767305816"><ele>364.0</ele><time>2026-04-19T13:02:53.001Z</time></trkpt><trkpt lat="37.89358010158721" lon="15.132061024904868"><ele>365.0</ele><time>2026-04-19T13:02:54.001Z</time></trkpt><trkpt lat="37.89357134382627" lon="15.131943953579842"><ele>366.0</ele><time>2026-04-19T13:02:55.001Z</time></trkpt><trkpt lat="37.89357775284147" lon="15.131818177390794"><ele>367.0</ele><time>2026-04-19T13:02:56.001Z</time></trkpt><trkpt lat="37.893598593346965" lon="15.131695753410868"><ele>368.0</ele><time>2026-04-19T13:02:57.001Z</time></trkpt><trkpt lat="37.89362260442739" lon="15.131571989185288"><ele>368.2</ele><time>2026-04-19T13:02:58.001Z</time></trkpt><trkpt lat="37.89364380875733" lon="15.131461854837495"><ele>368.4</ele><time>2026-04-19T13:02:59.001Z</time></trkpt><trkpt lat="37.89366532807986" lon="15.13134728438285"><ele>368.59999999999997</ele><time>2026-04-19T13:03:00.001Z</time></trkpt><trkpt lat="37.893680116810856" lon="15.131228853782824"><ele>368.79999999999995</ele><time>2026-04-19T13:03:01.001Z</time></trkpt><trkpt lat="37.89368523239589" lon="15.131107556025604"><ele>369.0</ele><time>2026-04-19T13:03:02.001Z</time></trkpt><trkpt lat="37.89367461441951" lon="15.13098627357443"><ele>369.0</ele><time>2026-04-19T13:03:03.001Z</time></trkpt><trkpt lat="37.89366347841602" lon="15.13086468324969"><ele>369.0</ele><time>2026-04-19T13:03:04.001Z</time></trkpt><trkpt lat="37.89365468185207" lon="15.130739924496357"><ele>369.0</ele><time>2026-04-19T13:03:05.001Z</time></trkpt><trkpt lat="37.8936457737997" lon="15.130615385683328"><ele>369.0</ele><time>2026-04-19T13:03:06.001Z</time></trkpt><trkpt lat="37.893623055724724" lon="15.130496290852946"><ele>369.0</ele><time>2026-04-19T13:03:07.001Z</time></trkpt><trkpt lat="37.893582386897585" lon="15.13038705308547"><ele>369.6</ele><time>2026-04-19T13:03:08.001Z</time></trkpt><trkpt lat="37.89353386450265" lon="15.130281526245136"><ele>370.2</ele><time>2026-04-19T13:03:09.001Z</time></trkpt><trkpt lat="37.89349262558583" lon="15.13017183529057"><ele>370.8</ele><time>2026-04-19T13:03:10.001Z</time></trkpt><trkpt lat="37.89346865432768" lon="15.130053398406098"><ele>371.40000000000003</ele><time>2026-04-19T13:03:11.001Z</time></trkpt><trkpt lat="37.893464317902726" lon="15.129928356257144"><ele>372.0</ele><time>2026-04-19T13:03:12.001Z</time></trkpt><trkpt lat="37.89347849231021" lon="15.129804407525226"><ele>372.6</ele><time>2026-04-19T13:03:13.001Z</time></trkpt><trkpt lat="37.89351082619179" lon="15.129690356429593"><ele>373.20000000000005</ele><time>2026-04-19T13:03:14.001Z</time></trkpt><trkpt lat="37.89354186893116" lon="15.12960250665879"><ele>373.8</ele><time>2026-04-19T13:03:15.001Z</time></trkpt><trkpt lat="37.89357145290565" lon="15.129499994514662"><ele>374.4</ele><time>2026-04-19T13:03:16.001Z</time></trkpt><trkpt lat="37.89359305389279" lon="15.129368977880285"><ele>375.0</ele><time>2026-04-19T13:03:17.001Z</time></trkpt><trkpt lat="37.8935891552588" lon="15.129199775771745"><ele>376.3333333333333</ele><time>2026-04-19T13:03:18.001Z</time></trkpt><trkpt lat="37.89356257333887" lon="15.128996167719793"><ele>377.66666666666663</ele><time>2026-04-19T13:03:19.001Z</time></trkpt><trkpt lat="37.89352733532607" lon="15.128766508936044"><ele>379.0</ele><time>2026-04-19T13:03:20.001Z</time></trkpt><trkpt lat="37.893518505058545" lon="15.128533786334232"><ele>379.0</ele><time>2026-04-19T13:03:21.001Z</time></trkpt><trkpt lat="37.89349758764547" lon="15.12832437919911"><ele>379.0</ele><time>2026-04-19T13:03:22.001Z</time></trkpt><trkpt lat="37.89347821803298" lon="15.1281270276981"><ele>379.0</ele><time>2026-04-19T13:03:23.001Z</time></trkpt><trkpt lat="37.89345594635816" lon="15.127930123844227"><ele>380.3333333333333</ele><time>2026-04-19T13:03:24.001Z</time></trkpt><trkpt lat="37.893434699690864" lon="15.127736910442211"><ele>381.6666666666667</ele><time>2026-04-19T13:03:25.001Z</time></trkpt><trkpt lat="37.89339853020476" lon="15.127554198897972"><ele>383.0</ele><time>2026-04-19T13:03:26.001Z</time></trkpt><trkpt lat="37.8933480112294" lon="15.127376035733029"><ele>379.6666666666667</ele><time>2026-04-19T13:03:27.001Z</time></trkpt><trkpt lat="37.89328866723171" lon="15.127197667260925"><ele>376.3333333333333</ele><time>2026-04-19T13:03:28.001Z</time></trkpt><trkpt lat="37.89321698675115" lon="15.127024615684789"><ele>373.0</ele><time>2026-04-19T13:03:29.001Z</time></trkpt><trkpt lat="37.89313163140304" lon="15.126854018327313"><ele>373.0</ele><time>2026-04-19T13:03:30Z</time></trkpt><trkpt lat="37.89305204444954" lon="15.12666610520009"><ele>373.0</ele><time>2026-04-19T13:03:31Z</time></trkpt><trkpt lat="37.89298332991026" lon="15.126476270206224"><ele>373.0</ele><time>2026-04-19T13:03:32Z</time></trkpt><trkpt lat="37.8929197052158" lon="15.12628973072668"><ele>373.5</ele><time>2026-04-19T13:03:33Z</time></trkpt><trkpt lat="37.89284610217117" lon="15.12612662313087"><ele>374.0</ele><time>2026-04-19T13:03:34Z</time></trkpt><trkpt lat="37.89275303777485" lon="15.12599002626661"><ele>374.5</ele><time>2026-04-19T13:03:35Z</time></trkpt><trkpt lat="37.89267142804164" lon="15.125877797297687"><ele>375.0</ele><time>2026-04-19T13:03:36Z</time></trkpt><trkpt lat="37.89260740768521" lon="15.125755239943617"><ele>375.0</ele><time>2026-04-19T13:03:37Z</time></trkpt><trkpt lat="37.892579701905376" lon="15.125602340468204"><ele>375.0</ele><time>2026-04-19T13:03:38Z</time></trkpt><trkpt lat="37.892577544870385" lon="15.12543529685543"><ele>375.0</ele><time>2026-04-19T13:03:39Z</time></trkpt><trkpt lat="37.89257252705769" lon="15.125266100827979"><ele>375.0</ele><time>2026-04-19T13:03:40Z</time></trkpt><trkpt lat="37.89254835920138" lon="15.125084778844322"><ele>375.6666666666667</ele><time>2026-04-19T13:03:41Z</time></trkpt><trkpt lat="37.89252801697626" lon="15.124895180561264"><ele>376.33333333333337</ele><time>2026-04-19T13:03:42Z</time></trkpt><trkpt lat="37.89250230394282" lon="15.12470325957502"><ele>377.0</ele><time>2026-04-19T13:03:43Z</time></trkpt><trkpt lat="37.89244364948925" lon="15.124513424131491"><ele>377.0</ele><time>2026-04-19T13:03:44Z</time></trkpt><trkpt lat="37.89238185980527" lon="15.124328094913404"><ele>377.0</ele><time>2026-04-19T13:03:45Z</time></trkpt><trkpt lat="37.89232785366613" lon="15.124142278834963"><ele>377.0</ele><time>2026-04-19T13:03:46Z</time></trkpt><trkpt lat="37.892273781783814" lon="15.123949003986029"><ele>377.6666666666667</ele><time>2026-04-19T13:03:47Z</time></trkpt><trkpt lat="37.89222008647187" lon="15.123757942739566"><ele>378.3333333333333</ele><time>2026-04-19T13:03:48Z</time></trkpt><trkpt lat="37.89215956494736" lon="15.12357279364115"><ele>379.0</ele><time>2026-04-19T13:03:49Z</time></trkpt><trkpt lat="37.8920716964439" lon="15.123397134407446"><ele>379.3333333333333</ele><time>2026-04-19T13:03:50Z</time></trkpt><trkpt lat="37.89195422228874" lon="15.123227855448647"><ele>379.6666666666667</ele><time>2026-04-19T13:03:51Z</time></trkpt><trkpt lat="37.89183919695194" lon="15.123062278558503"><ele>380.0</ele><time>2026-04-19T13:03:52Z</time></trkpt><trkpt lat="37.89173369992763" lon="15.122894645851007"><ele>380.75</ele><time>2026-04-19T13:03:53Z</time></trkpt><trkpt lat="37.8916437992862" lon="15.122745287036398"><ele>381.5</ele><time>2026-04-19T13:03:54Z</time></trkpt><trkpt lat="37.8915688845852" lon="15.122606159021016"><ele>382.25</ele><time>2026-04-19T13:03:55Z</time></trkpt><trkpt lat="37.89152200351029" lon="15.12246347848853"><ele>383.0</ele><time>2026-04-19T13:03:56Z</time></trkpt><trkpt lat="37.891499635877345" lon="15.122288471455102"><ele>383.0</ele><time>2026-04-19T13:03:57Z</time></trkpt><trkpt lat="37.89148554282958" lon="15.122086534242435"><ele>383.0</ele><time>2026-04-19T13:03:58Z</time></trkpt><trkpt lat="37.89144433186556" lon="15.121870359016157"><ele>383.0</ele><time>2026-04-19T13:03:59Z</time></trkpt><trkpt lat="37.89139008081624" lon="15.121636294050216"><ele>383.0</ele><time>2026-04-19T13:04:00Z</time></trkpt><trkpt lat="37.891323586275895" lon="15.12141111355116"><ele>383.0</ele><time>2026-04-19T13:04:01Z</time></trkpt><trkpt lat="37.89125766690137" lon="15.121184320989725"><ele>383.0</ele><time>2026-04-19T13:04:02Z</time></trkpt><trkpt lat="37.89119664729261" lon="15.12094810457221"><ele>384.6666666666667</ele><time>2026-04-19T13:04:03Z</time></trkpt><trkpt lat="37.89113906535407" lon="15.120723769788263"><ele>386.33333333333337</ele><time>2026-04-19T13:04:04Z</time></trkpt><trkpt lat="37.891083411788166" lon="15.12051048948357"><ele>388.0</ele><time>2026-04-19T13:04:05Z</time></trkpt><trkpt lat="37.89103204726941" lon="15.120304054166125"><ele>388.0</ele><time>2026-04-19T13:04:06Z</time></trkpt><trkpt lat="37.890976096376036" lon="15.120133525002608"><ele>388.0</ele><time>2026-04-19T13:04:07Z</time></trkpt><trkpt lat="37.89090518640502" lon="15.119964574810073"><ele>388.0</ele><time>2026-04-19T13:04:08Z</time></trkpt><trkpt lat="37.890814871152585" lon="15.119793879361438"><ele>390.6666666666667</ele><time>2026-04-19T13:04:09Z</time></trkpt><trkpt lat="37.89071208371872" lon="15.119639997480204"><ele>393.33333333333337</ele><time>2026-04-19T13:04:10Z</time></trkpt><trkpt lat="37.89060632104634" lon="15.11949281893744"><ele>396.0</ele><time>2026-04-19T13:04:11Z</time></trkpt><trkpt lat="37.890505952118126" lon="15.119339271106888"><ele>396.0</ele><time>2026-04-19T13:04:12Z</time></trkpt><trkpt lat="37.89041285468374" lon="15.11917409008907"><ele>396.0</ele><time>2026-04-19T13:04:13Z</time></trkpt><trkpt lat="37.89032802320101" lon="15.118998710615893"><ele>396.0</ele><time>2026-04-19T13:04:14Z</time></trkpt><trkpt lat="37.89024521989451" lon="15.118822503704326"><ele>396.0</ele><time>2026-04-19T13:04:15Z</time></trkpt><trkpt lat="37.890158694198774" lon="15.118645821780726"><ele>396.0</ele><time>2026-04-19T13:04:16Z</time></trkpt><trkpt lat="37.8900673375192" lon="15.11846921593583"><ele>396.0</ele><time>2026-04-19T13:04:17Z</time></trkpt><trkpt lat="37.889967341778096" lon="15.118303049663103"><ele>397.25</ele><time>2026-04-19T13:04:18Z</time></trkpt><trkpt lat="37.88986300366176" lon="15.118157053639537"><ele>398.5</ele><time>2026-04-19T13:04:19Z</time></trkpt><trkpt lat="37.889785218153406" lon="15.118017707929994"><ele>399.75</ele><time>2026-04-19T13:04:20Z</time></trkpt><trkpt lat="37.889711005354705" lon="15.117903043475314"><ele>401.0</ele><time>2026-04-19T13:04:21Z</time></trkpt><trkpt lat="37.88966585994639" lon="15.117770487250977"><ele>400.99999999999994</ele><time>2026-04-19T13:04:22Z</time></trkpt><trkpt lat="37.889643856132494" lon="15.117653536415961"><ele>401.0</ele><time>2026-04-19T13:04:23Z</time></trkpt><trkpt lat="37.88964813278965" lon="15.11753364782412"><ele>401.0</ele><time>2026-04-19T13:04:25Z</time></trkpt><trkpt lat="37.889631108330434" lon="15.11742713906251"><ele>401.0</ele><time>2026-04-19T13:04:27Z</time></trkpt><trkpt lat="37.889615564778815" lon="15.117319726295683"><ele>400.99999999999994</ele><time>2026-04-19T13:04:29Z</time></trkpt><trkpt lat="37.88960899551951" lon="15.117227220393737"><ele>401.0</ele><time>2026-04-19T13:04:31Z</time></trkpt><trkpt lat="37.889602470537476" lon="15.117137485124447"><ele>401.3333333333333</ele><time>2026-04-19T13:04:34Z</time></trkpt><trkpt lat="37.88959809442666" lon="15.117050937815398"><ele>401.66666666666663</ele><time>2026-04-19T13:04:37Z</time></trkpt><trkpt lat="37.88958503637848" lon="15.11694603247788"><ele>402.0</ele><time>2026-04-19T13:04:39.001Z</time></trkpt><trkpt lat="37.88958696085061" lon="15.116855704785369"><ele>402.33333333333337</ele><time>2026-04-19T13:04:41.001Z</time></trkpt><trkpt lat="37.889545273337326" lon="15.116736896953567"><ele>402.6666666666667</ele><time>2026-04-19T13:04:43.001Z</time></trkpt><trkpt lat="37.889532310938286" lon="15.116655790059754"><ele>403.0</ele><time>2026-04-19T13:04:44.001Z</time></trkpt><trkpt lat="37.88948471894751" lon="15.1165817394363"><ele>403.4</ele><time>2026-04-19T13:04:45.001Z</time></trkpt><trkpt lat="37.889401465770696" lon="15.11653286152176"><ele>403.79999999999995</ele><time>2026-04-19T13:04:46.001Z</time></trkpt><trkpt lat="37.889288370512695" lon="15.116542818936725"><ele>404.2</ele><time>2026-04-19T13:04:47.001Z</time></trkpt><trkpt lat="37.88918083551253" lon="15.11659773102423"><ele>404.6</ele><time>2026-04-19T13:04:48.001Z</time></trkpt><trkpt lat="37.88906689799718" lon="15.116672708892297"><ele>405.0</ele><time>2026-04-19T13:04:49.001Z</time></trkpt><trkpt lat="37.888933554429805" lon="15.116772134871296"><ele>403.66666666666663</ele><time>2026-04-19T13:04:50.001Z</time></trkpt><trkpt lat="37.88878031762495" lon="15.116914253954844"><ele>402.3333333333333</ele><time>2026-04-19T13:04:51.001Z</time></trkpt><trkpt lat="37.88860167224159" lon="15.117085877233075"><ele>401.0</ele><time>2026-04-19T13:04:52.001Z</time></trkpt><trkpt lat="37.88840505771999" lon="15.117276714101298"><ele>401.0</ele><time>2026-04-19T13:04:53.001Z</time></trkpt><trkpt lat="37.88820782681971" lon="15.1174431935449"><ele>401.0</ele><time>2026-04-19T13:04:54.001Z</time></trkpt><trkpt lat="37.888031480963704" lon="15.11757560962587"><ele>401.0</ele><time>2026-04-19T13:04:55.001Z</time></trkpt><trkpt lat="37.88786843781723" lon="15.117701159262676"><ele>401.0</ele><time>2026-04-19T13:04:56.001Z</time></trkpt><trkpt lat="37.88770885604179" lon="15.117824043576395"><ele>401.0</ele><time>2026-04-19T13:04:57.001Z</time></trkpt><trkpt lat="37.88756446403364" lon="15.117934295792256"><ele>401.0</ele><time>2026-04-19T13:04:58.001Z</time></trkpt><trkpt lat="37.88743830862839" lon="15.118051277141697"><ele>402.20000000000005</ele><time>2026-04-19T13:04:59.001Z</time></trkpt><trkpt lat="37.88732035448402" lon="15.118140177857171"><ele>403.40000000000003</ele><time>2026-04-19T13:05:00.001Z</time></trkpt><trkpt lat="37.887230341545916" lon="15.118202347865246"><ele>404.6</ele><time>2026-04-19T13:05:01.001Z</time></trkpt><trkpt lat="37.88714432043275" lon="15.118241536168117"><ele>405.8</ele><time>2026-04-19T13:05:02.001Z</time></trkpt><trkpt lat="37.88705599605662" lon="15.118232021632817"><ele>407.0</ele><time>2026-04-19T13:05:03.001Z</time></trkpt><trkpt lat="37.88696087719197" lon="15.118184228531755"><ele>407.0</ele><time>2026-04-19T13:05:04.001Z</time></trkpt><trkpt lat="37.88689889561013" lon="15.118103152663304"><ele>407.0</ele><time>2026-04-19T13:05:05.001Z</time></trkpt><trkpt lat="37.88684109703254" lon="15.117975807660498"><ele>407.0</ele><time>2026-04-19T13:05:06.001Z</time></trkpt><trkpt lat="37.886759274798585" lon="15.117821629695078"><ele>407.0</ele><time>2026-04-19T13:05:07.001Z</time></trkpt><trkpt lat="37.88667911783579" lon="15.117651360456257"><ele>409.0</ele><time>2026-04-19T13:05:08.001Z</time></trkpt><trkpt lat="37.88659063153152" lon="15.117479438049719"><ele>411.0</ele><time>2026-04-19T13:05:09.001Z</time></trkpt><trkpt lat="37.88650088466113" lon="15.1173059415395"><ele>413.0</ele><time>2026-04-19T13:05:10.001Z</time></trkpt><trkpt lat="37.886410721477326" lon="15.1171218305514"><ele>413.0</ele><time>2026-04-19T13:05:11.001Z</time></trkpt><trkpt lat="37.88631693661928" lon="15.116936608577133"><ele>413.0</ele><time>2026-04-19T13:05:12.001Z</time></trkpt><trkpt lat="37.88622220628427" lon="15.116752810553058"><ele>413.0</ele><time>2026-04-19T13:05:13.001Z</time></trkpt><trkpt lat="37.88613587196546" lon="15.116580126663678"><ele>414.3333333333333</ele><time>2026-04-19T13:05:14.001Z</time></trkpt><trkpt lat="37.8860510376719" lon="15.116414141348942"><ele>415.66666666666663</ele><time>2026-04-19T13:05:15.001Z</time></trkpt><trkpt lat="37.88598967554533" lon="15.116245702036984"><ele>417.0</ele><time>2026-04-19T13:05:16.001Z</time></trkpt><trkpt lat="37.88598321044703" lon="15.116052985602511"><ele>417.0</ele><time>2026-04-19T13:05:17.001Z</time></trkpt><trkpt lat="37.885975746936104" lon="15.115858509479954"><ele>417.0</ele><time>2026-04-19T13:05:18.001Z</time></trkpt><trkpt lat="37.885981015891666" lon="15.115692147617066"><ele>417.0</ele><time>2026-04-19T13:05:19.001Z</time></trkpt><trkpt lat="37.885970746117074" lon="15.115576727046294"><ele>417.0</ele><time>2026-04-19T13:05:20.001Z</time></trkpt><trkpt lat="37.885926207310035" lon="15.115496476531758"><ele>417.0</ele><time>2026-04-19T13:05:21.001Z</time></trkpt><trkpt lat="37.88583692712089" lon="15.115435042559728"><ele>417.0</ele><time>2026-04-19T13:05:22.001Z</time></trkpt><trkpt lat="37.88570837152262" lon="15.115399338079339"><ele>417.0</ele><time>2026-04-19T13:05:23.001Z</time></trkpt><trkpt lat="37.88557713166109" lon="15.115352524310833"><ele>417.0</ele><time>2026-04-19T13:05:24.001Z</time></trkpt><trkpt lat="37.88544219600506" lon="15.115303743213211"><ele>417.0</ele><time>2026-04-19T13:05:25.001Z</time></trkpt><trkpt lat="37.88533082217184" lon="15.115261496982123"><ele>417.0</ele><time>2026-04-19T13:05:26.001Z</time></trkpt><trkpt lat="37.88525486210452" lon="15.115197910670702"><ele>417.0</ele><time>2026-04-19T13:05:27.001Z</time></trkpt><trkpt lat="37.88521943205936" lon="15.115085160953964"><ele>417.0</ele><time>2026-04-19T13:05:28.001Z</time></trkpt><trkpt lat="37.885220134323696" lon="15.114963549870557"><ele>417.0</ele><time>2026-04-19T13:05:29.001Z</time></trkpt><trkpt lat="37.88519761128282" lon="15.114864174236345"><ele>417.6</ele><time>2026-04-19T13:05:30.001Z</time></trkpt><trkpt lat="37.88514101109786" lon="15.114828818151777"><ele>418.20000000000005</ele><time>2026-04-19T13:05:31.001Z</time></trkpt><trkpt lat="37.88502663140501" lon="15.114814829932797"><ele>418.8</ele><time>2026-04-19T13:05:32.001Z</time></trkpt><trkpt lat="37.88489876892281" lon="15.11478211626883"><ele>419.4</ele><time>2026-04-19T13:05:33.001Z</time></trkpt><trkpt lat="37.884780988684945" lon="15.114748041128218"><ele>420.0</ele><time>2026-04-19T13:05:34.001Z</time></trkpt><trkpt lat="37.88466040510534" lon="15.114748990678905"><ele>420.0</ele><time>2026-04-19T13:05:35.001Z</time></trkpt><trkpt lat="37.884549651989026" lon="15.114814959127898"><ele>420.0</ele><time>2026-04-19T13:05:36Z</time></trkpt><trkpt lat="37.88444202124185" lon="15.114874023559455"><ele>420.0</ele><time>2026-04-19T13:05:37Z</time></trkpt><trkpt lat="37.884349853919055" lon="15.114921801909944"><ele>420.0</ele><time>2026-04-19T13:05:38Z</time></trkpt><trkpt lat="37.884249155309014" lon="15.114950742596204"><ele>420.0</ele><time>2026-04-19T13:05:39Z</time></trkpt><trkpt lat="37.88415523628227" lon="15.114918443193668"><ele>423.0</ele><time>2026-04-19T13:05:40Z</time></trkpt><trkpt lat="37.88408197374515" lon="15.11494631232785"><ele>426.0</ele><time>2026-04-19T13:05:41Z</time></trkpt><trkpt lat="37.884037149058585" lon="15.115059854941112"><ele>429.0</ele><time>2026-04-19T13:05:42Z</time></trkpt><trkpt lat="37.88401751680548" lon="15.115204840681876"><ele>432.0</ele><time>2026-04-19T13:05:43Z</time></trkpt><trkpt lat="37.88398140512632" lon="15.115333713274403"><ele>435.0</ele><time>2026-04-19T13:05:44Z</time></trkpt><trkpt lat="37.88390436219695" lon="15.115437974141082"><ele>435.0</ele><time>2026-04-19T13:05:45Z</time></trkpt><trkpt lat="37.883770778759" lon="15.115466451100106"><ele>435.0</ele><time>2026-04-19T13:05:46Z</time></trkpt><trkpt lat="37.8836332390869" lon="15.115538078987782"><ele>435.0</ele><time>2026-04-19T13:05:47Z</time></trkpt><trkpt lat="37.88352978954008" lon="15.115570648062224"><ele>435.0</ele><time>2026-04-19T13:05:48Z</time></trkpt><trkpt lat="37.88345626821041" lon="15.115583960622674"><ele>437.0</ele><time>2026-04-19T13:05:49Z</time></trkpt><trkpt lat="37.883389143358734" lon="15.115528972969273"><ele>439.0</ele><time>2026-04-19T13:05:50Z</time></trkpt><trkpt lat="37.88330320621355" lon="15.115403241579466"><ele>441.0</ele><time>2026-04-19T13:05:51Z</time></trkpt><trkpt lat="37.88317882232797" lon="15.11529096130687"><ele>443.0</ele><time>2026-04-19T13:05:52Z</time></trkpt><trkpt lat="37.883091240125204" lon="15.115176268842092"><ele>443.0</ele><time>2026-04-19T13:05:53Z</time></trkpt><trkpt lat="37.88305954898654" lon="15.115029293526428"><ele>443.0</ele><time>2026-04-19T13:05:54Z</time></trkpt><trkpt lat="37.88304141654665" lon="15.114866227509284"><ele>443.0</ele><time>2026-04-19T13:05:55Z</time></trkpt><trkpt lat="37.8830256957696" lon="15.114695376144258"><ele>443.0</ele><time>2026-04-19T13:05:56Z</time></trkpt><trkpt lat="37.88302824276316" lon="15.114559529755933"><ele>442.5</ele><time>2026-04-19T13:05:57Z</time></trkpt><trkpt lat="37.882994950615966" lon="15.114439801580888"><ele>442.0</ele><time>2026-04-19T13:05:58Z</time></trkpt><trkpt lat="37.88291284352282" lon="15.114328211070196"><ele>441.5</ele><time>2026-04-19T13:05:59Z</time></trkpt><trkpt lat="37.88278812562391" lon="15.114232082232082"><ele>441.0</ele><time>2026-04-19T13:06:00Z</time></trkpt><trkpt lat="37.882641165747756" lon="15.114143054911334"><ele>441.25</ele><time>2026-04-19T13:06:01Z</time></trkpt><trkpt lat="37.88250075087061" lon="15.114065845357445"><ele>441.5</ele><time>2026-04-19T13:06:02Z</time></trkpt><trkpt lat="37.8823640333076" lon="15.114031425025034"><ele>441.75</ele><time>2026-04-19T13:06:03Z</time></trkpt><trkpt lat="37.88222252861117" lon="15.114042228720695"><ele>442.0</ele><time>2026-04-19T13:06:04Z</time></trkpt><trkpt lat="37.88207670910443" lon="15.114091252304275"><ele>442.25</ele><time>2026-04-19T13:06:05Z</time></trkpt><trkpt lat="37.881935194504905" lon="15.114137831363466"><ele>442.5</ele><time>2026-04-19T13:06:06Z</time></trkpt><trkpt lat="37.8817942182952" lon="15.114140225441043"><ele>442.75</ele><time>2026-04-19T13:06:07Z</time></trkpt><trkpt lat="37.88167592359572" lon="15.114069236902557"><ele>443.0</ele><time>2026-04-19T13:06:08Z</time></trkpt><trkpt lat="37.8815638478936" lon="15.114002628782778"><ele>443.0</ele><time>2026-04-19T13:06:09Z</time></trkpt><trkpt lat="37.88145784398076" lon="15.113918223195537"><ele>442.99999999999994</ele><time>2026-04-19T13:06:10Z</time></trkpt><trkpt lat="37.88136316864416" lon="15.113858380323899"><ele>442.99999999999994</ele><time>2026-04-19T13:06:11Z</time></trkpt><trkpt lat="37.881284472068614" lon="15.113832539624457"><ele>443.0</ele><time>2026-04-19T13:06:12Z</time></trkpt><trkpt lat="37.88122248098581" lon="15.113855769591705"><ele>443.0</ele><time>2026-04-19T13:06:13Z</time></trkpt><trkpt lat="37.881175340722" lon="15.113929139724975"><ele>448.0</ele><time>2026-04-19T13:06:14Z</time></trkpt><trkpt lat="37.881241479010875" lon="15.114079133512037"><ele>453.0</ele><time>2026-04-19T13:06:16Z</time></trkpt><trkpt lat="37.881340309577084" lon="15.114136305114588"><ele>458.0</ele><time>2026-04-19T13:06:17Z</time></trkpt><trkpt lat="37.88144943184891" lon="15.11420138188543"><ele>463.0</ele><time>2026-04-19T13:06:18Z</time></trkpt><trkpt lat="37.881565089955814" lon="15.114288734511927"><ele>463.0</ele><time>2026-04-19T13:06:19Z</time></trkpt><trkpt lat="37.88168820314268" lon="15.11439511667669"><ele>463.0</ele><time>2026-04-19T13:06:20Z</time></trkpt><trkpt lat="37.881827297258205" lon="15.114507998907573"><ele>463.0</ele><time>2026-04-19T13:06:21Z</time></trkpt><trkpt lat="37.88196137175767" lon="15.114629810163965"><ele>463.25</ele><time>2026-04-19T13:06:22Z</time></trkpt><trkpt lat="37.8820760996842" lon="15.114753420537035"><ele>463.5</ele><time>2026-04-19T13:06:23Z</time></trkpt><trkpt lat="37.8821568002044" lon="15.114867508248853"><ele>463.75</ele><time>2026-04-19T13:06:24Z</time></trkpt><trkpt lat="37.88220268705627" lon="15.114992575786848"><ele>464.0</ele><time>2026-04-19T13:06:25Z</time></trkpt><trkpt lat="37.88221620349044" lon="15.115126452328814"><ele>464.0</ele><time>2026-04-19T13:06:26Z</time></trkpt><trkpt lat="37.88221180790443" lon="15.115290497800606"><ele>464.0</ele><time>2026-04-19T13:06:27Z</time></trkpt><trkpt lat="37.88219812484873" lon="15.115484797675332"><ele>464.0</ele><time>2026-04-19T13:06:28Z</time></trkpt><trkpt lat="37.882202947214246" lon="15.115687423307016"><ele>464.0</ele><time>2026-04-19T13:06:29Z</time></trkpt><trkpt lat="37.882262961225074" lon="15.115880992692645"><ele>467.3333333333333</ele><time>2026-04-19T13:06:30Z</time></trkpt><trkpt lat="37.88234475687289" lon="15.116073816939364"><ele>470.66666666666663</ele><time>2026-04-19T13:06:31Z</time></trkpt><trkpt lat="37.882417168705196" lon="15.116264317923271"><ele>474.0</ele><time>2026-04-19T13:06:32Z</time></trkpt><trkpt lat="37.88246465465949" lon="15.11645104025635"><ele>477.66666666666663</ele><time>2026-04-19T13:06:33Z</time></trkpt><trkpt lat="37.8824952989422" lon="15.116645682588217"><ele>481.3333333333333</ele><time>2026-04-19T13:06:34Z</time></trkpt><trkpt lat="37.88252710045852" lon="15.116842330523816"><ele>485.0</ele><time>2026-04-19T13:06:35Z</time></trkpt><trkpt lat="37.88258253001683" lon="15.117027574992832"><ele>483.6</ele><time>2026-04-19T13:06:36Z</time></trkpt><trkpt lat="37.88264139476195" lon="15.117179397057807"><ele>482.2</ele><time>2026-04-19T13:06:37Z</time></trkpt><trkpt lat="37.88269183966212" lon="15.117304274645699"><ele>480.79999999999995</ele><time>2026-04-19T13:06:38Z</time></trkpt><trkpt lat="37.8827589273945" lon="15.117393612094185"><ele>479.4</ele><time>2026-04-19T13:06:39.001Z</time></trkpt><trkpt lat="37.88286105587748" lon="15.117428314303295"><ele>478.0</ele><time>2026-04-19T13:06:40.001Z</time></trkpt><trkpt lat="37.88299665131435" lon="15.117419546506436"><ele>478.0</ele><time>2026-04-19T13:06:41.001Z</time></trkpt><trkpt lat="37.88315830059023" lon="15.117366351192343"><ele>478.0</ele><time>2026-04-19T13:06:42.001Z</time></trkpt><trkpt lat="37.88333570883561" lon="15.11727617927712"><ele>478.0</ele><time>2026-04-19T13:06:43.001Z</time></trkpt><trkpt lat="37.88351093334633" lon="15.117171135532447"><ele>478.79999999999995</ele><time>2026-04-19T13:06:44.001Z</time></trkpt><trkpt lat="37.88366159180053" lon="15.117102577573638"><ele>479.59999999999997</ele><time>2026-04-19T13:06:45.001Z</time></trkpt><trkpt lat="37.883783495777266" lon="15.117051200738448"><ele>480.40000000000003</ele><time>2026-04-19T13:06:46.001Z</time></trkpt><trkpt lat="37.88387460637938" lon="15.117017937636609"><ele>481.20000000000005</ele><time>2026-04-19T13:06:47.001Z</time></trkpt><trkpt lat="37.883938918109045" lon="15.117028624729372"><ele>482.0</ele><time>2026-04-19T13:06:48.001Z</time></trkpt><trkpt lat="37.88397978933653" lon="15.117089536771633"><ele>482.0</ele><time>2026-04-19T13:06:49.001Z</time></trkpt><trkpt lat="37.88401091483872" lon="15.11721350246022"><ele>482.0</ele><time>2026-04-19T13:06:50.001Z</time></trkpt><trkpt lat="37.88404223594138" lon="15.117362532925936"><ele>482.0</ele><time>2026-04-19T13:06:51.001Z</time></trkpt><trkpt lat="37.88411333150915" lon="15.117487908731325"><ele>482.0</ele><time>2026-04-19T13:06:52.001Z</time></trkpt><trkpt lat="37.88421707582449" lon="15.117569361629153"><ele>484.75</ele><time>2026-04-19T13:06:53.001Z</time></trkpt><trkpt lat="37.88433754398367" lon="15.11758221498551"><ele>487.5</ele><time>2026-04-19T13:06:54.001Z</time></trkpt><trkpt lat="37.88446213173606" lon="15.117529079235949"><ele>490.25</ele><time>2026-04-19T13:06:55.001Z</time></trkpt><trkpt lat="37.8845585787161" lon="15.117466225268007"><ele>493.0</ele><time>2026-04-19T13:06:56.001Z</time></trkpt><trkpt lat="37.88465095188875" lon="15.117473303982194"><ele>493.0</ele><time>2026-04-19T13:06:57.001Z</time></trkpt><trkpt lat="37.88470990297064" lon="15.117514170571416"><ele>492.99999999999994</ele><time>2026-04-19T13:06:58.001Z</time></trkpt><trkpt lat="37.88474127849295" lon="15.1176660578385"><ele>492.99999999999994</ele><time>2026-04-19T13:07:00.001Z</time></trkpt><trkpt lat="37.884711389301174" lon="15.117743830332229"><ele>493.0</ele><time>2026-04-19T13:07:01.001Z</time></trkpt><trkpt lat="37.88463281551727" lon="15.117771696548038"><ele>493.0</ele><time>2026-04-19T13:07:02.001Z</time></trkpt><trkpt lat="37.88451593344038" lon="15.117764166662836"><ele>493.0</ele><time>2026-04-19T13:07:03.001Z</time></trkpt><trkpt lat="37.88439374051453" lon="15.117763364872362"><ele>493.0</ele><time>2026-04-19T13:07:04.001Z</time></trkpt><trkpt lat="37.884269884776344" lon="15.117771989302017"><ele>493.0</ele><time>2026-04-19T13:07:05.001Z</time></trkpt><trkpt lat="37.884133635233226" lon="15.117765185718103"><ele>493.0</ele><time>2026-04-19T13:07:06.001Z</time></trkpt><trkpt lat="37.883987473507425" lon="15.117754699488117"><ele>495.5</ele><time>2026-04-19T13:07:07.001Z</time></trkpt><trkpt lat="37.88385449122048" lon="15.11775734236057"><ele>498.0</ele><time>2026-04-19T13:07:08.001Z</time></trkpt><trkpt lat="37.88375155346148" lon="15.117759080709885"><ele>500.5</ele><time>2026-04-19T13:07:09.001Z</time></trkpt><trkpt lat="37.88364943076984" lon="15.117819186200276"><ele>503.0</ele><time>2026-04-19T13:07:10.001Z</time></trkpt><trkpt lat="37.883559655603506" lon="15.117957464256722"><ele>503.0</ele><time>2026-04-19T13:07:11.001Z</time></trkpt><trkpt lat="37.883493931994224" lon="15.118138726300572"><ele>503.0</ele><time>2026-04-19T13:07:12.001Z</time></trkpt><trkpt lat="37.88344127997012" lon="15.118329651981547"><ele>503.0</ele><time>2026-04-19T13:07:13.001Z</time></trkpt><trkpt lat="37.88337591947141" lon="15.118491197178123"><ele>506.2</ele><time>2026-04-19T13:07:14.001Z</time></trkpt><trkpt lat="37.88330854060489" lon="15.118609154486455"><ele>509.4</ele><time>2026-04-19T13:07:15.001Z</time></trkpt><trkpt lat="37.88324776186644" lon="15.118697513232542"><ele>512.5999999999999</ele><time>2026-04-19T13:07:16.001Z</time></trkpt><trkpt lat="37.88318254092178" lon="15.118765412551658"><ele>515.8</ele><time>2026-04-19T13:07:17.001Z</time></trkpt><trkpt lat="37.88307237930051" lon="15.118760933641195"><ele>519.0</ele><time>2026-04-19T13:07:18.001Z</time></trkpt><trkpt lat="37.882951079724336" lon="15.118756997689841"><ele>519.0</ele><time>2026-04-19T13:07:19.001Z</time></trkpt><trkpt lat="37.88282278063098" lon="15.118728782606578"><ele>519.0</ele><time>2026-04-19T13:07:20.001Z</time></trkpt><trkpt lat="37.8827026744583" lon="15.118659327862447"><ele>519.0</ele><time>2026-04-19T13:07:21.001Z</time></trkpt><trkpt lat="37.882578110855434" lon="15.1185500659531"><ele>519.0</ele><time>2026-04-19T13:07:22.001Z</time></trkpt><trkpt lat="37.88244759073921" lon="15.118458936133395"><ele>520.2</ele><time>2026-04-19T13:07:23.001Z</time></trkpt><trkpt lat="37.88233906112982" lon="15.118394750969124"><ele>521.4</ele><time>2026-04-19T13:07:24.001Z</time></trkpt><trkpt lat="37.88224224352574" lon="15.11832552986515"><ele>522.6</ele><time>2026-04-19T13:07:25.001Z</time></trkpt><trkpt lat="37.88215992511748" lon="15.118272169664419"><ele>523.8</ele><time>2026-04-19T13:07:26.001Z</time></trkpt><trkpt lat="37.88206592703548" lon="15.118253350634324"><ele>525.0</ele><time>2026-04-19T13:07:27.001Z</time></trkpt><trkpt lat="37.8819761050123" lon="15.118273194100015"><ele>525.0</ele><time>2026-04-19T13:07:28.001Z</time></trkpt><trkpt lat="37.88190255950853" lon="15.11834070829933"><ele>525.0</ele><time>2026-04-19T13:07:29.001Z</time></trkpt><trkpt lat="37.881868681315815" lon="15.118438652821817"><ele>525.0</ele><time>2026-04-19T13:07:30.001Z</time></trkpt><trkpt lat="37.881866273207805" lon="15.118576131774999"><ele>525.0</ele><time>2026-04-19T13:07:31.001Z</time></trkpt><trkpt lat="37.88185972512622" lon="15.118745218779631"><ele>525.0</ele><time>2026-04-19T13:07:32.001Z</time></trkpt><trkpt lat="37.88183920132946" lon="15.118923682259895"><ele>527.0</ele><time>2026-04-19T13:07:33.001Z</time></trkpt><trkpt lat="37.88180268102645" lon="15.119118663652996"><ele>529.0</ele><time>2026-04-19T13:07:34.001Z</time></trkpt><trkpt lat="37.88177050763689" lon="15.119328109566593"><ele>531.0</ele><time>2026-04-19T13:07:35.001Z</time></trkpt><trkpt lat="37.881724130554176" lon="15.119491461412151"><ele>531.0</ele><time>2026-04-19T13:07:36.001Z</time></trkpt><trkpt lat="37.88171682746016" lon="15.119614970669913"><ele>531.0</ele><time>2026-04-19T13:07:37.001Z</time></trkpt><trkpt lat="37.88169975268692" lon="15.11970711773764"><ele>531.0</ele><time>2026-04-19T13:07:38.001Z</time></trkpt><trkpt lat="37.88164675129156" lon="15.11976849981875"><ele>531.0</ele><time>2026-04-19T13:07:42Z</time></trkpt><trkpt lat="37.881615465349284" lon="15.119871398152528"><ele>531.0</ele><time>2026-04-19T13:07:45Z</time></trkpt><trkpt lat="37.8816018665284" lon="15.119955092734028"><ele>531.0</ele><time>2026-04-19T13:07:47Z</time></trkpt><trkpt lat="37.88151385868562" lon="15.120004536985576"><ele>533.4</ele><time>2026-04-19T13:07:49Z</time></trkpt><trkpt lat="37.881447018894356" lon="15.120084145154754"><ele>535.8</ele><time>2026-04-19T13:07:51Z</time></trkpt><trkpt lat="37.881408192241466" lon="15.120202408757894"><ele>538.1999999999999</ele><time>2026-04-19T13:07:53Z</time></trkpt><trkpt lat="37.881338006452204" lon="15.120289829787717"><ele>540.6</ele><time>2026-04-19T13:07:55Z</time></trkpt><trkpt lat="37.8812573322152" lon="15.12031122539678"><ele>543.0</ele><time>2026-04-19T13:07:57Z</time></trkpt><trkpt lat="37.88118518420844" lon="15.120198197532138"><ele>543.0</ele><time>2026-04-19T13:07:59Z</time></trkpt><trkpt lat="37.88111846669459" lon="15.120132110470331"><ele>543.0</ele><time>2026-04-19T13:08:00Z</time></trkpt><trkpt lat="37.88103236564767" lon="15.120112808917558"><ele>543.0</ele><time>2026-04-19T13:08:01Z</time></trkpt><trkpt lat="37.880945854744134" lon="15.120109536321975"><ele>543.0</ele><time>2026-04-19T13:08:02Z</time></trkpt><trkpt lat="37.88085434827009" lon="15.120131376444167"><ele>543.0</ele><time>2026-04-19T13:08:03Z</time></trkpt><trkpt lat="37.880764280624426" lon="15.12015401006959"><ele>543.0</ele><time>2026-04-19T13:08:04Z</time></trkpt><trkpt lat="37.88069760516117" lon="15.120179885253672"><ele>538.6</ele><time>2026-04-19T13:08:05Z</time></trkpt><trkpt lat="37.88060386882554" lon="15.12029774096513"><ele>534.1999999999999</ele><time>2026-04-19T13:08:07Z</time></trkpt><trkpt lat="37.880575962254525" lon="15.120390739253125"><ele>529.8</ele><time>2026-04-19T13:08:08Z</time></trkpt><trkpt lat="37.88056824358833" lon="15.12049107282074"><ele>525.4</ele><time>2026-04-19T13:08:09Z</time></trkpt><trkpt lat="37.88056897559012" lon="15.12059472160068"><ele>521.0</ele><time>2026-04-19T13:08:10Z</time></trkpt><trkpt lat="37.88056128953146" lon="15.120699325877881"><ele>521.8333333333333</ele><time>2026-04-19T13:08:11Z</time></trkpt><trkpt lat="37.8805505269353" lon="15.120805247486313"><ele>522.6666666666666</ele><time>2026-04-19T13:08:12Z</time></trkpt><trkpt lat="37.880549219277604" lon="15.120908301206674"><ele>523.5</ele><time>2026-04-19T13:08:13Z</time></trkpt><trkpt lat="37.88056628831011" lon="15.120986604143042"><ele>524.3333333333334</ele><time>2026-04-19T13:08:14Z</time></trkpt><trkpt lat="37.88062734972497" lon="15.121075744619395"><ele>525.1666666666667</ele><time>2026-04-19T13:08:16Z</time></trkpt><trkpt lat="37.880690988374404" lon="15.121157192493637"><ele>526.0</ele><time>2026-04-19T13:08:18Z</time></trkpt><trkpt lat="37.88073666496649" lon="15.121295265270929"><ele>526.0</ele><time>2026-04-19T13:08:20Z</time></trkpt><trkpt lat="37.88073437509847" lon="15.121417463226132"><ele>526.0</ele><time>2026-04-19T13:08:22Z</time></trkpt><trkpt lat="37.88064932370624" lon="15.121504094486697"><ele>526.0</ele><time>2026-04-19T13:08:24Z</time></trkpt><trkpt lat="37.88061299701555" lon="15.121569450679496"><ele>526.0</ele><time>2026-04-19T13:08:25Z</time></trkpt><trkpt lat="37.8805566573582" lon="15.121627116799491"><ele>526.0</ele><time>2026-04-19T13:08:26Z</time></trkpt><trkpt lat="37.880496943981505" lon="15.12167390022651"><ele>526.0</ele><time>2026-04-19T13:08:27Z</time></trkpt><trkpt lat="37.88044159953859" lon="15.121720301026745"><ele>527.8333333333334</ele><time>2026-04-19T13:08:28Z</time></trkpt><trkpt lat="37.88038439542907" lon="15.12175913387688"><ele>529.6666666666667</ele><time>2026-04-19T13:08:29Z</time></trkpt><trkpt lat="37.88035272546142" lon="15.12187746005425"><ele>531.5</ele><time>2026-04-19T13:08:31Z</time></trkpt><trkpt lat="37.88037635249468" lon="15.12202625210299"><ele>533.3333333333334</ele><time>2026-04-19T13:08:33Z</time></trkpt><trkpt lat="37.88040196162853" lon="15.122108447469083"><ele>535.1666666666666</ele><time>2026-04-19T13:08:34Z</time></trkpt><trkpt lat="37.88042839849833" lon="15.122190537863561"><ele>537.0</ele><time>2026-04-19T13:08:35Z</time></trkpt><trkpt lat="37.88044887421347" lon="15.122281927040603"><ele>537.0</ele><time>2026-04-19T13:08:36Z</time></trkpt><trkpt lat="37.88046488474161" lon="15.122362879545982"><ele>537.0</ele><time>2026-04-19T13:08:37Z</time></trkpt><trkpt lat="37.8804617418884" lon="15.122480133380357"><ele>537.0</ele><time>2026-04-19T13:08:39Z</time></trkpt><trkpt lat="37.880404284492194" lon="15.122539236515676"><ele>537.0</ele><time>2026-04-19T13:08:41Z</time></trkpt><trkpt lat="37.88032531290436" lon="15.122628551292012"><ele>537.0</ele><time>2026-04-19T13:08:49.001Z</time></trkpt><trkpt lat="37.88028733084089" lon="15.122696737532324"><ele>537.0</ele><time>2026-04-19T13:08:50.001Z</time></trkpt><trkpt lat="37.88024905260511" lon="15.122769913661942"><ele>538.1666666666666</ele><time>2026-04-19T13:08:51.001Z</time></trkpt><trkpt lat="37.88020948600514" lon="15.122889926415956"><ele>539.3333333333334</ele><time>2026-04-19T13:08:53.001Z</time></trkpt><trkpt lat="37.8801600097924" lon="15.123014424605126"><ele>540.5</ele><time>2026-04-19T13:08:55.001Z</time></trkpt><trkpt lat="37.88010007610678" lon="15.123092674042283"><ele>541.6666666666667</ele><time>2026-04-19T13:08:57.001Z</time></trkpt><trkpt lat="37.88007272691469" lon="15.123168790140282"><ele>542.8333333333334</ele><time>2026-04-19T13:09:12.001Z</time></trkpt><trkpt lat="37.880038533363674" lon="15.123255177763628"><ele>544.0</ele><time>2026-04-19T13:09:14.001Z</time></trkpt><trkpt lat="37.88000381311181" lon="15.12332396698748"><ele>544.8333333333334</ele><time>2026-04-19T13:09:15.001Z</time></trkpt><trkpt lat="37.87996269653545" lon="15.123396081824238"><ele>545.6666666666667</ele><time>2026-04-19T13:09:16.001Z</time></trkpt><trkpt lat="37.879904874691064" lon="15.123497057334436"><ele>546.5</ele><time>2026-04-19T13:09:18.001Z</time></trkpt><trkpt lat="37.879891748420945" lon="15.12358296566334"><ele>547.3333333333334</ele><time>2026-04-19T13:09:21.001Z</time></trkpt><trkpt lat="37.87995732449898" lon="15.123570709752881"><ele>548.1666666666666</ele><time>2026-04-19T13:09:50Z</time></trkpt><trkpt lat="37.87998495521239" lon="15.123441142602802"><ele>549.0</ele><time>2026-04-19T13:09:53Z</time></trkpt><trkpt lat="37.880027963390766" lon="15.123327702502857"><ele>548.0</ele><time>2026-04-19T13:09:55Z</time></trkpt><trkpt lat="37.88009871301912" lon="15.12318996419595"><ele>547.0</ele><time>2026-04-19T13:09:57Z</time></trkpt><trkpt lat="37.88014204005191" lon="15.123122913334827"><ele>546.0</ele><time>2026-04-19T13:09:58Z</time></trkpt><trkpt lat="37.88021044047872" lon="15.122994914020156"><ele>545.0</ele><time>2026-04-19T13:10:00Z</time></trkpt><trkpt lat="37.88024581291768" lon="15.122909188456909"><ele>544.0</ele><time>2026-04-19T13:10:01Z</time></trkpt><trkpt lat="37.88027712221646" lon="15.122820984981562"><ele>544.0</ele><time>2026-04-19T13:10:02Z</time></trkpt><trkpt lat="37.88030817441367" lon="15.122746576671554"><ele>544.0</ele><time>2026-04-19T13:10:03Z</time></trkpt><trkpt lat="37.88037804957714" lon="15.122642416498564"><ele>544.0</ele><time>2026-04-19T13:10:05Z</time></trkpt><trkpt lat="37.880465396040606" lon="15.122524183589972"><ele>544.0</ele><time>2026-04-19T13:10:07Z</time></trkpt><trkpt lat="37.88050545936733" lon="15.122398490540856"><ele>544.0</ele><time>2026-04-19T13:10:09Z</time></trkpt><trkpt lat="37.880487766653715" lon="15.122268037058493"><ele>542.6</ele><time>2026-04-19T13:10:11Z</time></trkpt><trkpt lat="37.88045368156795" lon="15.122140647673383"><ele>541.2</ele><time>2026-04-19T13:10:13Z</time></trkpt><trkpt lat="37.88041370701322" lon="15.122019078208575"><ele>539.8000000000001</ele><time>2026-04-19T13:10:15Z</time></trkpt><trkpt lat="37.88038754731246" lon="15.121922794061447"><ele>538.4</ele><time>2026-04-19T13:10:17Z</time></trkpt><trkpt lat="37.88038976829531" lon="15.121808150195601"><ele>537.0</ele><time>2026-04-19T13:10:20Z</time></trkpt><trkpt lat="37.880327702843395" lon="15.1217458380024"><ele>537.0</ele><time>2026-04-19T13:10:21Z</time></trkpt><trkpt lat="37.880481195720684" lon="15.121713384259767"><ele>537.0</ele><time>2026-04-19T13:10:22Z</time></trkpt><trkpt lat="37.88054881066324" lon="15.121670446027252"><ele>537.0</ele><time>2026-04-19T13:10:23Z</time></trkpt><trkpt lat="37.88060464258347" lon="15.121622306265603"><ele>537.0</ele><time>2026-04-19T13:10:24Z</time></trkpt><trkpt lat="37.88067569479109" lon="15.121526314619908"><ele>537.0</ele><time>2026-04-19T13:10:26Z</time></trkpt><trkpt lat="37.88072449289496" lon="15.121449136975277"><ele>535.1666666666666</ele><time>2026-04-19T13:10:29Z</time></trkpt><trkpt lat="37.880770261087115" lon="15.121344959477657"><ele>533.3333333333334</ele><time>2026-04-19T13:10:59Z</time></trkpt><trkpt lat="37.88076380145205" lon="15.12122923194394"><ele>531.5</ele><time>2026-04-19T13:11:01Z</time></trkpt><trkpt lat="37.8807118658347" lon="15.121130437554292"><ele>529.6666666666667</ele><time>2026-04-19T13:11:03Z</time></trkpt><trkpt lat="37.88067304244025" lon="15.121067359394504"><ele>527.8333333333334</ele><time>2026-04-19T13:11:04Z</time></trkpt><trkpt lat="37.88060969132751" lon="15.120983090610842"><ele>526.0</ele><time>2026-04-19T13:11:06Z</time></trkpt><trkpt lat="37.88058786357921" lon="15.120873052535444"><ele>526.0</ele><time>2026-04-19T13:11:08Z</time></trkpt><trkpt lat="37.880587872414374" lon="15.120789127998476"><ele>526.0</ele><time>2026-04-19T13:11:10Z</time></trkpt><trkpt lat="37.8805998631942" lon="15.120679521956273"><ele>526.0</ele><time>2026-04-19T13:11:13.001Z</time></trkpt><trkpt lat="37.88062633440074" lon="15.120599104846931"><ele>526.0</ele><time>2026-04-19T13:11:16.001Z</time></trkpt><trkpt lat="37.88062241811107" lon="15.120492870060827"><ele>526.0</ele><time>2026-04-19T13:12:15Z</time></trkpt><trkpt lat="37.88064051861528" lon="15.120385900304305"><ele>526.0</ele><time>2026-04-19T13:12:18Z</time></trkpt><trkpt lat="37.88067526418103" lon="15.120302674834917"><ele>525.2857142857142</ele><time>2026-04-19T13:12:30Z</time></trkpt><trkpt lat="37.880709170741255" lon="15.12023364385432"><ele>524.5714285714286</ele><time>2026-04-19T13:12:34Z</time></trkpt><trkpt lat="37.88078277927174" lon="15.120195704750582"><ele>523.8571428571429</ele><time>2026-04-19T13:13:44.001Z</time></trkpt><trkpt lat="37.8808454498891" lon="15.120179227194233"><ele>523.1428571428571</ele><time>2026-04-19T13:13:45.001Z</time></trkpt><trkpt lat="37.88091913400427" lon="15.120165864845784"><ele>522.4285714285714</ele><time>2026-04-19T13:13:46.001Z</time></trkpt><trkpt lat="37.88099357555294" lon="15.120154584945636"><ele>521.7142857142857</ele><time>2026-04-19T13:13:47.001Z</time></trkpt><trkpt lat="37.881064495729625" lon="15.120154118339917"><ele>521.0</ele><time>2026-04-19T13:13:48.001Z</time></trkpt><trkpt lat="37.881155912291966" lon="15.12022732020296"><ele>524.6666666666666</ele><time>2026-04-19T13:13:50.001Z</time></trkpt><trkpt lat="37.881216905469245" lon="15.120322329563436"><ele>528.3333333333333</ele><time>2026-04-19T13:13:52.001Z</time></trkpt><trkpt lat="37.88125145310837" lon="15.12040968744644"><ele>532.0</ele><time>2026-04-19T13:13:54.001Z</time></trkpt><trkpt lat="37.88130005346455" lon="15.120543908103977"><ele>535.6666666666666</ele><time>2026-04-19T13:13:57.001Z</time></trkpt><trkpt lat="37.88129100427292" lon="15.120663645772513"><ele>539.3333333333334</ele><time>2026-04-19T13:13:59.001Z</time></trkpt><trkpt lat="37.88130205697266" lon="15.120742581776012"><ele>543.0</ele><time>2026-04-19T13:14:02Z</time></trkpt><trkpt lat="37.881320305715256" lon="15.120827482492942"><ele>543.0</ele><time>2026-04-19T13:14:17Z</time></trkpt><trkpt lat="37.88124907496672" lon="15.120916178223629"><ele>543.0</ele><time>2026-04-19T13:14:18Z</time></trkpt><trkpt lat="37.881220059134215" lon="15.120992642712148"><ele>543.0</ele><time>2026-04-19T13:14:20Z</time></trkpt><trkpt lat="37.881161405288374" lon="15.121038277066031"><ele>543.0</ele><time>2026-04-19T13:14:24Z</time></trkpt><trkpt lat="37.8812340791694" lon="15.120970245929495"><ele>543.0</ele><time>2026-04-19T13:14:32Z</time></trkpt><trkpt lat="37.8812771530634" lon="15.120833485252934"><ele>543.0</ele><time>2026-04-19T13:14:34Z</time></trkpt><trkpt lat="37.88130247170112" lon="15.120698610379794"><ele>543.0</ele><time>2026-04-19T13:14:36Z</time></trkpt><trkpt lat="37.881292971528744" lon="15.120562674033259"><ele>543.0</ele><time>2026-04-19T13:14:38Z</time></trkpt><trkpt lat="37.88127442223791" lon="15.120415928280767"><ele>543.0</ele><time>2026-04-19T13:14:40Z</time></trkpt><trkpt lat="37.88127708577101" lon="15.120299087706131"><ele>543.0</ele><time>2026-04-19T13:14:42Z</time></trkpt><trkpt lat="37.88122684515602" lon="15.120364169269871"><ele>543.0</ele><time>2026-04-19T13:14:43Z</time></trkpt><trkpt lat="37.881181973884196" lon="15.1202779335935"><ele>531.0</ele><time>2026-04-19T13:14:47Z</time></trkpt><trkpt lat="37.88166858375273" lon="15.119773278014366"><ele>531.0</ele><time>2026-04-19T13:14:56Z</time></trkpt><trkpt lat="37.88165384997424" lon="15.119899740115097"><ele>531.0</ele><time>2026-04-19T13:14:59Z</time></trkpt><trkpt lat="37.88164009936205" lon="15.119980910823227"><ele>531.0</ele><time>2026-04-19T13:15:00Z</time></trkpt><trkpt lat="37.88163307116727" lon="15.12009221371766"><ele>531.0</ele><time>2026-04-19T13:15:01Z</time></trkpt><trkpt lat="37.8816074924066" lon="15.12021102384006"><ele>531.0</ele><time>2026-04-19T13:15:02Z</time></trkpt><trkpt lat="37.88158885368791" lon="15.120341172450702"><ele>533.4</ele><time>2026-04-19T13:15:03Z</time></trkpt><trkpt lat="37.88156951283261" lon="15.120470476517031"><ele>535.8</ele><time>2026-04-19T13:15:04Z</time></trkpt><trkpt lat="37.88155551752093" lon="15.120608158707487"><ele>538.1999999999999</ele><time>2026-04-19T13:15:05Z</time></trkpt><trkpt lat="37.881558844694695" lon="15.120755639235501"><ele>540.6</ele><time>2026-04-19T13:15:06Z</time></trkpt><trkpt lat="37.88157197482779" lon="15.120904829494094"><ele>543.0</ele><time>2026-04-19T13:15:07Z</time></trkpt><trkpt lat="37.881565157646854" lon="15.12105538108544"><ele>546.5</ele><time>2026-04-19T13:15:08Z</time></trkpt><trkpt lat="37.881580732305416" lon="15.12120348669147"><ele>550.0</ele><time>2026-04-19T13:15:09Z</time></trkpt><trkpt lat="37.88158189207767" lon="15.121357613601951"><ele>553.5</ele><time>2026-04-19T13:15:10Z</time></trkpt><trkpt lat="37.881581419828144" lon="15.121506222045026"><ele>557.0</ele><time>2026-04-19T13:15:11Z</time></trkpt><trkpt lat="37.881581114930036" lon="15.121649683171436"><ele>557.6666666666666</ele><time>2026-04-19T13:15:12Z</time></trkpt><trkpt lat="37.88157407000299" lon="15.121780854872942"><ele>558.3333333333333</ele><time>2026-04-19T13:15:13Z</time></trkpt><trkpt lat="37.881561856049075" lon="15.121900060362531"><ele>559.0</ele><time>2026-04-19T13:15:14Z</time></trkpt><trkpt lat="37.88154090375759" lon="15.122000605849134"><ele>559.6666666666666</ele><time>2026-04-19T13:15:15Z</time></trkpt><trkpt lat="37.88148732946712" lon="15.122071663597916"><ele>560.3333333333334</ele><time>2026-04-19T13:15:16Z</time></trkpt><trkpt lat="37.88146784984754" lon="15.122159164866034"><ele>561.0</ele><time>2026-04-19T13:15:17Z</time></trkpt><trkpt lat="37.881430662883965" lon="15.122242616199793"><ele>561.0</ele><time>2026-04-19T13:15:18Z</time></trkpt><trkpt lat="37.88141301624317" lon="15.122336971136875"><ele>561.0</ele><time>2026-04-19T13:15:19Z</time></trkpt><trkpt lat="37.88141001510657" lon="15.122441974394846"><ele>561.0</ele><time>2026-04-19T13:15:20Z</time></trkpt><trkpt lat="37.88141626759849" lon="15.12255346557871"><ele>561.0</ele><time>2026-04-19T13:15:21Z</time></trkpt><trkpt lat="37.8814127155284" lon="15.122669566389174"><ele>561.0</ele><time>2026-04-19T13:15:22Z</time></trkpt><trkpt lat="37.88138638683236" lon="15.122780654806183"><ele>561.0</ele><time>2026-04-19T13:15:23Z</time></trkpt><trkpt lat="37.88134211908862" lon="15.122885907842154"><ele>562.8</ele><time>2026-04-19T13:15:24Z</time></trkpt><trkpt lat="37.88129584603007" lon="15.12299851786209"><ele>564.6</ele><time>2026-04-19T13:15:25Z</time></trkpt><trkpt lat="37.88125883124553" lon="15.123122838727316"><ele>566.4</ele><time>2026-04-19T13:15:26Z</time></trkpt><trkpt lat="37.88122027174736" lon="15.123246435390502"><ele>568.2</ele><time>2026-04-19T13:15:27Z</time></trkpt><trkpt lat="37.88119018305251" lon="15.123363959544612"><ele>570.0</ele><time>2026-04-19T13:15:28Z</time></trkpt><trkpt lat="37.881161860088056" lon="15.123458431669214"><ele>571.1666666666666</ele><time>2026-04-19T13:15:29Z</time></trkpt><trkpt lat="37.88114014240027" lon="15.123540082592854"><ele>572.3333333333334</ele><time>2026-04-19T13:15:30Z</time></trkpt><trkpt lat="37.881105778079345" lon="15.123679769918523"><ele>573.5</ele><time>2026-04-19T13:15:32Z</time></trkpt><trkpt lat="37.8810533235569" lon="15.123804394180201"><ele>574.6666666666667</ele><time>2026-04-19T13:15:34Z</time></trkpt><trkpt lat="37.88101760354948" lon="15.123870196597052"><ele>575.8333333333334</ele><time>2026-04-19T13:15:35Z</time></trkpt><trkpt lat="37.8809746352742" lon="15.123937016636841"><ele>577.0</ele><time>2026-04-19T13:15:36Z</time></trkpt><trkpt lat="37.88090810123162" lon="15.124057793123207"><ele>574.2</ele><time>2026-04-19T13:15:38Z</time></trkpt><trkpt lat="37.880844093721485" lon="15.124135983967035"><ele>571.4000000000001</ele><time>2026-04-19T13:15:40Z</time></trkpt><trkpt lat="37.880736145854954" lon="15.12414264030554"><ele>568.5999999999999</ele><time>2026-04-19T13:15:42Z</time></trkpt><trkpt lat="37.88064993077719" lon="15.124128669719514"><ele>565.8</ele><time>2026-04-19T13:15:44Z</time></trkpt><trkpt lat="37.8805611235683" lon="15.124125125397944"><ele>563.0</ele><time>2026-04-19T13:15:46Z</time></trkpt><trkpt lat="37.880449141662154" lon="15.12413303418236"><ele>563.0</ele><time>2026-04-19T13:15:48Z</time></trkpt><trkpt lat="37.88038113324038" lon="15.124122863545171"><ele>563.0</ele><time>2026-04-19T13:15:49Z</time></trkpt><trkpt lat="37.88030664575303" lon="15.12410465681959"><ele>563.0</ele><time>2026-04-19T13:15:50Z</time></trkpt><trkpt lat="37.88022809373343" lon="15.124095563932793"><ele>563.0</ele><time>2026-04-19T13:15:51Z</time></trkpt><trkpt lat="37.880137590457764" lon="15.124085840976798"><ele>563.0</ele><time>2026-04-19T13:15:52Z</time></trkpt><trkpt lat="37.880038564320415" lon="15.124070865559526"><ele>563.0</ele><time>2026-04-19T13:15:53Z</time></trkpt><trkpt lat="37.87993840184665" lon="15.124055653198047"><ele>560.6666666666666</ele><time>2026-04-19T13:15:54Z</time></trkpt><trkpt lat="37.87985432709143" lon="15.124040501834061"><ele>558.3333333333333</ele><time>2026-04-19T13:15:55Z</time></trkpt><trkpt lat="37.87978066572891" lon="15.124002212328362"><ele>556.0</ele><time>2026-04-19T13:15:56Z</time></trkpt><trkpt lat="37.87972893880213" lon="15.12395309312997"><ele>553.6666666666666</ele><time>2026-04-19T13:15:57Z</time></trkpt><trkpt lat="37.87972153396362" lon="15.123861832282726"><ele>551.3333333333334</ele><time>2026-04-19T13:15:58Z</time></trkpt><trkpt lat="37.879696733866965" lon="15.123753949080617"><ele>549.0</ele><time>2026-04-19T13:15:59Z</time></trkpt><trkpt lat="37.879693936305756" lon="15.123628215508777"><ele>549.0</ele><time>2026-04-19T13:16:00Z</time></trkpt><trkpt lat="37.87967036181866" lon="15.123511263661527"><ele>549.0</ele><time>2026-04-19T13:16:01Z</time></trkpt><trkpt lat="37.879653007798794" lon="15.123383190226342"><ele>549.0</ele><time>2026-04-19T13:16:02.001Z</time></trkpt><trkpt lat="37.879643540994635" lon="15.123255708797172"><ele>549.0</ele><time>2026-04-19T13:16:03.001Z</time></trkpt><trkpt lat="37.87963568047416" lon="15.123145515459603"><ele>549.0</ele><time>2026-04-19T13:16:04.001Z</time></trkpt><trkpt lat="37.87963976638866" lon="15.12304560326903"><ele>548.1666666666666</ele><time>2026-04-19T13:16:05.001Z</time></trkpt><trkpt lat="37.8796500311902" lon="15.12295832325957"><ele>547.3333333333334</ele><time>2026-04-19T13:16:06Z</time></trkpt><trkpt lat="37.87967806546917" lon="15.122879216132178"><ele>546.5</ele><time>2026-04-19T13:16:07Z</time></trkpt><trkpt lat="37.87969949016569" lon="15.122795340844746"><ele>545.6666666666667</ele><time>2026-04-19T13:16:08Z</time></trkpt><trkpt lat="37.87971715829856" lon="15.122688534502293"><ele>544.8333333333334</ele><time>2026-04-19T13:16:09Z</time></trkpt><trkpt lat="37.87974849649895" lon="15.122576420447023"><ele>544.0</ele><time>2026-04-19T13:16:10Z</time></trkpt><trkpt lat="37.87976991633097" lon="15.122458189250986"><ele>543.0</ele><time>2026-04-19T13:16:11Z</time></trkpt><trkpt lat="37.87979836714448" lon="15.122346846223712"><ele>542.0</ele><time>2026-04-19T13:16:12Z</time></trkpt><trkpt lat="37.87983398198534" lon="15.122240680344891"><ele>541.0</ele><time>2026-04-19T13:16:13Z</time></trkpt><trkpt lat="37.879868055002795" lon="15.122147822169284"><ele>540.0</ele><time>2026-04-19T13:16:14Z</time></trkpt><trkpt lat="37.879899381645586" lon="15.122059693725378"><ele>539.0</ele><time>2026-04-19T13:16:15Z</time></trkpt><trkpt lat="37.879927717521156" lon="15.121974086041181"><ele>538.0</ele><time>2026-04-19T13:16:16Z</time></trkpt><trkpt lat="37.8799534294664" lon="15.121884937858665"><ele>538.0</ele><time>2026-04-19T13:16:17Z</time></trkpt><trkpt lat="37.87998207248986" lon="15.121794664021508"><ele>538.0</ele><time>2026-04-19T13:16:18Z</time></trkpt><trkpt lat="37.88000906849198" lon="15.12170751883577"><ele>538.0</ele><time>2026-04-19T13:16:19Z</time></trkpt><trkpt lat="37.88003536485607" lon="15.121620597101453"><ele>538.0</ele><time>2026-04-19T13:16:20Z</time></trkpt><trkpt lat="37.88004875725994" lon="15.1215411030148"><ele>538.0</ele><time>2026-04-19T13:16:21Z</time></trkpt><trkpt lat="37.880033997639565" lon="15.121458360235646"><ele>538.0</ele><time>2026-04-19T13:16:22Z</time></trkpt><trkpt lat="37.879990766004106" lon="15.12138194079736"><ele>538.0</ele><time>2026-04-19T13:16:23Z</time></trkpt><trkpt lat="37.87993452260421" lon="15.121306890272598"><ele>537.0</ele><time>2026-04-19T13:16:24Z</time></trkpt><trkpt lat="37.8798901365212" lon="15.121226281444063"><ele>536.0</ele><time>2026-04-19T13:16:25Z</time></trkpt><trkpt lat="37.87984688258561" lon="15.121138018041494"><ele>535.0</ele><time>2026-04-19T13:16:26Z</time></trkpt><trkpt lat="37.87979263503915" lon="15.121053301152395"><ele>534.0</ele><time>2026-04-19T13:16:27Z</time></trkpt><trkpt lat="37.87971206046824" lon="15.120992566091564"><ele>533.0</ele><time>2026-04-19T13:16:28Z</time></trkpt><trkpt lat="37.879613223580726" lon="15.120984124993145"><ele>532.0</ele><time>2026-04-19T13:16:29Z</time></trkpt><trkpt lat="37.87951745923624" lon="15.121019366423042"><ele>532.0</ele><time>2026-04-19T13:16:30Z</time></trkpt><trkpt lat="37.879418492399864" lon="15.121055427478565"><ele>532.0</ele><time>2026-04-19T13:16:31Z</time></trkpt><trkpt lat="37.879312818011414" lon="15.121038052218406"><ele>532.0</ele><time>2026-04-19T13:16:32Z</time></trkpt><trkpt lat="37.8792174083481" lon="15.121001584365468"><ele>532.0</ele><time>2026-04-19T13:16:33Z</time></trkpt><trkpt lat="37.879149352400525" lon="15.120956972713662"><ele>532.0</ele><time>2026-04-19T13:16:34Z</time></trkpt><trkpt lat="37.87914077947456" lon="15.120835779181707"><ele>531.0</ele><time>2026-04-19T13:16:36Z</time></trkpt><trkpt lat="37.87926284880353" lon="15.120726669467894"><ele>530.0</ele><time>2026-04-19T13:16:38Z</time></trkpt><trkpt lat="37.87933023187702" lon="15.120657687485114"><ele>529.0</ele><time>2026-04-19T13:16:39Z</time></trkpt><trkpt lat="37.87938536497293" lon="15.120567825607813"><ele>528.0</ele><time>2026-04-19T13:16:40Z</time></trkpt><trkpt lat="37.8794076477008" lon="15.120465606422632"><ele>527.0</ele><time>2026-04-19T13:16:41Z</time></trkpt><trkpt lat="37.87937605805364" lon="15.12036460668063"><ele>527.0</ele><time>2026-04-19T13:16:42Z</time></trkpt><trkpt lat="37.87930493819014" lon="15.120299038348097"><ele>527.0</ele><time>2026-04-19T13:16:43Z</time></trkpt><trkpt lat="37.879215882967515" lon="15.120290091425957"><ele>527.0</ele><time>2026-04-19T13:16:44Z</time></trkpt><trkpt lat="37.87911456441623" lon="15.120314960850704"><ele>527.0</ele><time>2026-04-19T13:16:45Z</time></trkpt><trkpt lat="37.8790004625371" lon="15.120318802041924"><ele>527.0</ele><time>2026-04-19T13:16:46Z</time></trkpt><trkpt lat="37.87889334586628" lon="15.120329750866723"><ele>532.5</ele><time>2026-04-19T13:16:47Z</time></trkpt><trkpt lat="37.878790380846596" lon="15.120265065514479"><ele>538.0</ele><time>2026-04-19T13:16:48Z</time></trkpt><trkpt lat="37.878699860207824" lon="15.120155922168335"><ele>543.5</ele><time>2026-04-19T13:16:49Z</time></trkpt><trkpt lat="37.87860633462962" lon="15.120065438584385"><ele>549.0</ele><time>2026-04-19T13:16:50Z</time></trkpt><trkpt lat="37.878491408883036" lon="15.12002140636135"><ele>552.8333333333334</ele><time>2026-04-19T13:16:51Z</time></trkpt><trkpt lat="37.87838153362801" lon="15.12002298798831"><ele>556.6666666666666</ele><time>2026-04-19T13:16:52Z</time></trkpt><trkpt lat="37.87830347687082" lon="15.119985176332095"><ele>560.5</ele><time>2026-04-19T13:16:53Z</time></trkpt><trkpt lat="37.878235193586015" lon="15.119961978331778"><ele>564.3333333333333</ele><time>2026-04-19T13:16:54Z</time></trkpt><trkpt lat="37.87819035271901" lon="15.119894813309289"><ele>568.1666666666666</ele><time>2026-04-19T13:16:55Z</time></trkpt><trkpt lat="37.87818255201786" lon="15.119804569089533"><ele>572.0</ele><time>2026-04-19T13:16:56Z</time></trkpt><trkpt lat="37.87821376044843" lon="15.119707289329153"><ele>572.2</ele><time>2026-04-19T13:16:57Z</time></trkpt><trkpt lat="37.8782811256436" lon="15.119618623227346"><ele>572.4000000000001</ele><time>2026-04-19T13:16:58Z</time></trkpt><trkpt lat="37.87837519488766" lon="15.119556198017557"><ele>572.5999999999999</ele><time>2026-04-19T13:16:59Z</time></trkpt><trkpt lat="37.8784771569246" lon="15.119504637657604"><ele>572.8</ele><time>2026-04-19T13:17:00Z</time></trkpt><trkpt lat="37.87857966052567" lon="15.119467378239722"><ele>573.0</ele><time>2026-04-19T13:17:01Z</time></trkpt><trkpt lat="37.87865521554562" lon="15.119431002487165"><ele>573.0</ele><time>2026-04-19T13:17:02Z</time></trkpt><trkpt lat="37.87865687658762" lon="15.11927967929565"><ele>573.0</ele><time>2026-04-19T13:17:04Z</time></trkpt><trkpt lat="37.8785791905758" lon="15.11921067113419"><ele>573.0</ele><time>2026-04-19T13:17:05Z</time></trkpt><trkpt lat="37.8784729068893" lon="15.119170470324608"><ele>573.0</ele><time>2026-04-19T13:17:06Z</time></trkpt><trkpt lat="37.878368077217445" lon="15.119112051822878"><ele>573.0</ele><time>2026-04-19T13:17:07Z</time></trkpt><trkpt lat="37.878260307790114" lon="15.119003922726595"><ele>570.3333333333334</ele><time>2026-04-19T13:17:08Z</time></trkpt><trkpt lat="37.87814785835357" lon="15.118863503571326"><ele>567.6666666666667</ele><time>2026-04-19T13:17:09Z</time></trkpt><trkpt lat="37.87800937010478" lon="15.118752115909844"><ele>565.0</ele><time>2026-04-19T13:17:10Z</time></trkpt><trkpt lat="37.87784035896962" lon="15.118681989739148"><ele>565.0</ele><time>2026-04-19T13:17:11Z</time></trkpt><trkpt lat="37.87768311858554" lon="15.118580864512639"><ele>565.0</ele><time>2026-04-19T13:17:12Z</time></trkpt><trkpt lat="37.87754642728515" lon="15.11843911326362"><ele>565.0</ele><time>2026-04-19T13:17:13Z</time></trkpt><trkpt lat="37.87741954391607" lon="15.11828791717942"><ele>567.5</ele><time>2026-04-19T13:17:14Z</time></trkpt><trkpt lat="37.87730717650976" lon="15.118148754733136"><ele>570.0</ele><time>2026-04-19T13:17:15Z</time></trkpt><trkpt lat="37.87722258113371" lon="15.118000486888677"><ele>572.5</ele><time>2026-04-19T13:17:16Z</time></trkpt><trkpt lat="37.87717504571332" lon="15.117824928899381"><ele>575.0</ele><time>2026-04-19T13:17:17Z</time></trkpt><trkpt lat="37.87716441305023" lon="15.117632836421613"><ele>575.0</ele><time>2026-04-19T13:17:18Z</time></trkpt><trkpt lat="37.87715992912489" lon="15.11748592217973"><ele>575.0</ele><time>2026-04-19T13:17:19Z</time></trkpt><trkpt lat="37.87713771967198" lon="15.117375928176171"><ele>575.0</ele><time>2026-04-19T13:17:20Z</time></trkpt><trkpt lat="37.8771022028466" lon="15.117297782148958"><ele>575.0</ele><time>2026-04-19T13:17:21Z</time></trkpt><trkpt lat="37.87703772793815" lon="15.117276580999528"><ele>575.0</ele><time>2026-04-19T13:17:22Z</time></trkpt><trkpt lat="37.87696169943824" lon="15.11729649782928"><ele>575.0</ele><time>2026-04-19T13:17:23Z</time></trkpt><trkpt lat="37.87691120170322" lon="15.11743188984185"><ele>575.0</ele><time>2026-04-19T13:17:24Z</time></trkpt><trkpt lat="37.876881369211446" lon="15.117584151614366"><ele>575.0</ele><time>2026-04-19T13:17:25Z</time></trkpt><trkpt lat="37.876827796244164" lon="15.117734299090616"><ele>575.0</ele><time>2026-04-19T13:17:26Z</time></trkpt><trkpt lat="37.87672374530489" lon="15.117863479897151"><ele>575.0</ele><time>2026-04-19T13:17:27Z</time></trkpt><trkpt lat="37.87660833623729" lon="15.118001756018787"><ele>577.3333333333333</ele><time>2026-04-19T13:17:28Z</time></trkpt><trkpt lat="37.87647880375655" lon="15.11813683882474"><ele>579.6666666666666</ele><time>2026-04-19T13:17:29Z</time></trkpt><trkpt lat="37.87634504676688" lon="15.118252699215851"><ele>582.0</ele><time>2026-04-19T13:17:30Z</time></trkpt><trkpt lat="37.8762330211287" lon="15.118343232577207"><ele>588.0</ele><time>2026-04-19T13:17:31Z</time></trkpt><trkpt lat="37.87609403794207" lon="15.11835180597461"><ele>594.0</ele><time>2026-04-19T13:17:32Z</time></trkpt><trkpt lat="37.87593843661143" lon="15.118373370554762"><ele>600.0</ele><time>2026-04-19T13:17:33Z</time></trkpt><trkpt lat="37.87578787035891" lon="15.118432012445751"><ele>600.0</ele><time>2026-04-19T13:17:34Z</time></trkpt><trkpt lat="37.875664139889224" lon="15.118489963648102"><ele>600.0</ele><time>2026-04-19T13:17:35Z</time></trkpt><trkpt lat="37.875533153306485" lon="15.118488135413129"><ele>600.0</ele><time>2026-04-19T13:17:36Z</time></trkpt><trkpt lat="37.87539438571558" lon="15.118422491443201"><ele>600.0</ele><time>2026-04-19T13:17:37Z</time></trkpt><trkpt lat="37.87526954844659" lon="15.118342332742907"><ele>600.0</ele><time>2026-04-19T13:17:38Z</time></trkpt><trkpt lat="37.87516214222353" lon="15.118283170799355"><ele>600.0</ele><time>2026-04-19T13:17:39Z</time></trkpt><trkpt lat="37.875069383045734" lon="15.118245830077793"><ele>600.0</ele><time>2026-04-19T13:17:40Z</time></trkpt><trkpt lat="37.87497391683376" lon="15.118239546653317"><ele>600.0</ele><time>2026-04-19T13:17:41Z</time></trkpt><trkpt lat="37.87488239387502" lon="15.118285991989302"><ele>600.0</ele><time>2026-04-19T13:17:42Z</time></trkpt><trkpt lat="37.87481732185898" lon="15.118381747306673"><ele>600.0</ele><time>2026-04-19T13:17:43Z</time></trkpt><trkpt lat="37.87479903490877" lon="15.118501933165385"><ele>600.0</ele><time>2026-04-19T13:17:44Z</time></trkpt><trkpt lat="37.87483865126097" lon="15.118617309513045"><ele>600.0</ele><time>2026-04-19T13:17:45Z</time></trkpt><trkpt lat="37.874926198793105" lon="15.118703452042336"><ele>600.0</ele><time>2026-04-19T13:17:46Z</time></trkpt><trkpt lat="37.875044982561015" lon="15.118748341907182"><ele>600.0</ele><time>2026-04-19T13:17:47Z</time></trkpt><trkpt lat="37.87518025589006" lon="15.118785830330127"><ele>600.0</ele><time>2026-04-19T13:17:48Z</time></trkpt><trkpt lat="37.87530342673354" lon="15.118838572190384"><ele>600.0</ele><time>2026-04-19T13:17:49Z</time></trkpt><trkpt lat="37.87542490612151" lon="15.118887133946314"><ele>600.0</ele><time>2026-04-19T13:17:50Z</time></trkpt><trkpt lat="37.87552232835713" lon="15.1189467542257"><ele>600.0</ele><time>2026-04-19T13:17:51Z</time></trkpt><trkpt lat="37.87559305071538" lon="15.119042118846"><ele>603.6</ele><time>2026-04-19T13:17:52Z</time></trkpt><trkpt lat="37.875634293700436" lon="15.11916939816368"><ele>607.2</ele><time>2026-04-19T13:17:53Z</time></trkpt><trkpt lat="37.8756400798157" lon="15.119302937990165"><ele>610.8</ele><time>2026-04-19T13:17:54Z</time></trkpt><trkpt lat="37.87562795155582" lon="15.119454805350129"><ele>614.4</ele><time>2026-04-19T13:17:55Z</time></trkpt><trkpt lat="37.875613296280484" lon="15.119598676170847"><ele>618.0</ele><time>2026-04-19T13:17:56Z</time></trkpt><trkpt lat="37.8755959390111" lon="15.119697445634532"><ele>618.0</ele><time>2026-04-19T13:17:57Z</time></trkpt><trkpt lat="37.875545513355384" lon="15.11976736132014"><ele>618.0</ele><time>2026-04-19T13:17:58Z</time></trkpt><trkpt lat="37.87546376153344" lon="15.119794978787473"><ele>618.0</ele><time>2026-04-19T13:17:59Z</time></trkpt><trkpt lat="37.875376862851645" lon="15.119772104319226"><ele>618.0</ele><time>2026-04-19T13:18:00Z</time></trkpt><trkpt lat="37.8753337139045" lon="15.119676661752111"><ele>618.0</ele><time>2026-04-19T13:18:01Z</time></trkpt><trkpt lat="37.87530565887795" lon="15.119579824234684"><ele>618.0</ele><time>2026-04-19T13:18:02Z</time></trkpt><trkpt lat="37.8753081075144" lon="15.119450986695139"><ele>618.0</ele><time>2026-04-19T13:18:03Z</time></trkpt><trkpt lat="37.87528045797623" lon="15.119349995336824"><ele>618.0</ele><time>2026-04-19T13:18:04Z</time></trkpt><trkpt lat="37.875202770015335" lon="15.119265287518093"><ele>618.0</ele><time>2026-04-19T13:18:05Z</time></trkpt><trkpt lat="37.87510421584908" lon="15.119203652906728"><ele>618.0</ele><time>2026-04-19T13:18:06Z</time></trkpt><trkpt lat="37.874986998193656" lon="15.119164381231334"><ele>618.0</ele><time>2026-04-19T13:18:07Z</time></trkpt><trkpt lat="37.87486485319742" lon="15.119156582968294"><ele>621.3333333333334</ele><time>2026-04-19T13:18:08Z</time></trkpt><trkpt lat="37.87472356665611" lon="15.11915941300627"><ele>624.6666666666667</ele><time>2026-04-19T13:18:09Z</time></trkpt><trkpt lat="37.87455966640921" lon="15.119155303372688"><ele>628.0</ele><time>2026-04-19T13:18:10Z</time></trkpt><trkpt lat="37.87438422383266" lon="15.119149428271072"><ele>632.0</ele><time>2026-04-19T13:18:11Z</time></trkpt><trkpt lat="37.87421664194661" lon="15.119148626200971"><ele>636.0</ele><time>2026-04-19T13:18:12Z</time></trkpt><trkpt lat="37.87406909085751" lon="15.119137893445963"><ele>640.0</ele><time>2026-04-19T13:18:13Z</time></trkpt><trkpt lat="37.87393393660748" lon="15.119088141810632"><ele>634.0</ele><time>2026-04-19T13:18:14Z</time></trkpt><trkpt lat="37.873830021330605" lon="15.118969086475941"><ele>628.0</ele><time>2026-04-19T13:18:15Z</time></trkpt><trkpt lat="37.8737016305556" lon="15.118853247525635"><ele>622.0</ele><time>2026-04-19T13:18:16Z</time></trkpt><trkpt lat="37.873546279517086" lon="15.118750285296592"><ele>626.3333333333334</ele><time>2026-04-19T13:18:17Z</time></trkpt><trkpt lat="37.87337046525022" lon="15.11866951965367"><ele>630.6666666666666</ele><time>2026-04-19T13:18:18Z</time></trkpt><trkpt lat="37.87319368079508" lon="15.118596210713227"><ele>635.0</ele><time>2026-04-19T13:18:19Z</time></trkpt><trkpt lat="37.87302971472881" lon="15.118541006018887"><ele>635.0</ele><time>2026-04-19T13:18:20Z</time></trkpt><trkpt lat="37.872891181975575" lon="15.11852115107648"><ele>635.0</ele><time>2026-04-19T13:18:21Z</time></trkpt><trkpt lat="37.8727595766148" lon="15.118523119138455"><ele>635.0</ele><time>2026-04-19T13:18:22Z</time></trkpt><trkpt lat="37.872649373555205" lon="15.118502466760477"><ele>635.0</ele><time>2026-04-19T13:18:23Z</time></trkpt><trkpt lat="37.87255517503595" lon="15.118423674355544"><ele>634.25</ele><time>2026-04-19T13:18:24Z</time></trkpt><trkpt lat="37.87248060900389" lon="15.118299096707661"><ele>633.5</ele><time>2026-04-19T13:18:25Z</time></trkpt><trkpt lat="37.87243099606336" lon="15.118181431579458"><ele>632.75</ele><time>2026-04-19T13:18:26Z</time></trkpt><trkpt lat="37.87234122392474" lon="15.11811388927527"><ele>632.0</ele><time>2026-04-19T13:18:27Z</time></trkpt><trkpt lat="37.87222186951571" lon="15.1181104921491"><ele>632.0</ele><time>2026-04-19T13:18:28Z</time></trkpt><trkpt lat="37.87211251408016" lon="15.118167390460508"><ele>632.0</ele><time>2026-04-19T13:18:29Z</time></trkpt><trkpt lat="37.872041070581005" lon="15.118246542764588"><ele>632.0</ele><time>2026-04-19T13:18:30Z</time></trkpt><trkpt lat="37.87201970194038" lon="15.11835761748492"><ele>632.0</ele><time>2026-04-19T13:18:31Z</time></trkpt><trkpt lat="37.8720565540031" lon="15.118482952748678"><ele>632.0</ele><time>2026-04-19T13:18:32Z</time></trkpt><trkpt lat="37.87214273128451" lon="15.118602221486784"><ele>637.3333333333333</ele><time>2026-04-19T13:18:33Z</time></trkpt><trkpt lat="37.87225730032467" lon="15.118717396775937"><ele>642.6666666666666</ele><time>2026-04-19T13:18:34Z</time></trkpt><trkpt lat="37.872376976810834" lon="15.118834326731031"><ele>648.0</ele><time>2026-04-19T13:18:35Z</time></trkpt><trkpt lat="37.8725242775858" lon="15.11895701524843"><ele>651.0</ele><time>2026-04-19T13:18:36Z</time></trkpt><trkpt lat="37.872686544356576" lon="15.119073489158245"><ele>654.0</ele><time>2026-04-19T13:18:37Z</time></trkpt><trkpt lat="37.87283679714177" lon="15.119159066401544"><ele>657.0</ele><time>2026-04-19T13:18:38Z</time></trkpt><trkpt lat="37.87297877883333" lon="15.119236526363485"><ele>657.0</ele><time>2026-04-19T13:18:39Z</time></trkpt><trkpt lat="37.87309026443754" lon="15.1193253919731"><ele>657.0</ele><time>2026-04-19T13:18:40Z</time></trkpt><trkpt lat="37.873191800716214" lon="15.119454744179107"><ele>657.0</ele><time>2026-04-19T13:18:41Z</time></trkpt><trkpt lat="37.87328231670943" lon="15.119623222094319"><ele>657.0</ele><time>2026-04-19T13:18:42Z</time></trkpt><trkpt lat="37.87337135702216" lon="15.119794194628287"><ele>656.25</ele><time>2026-04-19T13:18:43Z</time></trkpt><trkpt lat="37.87346042158281" lon="15.119951224845876"><ele>655.5</ele><time>2026-04-19T13:18:44Z</time></trkpt><trkpt lat="37.87352706777814" lon="15.120082930953732"><ele>654.75</ele><time>2026-04-19T13:18:45Z</time></trkpt><trkpt lat="37.87356581481849" lon="15.120208142439436"><ele>654.0</ele><time>2026-04-19T13:18:46Z</time></trkpt><trkpt lat="37.873567833708776" lon="15.120318550000032"><ele>654.0</ele><time>2026-04-19T13:18:47Z</time></trkpt><trkpt lat="37.873526429550026" lon="15.120416127879896"><ele>654.0</ele><time>2026-04-19T13:18:48Z</time></trkpt><trkpt lat="37.87344971949274" lon="15.120484464465369"><ele>654.0</ele><time>2026-04-19T13:18:49Z</time></trkpt><trkpt lat="37.873364694630716" lon="15.120489729938123"><ele>654.0</ele><time>2026-04-19T13:18:50Z</time></trkpt><trkpt lat="37.87328399958456" lon="15.12041923517145"><ele>654.0</ele><time>2026-04-19T13:18:51Z</time></trkpt><trkpt lat="37.8732194223477" lon="15.12029109088322"><ele>655.0</ele><time>2026-04-19T13:18:52Z</time></trkpt><trkpt lat="37.87314329529385" lon="15.120135686742852"><ele>656.0</ele><time>2026-04-19T13:18:53Z</time></trkpt><trkpt lat="37.87303255217447" lon="15.120007205417227"><ele>657.0</ele><time>2026-04-19T13:18:54Z</time></trkpt><trkpt lat="37.87292408515606" lon="15.11985680394425"><ele>657.0</ele><time>2026-04-19T13:18:55Z</time></trkpt><trkpt lat="37.87283840961757" lon="15.119727706255162"><ele>657.0</ele><time>2026-04-19T13:18:56Z</time></trkpt><trkpt lat="37.87275865521852" lon="15.119621467774902"><ele>657.0</ele><time>2026-04-19T13:18:57Z</time></trkpt><trkpt lat="37.872658686121405" lon="15.119548576519282"><ele>657.0</ele><time>2026-04-19T13:18:58Z</time></trkpt><trkpt lat="37.872527166577925" lon="15.11952388846364"><ele>660.0</ele><time>2026-04-19T13:18:59Z</time></trkpt><trkpt lat="37.872384197577205" lon="15.11952638490408"><ele>663.0</ele><time>2026-04-19T13:19:00Z</time></trkpt><trkpt lat="37.87225161962955" lon="15.119524161086833"><ele>666.0</ele><time>2026-04-19T13:19:01Z</time></trkpt><trkpt lat="37.87212054367843" lon="15.11955027565988"><ele>669.0</ele><time>2026-04-19T13:19:02Z</time></trkpt><trkpt lat="37.87199776443654" lon="15.119617634295755"><ele>669.0</ele><time>2026-04-19T13:19:03Z</time></trkpt><trkpt lat="37.871883785282975" lon="15.119727201756483"><ele>669.0</ele><time>2026-04-19T13:19:04Z</time></trkpt><trkpt lat="37.871768114091836" lon="15.119848781102515"><ele>669.0</ele><time>2026-04-19T13:19:05Z</time></trkpt><trkpt lat="37.87164051288599" lon="15.119959298783506"><ele>669.0</ele><time>2026-04-19T13:19:06Z</time></trkpt><trkpt lat="37.871509388554486" lon="15.120061065203814"><ele>679.0</ele><time>2026-04-19T13:19:07Z</time></trkpt><trkpt lat="37.87138005243501" lon="15.120172768438868"><ele>689.0</ele><time>2026-04-19T13:19:08Z</time></trkpt><trkpt lat="37.87125392116143" lon="15.120299214913038"><ele>699.0</ele><time>2026-04-19T13:19:09Z</time></trkpt><trkpt lat="37.871124841993904" lon="15.12043673254304"><ele>699.0</ele><time>2026-04-19T13:19:10Z</time></trkpt><trkpt lat="37.87098634151042" lon="15.120574871633538"><ele>699.0</ele><time>2026-04-19T13:19:11Z</time></trkpt><trkpt lat="37.87084569155829" lon="15.120711672404523"><ele>699.0</ele><time>2026-04-19T13:19:12Z</time></trkpt><trkpt lat="37.870716013739916" lon="15.120839892196036"><ele>696.5</ele><time>2026-04-19T13:19:13Z</time></trkpt><trkpt lat="37.87059728041857" lon="15.120958147249404"><ele>694.0</ele><time>2026-04-19T13:19:14Z</time></trkpt><trkpt lat="37.87049058907874" lon="15.121064305344204"><ele>691.5</ele><time>2026-04-19T13:19:15Z</time></trkpt><trkpt lat="37.87040100650111" lon="15.121149220381298"><ele>689.0</ele><time>2026-04-19T13:19:16Z</time></trkpt><trkpt lat="37.870319048313036" lon="15.121214329552545"><ele>689.0</ele><time>2026-04-19T13:19:17Z</time></trkpt><trkpt lat="37.870233273405155" lon="15.121228211127793"><ele>689.0</ele><time>2026-04-19T13:19:18Z</time></trkpt><trkpt lat="37.870154589653744" lon="15.121185266121891"><ele>689.0</ele><time>2026-04-19T13:19:19Z</time></trkpt><trkpt lat="37.870098345882646" lon="15.121085749806925"><ele>689.0</ele><time>2026-04-19T13:19:20Z</time></trkpt><trkpt lat="37.870045828899826" lon="15.120958323591532"><ele>689.0</ele><time>2026-04-19T13:19:21Z</time></trkpt><trkpt lat="37.8699337412064" lon="15.120862318204413"><ele>687.3333333333333</ele><time>2026-04-19T13:19:22Z</time></trkpt><trkpt lat="37.86978355927578" lon="15.120813223507907"><ele>685.6666666666666</ele><time>2026-04-19T13:19:23Z</time></trkpt><trkpt lat="37.8696247917976" lon="15.120806359216477"><ele>684.0</ele><time>2026-04-19T13:19:24Z</time></trkpt><trkpt lat="37.86948279939319" lon="15.120847173713338"><ele>684.0</ele><time>2026-04-19T13:19:25Z</time></trkpt><trkpt lat="37.86934783417605" lon="15.120900105581105"><ele>684.0</ele><time>2026-04-19T13:19:26Z</time></trkpt><trkpt lat="37.869234950360216" lon="15.120936356173898"><ele>684.0</ele><time>2026-04-19T13:19:27Z</time></trkpt><trkpt lat="37.86912632937755" lon="15.12097220738621"><ele>684.0</ele><time>2026-04-19T13:19:28Z</time></trkpt><trkpt lat="37.869014106213086" lon="15.121004366137024"><ele>681.5</ele><time>2026-04-19T13:19:29Z</time></trkpt><trkpt lat="37.868883283088564" lon="15.120999257686366"><ele>679.0</ele><time>2026-04-19T13:19:30Z</time></trkpt><trkpt lat="37.868741367823226" lon="15.120963468493235"><ele>676.5</ele><time>2026-04-19T13:19:31Z</time></trkpt><trkpt lat="37.868591806273315" lon="15.120955948694503"><ele>674.0</ele><time>2026-04-19T13:19:32Z</time></trkpt><trkpt lat="37.86843322003452" lon="15.121017823927316"><ele>668.0</ele><time>2026-04-19T13:19:33Z</time></trkpt><trkpt lat="37.86825349910439" lon="15.12110445520319"><ele>662.0</ele><time>2026-04-19T13:19:34Z</time></trkpt><trkpt lat="37.86806757732309" lon="15.121184636204944"><ele>656.0</ele><time>2026-04-19T13:19:35Z</time></trkpt><trkpt lat="37.86787836757976" lon="15.121259659495365"><ele>656.0</ele><time>2026-04-19T13:19:36Z</time></trkpt><trkpt lat="37.86770000934448" lon="15.12132918113076"><ele>656.0</ele><time>2026-04-19T13:19:37Z</time></trkpt><trkpt lat="37.86751603843643" lon="15.121405058864093"><ele>656.0</ele><time>2026-04-19T13:19:38Z</time></trkpt><trkpt lat="37.867335535129314" lon="15.121497291268767"><ele>653.3333333333333</ele><time>2026-04-19T13:19:39Z</time></trkpt><trkpt lat="37.867166911323366" lon="15.121618531788345"><ele>650.6666666666666</ele><time>2026-04-19T13:19:40Z</time></trkpt><trkpt lat="37.86701042766054" lon="15.121744855538143"><ele>648.0</ele><time>2026-04-19T13:19:41Z</time></trkpt><trkpt lat="37.866850613209856" lon="15.121868971731375"><ele>646.0</ele><time>2026-04-19T13:19:42Z</time></trkpt><trkpt lat="37.86669532069299" lon="15.121997158431755"><ele>644.0</ele><time>2026-04-19T13:19:43Z</time></trkpt><trkpt lat="37.866563070927086" lon="15.12213682602697"><ele>642.0</ele><time>2026-04-19T13:19:44Z</time></trkpt><trkpt lat="37.86644949823423" lon="15.122277424966398"><ele>642.0</ele><time>2026-04-19T13:19:45Z</time></trkpt><trkpt lat="37.86635479812908" lon="15.122392270989582"><ele>642.0</ele><time>2026-04-19T13:19:46Z</time></trkpt><trkpt lat="37.866268741715736" lon="15.12247528251226"><ele>642.0</ele><time>2026-04-19T13:19:47Z</time></trkpt><trkpt lat="37.866182654125865" lon="15.122522691861812"><ele>642.0</ele><time>2026-04-19T13:19:48Z</time></trkpt><trkpt lat="37.86608332107598" lon="15.122534055688245"><ele>642.0</ele><time>2026-04-19T13:19:49Z</time></trkpt><trkpt lat="37.86597483509697" lon="15.122486770705303"><ele>639.3333333333334</ele><time>2026-04-19T13:19:50Z</time></trkpt><trkpt lat="37.86584192770491" lon="15.122418862965123"><ele>636.6666666666667</ele><time>2026-04-19T13:19:51Z</time></trkpt><trkpt lat="37.865698322408036" lon="15.122358755451524"><ele>634.0</ele><time>2026-04-19T13:19:52Z</time></trkpt><trkpt lat="37.86555490908042" lon="15.122279613721036"><ele>633.6666666666667</ele><time>2026-04-19T13:19:53Z</time></trkpt><trkpt lat="37.865403856466486" lon="15.122203607616067"><ele>633.3333333333334</ele><time>2026-04-19T13:19:54Z</time></trkpt><trkpt lat="37.86522792824102" lon="15.122135851467885"><ele>633.0</ele><time>2026-04-19T13:19:55Z</time></trkpt><trkpt lat="37.865021157893864" lon="15.122092195183564"><ele>633.0</ele><time>2026-04-19T13:19:56Z</time></trkpt><trkpt lat="37.86479144701783" lon="15.1220508706671"><ele>633.0</ele><time>2026-04-19T13:19:57Z</time></trkpt><trkpt lat="37.864555199267656" lon="15.121996690654306"><ele>633.0</ele><time>2026-04-19T13:19:58Z</time></trkpt><trkpt lat="37.8643165990782" lon="15.121947218592668"><ele>633.0</ele><time>2026-04-19T13:19:59Z</time></trkpt><trkpt lat="37.86408820381912" lon="15.121904027305137"><ele>632.0</ele><time>2026-04-19T13:20:00Z</time></trkpt><trkpt lat="37.8638815750821" lon="15.12185752147281"><ele>631.0</ele><time>2026-04-19T13:20:01Z</time></trkpt><trkpt lat="37.863682668568764" lon="15.12181292700626"><ele>630.0</ele><time>2026-04-19T13:20:02Z</time></trkpt><trkpt lat="37.86349156008743" lon="15.12177396767716"><ele>630.3333333333334</ele><time>2026-04-19T13:20:03Z</time></trkpt><trkpt lat="37.863292068348095" lon="15.12173655222611"><ele>630.6666666666667</ele><time>2026-04-19T13:20:04Z</time></trkpt><trkpt lat="37.86309468021106" lon="15.121700528563156"><ele>631.0</ele><time>2026-04-19T13:20:05Z</time></trkpt><trkpt lat="37.86291452659244" lon="15.121662866541705"><ele>631.0</ele><time>2026-04-19T13:20:06Z</time></trkpt><trkpt lat="37.86273499606812" lon="15.121620964445796"><ele>631.0</ele><time>2026-04-19T13:20:07Z</time></trkpt><trkpt lat="37.8625497198351" lon="15.121584766370848"><ele>631.0</ele><time>2026-04-19T13:20:08Z</time></trkpt><trkpt lat="37.862362725108845" lon="15.121547922359762"><ele>630.3333333333334</ele><time>2026-04-19T13:20:09Z</time></trkpt><trkpt lat="37.86218019170928" lon="15.121512706054103"><ele>629.6666666666666</ele><time>2026-04-19T13:20:10Z</time></trkpt><trkpt lat="37.862008957314224" lon="15.121478850810115"><ele>629.0</ele><time>2026-04-19T13:20:11Z</time></trkpt><trkpt lat="37.86185390900191" lon="15.121448268639773"><ele>629.0</ele><time>2026-04-19T13:20:12Z</time></trkpt><trkpt lat="37.861714135568256" lon="15.121383168540726"><ele>629.0</ele><time>2026-04-19T13:20:13Z</time></trkpt><trkpt lat="37.86158039628116" lon="15.121307234757241"><ele>629.0</ele><time>2026-04-19T13:20:14Z</time></trkpt><trkpt lat="37.86144469705089" lon="15.121202211532875"><ele>629.0</ele><time>2026-04-19T13:20:15Z</time></trkpt><trkpt lat="37.86130071478556" lon="15.121077817881684"><ele>629.0</ele><time>2026-04-19T13:20:16Z</time></trkpt><trkpt lat="37.86113337226696" lon="15.120958685153319"><ele>629.0</ele><time>2026-04-19T13:20:17Z</time></trkpt><trkpt lat="37.86095318028914" lon="15.120777565169906"><ele>628.5</ele><time>2026-04-19T13:20:18Z</time></trkpt><trkpt lat="37.86072344895191" lon="15.120579088597568"><ele>628.0</ele><time>2026-04-19T13:20:19Z</time></trkpt><trkpt lat="37.86047040788419" lon="15.120360473520341"><ele>628.0</ele><time>2026-04-19T13:20:20Z</time></trkpt><trkpt lat="37.860200451569426" lon="15.120151556369096"><ele>628.0</ele><time>2026-04-19T13:20:21Z</time></trkpt><trkpt lat="37.859974390637134" lon="15.119946754943546"><ele>627.5</ele><time>2026-04-19T13:20:22Z</time></trkpt><trkpt lat="37.8597657088555" lon="15.11976565949932"><ele>627.0</ele><time>2026-04-19T13:20:23Z</time></trkpt><trkpt lat="37.859577523629625" lon="15.119604227140782"><ele>627.0</ele><time>2026-04-19T13:20:24Z</time></trkpt><trkpt lat="37.85939641470451" lon="15.119452495347845"><ele>627.0</ele><time>2026-04-19T13:20:25Z</time></trkpt><trkpt lat="37.85921620240747" lon="15.119300281509503"><ele>627.0</ele><time>2026-04-19T13:20:26Z</time></trkpt><trkpt lat="37.859071421392045" lon="15.119179295484281"><ele>627.5</ele><time>2026-04-19T13:20:27Z</time></trkpt><trkpt lat="37.85896024277158" lon="15.11906019373559"><ele>628.0</ele><time>2026-04-19T13:20:28Z</time></trkpt><trkpt lat="37.85885362307146" lon="15.118968996527201"><ele>628.5</ele><time>2026-04-19T13:20:29Z</time></trkpt><trkpt lat="37.85873964375944" lon="15.11887150443119"><ele>629.0</ele><time>2026-04-19T13:20:30Z</time></trkpt><trkpt lat="37.85860467670929" lon="15.118773997415975"><ele>629.0</ele><time>2026-04-19T13:20:31Z</time></trkpt><trkpt lat="37.858464656332075" lon="15.118650700014017"><ele>629.0</ele><time>2026-04-19T13:20:32Z</time></trkpt><trkpt lat="37.85831311839327" lon="15.118523292822525"><ele>629.0</ele><time>2026-04-19T13:20:33Z</time></trkpt><trkpt lat="37.85817164841909" lon="15.118412188372762"><ele>629.0</ele><time>2026-04-19T13:20:34Z</time></trkpt><trkpt lat="37.85806111501727" lon="15.118313538691444"><ele>629.0</ele><time>2026-04-19T13:20:35Z</time></trkpt><trkpt lat="37.85798417151834" lon="15.118189600037791"><ele>629.0</ele><time>2026-04-19T13:20:36Z</time></trkpt><trkpt lat="37.857911524504416" lon="15.118030606222227"><ele>629.0</ele><time>2026-04-19T13:20:37Z</time></trkpt><trkpt lat="37.85781927634077" lon="15.117826061922676"><ele>628.0</ele><time>2026-04-19T13:20:38Z</time></trkpt><trkpt lat="37.857719271620866" lon="15.117566805889792"><ele>627.0</ele><time>2026-04-19T13:20:39Z</time></trkpt><trkpt lat="37.85762314340463" lon="15.117324334697834"><ele>626.0</ele><time>2026-04-19T13:20:40Z</time></trkpt><trkpt lat="37.857541704145966" lon="15.117111428536509"><ele>625.6666666666666</ele><time>2026-04-19T13:20:41Z</time></trkpt><trkpt lat="37.857470069634196" lon="15.116920979923313"><ele>625.3333333333334</ele><time>2026-04-19T13:20:42Z</time></trkpt><trkpt lat="37.857401189033396" lon="15.11674722230141"><ele>625.0</ele><time>2026-04-19T13:20:43Z</time></trkpt><trkpt lat="37.85733252513957" lon="15.116589869025935"><ele>625.25</ele><time>2026-04-19T13:20:44Z</time></trkpt><trkpt lat="37.85725495342665" lon="15.116449195990588"><ele>625.5</ele><time>2026-04-19T13:20:45Z</time></trkpt><trkpt lat="37.857153167572356" lon="15.116332029371906"><ele>625.75</ele><time>2026-04-19T13:20:46Z</time></trkpt><trkpt lat="37.8570248812521" lon="15.116256327447184"><ele>626.0</ele><time>2026-04-19T13:20:47Z</time></trkpt><trkpt lat="37.856898983294" lon="15.116182221623855"><ele>626.3333333333333</ele><time>2026-04-19T13:20:48Z</time></trkpt><trkpt lat="37.85676526291969" lon="15.116103642022075"><ele>626.6666666666666</ele><time>2026-04-19T13:20:49Z</time></trkpt><trkpt lat="37.856644326420174" lon="15.115939995130514"><ele>627.0</ele><time>2026-04-19T13:20:50Z</time></trkpt><trkpt lat="37.856514236687914" lon="15.115763718327932"><ele>625.6666666666666</ele><time>2026-04-19T13:20:51Z</time></trkpt><trkpt lat="37.856375375856516" lon="15.115591307756826"><ele>624.3333333333333</ele><time>2026-04-19T13:20:52Z</time></trkpt><trkpt lat="37.85623520751553" lon="15.115419876125202"><ele>623.0</ele><time>2026-04-19T13:20:53Z</time></trkpt><trkpt lat="37.85610369826111" lon="15.115258809789836"><ele>623.0</ele><time>2026-04-19T13:20:54Z</time></trkpt><trkpt lat="37.85598863777116" lon="15.115115330608731"><ele>623.0</ele><time>2026-04-19T13:20:55Z</time></trkpt><trkpt lat="37.855888150126475" lon="15.114986036022705"><ele>623.0</ele><time>2026-04-19T13:20:56Z</time></trkpt><trkpt lat="37.855797528795605" lon="15.114872003557053"><ele>623.0</ele><time>2026-04-19T13:20:57Z</time></trkpt><trkpt lat="37.85571589158391" lon="15.114765565323841"><ele>624.0</ele><time>2026-04-19T13:20:58Z</time></trkpt><trkpt lat="37.85564978822857" lon="15.114647592416675"><ele>625.0</ele><time>2026-04-19T13:20:59Z</time></trkpt><trkpt lat="37.85560301095913" lon="15.114498076623137"><ele>626.0</ele><time>2026-04-19T13:21:00Z</time></trkpt><trkpt lat="37.85560813537506" lon="15.1143154223723"><ele>627.0</ele><time>2026-04-19T13:21:01Z</time></trkpt><trkpt lat="37.85560013877856" lon="15.114114648112572"><ele>627.25</ele><time>2026-04-19T13:21:02Z</time></trkpt><trkpt lat="37.8556055786181" lon="15.113941235666733"><ele>627.5</ele><time>2026-04-19T13:21:03Z</time></trkpt><trkpt lat="37.8555831414721" lon="15.113789422117415"><ele>627.75</ele><time>2026-04-19T13:21:04Z</time></trkpt><trkpt lat="37.85554096953086" lon="15.113633224079273"><ele>628.0</ele><time>2026-04-19T13:21:05Z</time></trkpt><trkpt lat="37.85542038688653" lon="15.113513968610562"><ele>628.0</ele><time>2026-04-19T13:21:06Z</time></trkpt><trkpt lat="37.85531943537366" lon="15.113380057120535"><ele>628.0</ele><time>2026-04-19T13:21:07Z</time></trkpt><trkpt lat="37.855233328789666" lon="15.113238336025473"><ele>628.0</ele><time>2026-04-19T13:21:08Z</time></trkpt><trkpt lat="37.855142808614296" lon="15.113046682924688"><ele>627.6666666666667</ele><time>2026-04-19T13:21:09Z</time></trkpt><trkpt lat="37.85505854819976" lon="15.112800759307763"><ele>627.3333333333334</ele><time>2026-04-19T13:21:10Z</time></trkpt><trkpt lat="37.854959998118964" lon="15.112554759544748"><ele>627.0</ele><time>2026-04-19T13:21:11Z</time></trkpt><trkpt lat="37.854873779989155" lon="15.11233977617589"><ele>627.0</ele><time>2026-04-19T13:21:12Z</time></trkpt><trkpt lat="37.854803963225876" lon="15.11215476925826"><ele>627.0</ele><time>2026-04-19T13:21:13Z</time></trkpt><trkpt lat="37.85474514407882" lon="15.111994294454638"><ele>627.0</ele><time>2026-04-19T13:21:14Z</time></trkpt><trkpt lat="37.85469648007646" lon="15.11185667385637"><ele>627.0</ele><time>2026-04-19T13:21:15Z</time></trkpt><trkpt lat="37.85465450973003" lon="15.111743018525148"><ele>627.0</ele><time>2026-04-19T13:21:16Z</time></trkpt><trkpt lat="37.85461652686901" lon="15.111651313030583"><ele>627.0</ele><time>2026-04-19T13:21:17Z</time></trkpt><trkpt lat="37.85458046564989" lon="15.111580317591402"><ele>627.0</ele><time>2026-04-19T13:21:18Z</time></trkpt><trkpt lat="37.854508178389615" lon="15.111517713472221"><ele>627.0</ele><time>2026-04-19T13:21:20Z</time></trkpt><trkpt lat="37.854434052845434" lon="15.111521074612087"><ele>627.0</ele><time>2026-04-19T13:21:23Z</time></trkpt><trkpt lat="37.85434202297806" lon="15.11171696946142"><ele>627.0</ele><time>2026-04-19T13:21:25Z</time></trkpt><trkpt lat="37.85432078148202" lon="15.11188040154081"><ele>627.0</ele><time>2026-04-19T13:21:26Z</time></trkpt><trkpt lat="37.854318392871704" lon="15.11208220129411"><ele>627.0</ele><time>2026-04-19T13:21:27Z</time></trkpt><trkpt lat="37.854294975245814" lon="15.112307274186906"><ele>628.6666666666666</ele><time>2026-04-19T13:21:28Z</time></trkpt><trkpt lat="37.85426710652417" lon="15.112538176369522"><ele>630.3333333333333</ele><time>2026-04-19T13:21:29Z</time></trkpt><trkpt lat="37.85423271858389" lon="15.112776813314872"><ele>632.0</ele><time>2026-04-19T13:21:30Z</time></trkpt><trkpt lat="37.854187688517285" lon="15.113008610098897"><ele>632.0</ele><time>2026-04-19T13:21:31Z</time></trkpt><trkpt lat="37.854124784751185" lon="15.113223945282156"><ele>632.0</ele><time>2026-04-19T13:21:32Z</time></trkpt><trkpt lat="37.85404454475386" lon="15.113435984939976"><ele>632.0</ele><time>2026-04-19T13:21:33Z</time></trkpt><trkpt lat="37.85395397178664" lon="15.113653292017332"><ele>634.0</ele><time>2026-04-19T13:21:34Z</time></trkpt><trkpt lat="37.85385508275857" lon="15.113875247967187"><ele>636.0</ele><time>2026-04-19T13:21:35Z</time></trkpt><trkpt lat="37.8537440162703" lon="15.114094159340675"><ele>638.0</ele><time>2026-04-19T13:21:36Z</time></trkpt><trkpt lat="37.85361920294852" lon="15.114300866850554"><ele>638.6666666666666</ele><time>2026-04-19T13:21:37Z</time></trkpt><trkpt lat="37.85349556669637" lon="15.114474890725418"><ele>639.3333333333334</ele><time>2026-04-19T13:21:38Z</time></trkpt><trkpt lat="37.85337336045241" lon="15.11464530954959"><ele>640.0</ele><time>2026-04-19T13:21:39Z</time></trkpt><trkpt lat="37.85326993487645" lon="15.1148008912913"><ele>641.25</ele><time>2026-04-19T13:21:40Z</time></trkpt><trkpt lat="37.85317579332132" lon="15.114940389779749"><ele>642.5</ele><time>2026-04-19T13:21:41Z</time></trkpt><trkpt lat="37.853081181803944" lon="15.11507553445313"><ele>643.75</ele><time>2026-04-19T13:21:42Z</time></trkpt><trkpt lat="37.852981421163655" lon="15.115216032643854"><ele>645.0</ele><time>2026-04-19T13:21:43Z</time></trkpt><trkpt lat="37.85288241311551" lon="15.115356539262388"><ele>645.0</ele><time>2026-04-19T13:21:44Z</time></trkpt><trkpt lat="37.85278411603781" lon="15.115499919018408"><ele>645.0</ele><time>2026-04-19T13:21:45Z</time></trkpt><trkpt lat="37.85268697211652" lon="15.115640473827227"><ele>645.0</ele><time>2026-04-19T13:21:46Z</time></trkpt><trkpt lat="37.85260005294112" lon="15.115762129348221"><ele>645.0</ele><time>2026-04-19T13:21:47Z</time></trkpt><trkpt lat="37.85251445568025" lon="15.115884492179328"><ele>645.0</ele><time>2026-04-19T13:21:48Z</time></trkpt><trkpt lat="37.85242891454203" lon="15.116009126930889"><ele>645.0</ele><time>2026-04-19T13:21:49Z</time></trkpt><trkpt lat="37.85235362739115" lon="15.116113365934295"><ele>645.0</ele><time>2026-04-19T13:21:50Z</time></trkpt><trkpt lat="37.85228859642088" lon="15.116206472116167"><ele>645.0</ele><time>2026-04-19T13:21:51Z</time></trkpt><trkpt lat="37.85222485446486" lon="15.11629527275112"><ele>645.0</ele><time>2026-04-19T13:21:52Z</time></trkpt><trkpt lat="37.852150252403526" lon="15.116393265220108"><ele>645.0</ele><time>2026-04-19T13:21:53Z</time></trkpt><trkpt lat="37.85207550257219" lon="15.11649996197443"><ele>645.0</ele><time>2026-04-19T13:21:54Z</time></trkpt><trkpt lat="37.85200585299725" lon="15.116598736096618"><ele>645.0</ele><time>2026-04-19T13:21:55Z</time></trkpt><trkpt lat="37.85194770689703" lon="15.11667720346416"><ele>645.0</ele><time>2026-04-19T13:21:56Z</time></trkpt><trkpt lat="37.85189628066404" lon="15.11675248416768"><ele>645.0</ele><time>2026-04-19T13:21:57Z</time></trkpt><trkpt lat="37.85184492435544" lon="15.116829275026982"><ele>644.8</ele><time>2026-04-19T13:21:58Z</time></trkpt><trkpt lat="37.851783430626455" lon="15.116921933192748"><ele>644.6</ele><time>2026-04-19T13:21:59Z</time></trkpt><trkpt lat="37.85171412588823" lon="15.11702680735481"><ele>644.4000000000001</ele><time>2026-04-19T13:22:00Z</time></trkpt><trkpt lat="37.85163686158383" lon="15.117137661062626"><ele>644.2</ele><time>2026-04-19T13:22:01Z</time></trkpt><trkpt lat="37.851556577745704" lon="15.117255857787331"><ele>644.0</ele><time>2026-04-19T13:22:02Z</time></trkpt><trkpt lat="37.851473581346035" lon="15.11737223442489"><ele>644.0</ele><time>2026-04-19T13:22:03Z</time></trkpt><trkpt lat="37.851394401207514" lon="15.117481478262487"><ele>644.0</ele><time>2026-04-19T13:22:04Z</time></trkpt><trkpt lat="37.85132066692326" lon="15.117586794099868"><ele>644.0</ele><time>2026-04-19T13:22:05Z</time></trkpt><trkpt lat="37.85125186184439" lon="15.11768395829733"><ele>644.0</ele><time>2026-04-19T13:22:06Z</time></trkpt><trkpt lat="37.85118703053657" lon="15.117768847399235"><ele>644.0</ele><time>2026-04-19T13:22:07Z</time></trkpt><trkpt lat="37.85112011696232" lon="15.117864539100026"><ele>644.0</ele><time>2026-04-19T13:22:08Z</time></trkpt><trkpt lat="37.851049538155586" lon="15.117963058307462"><ele>644.0</ele><time>2026-04-19T13:22:09Z</time></trkpt><trkpt lat="37.85097667902083" lon="15.118069064671241"><ele>644.0</ele><time>2026-04-19T13:22:10Z</time></trkpt><trkpt lat="37.85089813497598" lon="15.118182126172165"><ele>644.0</ele><time>2026-04-19T13:22:11Z</time></trkpt><trkpt lat="37.850809037232985" lon="15.1183061348127"><ele>643.5</ele><time>2026-04-19T13:22:12Z</time></trkpt><trkpt lat="37.85070812327646" lon="15.11842713741343"><ele>643.0</ele><time>2026-04-19T13:22:13Z</time></trkpt><trkpt lat="37.85060045780149" lon="15.118537098164351"><ele>642.5</ele><time>2026-04-19T13:22:14Z</time></trkpt><trkpt lat="37.850484309426264" lon="15.118646435696682"><ele>642.0</ele><time>2026-04-19T13:22:15Z</time></trkpt><trkpt lat="37.850351499028974" lon="15.118762377576203"><ele>642.0</ele><time>2026-04-19T13:22:16Z</time></trkpt><trkpt lat="37.850208201464376" lon="15.118867842895844"><ele>642.0</ele><time>2026-04-19T13:22:17Z</time></trkpt><trkpt lat="37.850047394209604" lon="15.118959147618362"><ele>642.0</ele><time>2026-04-19T13:22:18Z</time></trkpt><trkpt lat="37.84984802314512" lon="15.11905083016772"><ele>637.5</ele><time>2026-04-19T13:22:19Z</time></trkpt><trkpt lat="37.84963228831144" lon="15.119128395953696"><ele>633.0</ele><time>2026-04-19T13:22:20Z</time></trkpt><trkpt lat="37.84941051260822" lon="15.119210811658473"><ele>631.5</ele><time>2026-04-19T13:22:21Z</time></trkpt><trkpt lat="37.849186880423986" lon="15.119298237743417"><ele>630.0</ele><time>2026-04-19T13:22:22Z</time></trkpt><trkpt lat="37.848965075647044" lon="15.119383304438335"><ele>630.0</ele><time>2026-04-19T13:22:23Z</time></trkpt><trkpt lat="37.848760153024884" lon="15.11946176184763"><ele>630.0</ele><time>2026-04-19T13:22:24Z</time></trkpt><trkpt lat="37.84856664661549" lon="15.119529941468866"><ele>630.0</ele><time>2026-04-19T13:22:25Z</time></trkpt><trkpt lat="37.84839800448737" lon="15.11959209448665"><ele>629.75</ele><time>2026-04-19T13:22:26Z</time></trkpt><trkpt lat="37.84826430069205" lon="15.119655255757731"><ele>629.5</ele><time>2026-04-19T13:22:27Z</time></trkpt><trkpt lat="37.84816882572539" lon="15.119728525550455"><ele>629.25</ele><time>2026-04-19T13:22:28Z</time></trkpt><trkpt lat="37.84810123793906" lon="15.119838334993778"><ele>629.0</ele><time>2026-04-19T13:22:29Z</time></trkpt><trkpt lat="37.84807803196591" lon="15.11997355892311"><ele>628.0</ele><time>2026-04-19T13:22:30Z</time></trkpt><trkpt lat="37.84809276445096" lon="15.120124053122014"><ele>627.0</ele><time>2026-04-19T13:22:31Z</time></trkpt><trkpt lat="37.848125263421814" lon="15.120274027890819"><ele>626.0</ele><time>2026-04-19T13:22:32Z</time></trkpt><trkpt lat="37.848175291610545" lon="15.120418899762704"><ele>625.0</ele><time>2026-04-19T13:22:33Z</time></trkpt><trkpt lat="37.8482520739208" lon="15.120524721724466"><ele>625.0</ele><time>2026-04-19T13:22:34Z</time></trkpt><trkpt lat="37.84836121682155" lon="15.12057463571203"><ele>625.0</ele><time>2026-04-19T13:22:35Z</time></trkpt><trkpt lat="37.84848349711283" lon="15.120565792026381"><ele>625.0</ele><time>2026-04-19T13:22:36Z</time></trkpt><trkpt lat="37.848619362711496" lon="15.120515542898593"><ele>625.0</ele><time>2026-04-19T13:22:37Z</time></trkpt><trkpt lat="37.848778580796186" lon="15.120453956120713"><ele>625.5</ele><time>2026-04-19T13:22:38Z</time></trkpt><trkpt lat="37.84898759609342" lon="15.120401217393052"><ele>626.0</ele><time>2026-04-19T13:22:39Z</time></trkpt><trkpt lat="37.84923540539484" lon="15.120323833396778"><ele>625.6666666666666</ele><time>2026-04-19T13:22:40Z</time></trkpt><trkpt lat="37.84945126996725" lon="15.120249467969034"><ele>625.3333333333334</ele><time>2026-04-19T13:22:41Z</time></trkpt><trkpt lat="37.84964012282944" lon="15.120198734654709"><ele>625.0</ele><time>2026-04-19T13:22:42Z</time></trkpt><trkpt lat="37.849797782006135" lon="15.120151476875044"><ele>625.0</ele><time>2026-04-19T13:22:43Z</time></trkpt><trkpt lat="37.84992857697746" lon="15.120119394060396"><ele>625.0</ele><time>2026-04-19T13:22:44Z</time></trkpt><trkpt lat="37.85003746578283" lon="15.120131573131141"><ele>625.0</ele><time>2026-04-19T13:22:45Z</time></trkpt><trkpt lat="37.85012510105444" lon="15.120204805916218"><ele>625.0</ele><time>2026-04-19T13:22:46Z</time></trkpt><trkpt lat="37.85017570739605" lon="15.120333030692354"><ele>625.0</ele><time>2026-04-19T13:22:47Z</time></trkpt><trkpt lat="37.85016253014264" lon="15.1204583007615"><ele>625.0</ele><time>2026-04-19T13:22:48Z</time></trkpt><trkpt lat="37.85011233855813" lon="15.120619628881771"><ele>625.0</ele><time>2026-04-19T13:22:49Z</time></trkpt><trkpt lat="37.850024535453095" lon="15.12083916340235"><ele>625.0</ele><time>2026-04-19T13:22:50Z</time></trkpt><trkpt lat="37.84995355426487" lon="15.121110463615459"><ele>624.3333333333334</ele><time>2026-04-19T13:22:51Z</time></trkpt><trkpt lat="37.849891803751476" lon="15.121356774584005"><ele>623.6666666666666</ele><time>2026-04-19T13:22:52Z</time></trkpt><trkpt lat="37.849829619342636" lon="15.121587440983795"><ele>623.0</ele><time>2026-04-19T13:22:53Z</time></trkpt><trkpt lat="37.84976610923467" lon="15.121793126688242"><ele>622.3333333333333</ele><time>2026-04-19T13:22:54Z</time></trkpt><trkpt lat="37.8496923662425" lon="15.121993396049223"><ele>621.6666666666666</ele><time>2026-04-19T13:22:55Z</time></trkpt><trkpt lat="37.849614340080095" lon="15.122191823743087"><ele>621.0</ele><time>2026-04-19T13:22:56Z</time></trkpt><trkpt lat="37.849536987741516" lon="15.122382726787697"><ele>619.0</ele><time>2026-04-19T13:22:57Z</time></trkpt><trkpt lat="37.84945905608592" lon="15.122577729447285"><ele>617.0</ele><time>2026-04-19T13:22:58Z</time></trkpt><trkpt lat="37.84937599635173" lon="15.122772131302016"><ele>615.0</ele><time>2026-04-19T13:22:59Z</time></trkpt><trkpt lat="37.84931133393571" lon="15.122930088731673"><ele>614.75</ele><time>2026-04-19T13:23:00Z</time></trkpt><trkpt lat="37.84924677655066" lon="15.12307153424945"><ele>614.5</ele><time>2026-04-19T13:23:01Z</time></trkpt><trkpt lat="37.849188364487226" lon="15.123204650458389"><ele>614.25</ele><time>2026-04-19T13:23:02Z</time></trkpt><trkpt lat="37.84913785454729" lon="15.123322075062005"><ele>614.0</ele><time>2026-04-19T13:23:03Z</time></trkpt><trkpt lat="37.84908377750363" lon="15.123450835893125"><ele>613.0</ele><time>2026-04-19T13:23:04Z</time></trkpt><trkpt lat="37.8490190139334" lon="15.123595829266396"><ele>612.0</ele><time>2026-04-19T13:23:05Z</time></trkpt><trkpt lat="37.848947631702806" lon="15.123747818033094"><ele>611.0</ele><time>2026-04-19T13:23:06Z</time></trkpt><trkpt lat="37.84886926922912" lon="15.123909189685138"><ele>610.0</ele><time>2026-04-19T13:23:07Z</time></trkpt><trkpt lat="37.84878232976494" lon="15.124092152903746"><ele>609.0</ele><time>2026-04-19T13:23:08Z</time></trkpt><trkpt lat="37.848692472888786" lon="15.124281919816202"><ele>608.0</ele><time>2026-04-19T13:23:09Z</time></trkpt><trkpt lat="37.84859799866322" lon="15.12447762336287"><ele>607.0</ele><time>2026-04-19T13:23:10Z</time></trkpt><trkpt lat="37.848503868733864" lon="15.124671341146044"><ele>605.6666666666667</ele><time>2026-04-19T13:23:11Z</time></trkpt><trkpt lat="37.84841982112271" lon="15.124848021737122"><ele>604.3333333333334</ele><time>2026-04-19T13:23:12Z</time></trkpt><trkpt lat="37.84834086686361" lon="15.125013803175419"><ele>603.0</ele><time>2026-04-19T13:23:13Z</time></trkpt><trkpt lat="37.848271018536394" lon="15.125165472422472"><ele>601.8</ele><time>2026-04-19T13:23:14Z</time></trkpt><trkpt lat="37.84821175299474" lon="15.125296663866783"><ele>600.5999999999999</ele><time>2026-04-19T13:23:15Z</time></trkpt><trkpt lat="37.8481497179221" lon="15.125398211350833"><ele>599.4000000000001</ele><time>2026-04-19T13:23:16Z</time></trkpt><trkpt lat="37.8480691808369" lon="15.12544721503047"><ele>598.2</ele><time>2026-04-19T13:23:17Z</time></trkpt><trkpt lat="37.84797014554376" lon="15.125436525090711"><ele>597.0</ele><time>2026-04-19T13:23:18Z</time></trkpt><trkpt lat="37.84788619721279" lon="15.125367242170746"><ele>597.0</ele><time>2026-04-19T13:23:19Z</time></trkpt><trkpt lat="37.84780403154872" lon="15.125238346806528"><ele>597.0</ele><time>2026-04-19T13:23:20Z</time></trkpt><trkpt lat="37.847720046608046" lon="15.125110294595054"><ele>597.0</ele><time>2026-04-19T13:23:21Z</time></trkpt><trkpt lat="37.8476183400019" lon="15.125032097358769"><ele>597.0</ele><time>2026-04-19T13:23:22Z</time></trkpt><trkpt lat="37.84750668712153" lon="15.125005806711947"><ele>596.25</ele><time>2026-04-19T13:23:23Z</time></trkpt><trkpt lat="37.84738214541768" lon="15.125027938695126"><ele>595.5</ele><time>2026-04-19T13:23:24Z</time></trkpt><trkpt lat="37.847256671392806" lon="15.12510926824357"><ele>594.75</ele><time>2026-04-19T13:23:25Z</time></trkpt><trkpt lat="37.84715875088767" lon="15.1252252086424"><ele>594.0</ele><time>2026-04-19T13:23:26Z</time></trkpt><trkpt lat="37.847106289172906" lon="15.12535853988826"><ele>594.0</ele><time>2026-04-19T13:23:27Z</time></trkpt><trkpt lat="37.8471050700108" lon="15.1255253654018"><ele>594.0</ele><time>2026-04-19T13:23:28Z</time></trkpt><trkpt lat="37.84714182293814" lon="15.125739068904618"><ele>594.0</ele><time>2026-04-19T13:23:29Z</time></trkpt><trkpt lat="37.84719863872124" lon="15.125986544050948"><ele>591.6666666666666</ele><time>2026-04-19T13:23:30Z</time></trkpt><trkpt lat="37.84725099083913" lon="15.126221898285351"><ele>589.3333333333333</ele><time>2026-04-19T13:23:31Z</time></trkpt><trkpt lat="37.84729493389492" lon="15.126421535920393"><ele>587.0</ele><time>2026-04-19T13:23:32Z</time></trkpt><trkpt lat="37.847316838975715" lon="15.126592107478704"><ele>586.6</ele><time>2026-04-19T13:23:33Z</time></trkpt><trkpt lat="37.847319051365325" lon="15.126739447820118"><ele>586.2</ele><time>2026-04-19T13:23:34Z</time></trkpt><trkpt lat="37.84730834769241" lon="15.12687706730397"><ele>585.8</ele><time>2026-04-19T13:23:35Z</time></trkpt><trkpt lat="37.84729032112808" lon="15.126997431120186"><ele>585.4</ele><time>2026-04-19T13:23:36Z</time></trkpt><trkpt lat="37.847275702599" lon="15.127095382448593"><ele>585.0</ele><time>2026-04-19T13:23:37Z</time></trkpt><trkpt lat="37.847264035938096" lon="15.127180621710536"><ele>585.0</ele><time>2026-04-19T13:23:38Z</time></trkpt><trkpt lat="37.84724020719458" lon="15.127311184391"><ele>585.0</ele><time>2026-04-19T13:23:40Z</time></trkpt><trkpt lat="37.8472265554569" lon="15.127410031013943"><ele>585.0</ele><time>2026-04-19T13:23:42Z</time></trkpt><trkpt lat="37.84718740008291" lon="15.12750467545046"><ele>585.0</ele><time>2026-04-19T13:23:46Z</time></trkpt><trkpt lat="37.84725120744209" lon="15.127575595570585"><ele>585.0</ele><time>2026-04-19T13:24:57Z</time></trkpt><trkpt lat="37.84725519407258" lon="15.127462813847439"><ele>585.0</ele><time>2026-04-19T13:24:59Z</time></trkpt><trkpt lat="37.847278215483676" lon="15.127341552632663"><ele>585.0</ele><time>2026-04-19T13:25:01Z</time></trkpt><trkpt lat="37.84728938939172" lon="15.127258054144301"><ele>585.0</ele><time>2026-04-19T13:25:02Z</time></trkpt><trkpt lat="37.847297416330356" lon="15.127166868215053"><ele>585.0</ele><time>2026-04-19T13:25:03Z</time></trkpt><trkpt lat="37.8473077760149" lon="15.127075432632346"><ele>585.0</ele><time>2026-04-19T13:25:04Z</time></trkpt><trkpt lat="37.84732479057203" lon="15.12696429183786"><ele>585.0</ele><time>2026-04-19T13:25:05Z</time></trkpt><trkpt lat="37.84734182257085" lon="15.126838473647506"><ele>585.0</ele><time>2026-04-19T13:25:06Z</time></trkpt><trkpt lat="37.84734923581323" lon="15.126697128963315"><ele>585.5</ele><time>2026-04-19T13:25:07Z</time></trkpt><trkpt lat="37.84734229790475" lon="15.126542911563714"><ele>586.0</ele><time>2026-04-19T13:25:08Z</time></trkpt><trkpt lat="37.84731984296119" lon="15.126387526543711"><ele>586.5</ele><time>2026-04-19T13:25:09Z</time></trkpt><trkpt lat="37.84729016325209" lon="15.126232923275406"><ele>587.0</ele><time>2026-04-19T13:25:10Z</time></trkpt><trkpt lat="37.847259409332544" lon="15.126079186063176"><ele>587.0</ele><time>2026-04-19T13:25:11Z</time></trkpt><trkpt lat="37.84722878435154" lon="15.125924591492083"><ele>587.0</ele><time>2026-04-19T13:25:12Z</time></trkpt><trkpt lat="37.84720106797618" lon="15.12577538301309"><ele>587.0</ele><time>2026-04-19T13:25:13Z</time></trkpt><trkpt lat="37.84718035623371" lon="15.125660133745434"><ele>587.0</ele><time>2026-04-19T13:25:14Z</time></trkpt><trkpt lat="37.84716985530039" lon="15.125545868060787"><ele>587.0</ele><time>2026-04-19T13:25:16Z</time></trkpt><trkpt lat="37.84710486711591" lon="15.125478713323654"><ele>588.1666666666666</ele><time>2026-04-19T13:25:26Z</time></trkpt><trkpt lat="37.847037346582795" lon="15.125499025096108"><ele>589.3333333333333</ele><time>2026-04-19T13:25:27Z</time></trkpt><trkpt lat="37.84696168552626" lon="15.125504961543411"><ele>590.5</ele><time>2026-04-19T13:25:28Z</time></trkpt><trkpt lat="37.846886215326826" lon="15.125480886921094"><ele>591.6666666666666</ele><time>2026-04-19T13:25:29Z</time></trkpt><trkpt lat="37.84681257033256" lon="15.125418165600847"><ele>592.8333333333334</ele><time>2026-04-19T13:25:30Z</time></trkpt><trkpt lat="37.84673316963199" lon="15.125419997998398"><ele>594.0</ele><time>2026-04-19T13:25:31Z</time></trkpt><trkpt lat="37.84665902322233" lon="15.12538420418599"><ele>594.0</ele><time>2026-04-19T13:25:32Z</time></trkpt><trkpt lat="37.84657604943186" lon="15.125411475373092"><ele>594.0</ele><time>2026-04-19T13:25:33Z</time></trkpt><trkpt lat="37.84649235282066" lon="15.125437872573492"><ele>594.0</ele><time>2026-04-19T13:25:34Z</time></trkpt><trkpt lat="37.8464074862342" lon="15.12547060302776"><ele>594.0</ele><time>2026-04-19T13:25:35Z</time></trkpt><trkpt lat="37.84631331009363" lon="15.125500589872258"><ele>594.0</ele><time>2026-04-19T13:25:36Z</time></trkpt><trkpt lat="37.84621634553727" lon="15.125526947922744"><ele>594.0</ele><time>2026-04-19T13:25:37Z</time></trkpt><trkpt lat="37.846118766236934" lon="15.125554094729633"><ele>594.0</ele><time>2026-04-19T13:25:38Z</time></trkpt><trkpt lat="37.846032617499986" lon="15.125598621040163"><ele>594.0</ele><time>2026-04-19T13:25:39Z</time></trkpt><trkpt lat="37.8459562497408" lon="15.125682574494617"><ele>594.0</ele><time>2026-04-19T13:25:40Z</time></trkpt><trkpt lat="37.84589019382618" lon="15.125793300621723"><ele>594.0</ele><time>2026-04-19T13:25:41Z</time></trkpt><trkpt lat="37.845823753161746" lon="15.125905959377585"><ele>591.0</ele><time>2026-04-19T13:25:42Z</time></trkpt><trkpt lat="37.845751466367545" lon="15.126014669728555"><ele>588.0</ele><time>2026-04-19T13:25:43Z</time></trkpt><trkpt lat="37.845678333321715" lon="15.12612664743226"><ele>585.0</ele><time>2026-04-19T13:25:44Z</time></trkpt><trkpt lat="37.84560725507326" lon="15.126244988176943"><ele>582.0</ele><time>2026-04-19T13:25:45Z</time></trkpt><trkpt lat="37.84554392568811" lon="15.126373226737385"><ele>582.0</ele><time>2026-04-19T13:25:46Z</time></trkpt><trkpt lat="37.84549702871272" lon="15.126513885996788"><ele>582.0</ele><time>2026-04-19T13:25:47Z</time></trkpt><trkpt lat="37.84545764034685" lon="15.126642230570399"><ele>582.0</ele><time>2026-04-19T13:25:48Z</time></trkpt><trkpt lat="37.8454217723912" lon="15.126757199830305"><ele>582.0</ele><time>2026-04-19T13:25:49Z</time></trkpt><trkpt lat="37.845397439397644" lon="15.126864123532147"><ele>582.0</ele><time>2026-04-19T13:25:50Z</time></trkpt><trkpt lat="37.84537569459775" lon="15.126958639103158"><ele>581.6666666666666</ele><time>2026-04-19T13:25:51Z</time></trkpt><trkpt lat="37.84532695810295" lon="15.127036385639247"><ele>581.3333333333334</ele><time>2026-04-19T13:25:52Z</time></trkpt><trkpt lat="37.84525578701395" lon="15.127089468668903"><ele>581.0</ele><time>2026-04-19T13:25:53Z</time></trkpt><trkpt lat="37.845166510280386" lon="15.127127410949294"><ele>580.6666666666667</ele><time>2026-04-19T13:25:54Z</time></trkpt><trkpt lat="37.845077185760836" lon="15.12716597103339"><ele>580.3333333333334</ele><time>2026-04-19T13:25:55Z</time></trkpt><trkpt lat="37.844990564976065" lon="15.127207857858398"><ele>580.0</ele><time>2026-04-19T13:25:56Z</time></trkpt><trkpt lat="37.844894806972896" lon="15.127244825082613"><ele>580.0</ele><time>2026-04-19T13:25:57Z</time></trkpt><trkpt lat="37.84479052910414" lon="15.127277323024266"><ele>580.0</ele><time>2026-04-19T13:25:58Z</time></trkpt><trkpt lat="37.8446830155238" lon="15.127310486720328"><ele>580.0</ele><time>2026-04-19T13:25:59Z</time></trkpt><trkpt lat="37.844574395207026" lon="15.127358751998907"><ele>580.0</ele><time>2026-04-19T13:26:00Z</time></trkpt><trkpt lat="37.84447022423119" lon="15.127426635766954"><ele>579.8</ele><time>2026-04-19T13:26:01Z</time></trkpt><trkpt lat="37.84437918657208" lon="15.127496668489057"><ele>579.6</ele><time>2026-04-19T13:26:02Z</time></trkpt><trkpt lat="37.844301642364115" lon="15.12755240617275"><ele>579.4</ele><time>2026-04-19T13:26:03Z</time></trkpt><trkpt lat="37.84423545922058" lon="15.127589428612229"><ele>579.2</ele><time>2026-04-19T13:26:04Z</time></trkpt><trkpt lat="37.844151937091645" lon="15.127617795660287"><ele>579.0</ele><time>2026-04-19T13:26:06Z</time></trkpt><trkpt lat="37.84407671782308" lon="15.127438153880052"><ele>579.1666666666666</ele><time>2026-04-19T13:26:14Z</time></trkpt><trkpt lat="37.84405224445325" lon="15.12736096479269"><ele>579.3333333333334</ele><time>2026-04-19T13:26:15Z</time></trkpt><trkpt lat="37.84402455935746" lon="15.127273652983728"><ele>579.5</ele><time>2026-04-19T13:26:16Z</time></trkpt><trkpt lat="37.84397897506026" lon="15.127180104047714"><ele>579.6666666666667</ele><time>2026-04-19T13:26:17Z</time></trkpt><trkpt lat="37.84394874800613" lon="15.127064556344084"><ele>579.8333333333334</ele><time>2026-04-19T13:26:18Z</time></trkpt><trkpt lat="37.843915662921845" lon="15.126950347345076"><ele>580.0</ele><time>2026-04-19T13:26:19Z</time></trkpt><trkpt lat="37.84388958645875" lon="15.126826973729731"><ele>580.0</ele><time>2026-04-19T13:26:20Z</time></trkpt><trkpt lat="37.843824078301964" lon="15.126723514672454"><ele>580.0</ele><time>2026-04-19T13:26:21Z</time></trkpt><trkpt lat="37.84378311026846" lon="15.126599082673962"><ele>580.0</ele><time>2026-04-19T13:26:22Z</time></trkpt><trkpt lat="37.843729526119674" lon="15.12648511344221"><ele>580.0</ele><time>2026-04-19T13:26:23Z</time></trkpt><trkpt lat="37.84368535129661" lon="15.126372028616922"><ele>580.0</ele><time>2026-04-19T13:26:24Z</time></trkpt><trkpt lat="37.84366083740312" lon="15.126258055521225"><ele>581.0</ele><time>2026-04-19T13:26:25Z</time></trkpt><trkpt lat="37.84363400042852" lon="15.126137608673556"><ele>582.0</ele><time>2026-04-19T13:26:26Z</time></trkpt><trkpt lat="37.84365833269024" lon="15.12601294574595"><ele>583.0</ele><time>2026-04-19T13:26:27Z</time></trkpt><trkpt lat="37.84366295998294" lon="15.125881210379402"><ele>584.0</ele><time>2026-04-19T13:26:28Z</time></trkpt><trkpt lat="37.8436939485976" lon="15.125763859139667"><ele>585.0</ele><time>2026-04-19T13:26:29Z</time></trkpt><trkpt lat="37.8437030650371" lon="15.125653507308014"><ele>586.0</ele><time>2026-04-19T13:26:30Z</time></trkpt><trkpt lat="37.8436873856785" lon="15.1255458396104"><ele>587.0</ele><time>2026-04-19T13:26:31Z</time></trkpt><trkpt lat="37.843658886521965" lon="15.125438074727755"><ele>588.0</ele><time>2026-04-19T13:26:32Z</time></trkpt><trkpt lat="37.843600636964474" lon="15.125345768562863"><ele>589.0</ele><time>2026-04-19T13:26:33Z</time></trkpt><trkpt lat="37.84353787027295" lon="15.125259713786066"><ele>590.0</ele><time>2026-04-19T13:26:34Z</time></trkpt><trkpt lat="37.843470312499825" lon="15.125188566487731"><ele>590.4</ele><time>2026-04-19T13:26:35Z</time></trkpt><trkpt lat="37.84341474526848" lon="15.125113053583554"><ele>590.8</ele><time>2026-04-19T13:26:36Z</time></trkpt><trkpt lat="37.84337907648342" lon="15.125019431151738"><ele>591.2</ele><time>2026-04-19T13:26:37Z</time></trkpt><trkpt lat="37.84334174933423" lon="15.124910750422139"><ele>591.6</ele><time>2026-04-19T13:26:38Z</time></trkpt><trkpt lat="37.843296908796646" lon="15.124804889486372"><ele>592.0</ele><time>2026-04-19T13:26:39Z</time></trkpt><trkpt lat="37.84325983441805" lon="15.124687181197912"><ele>593.4</ele><time>2026-04-19T13:26:40Z</time></trkpt><trkpt lat="37.84322669477541" lon="15.124564480126194"><ele>594.8000000000001</ele><time>2026-04-19T13:26:41Z</time></trkpt><trkpt lat="37.84316534758746" lon="15.124459194070852"><ele>596.2</ele><time>2026-04-19T13:26:42Z</time></trkpt><trkpt lat="37.84311885055957" lon="15.124343973720965"><ele>597.6</ele><time>2026-04-19T13:26:43Z</time></trkpt><trkpt lat="37.84307275107125" lon="15.124229247284577"><ele>599.0</ele><time>2026-04-19T13:26:44Z</time></trkpt><trkpt lat="37.843033493349104" lon="15.124114847943794"><ele>600.4</ele><time>2026-04-19T13:26:45Z</time></trkpt><trkpt lat="37.84300395934588" lon="15.12399402641404"><ele>601.8</ele><time>2026-04-19T13:26:46Z</time></trkpt><trkpt lat="37.842970382686524" lon="15.123871589844418"><ele>603.2</ele><time>2026-04-19T13:26:47Z</time></trkpt><trkpt lat="37.8429379098076" lon="15.123754068743173"><ele>604.6</ele><time>2026-04-19T13:26:48Z</time></trkpt><trkpt lat="37.84291788087412" lon="15.123641669958346"><ele>606.0</ele><time>2026-04-19T13:26:49Z</time></trkpt><trkpt lat="37.842865500355266" lon="15.12355664015878"><ele>606.0</ele><time>2026-04-19T13:26:50Z</time></trkpt><trkpt lat="37.84282108889289" lon="15.123467808209266"><ele>606.0</ele><time>2026-04-19T13:26:51Z</time></trkpt><trkpt lat="37.84277266866484" lon="15.123382573279361"><ele>606.0</ele><time>2026-04-19T13:26:52Z</time></trkpt><trkpt lat="37.84272763992942" lon="15.123301883834662"><ele>606.0</ele><time>2026-04-19T13:26:53Z</time></trkpt><trkpt lat="37.84267904071815" lon="15.123221971776161"><ele>606.0</ele><time>2026-04-19T13:26:54Z</time></trkpt><trkpt lat="37.842597068525016" lon="15.123170653120416"><ele>606.0</ele><time>2026-04-19T13:26:55Z</time></trkpt><trkpt lat="37.842499061049736" lon="15.123147428257747"><ele>606.4</ele><time>2026-04-19T13:26:56Z</time></trkpt><trkpt lat="37.84239767127609" lon="15.12314510469168"><ele>606.8</ele><time>2026-04-19T13:26:57Z</time></trkpt><trkpt lat="37.8423057222585" lon="15.123146568848673"><ele>607.1999999999999</ele><time>2026-04-19T13:26:58Z</time></trkpt><trkpt lat="37.84221459288245" lon="15.12314869827621"><ele>607.6</ele><time>2026-04-19T13:26:59Z</time></trkpt><trkpt lat="37.842128658022226" lon="15.123193427592406"><ele>608.0</ele><time>2026-04-19T13:27:00Z</time></trkpt><trkpt lat="37.84204568975732" lon="15.123239357658877"><ele>607.6666666666666</ele><time>2026-04-19T13:27:01Z</time></trkpt><trkpt lat="37.84197083409006" lon="15.123264881973089"><ele>607.3333333333333</ele><time>2026-04-19T13:27:02Z</time></trkpt><trkpt lat="37.84188707348182" lon="15.123297537726014"><ele>607.0</ele><time>2026-04-19T13:27:04Z</time></trkpt><trkpt lat="37.84182359713426" lon="15.12331244476323"><ele>606.6666666666666</ele><time>2026-04-19T13:27:08Z</time></trkpt><trkpt lat="37.84173499111004" lon="15.123309238040664"><ele>606.3333333333334</ele><time>2026-04-19T13:27:22Z</time></trkpt><trkpt lat="37.841686641814405" lon="15.123249671751468"><ele>606.0</ele><time>2026-04-19T13:27:24Z</time></trkpt><trkpt lat="37.84162833027536" lon="15.123148001805452"><ele>606.0</ele><time>2026-04-19T13:27:26Z</time></trkpt><trkpt lat="37.841587760647315" lon="15.12307819154073"><ele>606.0</ele><time>2026-04-19T13:27:27Z</time></trkpt><trkpt lat="37.841544073354676" lon="15.123003148424974"><ele>606.0</ele><time>2026-04-19T13:27:28Z</time></trkpt><trkpt lat="37.841498436989355" lon="15.122928510847906"><ele>606.0</ele><time>2026-04-19T13:27:29Z</time></trkpt><trkpt lat="37.841452881643185" lon="15.122855015511943"><ele>606.0</ele><time>2026-04-19T13:27:30Z</time></trkpt><trkpt lat="37.84140718484579" lon="15.122780241866128"><ele>606.0</ele><time>2026-04-19T13:27:31Z</time></trkpt><trkpt lat="37.84138629192103" lon="15.122695390608142"><ele>606.0</ele><time>2026-04-19T13:27:32Z</time></trkpt><trkpt lat="37.84135711756424" lon="15.122603616693373"><ele>606.0</ele><time>2026-04-19T13:27:33Z</time></trkpt><trkpt lat="37.84132176688521" lon="15.122517297785262"><ele>606.0</ele><time>2026-04-19T13:27:34Z</time></trkpt><trkpt lat="37.84125925161355" lon="15.122447822822537"><ele>606.0</ele><time>2026-04-19T13:27:35Z</time></trkpt><trkpt lat="37.84116309005206" lon="15.122385529596174"><ele>606.0</ele><time>2026-04-19T13:27:37Z</time></trkpt><trkpt lat="37.84109106919894" lon="15.122352368185242"><ele>606.0</ele><time>2026-04-19T13:27:39Z</time></trkpt><trkpt lat="37.84095762252443" lon="15.122333882310398"><ele>608.6666666666666</ele><time>2026-04-19T13:27:41Z</time></trkpt><trkpt lat="37.840878126555424" lon="15.122319067858248"><ele>611.3333333333334</ele><time>2026-04-19T13:27:42Z</time></trkpt><trkpt lat="37.84080016461871" lon="15.122286298545609"><ele>614.0</ele><time>2026-04-19T13:27:43Z</time></trkpt><trkpt lat="37.84071795816349" lon="15.12227120961924"><ele>616.6666666666667</ele><time>2026-04-19T13:27:44Z</time></trkpt><trkpt lat="37.840637629087006" lon="15.122254395176174"><ele>619.3333333333334</ele><time>2026-04-19T13:27:45Z</time></trkpt><trkpt lat="37.84055786832982" lon="15.122230438749245"><ele>622.0</ele><time>2026-04-19T13:27:46Z</time></trkpt><trkpt lat="37.840489262778306" lon="15.122202910770842"><ele>622.0</ele><time>2026-04-19T13:27:47Z</time></trkpt><trkpt lat="37.84036776223679" lon="15.122174570888472"><ele>622.0</ele><time>2026-04-19T13:27:49Z</time></trkpt><trkpt lat="37.840297434725485" lon="15.122175215465099"><ele>622.0</ele><time>2026-04-19T13:27:50Z</time></trkpt><trkpt lat="37.84022879847389" lon="15.122198005424146"><ele>622.0</ele><time>2026-04-19T13:27:51Z</time></trkpt><trkpt lat="37.840177052957095" lon="15.122267980045295"><ele>622.0</ele><time>2026-04-19T13:27:52Z</time></trkpt><trkpt lat="37.84012846521056" lon="15.122333691166057"><ele>622.0</ele><time>2026-04-19T13:27:53Z</time></trkpt><trkpt lat="37.84007733635953" lon="15.122401865327944"><ele>620.6666666666667</ele><time>2026-04-19T13:27:54Z</time></trkpt><trkpt lat="37.8400175853133" lon="15.122454336591252"><ele>619.3333333333334</ele><time>2026-04-19T13:27:55Z</time></trkpt><trkpt lat="37.83994929564411" lon="15.122481136116654"><ele>618.0</ele><time>2026-04-19T13:27:56Z</time></trkpt><trkpt lat="37.839873060244805" lon="15.122449959079484"><ele>616.6666666666666</ele><time>2026-04-19T13:27:57Z</time></trkpt><trkpt lat="37.839803358807565" lon="15.12241438762121"><ele>615.3333333333333</ele><time>2026-04-19T13:27:58Z</time></trkpt><trkpt lat="37.839719905270364" lon="15.12235286879456"><ele>614.0</ele><time>2026-04-19T13:27:59Z</time></trkpt><trkpt lat="37.839622568884586" lon="15.122315174998258"><ele>614.0</ele><time>2026-04-19T13:28:00Z</time></trkpt><trkpt lat="37.839531665474254" lon="15.12225681967814"><ele>614.0</ele><time>2026-04-19T13:28:01Z</time></trkpt><trkpt lat="37.839437404952854" lon="15.12219721005421"><ele>614.0</ele><time>2026-04-19T13:28:02Z</time></trkpt><trkpt lat="37.83934397744726" lon="15.122136806509586"><ele>614.0</ele><time>2026-04-19T13:28:03Z</time></trkpt><trkpt lat="37.83924289287616" lon="15.122090268837018"><ele>614.0</ele><time>2026-04-19T13:28:04Z</time></trkpt><trkpt lat="37.839139779900485" lon="15.122067665442145"><ele>613.8</ele><time>2026-04-19T13:28:05Z</time></trkpt><trkpt lat="37.839035183393186" lon="15.122079233550648"><ele>613.5999999999999</ele><time>2026-04-19T13:28:06Z</time></trkpt><trkpt lat="37.838930874488575" lon="15.122103422765667"><ele>613.4</ele><time>2026-04-19T13:28:07Z</time></trkpt><trkpt lat="37.83883486735259" lon="15.12214265100153"><ele>613.1999999999999</ele><time>2026-04-19T13:28:08Z</time></trkpt><trkpt lat="37.83874797689775" lon="15.122190796035223"><ele>613.0</ele><time>2026-04-19T13:28:09Z</time></trkpt><trkpt lat="37.8386627293387" lon="15.12223979096476"><ele>613.0</ele><time>2026-04-19T13:28:10Z</time></trkpt><trkpt lat="37.838573789100415" lon="15.122283977370559"><ele>613.0</ele><time>2026-04-19T13:28:11Z</time></trkpt><trkpt lat="37.8384792685778" lon="15.122321116334897"><ele>613.0</ele><time>2026-04-19T13:28:12Z</time></trkpt><trkpt lat="37.838386002227615" lon="15.122371265936284"><ele>613.0</ele><time>2026-04-19T13:28:13Z</time></trkpt><trkpt lat="37.83830312731467" lon="15.122430087347519"><ele>613.0</ele><time>2026-04-19T13:28:14Z</time></trkpt><trkpt lat="37.83822979941637" lon="15.122482828156192"><ele>612.6</ele><time>2026-04-19T13:28:15Z</time></trkpt><trkpt lat="37.83816624144055" lon="15.122514977959453"><ele>612.1999999999999</ele><time>2026-04-19T13:28:16Z</time></trkpt><trkpt lat="37.8380425341408" lon="15.122497594092751"><ele>611.8</ele><time>2026-04-19T13:28:18Z</time></trkpt><trkpt lat="37.837969454017156" lon="15.12243574175707"><ele>611.4</ele><time>2026-04-19T13:28:19Z</time></trkpt><trkpt lat="37.837862989408954" lon="15.122391129765717"><ele>611.0</ele><time>2026-04-19T13:28:20Z</time></trkpt><trkpt lat="37.83776484385263" lon="15.122332434806818"><ele>611.75</ele><time>2026-04-19T13:28:21Z</time></trkpt><trkpt lat="37.83765736433249" lon="15.122278850933345"><ele>612.5</ele><time>2026-04-19T13:28:22Z</time></trkpt><trkpt lat="37.837541854010716" lon="15.122227957461618"><ele>613.25</ele><time>2026-04-19T13:28:23Z</time></trkpt><trkpt lat="37.837423337931945" lon="15.12216835166395"><ele>614.0</ele><time>2026-04-19T13:28:24Z</time></trkpt><trkpt lat="37.83730438677517" lon="15.122116648440553"><ele>614.0</ele><time>2026-04-19T13:28:25Z</time></trkpt><trkpt lat="37.83719247001751" lon="15.12206418199494"><ele>614.0</ele><time>2026-04-19T13:28:26Z</time></trkpt><trkpt lat="37.83708698233158" lon="15.122013887516857"><ele>614.0</ele><time>2026-04-19T13:28:27Z</time></trkpt><trkpt lat="37.8369901801186" lon="15.121967655708298"><ele>614.0</ele><time>2026-04-19T13:28:28Z</time></trkpt><trkpt lat="37.83690737014517" lon="15.121934981345131"><ele>614.0</ele><time>2026-04-19T13:28:29Z</time></trkpt><trkpt lat="37.836843364170896" lon="15.121905197577528"><ele>614.8</ele><time>2026-04-19T13:28:30Z</time></trkpt><trkpt lat="37.83677230806329" lon="15.121875525503162"><ele>615.5999999999999</ele><time>2026-04-19T13:28:32Z</time></trkpt><trkpt lat="37.83669020010386" lon="15.121800850916188"><ele>616.4</ele><time>2026-04-19T13:28:35Z</time></trkpt><trkpt lat="37.836698247420024" lon="15.121634465854711"><ele>617.1999999999999</ele><time>2026-04-19T13:28:36Z</time></trkpt><trkpt lat="37.836674566557676" lon="15.121476333339167"><ele>618.0</ele><time>2026-04-19T13:28:37Z</time></trkpt><trkpt lat="37.83664883897522" lon="15.121296759132758"><ele>620.0</ele><time>2026-04-19T13:28:38Z</time></trkpt><trkpt lat="37.83661523403556" lon="15.121079934687094"><ele>622.0</ele><time>2026-04-19T13:28:39Z</time></trkpt><trkpt lat="37.83657930707897" lon="15.120840982576018"><ele>624.0</ele><time>2026-04-19T13:28:40Z</time></trkpt><trkpt lat="37.83654249795172" lon="15.120609302855325"><ele>625.5</ele><time>2026-04-19T13:28:41Z</time></trkpt><trkpt lat="37.83651493982722" lon="15.120413430022722"><ele>627.0</ele><time>2026-04-19T13:28:42Z</time></trkpt><trkpt lat="37.83650990843375" lon="15.12023013574589"><ele>628.5</ele><time>2026-04-19T13:28:43Z</time></trkpt><trkpt lat="37.83654068900465" lon="15.120062333899432"><ele>630.0</ele><time>2026-04-19T13:28:44Z</time></trkpt><trkpt lat="37.83660440722474" lon="15.119919952033323"><ele>632.0</ele><time>2026-04-19T13:28:45Z</time></trkpt><trkpt lat="37.836711648261286" lon="15.119809194131582"><ele>634.0</ele><time>2026-04-19T13:28:46Z</time></trkpt><trkpt lat="37.83683791879174" lon="15.11972752785503"><ele>636.0</ele><time>2026-04-19T13:28:47Z</time></trkpt><trkpt lat="37.83696857759126" lon="15.11968227094903"><ele>638.0</ele><time>2026-04-19T13:28:48Z</time></trkpt><trkpt lat="37.837109186642664" lon="15.119654137023169"><ele>638.25</ele><time>2026-04-19T13:28:49Z</time></trkpt><trkpt lat="37.837253884190375" lon="15.11962401356246"><ele>638.5</ele><time>2026-04-19T13:28:50Z</time></trkpt><trkpt lat="37.83739581446102" lon="15.11961231240179"><ele>638.75</ele><time>2026-04-19T13:28:51Z</time></trkpt><trkpt lat="37.83753854563404" lon="15.119646333141416"><ele>639.0</ele><time>2026-04-19T13:28:52Z</time></trkpt><trkpt lat="37.837680698690406" lon="15.119696737352761"><ele>640.5</ele><time>2026-04-19T13:28:53Z</time></trkpt><trkpt lat="37.83781988069717" lon="15.119733844008438"><ele>642.0</ele><time>2026-04-19T13:28:54Z</time></trkpt><trkpt lat="37.837959671058066" lon="15.119743819943155"><ele>643.5</ele><time>2026-04-19T13:28:55Z</time></trkpt><trkpt lat="37.83809942464341" lon="15.119703470969162"><ele>645.0</ele><time>2026-04-19T13:28:56Z</time></trkpt><trkpt lat="37.83822502464138" lon="15.119609182700517"><ele>645.0</ele><time>2026-04-19T13:28:57Z</time></trkpt><trkpt lat="37.838339708053326" lon="15.119478306268705"><ele>645.0</ele><time>2026-04-19T13:28:58Z</time></trkpt><trkpt lat="37.838456167383676" lon="15.119349399647671"><ele>645.0</ele><time>2026-04-19T13:28:59Z</time></trkpt><trkpt lat="37.8385578896268" lon="15.119230253048086"><ele>645.0</ele><time>2026-04-19T13:29:00Z</time></trkpt><trkpt lat="37.83862632790909" lon="15.119073064980189"><ele>644.6666666666666</ele><time>2026-04-19T13:29:01Z</time></trkpt><trkpt lat="37.838655552584726" lon="15.11887956730626"><ele>644.3333333333333</ele><time>2026-04-19T13:29:02Z</time></trkpt><trkpt lat="37.838661371904536" lon="15.118655853841126"><ele>644.0</ele><time>2026-04-19T13:29:03Z</time></trkpt><trkpt lat="37.838663694154405" lon="15.118407946198634"><ele>646.6666666666666</ele><time>2026-04-19T13:29:04Z</time></trkpt><trkpt lat="37.83867103311073" lon="15.118137351509084"><ele>649.3333333333334</ele><time>2026-04-19T13:29:05Z</time></trkpt><trkpt lat="37.83867972277008" lon="15.117857465056256"><ele>652.0</ele><time>2026-04-19T13:29:06Z</time></trkpt><trkpt lat="37.83868727315166" lon="15.117584668738186"><ele>653.3333333333334</ele><time>2026-04-19T13:29:07Z</time></trkpt><trkpt lat="37.83869561905239" lon="15.117351088462756"><ele>654.6666666666666</ele><time>2026-04-19T13:29:08Z</time></trkpt><trkpt lat="37.83869828216228" lon="15.1171477088068"><ele>656.0</ele><time>2026-04-19T13:29:09Z</time></trkpt><trkpt lat="37.83867246809086" lon="15.116955818951622"><ele>656.0</ele><time>2026-04-19T13:29:10Z</time></trkpt><trkpt lat="37.838594270857214" lon="15.116782038440851"><ele>656.0</ele><time>2026-04-19T13:29:11Z</time></trkpt><trkpt lat="37.838471538077336" lon="15.116628899493811"><ele>656.0</ele><time>2026-04-19T13:29:12Z</time></trkpt><trkpt lat="37.83832716626537" lon="15.116468981571675"><ele>658.6666666666666</ele><time>2026-04-19T13:29:13Z</time></trkpt><trkpt lat="37.83816124837462" lon="15.116335805049728"><ele>661.3333333333334</ele><time>2026-04-19T13:29:14Z</time></trkpt><trkpt lat="37.83800573291678" lon="15.11616003549385"><ele>664.0</ele><time>2026-04-19T13:29:15Z</time></trkpt><trkpt lat="37.8378539906229" lon="15.115955128842494"><ele>667.5</ele><time>2026-04-19T13:29:16Z</time></trkpt><trkpt lat="37.83771633973339" lon="15.115728344411938"><ele>671.0</ele><time>2026-04-19T13:29:17Z</time></trkpt><trkpt lat="37.83758058772477" lon="15.11549149785549"><ele>672.5</ele><time>2026-04-19T13:29:18Z</time></trkpt><trkpt lat="37.837436625807825" lon="15.115258229136783"><ele>674.0</ele><time>2026-04-19T13:29:19Z</time></trkpt><trkpt lat="37.83730068510039" lon="15.115036306809698"><ele>674.6666666666666</ele><time>2026-04-19T13:29:20Z</time></trkpt><trkpt lat="37.837178428094965" lon="15.114813703578232"><ele>675.3333333333334</ele><time>2026-04-19T13:29:21Z</time></trkpt><trkpt lat="37.83707078432743" lon="15.11456476352607"><ele>676.0</ele><time>2026-04-19T13:29:22Z</time></trkpt><trkpt lat="37.83695723438693" lon="15.11429862838287"><ele>678.5</ele><time>2026-04-19T13:29:23Z</time></trkpt><trkpt lat="37.83683837625422" lon="15.114017850811813"><ele>681.0</ele><time>2026-04-19T13:29:24Z</time></trkpt><trkpt lat="37.836710580086056" lon="15.113721248342513"><ele>682.5</ele><time>2026-04-19T13:29:25Z</time></trkpt><trkpt lat="37.83657893769275" lon="15.113421991084907"><ele>684.0</ele><time>2026-04-19T13:29:26Z</time></trkpt><trkpt lat="37.836456084114126" lon="15.113135882087185"><ele>685.3333333333334</ele><time>2026-04-19T13:29:27Z</time></trkpt><trkpt lat="37.83634634618074" lon="15.112881051495464"><ele>686.6666666666667</ele><time>2026-04-19T13:29:28Z</time></trkpt><trkpt lat="37.83624372926942" lon="15.112644609619917"><ele>688.0</ele><time>2026-04-19T13:29:29Z</time></trkpt><trkpt lat="37.83614116348481" lon="15.112403737546817"><ele>689.0</ele><time>2026-04-19T13:29:30Z</time></trkpt><trkpt lat="37.83603445262265" lon="15.112168665666436"><ele>690.0</ele><time>2026-04-19T13:29:31Z</time></trkpt><trkpt lat="37.83591196035165" lon="15.111946036916173"><ele>691.0</ele><time>2026-04-19T13:29:32Z</time></trkpt><trkpt lat="37.83577735846693" lon="15.11173479772735"><ele>692.6666666666667</ele><time>2026-04-19T13:29:33Z</time></trkpt><trkpt lat="37.83564134984874" lon="15.111529681097739"><ele>694.3333333333334</ele><time>2026-04-19T13:29:34Z</time></trkpt><trkpt lat="37.83552464679857" lon="15.111346080260148"><ele>696.0</ele><time>2026-04-19T13:29:35Z</time></trkpt><trkpt lat="37.835415083154835" lon="15.11117332026684"><ele>696.0</ele><time>2026-04-19T13:29:36Z</time></trkpt><trkpt lat="37.83530585856898" lon="15.111009535357601"><ele>696.0</ele><time>2026-04-19T13:29:37Z</time></trkpt><trkpt lat="37.83517186102724" lon="15.110878406062126"><ele>696.0</ele><time>2026-04-19T13:29:38Z</time></trkpt><trkpt lat="37.83501354996926" lon="15.110806359259467"><ele>699.3333333333334</ele><time>2026-04-19T13:29:39Z</time></trkpt><trkpt lat="37.8348462883066" lon="15.110734279960809"><ele>702.6666666666667</ele><time>2026-04-19T13:29:40Z</time></trkpt><trkpt lat="37.834682910179275" lon="15.11063835670131"><ele>706.0</ele><time>2026-04-19T13:29:41Z</time></trkpt><trkpt lat="37.834515534469936" lon="15.110522861240336"><ele>706.0</ele><time>2026-04-19T13:29:42Z</time></trkpt><trkpt lat="37.834346622031426" lon="15.110402760253168"><ele>706.0</ele><time>2026-04-19T13:29:43Z</time></trkpt><trkpt lat="37.83420615729587" lon="15.110291145178063"><ele>706.0</ele><time>2026-04-19T13:29:44Z</time></trkpt><trkpt lat="37.83408317790197" lon="15.110172706288317"><ele>706.5</ele><time>2026-04-19T13:29:45Z</time></trkpt><trkpt lat="37.833980792790115" lon="15.110032833328978"><ele>707.0</ele><time>2026-04-19T13:29:46Z</time></trkpt><trkpt lat="37.83388925248399" lon="15.109918924333579"><ele>707.5</ele><time>2026-04-19T13:29:47Z</time></trkpt><trkpt lat="37.833829955447555" lon="15.109792684427086"><ele>708.0</ele><time>2026-04-19T13:29:48Z</time></trkpt><trkpt lat="37.83377794202179" lon="15.109663770117805"><ele>709.0</ele><time>2026-04-19T13:29:49Z</time></trkpt><trkpt lat="37.83372541325337" lon="15.10952566498364"><ele>710.0</ele><time>2026-04-19T13:29:50Z</time></trkpt><trkpt lat="37.83366051767387" lon="15.109368650838402"><ele>711.0</ele><time>2026-04-19T13:29:51Z</time></trkpt><trkpt lat="37.833586858647486" lon="15.109207220718144"><ele>712.0</ele><time>2026-04-19T13:29:52Z</time></trkpt><trkpt lat="37.833501865075945" lon="15.109052904333659"><ele>713.6666666666667</ele><time>2026-04-19T13:29:53Z</time></trkpt><trkpt lat="37.83340878394673" lon="15.108895512558103"><ele>715.3333333333334</ele><time>2026-04-19T13:29:54Z</time></trkpt><trkpt lat="37.83331330119735" lon="15.108739451934852"><ele>717.0</ele><time>2026-04-19T13:29:55Z</time></trkpt><trkpt lat="37.83321730944445" lon="15.108586156256283"><ele>717.0</ele><time>2026-04-19T13:29:56Z</time></trkpt><trkpt lat="37.83312849589713" lon="15.108439906972135"><ele>717.0</ele><time>2026-04-19T13:29:57Z</time></trkpt><trkpt lat="37.83305314384123" lon="15.10830679368026"><ele>717.0</ele><time>2026-04-19T13:29:58Z</time></trkpt><trkpt lat="37.832988489080364" lon="15.10819586887512"><ele>717.0</ele><time>2026-04-19T13:29:59Z</time></trkpt><trkpt lat="37.83293137216104" lon="15.108111131334422"><ele>719.0</ele><time>2026-04-19T13:30:00Z</time></trkpt><trkpt lat="37.832882645232786" lon="15.108044653021954"><ele>721.0</ele><time>2026-04-19T13:30:01Z</time></trkpt><trkpt lat="37.83279742689003" lon="15.107969966758091"><ele>723.0</ele><time>2026-04-19T13:30:03Z</time></trkpt><trkpt lat="37.832728881274235" lon="15.107950574587683"><ele>725.0</ele><time>2026-04-19T13:30:05Z</time></trkpt><trkpt lat="37.83262676024209" lon="15.107948787270418"><ele>727.0</ele><time>2026-04-19T13:30:07Z</time></trkpt><trkpt lat="37.83256322084325" lon="15.10798545805783"><ele>729.0</ele><time>2026-04-19T13:30:08Z</time></trkpt><trkpt lat="37.832483146605455" lon="15.108042404795954"><ele>728.0</ele><time>2026-04-19T13:30:09Z</time></trkpt><trkpt lat="37.832394823187066" lon="15.108120005291063"><ele>727.0</ele><time>2026-04-19T13:30:10Z</time></trkpt><trkpt lat="37.83230355322541" lon="15.108203992706411"><ele>726.0</ele><time>2026-04-19T13:30:11Z</time></trkpt><trkpt lat="37.83220586251196" lon="15.108284710420266"><ele>725.0</ele><time>2026-04-19T13:30:12Z</time></trkpt><trkpt lat="37.832102535504795" lon="15.108356597559846"><ele>725.0</ele><time>2026-04-19T13:30:13Z</time></trkpt><trkpt lat="37.83199322678445" lon="15.108417871791856"><ele>725.0</ele><time>2026-04-19T13:30:14Z</time></trkpt><trkpt lat="37.83187596988666" lon="15.10844695084631"><ele>725.0</ele><time>2026-04-19T13:30:15Z</time></trkpt><trkpt lat="37.83175095348075" lon="15.108434839772752"><ele>725.0</ele><time>2026-04-19T13:30:16Z</time></trkpt><trkpt lat="37.83162262703181" lon="15.108382455287959"><ele>728.0</ele><time>2026-04-19T13:30:17Z</time></trkpt><trkpt lat="37.831495039016964" lon="15.108317738755547"><ele>731.0</ele><time>2026-04-19T13:30:18Z</time></trkpt><trkpt lat="37.831361845714" lon="15.108258788463491"><ele>734.0</ele><time>2026-04-19T13:30:19Z</time></trkpt><trkpt lat="37.831227453587715" lon="15.108201111919897"><ele>737.0</ele><time>2026-04-19T13:30:20Z</time></trkpt><trkpt lat="37.83110017688195" lon="15.108159870265776"><ele>739.5</ele><time>2026-04-19T13:30:21Z</time></trkpt><trkpt lat="37.830979811059315" lon="15.108143407957796"><ele>742.0</ele><time>2026-04-19T13:30:22Z</time></trkpt><trkpt lat="37.830855629941425" lon="15.108139066010542"><ele>744.5</ele><time>2026-04-19T13:30:23Z</time></trkpt><trkpt lat="37.83072446525543" lon="15.108140497005701"><ele>747.0</ele><time>2026-04-19T13:30:24Z</time></trkpt><trkpt lat="37.83058865726207" lon="15.108146614779207"><ele>748.25</ele><time>2026-04-19T13:30:25Z</time></trkpt><trkpt lat="37.830455072152446" lon="15.10815926383412"><ele>749.5</ele><time>2026-04-19T13:30:26Z</time></trkpt><trkpt lat="37.830317808994614" lon="15.108183094538212"><ele>750.75</ele><time>2026-04-19T13:30:27Z</time></trkpt><trkpt lat="37.830169601654376" lon="15.108211004747504"><ele>752.0</ele><time>2026-04-19T13:30:28Z</time></trkpt><trkpt lat="37.83002201824044" lon="15.108239581373343"><ele>751.8</ele><time>2026-04-19T13:30:29Z</time></trkpt><trkpt lat="37.829883919960416" lon="15.108266669610796"><ele>751.6</ele><time>2026-04-19T13:30:30Z</time></trkpt><trkpt lat="37.82977361709831" lon="15.108288787079946"><ele>751.4</ele><time>2026-04-19T13:30:31Z</time></trkpt><trkpt lat="37.82968436338586" lon="15.108308563961227"><ele>751.1999999999999</ele><time>2026-04-19T13:30:32Z</time></trkpt><trkpt lat="37.829605516511684" lon="15.10833523349544"><ele>751.0</ele><time>2026-04-19T13:30:33Z</time></trkpt><trkpt lat="37.82952066840994" lon="15.108373334353578"><ele>751.0</ele><time>2026-04-19T13:30:34Z</time></trkpt><trkpt lat="37.829401611467695" lon="15.108443180217002"><ele>751.0</ele><time>2026-04-19T13:30:35Z</time></trkpt><trkpt lat="37.82926112715676" lon="15.1085410372599"><ele>751.0</ele><time>2026-04-19T13:30:36Z</time></trkpt><trkpt lat="37.82912345185632" lon="15.10868862836268"><ele>751.6666666666667</ele><time>2026-04-19T13:30:37Z</time></trkpt><trkpt lat="37.82899311791899" lon="15.108885948931754"><ele>752.3333333333334</ele><time>2026-04-19T13:30:38Z</time></trkpt><trkpt lat="37.82885023751753" lon="15.109106143815564"><ele>753.0</ele><time>2026-04-19T13:30:39Z</time></trkpt><trkpt lat="37.828698418744814" lon="15.109325223627815"><ele>753.0</ele><time>2026-04-19T13:30:40Z</time></trkpt><trkpt lat="37.82852745803759" lon="15.109552035373364"><ele>753.0</ele><time>2026-04-19T13:30:41Z</time></trkpt><trkpt lat="37.82834153318596" lon="15.109771281547468"><ele>756.0</ele><time>2026-04-19T13:30:42Z</time></trkpt><trkpt lat="37.82814660769744" lon="15.10997302678341"><ele>759.0</ele><time>2026-04-19T13:30:43Z</time></trkpt><trkpt lat="37.82792975776418" lon="15.110168756491055"><ele>759.0</ele><time>2026-04-19T13:30:44Z</time></trkpt><trkpt lat="37.82769670441254" lon="15.110368042590013"><ele>759.0</ele><time>2026-04-19T13:30:45Z</time></trkpt><trkpt lat="37.827452813301896" lon="15.110571692600807"><ele>761.0</ele><time>2026-04-19T13:30:46Z</time></trkpt><trkpt lat="37.82720454254585" lon="15.110776025028018"><ele>763.0</ele><time>2026-04-19T13:30:47Z</time></trkpt><trkpt lat="37.82697410755864" lon="15.110969785201895"><ele>772.0</ele><time>2026-04-19T13:30:48Z</time></trkpt><trkpt lat="37.82676615181693" lon="15.111137255418909"><ele>781.0</ele><time>2026-04-19T13:30:49Z</time></trkpt><trkpt lat="37.82658064217747" lon="15.111288189886347"><ele>781.0</ele><time>2026-04-19T13:30:50Z</time></trkpt><trkpt lat="37.82642745504722" lon="15.111415695536213"><ele>781.0</ele><time>2026-04-19T13:30:51Z</time></trkpt><trkpt lat="37.82631222235778" lon="15.111527831484258"><ele>781.0</ele><time>2026-04-19T13:30:52Z</time></trkpt><trkpt lat="37.826229932826664" lon="15.111668404313294"><ele>778.75</ele><time>2026-04-19T13:30:53Z</time></trkpt><trkpt lat="37.82620204676257" lon="15.111846546505488"><ele>776.5</ele><time>2026-04-19T13:30:54Z</time></trkpt><trkpt lat="37.826222067747565" lon="15.11203556003392"><ele>774.25</ele><time>2026-04-19T13:30:55Z</time></trkpt><trkpt lat="37.82623393848081" lon="15.112176307935279"><ele>772.0</ele><time>2026-04-19T13:30:56Z</time></trkpt><trkpt lat="37.82618674563069" lon="15.112288544505773"><ele>772.0</ele><time>2026-04-19T13:30:57Z</time></trkpt><trkpt lat="37.826099308205855" lon="15.112348016860398"><ele>772.0</ele><time>2026-04-19T13:30:58Z</time></trkpt><trkpt lat="37.82597199305523" lon="15.112368327930675"><ele>772.0</ele><time>2026-04-19T13:30:59Z</time></trkpt><trkpt lat="37.82582046691397" lon="15.11239438549905"><ele>772.0</ele><time>2026-04-19T13:31:00Z</time></trkpt><trkpt lat="37.825708057571255" lon="15.112422281626642"><ele>776.4000000000001</ele><time>2026-04-19T13:31:01Z</time></trkpt><trkpt lat="37.82561467537907" lon="15.112400770012817"><ele>780.8000000000001</ele><time>2026-04-19T13:31:02Z</time></trkpt><trkpt lat="37.82554776779569" lon="15.112303349206954"><ele>785.2</ele><time>2026-04-19T13:31:03Z</time></trkpt><trkpt lat="37.82549749238232" lon="15.112196267797147"><ele>789.6</ele><time>2026-04-19T13:31:04Z</time></trkpt><trkpt lat="37.82551701529333" lon="15.112041862250692"><ele>794.0</ele><time>2026-04-19T13:31:05Z</time></trkpt><trkpt lat="37.82559750363673" lon="15.111920868900631"><ele>794.0</ele><time>2026-04-19T13:31:06Z</time></trkpt><trkpt lat="37.82569847087224" lon="15.111804514181081"><ele>794.0</ele><time>2026-04-19T13:31:07Z</time></trkpt><trkpt lat="37.82580350590037" lon="15.11169545822326"><ele>794.0</ele><time>2026-04-19T13:31:08Z</time></trkpt><trkpt lat="37.82588241166228" lon="15.111533211462977"><ele>794.0</ele><time>2026-04-19T13:31:09Z</time></trkpt><trkpt lat="37.82591701297627" lon="15.11135057777879"><ele>795.0</ele><time>2026-04-19T13:31:10Z</time></trkpt><trkpt lat="37.82590211407348" lon="15.111160441412743"><ele>796.0</ele><time>2026-04-19T13:31:11Z</time></trkpt><trkpt lat="37.82583422698895" lon="15.110969393898305"><ele>797.0</ele><time>2026-04-19T13:31:12Z</time></trkpt><trkpt lat="37.82571378593921" lon="15.110776315861758"><ele>798.5</ele><time>2026-04-19T13:31:13Z</time></trkpt><trkpt lat="37.825546203137094" lon="15.110542630266192"><ele>800.0</ele><time>2026-04-19T13:31:14Z</time></trkpt><trkpt lat="37.825369281808925" lon="15.110278383284255"><ele>800.0</ele><time>2026-04-19T13:31:15Z</time></trkpt><trkpt lat="37.82520016135756" lon="15.109997506867025"><ele>800.0</ele><time>2026-04-19T13:31:16Z</time></trkpt><trkpt lat="37.82506366047109" lon="15.109792991310018"><ele>803.25</ele><time>2026-04-19T13:31:17Z</time></trkpt><trkpt lat="37.8249669792731" lon="15.109631949623289"><ele>806.5</ele><time>2026-04-19T13:31:18Z</time></trkpt><trkpt lat="37.82490072497397" lon="15.109488212794632"><ele>809.75</ele><time>2026-04-19T13:31:19Z</time></trkpt><trkpt lat="37.82487181369197" lon="15.109293802840707"><ele>813.0</ele><time>2026-04-19T13:31:20Z</time></trkpt><trkpt lat="37.824902575242405" lon="15.10908584923491"><ele>817.5</ele><time>2026-04-19T13:31:21Z</time></trkpt><trkpt lat="37.82495968796043" lon="15.108831234986122"><ele>822.0</ele><time>2026-04-19T13:31:22Z</time></trkpt><trkpt lat="37.825025108153625" lon="15.108527597111044"><ele>822.0</ele><time>2026-04-19T13:31:23Z</time></trkpt><trkpt lat="37.82507983711806" lon="15.108273700461675"><ele>822.0</ele><time>2026-04-19T13:31:24Z</time></trkpt><trkpt lat="37.82510770728805" lon="15.108065040564721"><ele>822.0</ele><time>2026-04-19T13:31:25Z</time></trkpt><trkpt lat="37.82515671768734" lon="15.107910921293458"><ele>823.3333333333333</ele><time>2026-04-19T13:31:26Z</time></trkpt><trkpt lat="37.82523948582975" lon="15.107795476922451"><ele>824.6666666666666</ele><time>2026-04-19T13:31:27Z</time></trkpt><trkpt lat="37.82537466275229" lon="15.107685632910673"><ele>826.0</ele><time>2026-04-19T13:31:28Z</time></trkpt><trkpt lat="37.8255428499025" lon="15.107568490410015"><ele>829.3333333333333</ele><time>2026-04-19T13:31:29Z</time></trkpt><trkpt lat="37.825688491544675" lon="15.107389078991888"><ele>832.6666666666667</ele><time>2026-04-19T13:31:30Z</time></trkpt><trkpt lat="37.8258210271076" lon="15.107150322781322"><ele>836.0</ele><time>2026-04-19T13:31:31Z</time></trkpt><trkpt lat="37.825931289929635" lon="15.106914056649591"><ele>835.0</ele><time>2026-04-19T13:31:32Z</time></trkpt><trkpt lat="37.82601874122639" lon="15.106738608482972"><ele>834.0</ele><time>2026-04-19T13:31:33Z</time></trkpt><trkpt lat="37.826074531692946" lon="15.106584483248307"><ele>833.0</ele><time>2026-04-19T13:31:34Z</time></trkpt><trkpt lat="37.82608810699267" lon="15.106413266496334"><ele>832.0</ele><time>2026-04-19T13:31:35Z</time></trkpt><trkpt lat="37.82605454284325" lon="15.106212046592024"><ele>832.0</ele><time>2026-04-19T13:31:36Z</time></trkpt><trkpt lat="37.82602535310081" lon="15.1060136928919"><ele>832.0</ele><time>2026-04-19T13:31:37Z</time></trkpt><trkpt lat="37.82606336030636" lon="15.105855307263443"><ele>832.0</ele><time>2026-04-19T13:31:38Z</time></trkpt><trkpt lat="37.82614762471309" lon="15.105714808772811"><ele>832.0</ele><time>2026-04-19T13:31:39Z</time></trkpt><trkpt lat="37.82626791215356" lon="15.105614984620164"><ele>835.0</ele><time>2026-04-19T13:31:40Z</time></trkpt><trkpt lat="37.82641389255632" lon="15.105548730025298"><ele>838.0</ele><time>2026-04-19T13:31:41Z</time></trkpt><trkpt lat="37.82656131794719" lon="15.105531319590556"><ele>841.0</ele><time>2026-04-19T13:31:42Z</time></trkpt><trkpt lat="37.82665472544175" lon="15.105473584582368"><ele>844.0</ele><time>2026-04-19T13:31:43Z</time></trkpt><trkpt lat="37.82672529072886" lon="15.105365894681551"><ele>844.0</ele><time>2026-04-19T13:31:44Z</time></trkpt><trkpt lat="37.826763911728634" lon="15.105212033412656"><ele>844.0</ele><time>2026-04-19T13:31:45Z</time></trkpt><trkpt lat="37.82676418896832" lon="15.10504141706678"><ele>844.0</ele><time>2026-04-19T13:31:46Z</time></trkpt><trkpt lat="37.82671024994523" lon="15.104909877957425"><ele>844.0</ele><time>2026-04-19T13:31:47Z</time></trkpt><trkpt lat="37.826606805621815" lon="15.104813038841751"><ele>844.0</ele><time>2026-04-19T13:31:48Z</time></trkpt><trkpt lat="37.82647837006614" lon="15.104761447420874"><ele>844.0</ele><time>2026-04-19T13:31:49Z</time></trkpt><trkpt lat="37.82634085860855" lon="15.104785777682789"><ele>844.0</ele><time>2026-04-19T13:31:50Z</time></trkpt><trkpt lat="37.826222348157934" lon="15.104882052143985"><ele>844.0</ele><time>2026-04-19T13:31:51Z</time></trkpt><trkpt lat="37.82611096689737" lon="15.105045516535514"><ele>848.3333333333333</ele><time>2026-04-19T13:31:52Z</time></trkpt><trkpt lat="37.82595561943398" lon="15.105232795387796"><ele>852.6666666666667</ele><time>2026-04-19T13:31:53Z</time></trkpt><trkpt lat="37.82579969472705" lon="15.105428643865723"><ele>857.0</ele><time>2026-04-19T13:31:54Z</time></trkpt><trkpt lat="37.8256780204387" lon="15.105581153067012"><ele>857.0</ele><time>2026-04-19T13:31:55Z</time></trkpt><trkpt lat="37.8255721562053" lon="15.105704694458645"><ele>857.0</ele><time>2026-04-19T13:31:56Z</time></trkpt><trkpt lat="37.825483125268974" lon="15.105795959348155"><ele>857.0</ele><time>2026-04-19T13:31:57Z</time></trkpt><trkpt lat="37.825364064724134" lon="15.105816735274681"><ele>857.0</ele><time>2026-04-19T13:31:58Z</time></trkpt><trkpt lat="37.82521562148648" lon="15.105795169357561"><ele>858.3333333333334</ele><time>2026-04-19T13:31:59Z</time></trkpt><trkpt lat="37.82503892873363" lon="15.105777289787483"><ele>859.6666666666667</ele><time>2026-04-19T13:32:00Z</time></trkpt><trkpt lat="37.824847702447734" lon="15.105782245114739"><ele>861.0</ele><time>2026-04-19T13:32:01Z</time></trkpt><trkpt lat="37.82465182937837" lon="15.105835926398788"><ele>861.0</ele><time>2026-04-19T13:32:02Z</time></trkpt><trkpt lat="37.82443989687396" lon="15.10592459270633"><ele>861.0</ele><time>2026-04-19T13:32:03Z</time></trkpt><trkpt lat="37.82423748208804" lon="15.106055857725794"><ele>866.6666666666667</ele><time>2026-04-19T13:32:04Z</time></trkpt><trkpt lat="37.82409016167454" lon="15.106211897041643"><ele>872.3333333333334</ele><time>2026-04-19T13:32:05Z</time></trkpt><trkpt lat="37.823986154189456" lon="15.106347901674225"><ele>878.0</ele><time>2026-04-19T13:32:06Z</time></trkpt><trkpt lat="37.82389544088147" lon="15.106446406686965"><ele>878.0</ele><time>2026-04-19T13:32:07Z</time></trkpt><trkpt lat="37.82378868681458" lon="15.106482497798629"><ele>878.0</ele><time>2026-04-19T13:32:08Z</time></trkpt><trkpt lat="37.823641569499394" lon="15.106460962399368"><ele>878.0</ele><time>2026-04-19T13:32:09Z</time></trkpt><trkpt lat="37.82345502130112" lon="15.106385847666925"><ele>884.0</ele><time>2026-04-19T13:32:10Z</time></trkpt><trkpt lat="37.82322792247078" lon="15.106290308538671"><ele>890.0</ele><time>2026-04-19T13:32:11Z</time></trkpt><trkpt lat="37.8229896816559" lon="15.10621375570126"><ele>890.0</ele><time>2026-04-19T13:32:12Z</time></trkpt><trkpt lat="37.82279765794285" lon="15.10615239445616"><ele>890.0</ele><time>2026-04-19T13:32:13Z</time></trkpt><trkpt lat="37.822651240497436" lon="15.106121720327543"><ele>890.0</ele><time>2026-04-19T13:32:14Z</time></trkpt><trkpt lat="37.82251333249233" lon="15.1061531822623"><ele>887.6666666666667</ele><time>2026-04-19T13:32:15Z</time></trkpt><trkpt lat="37.82237317231066" lon="15.106239724550075"><ele>885.3333333333333</ele><time>2026-04-19T13:32:16Z</time></trkpt><trkpt lat="37.822233492042564" lon="15.10640242666693"><ele>883.0</ele><time>2026-04-19T13:32:17Z</time></trkpt><trkpt lat="37.82210840532792" lon="15.106633938246189"><ele>883.0</ele><time>2026-04-19T13:32:18Z</time></trkpt><trkpt lat="37.822002432756626" lon="15.106855222986782"><ele>883.0</ele><time>2026-04-19T13:32:19Z</time></trkpt><trkpt lat="37.82191817969808" lon="15.107040194489509"><ele>883.0</ele><time>2026-04-19T13:32:20Z</time></trkpt><trkpt lat="37.82182487127633" lon="15.107179776241432"><ele>888.0</ele><time>2026-04-19T13:32:21Z</time></trkpt><trkpt lat="37.821692937649594" lon="15.107279768601998"><ele>893.0</ele><time>2026-04-19T13:32:22Z</time></trkpt><trkpt lat="37.82154257522012" lon="15.10733659272987"><ele>898.0</ele><time>2026-04-19T13:32:23Z</time></trkpt><trkpt lat="37.821417521370584" lon="15.107357703549987"><ele>903.0</ele><time>2026-04-19T13:32:24Z</time></trkpt><trkpt lat="37.821297600352466" lon="15.107339880013162"><ele>903.0</ele><time>2026-04-19T13:32:25Z</time></trkpt><trkpt lat="37.82115858587301" lon="15.10728240351471"><ele>903.0</ele><time>2026-04-19T13:32:26Z</time></trkpt><trkpt lat="37.82101186326015" lon="15.107167052555303"><ele>903.0</ele><time>2026-04-19T13:32:27Z</time></trkpt><trkpt lat="37.82083928562889" lon="15.1070216322456"><ele>908.0</ele><time>2026-04-19T13:32:28Z</time></trkpt><trkpt lat="37.82063311267181" lon="15.10685304162503"><ele>913.0</ele><time>2026-04-19T13:32:29Z</time></trkpt><trkpt lat="37.82042639669282" lon="15.106693801210312"><ele>918.0</ele><time>2026-04-19T13:32:30Z</time></trkpt><trkpt lat="37.820245752851044" lon="15.106555412608794"><ele>923.0</ele><time>2026-04-19T13:32:31Z</time></trkpt><trkpt lat="37.820072897534466" lon="15.106403231625587"><ele>928.0</ele><time>2026-04-19T13:32:32Z</time></trkpt><trkpt lat="37.81991433240956" lon="15.106212654573577"><ele>928.0</ele><time>2026-04-19T13:32:33Z</time></trkpt><trkpt lat="37.81976717726238" lon="15.106013301643609"><ele>928.0</ele><time>2026-04-19T13:32:34Z</time></trkpt><trkpt lat="37.819637921457925" lon="15.105845044077453"><ele>928.0</ele><time>2026-04-19T13:32:35Z</time></trkpt><trkpt lat="37.8195142760781" lon="15.105714138851651"><ele>933.0</ele><time>2026-04-19T13:32:36Z</time></trkpt><trkpt lat="37.81937429509875" lon="15.105628836883707"><ele>938.0</ele><time>2026-04-19T13:32:37Z</time></trkpt><trkpt lat="37.81921393166939" lon="15.105594864404841"><ele>943.0</ele><time>2026-04-19T13:32:38Z</time></trkpt><trkpt lat="37.81904875264367" lon="15.105635687294773"><ele>943.0</ele><time>2026-04-19T13:32:39Z</time></trkpt><trkpt lat="37.818897496713376" lon="15.105735847921192"><ele>943.0</ele><time>2026-04-19T13:32:40Z</time></trkpt><trkpt lat="37.818772122024264" lon="15.105888262199395"><ele>943.0</ele><time>2026-04-19T13:32:41Z</time></trkpt><trkpt lat="37.81864103973328" lon="15.106025910145933"><ele>940.5999999999999</ele><time>2026-04-19T13:32:42Z</time></trkpt><trkpt lat="37.818551660279674" lon="15.106127505127331"><ele>938.1999999999999</ele><time>2026-04-19T13:32:43Z</time></trkpt><trkpt lat="37.81846749377191" lon="15.1061957992723"><ele>935.8</ele><time>2026-04-19T13:32:44Z</time></trkpt><trkpt lat="37.818374753441894" lon="15.106232643383635"><ele>933.4</ele><time>2026-04-19T13:32:45Z</time></trkpt><trkpt lat="37.81827856316518" lon="15.106182375680351"><ele>931.0</ele><time>2026-04-19T13:32:46Z</time></trkpt><trkpt lat="37.81820506064183" lon="15.10607956666999"><ele>931.0</ele><time>2026-04-19T13:32:47Z</time></trkpt><trkpt lat="37.81817806612234" lon="15.105949078941702"><ele>931.0</ele><time>2026-04-19T13:32:48Z</time></trkpt><trkpt lat="37.818212490093664" lon="15.105811196500468"><ele>931.0</ele><time>2026-04-19T13:32:49Z</time></trkpt><trkpt lat="37.818303484568204" lon="15.105698723255108"><ele>931.0</ele><time>2026-04-19T13:32:50Z</time></trkpt><trkpt lat="37.81843565360243" lon="15.105571856772091"><ele>935.0</ele><time>2026-04-19T13:32:51Z</time></trkpt><trkpt lat="37.818588746448086" lon="15.105414906396735"><ele>939.0</ele><time>2026-04-19T13:32:52Z</time></trkpt><trkpt lat="37.81871129163339" lon="15.105255892651954"><ele>943.0</ele><time>2026-04-19T13:32:53Z</time></trkpt><trkpt lat="37.81883348436837" lon="15.105135817052933"><ele>943.0</ele><time>2026-04-19T13:32:54Z</time></trkpt><trkpt lat="37.81898291015908" lon="15.105066451247174"><ele>943.0</ele><time>2026-04-19T13:32:55Z</time></trkpt><trkpt lat="37.81915511321933" lon="15.105055898509665"><ele>943.0</ele><time>2026-04-19T13:32:56Z</time></trkpt><trkpt lat="37.81934783753473" lon="15.105106113760437"><ele>944.0</ele><time>2026-04-19T13:32:57Z</time></trkpt><trkpt lat="37.819547148096625" lon="15.105186132247836"><ele>945.0</ele><time>2026-04-19T13:32:58Z</time></trkpt><trkpt lat="37.81970069872205" lon="15.10522844124727"><ele>946.0</ele><time>2026-04-19T13:32:59Z</time></trkpt><trkpt lat="37.81983666934651" lon="15.105217836239033"><ele>946.0</ele><time>2026-04-19T13:33:00Z</time></trkpt><trkpt lat="37.81997034472832" lon="15.105148038950324"><ele>946.0</ele><time>2026-04-19T13:33:01Z</time></trkpt><trkpt lat="37.82009617752039" lon="15.105014074647231"><ele>946.0</ele><time>2026-04-19T13:33:02Z</time></trkpt><trkpt lat="37.82021283628742" lon="15.104815314522869"><ele>946.0</ele><time>2026-04-19T13:33:03Z</time></trkpt><trkpt lat="37.82034111915686" lon="15.104561259268728"><ele>946.0</ele><time>2026-04-19T13:33:04Z</time></trkpt><trkpt lat="37.82046156951468" lon="15.10430161458785"><ele>946.0</ele><time>2026-04-19T13:33:05Z</time></trkpt><trkpt lat="37.820573698635606" lon="15.104087656647925"><ele>946.0</ele><time>2026-04-19T13:33:06Z</time></trkpt><trkpt lat="37.82065975160085" lon="15.103819882518032"><ele>946.0</ele><time>2026-04-19T13:33:07Z</time></trkpt><trkpt lat="37.82072768280204" lon="15.103531599559892"><ele>950.3333333333333</ele><time>2026-04-19T13:33:08Z</time></trkpt><trkpt lat="37.82077186610321" lon="15.10330933141202"><ele>954.6666666666667</ele><time>2026-04-19T13:33:09Z</time></trkpt><trkpt lat="37.8208000954707" lon="15.103124911816627"><ele>959.0</ele><time>2026-04-19T13:33:10Z</time></trkpt><trkpt lat="37.82077350851498" lon="15.102936210182419"><ele>959.0</ele><time>2026-04-19T13:33:11Z</time></trkpt><trkpt lat="37.82068930075476" lon="15.102759432406636"><ele>959.0</ele><time>2026-04-19T13:33:12Z</time></trkpt><trkpt lat="37.8205840140523" lon="15.102605366078224"><ele>959.0</ele><time>2026-04-19T13:33:13Z</time></trkpt><trkpt lat="37.820419263213374" lon="15.102528773303998"><ele>959.0</ele><time>2026-04-19T13:33:14Z</time></trkpt><trkpt lat="37.82020732162684" lon="15.102473899402943"><ele>959.0</ele><time>2026-04-19T13:33:15Z</time></trkpt><trkpt lat="37.81997484547027" lon="15.102383148077243"><ele>962.6666666666667</ele><time>2026-04-19T13:33:16Z</time></trkpt><trkpt lat="37.819774863075274" lon="15.102319825830309"><ele>966.3333333333333</ele><time>2026-04-19T13:33:17Z</time></trkpt><trkpt lat="37.819649028051614" lon="15.102253514198695"><ele>970.0</ele><time>2026-04-19T13:33:18Z</time></trkpt><trkpt lat="37.81954858504656" lon="15.1021842360288"><ele>970.0</ele><time>2026-04-19T13:33:19Z</time></trkpt><trkpt lat="37.81947651876864" lon="15.10202070670842"><ele>970.0</ele><time>2026-04-19T13:33:20Z</time></trkpt><trkpt lat="37.81944423096322" lon="15.101802211553679"><ele>970.0</ele><time>2026-04-19T13:33:21Z</time></trkpt><trkpt lat="37.81946828931466" lon="15.101573501106012"><ele>972.6666666666666</ele><time>2026-04-19T13:33:22Z</time></trkpt><trkpt lat="37.81946622176808" lon="15.101372958722534"><ele>975.3333333333333</ele><time>2026-04-19T13:33:23Z</time></trkpt><trkpt lat="37.8194039875966" lon="15.1012101396543"><ele>978.0</ele><time>2026-04-19T13:33:24Z</time></trkpt><trkpt lat="37.81926996114531" lon="15.10107043027445"><ele>980.0</ele><time>2026-04-19T13:33:25Z</time></trkpt><trkpt lat="37.81910985646387" lon="15.100932837534629"><ele>982.0</ele><time>2026-04-19T13:33:26Z</time></trkpt><trkpt lat="37.81899699267527" lon="15.100819589244335"><ele>984.0</ele><time>2026-04-19T13:33:27Z</time></trkpt><trkpt lat="37.81885277461336" lon="15.100779121991946"><ele>984.0</ele><time>2026-04-19T13:33:28Z</time></trkpt><trkpt lat="37.81870544602735" lon="15.10081366618087"><ele>984.0</ele><time>2026-04-19T13:33:29Z</time></trkpt><trkpt lat="37.81857638363415" lon="15.100912949644828"><ele>984.0</ele><time>2026-04-19T13:33:30Z</time></trkpt><trkpt lat="37.81849097900018" lon="15.101078985232984"><ele>986.75</ele><time>2026-04-19T13:33:31Z</time></trkpt><trkpt lat="37.81840020368459" lon="15.101190022612059"><ele>989.5</ele><time>2026-04-19T13:33:32Z</time></trkpt><trkpt lat="37.818302399467555" lon="15.101268108872311"><ele>992.25</ele><time>2026-04-19T13:33:33Z</time></trkpt><trkpt lat="37.81816330102646" lon="15.101324386067454"><ele>995.0</ele><time>2026-04-19T13:33:34Z</time></trkpt><trkpt lat="37.81799767753372" lon="15.101280670405265"><ele>995.0</ele><time>2026-04-19T13:33:35Z</time></trkpt><trkpt lat="37.81783343661364" lon="15.101157643584132"><ele>995.0</ele><time>2026-04-19T13:33:36Z</time></trkpt><trkpt lat="37.81767605241447" lon="15.100989953373785"><ele>995.0</ele><time>2026-04-19T13:33:37Z</time></trkpt><trkpt lat="37.81753599196854" lon="15.10085646705034"><ele>997.6666666666667</ele><time>2026-04-19T13:33:38Z</time></trkpt><trkpt lat="37.81738664699278" lon="15.100802827946637"><ele>1000.3333333333333</ele><time>2026-04-19T13:33:39Z</time></trkpt><trkpt lat="37.81721759821448" lon="15.100798949743274"><ele>1003.0</ele><time>2026-04-19T13:33:40Z</time></trkpt><trkpt lat="37.81704549363936" lon="15.10086315727608"><ele>1003.0</ele><time>2026-04-19T13:33:41Z</time></trkpt><trkpt lat="37.81689802417751" lon="15.100984833500787"><ele>1003.0</ele><time>2026-04-19T13:33:42Z</time></trkpt><trkpt lat="37.8167946492137" lon="15.101093768232316"><ele>1003.0</ele><time>2026-04-19T13:33:43Z</time></trkpt><trkpt lat="37.81669653061638" lon="15.10111509270344"><ele>1003.0</ele><time>2026-04-19T13:33:44Z</time></trkpt><trkpt lat="37.81658061598795" lon="15.101118223182501"><ele>1005.0</ele><time>2026-04-19T13:33:45Z</time></trkpt><trkpt lat="37.816460311911335" lon="15.101052689126957"><ele>1007.0</ele><time>2026-04-19T13:33:46Z</time></trkpt><trkpt lat="37.81637086326701" lon="15.100939991193313"><ele>1009.0</ele><time>2026-04-19T13:33:47Z</time></trkpt><trkpt lat="37.81633736642427" lon="15.100785629996093"><ele>1011.0</ele><time>2026-04-19T13:33:48Z</time></trkpt><trkpt lat="37.81634148296811" lon="15.100602516227745"><ele>1012.75</ele><time>2026-04-19T13:33:49Z</time></trkpt><trkpt lat="37.816411315522586" lon="15.100437066417236"><ele>1014.5</ele><time>2026-04-19T13:33:50Z</time></trkpt><trkpt lat="37.81651754151369" lon="15.100312047404401"><ele>1016.25</ele><time>2026-04-19T13:33:51Z</time></trkpt><trkpt lat="37.81665663876835" lon="15.100236526252225"><ele>1018.0</ele><time>2026-04-19T13:33:52Z</time></trkpt><trkpt lat="37.81681623505302" lon="15.100182080822378"><ele>1018.25</ele><time>2026-04-19T13:33:53Z</time></trkpt><trkpt lat="37.81692756717499" lon="15.100101155742765"><ele>1018.5</ele><time>2026-04-19T13:33:54Z</time></trkpt><trkpt lat="37.817004134137925" lon="15.099969051132522"><ele>1018.75</ele><time>2026-04-19T13:33:55Z</time></trkpt><trkpt lat="37.81703948392485" lon="15.099787142904157"><ele>1019.0</ele><time>2026-04-19T13:33:56Z</time></trkpt><trkpt lat="37.81702929727162" lon="15.099611705237834"><ele>1019.0</ele><time>2026-04-19T13:33:57Z</time></trkpt><trkpt lat="37.81697577178326" lon="15.099447909929225"><ele>1019.0</ele><time>2026-04-19T13:33:58Z</time></trkpt><trkpt lat="37.81687576935019" lon="15.099324348905734"><ele>1019.0</ele><time>2026-04-19T13:33:59Z</time></trkpt><trkpt lat="37.81674321695584" lon="15.099257557790477"><ele>1019.0</ele><time>2026-04-19T13:34:00Z</time></trkpt><trkpt lat="37.81660223813797" lon="15.099250309316036"><ele>1020.25</ele><time>2026-04-19T13:34:01Z</time></trkpt><trkpt lat="37.816462124253654" lon="15.099303534284855"><ele>1021.5</ele><time>2026-04-19T13:34:02Z</time></trkpt><trkpt lat="37.816323534202276" lon="15.09936270908368"><ele>1022.75</ele><time>2026-04-19T13:34:03Z</time></trkpt><trkpt lat="37.81621896391192" lon="15.09938068732357"><ele>1024.0</ele><time>2026-04-19T13:34:04Z</time></trkpt><trkpt lat="37.81610150007606" lon="15.099341630834225"><ele>1026.3333333333333</ele><time>2026-04-19T13:34:05Z</time></trkpt><trkpt lat="37.81594777688198" lon="15.099273213145718"><ele>1028.6666666666667</ele><time>2026-04-19T13:34:06Z</time></trkpt><trkpt lat="37.81577304772325" lon="15.099170701418057"><ele>1031.0</ele><time>2026-04-19T13:34:07Z</time></trkpt><trkpt lat="37.81559205572643" lon="15.099143023560945"><ele>1031.0</ele><time>2026-04-19T13:34:08Z</time></trkpt><trkpt lat="37.81541493572887" lon="15.099169361953221"><ele>1031.0</ele><time>2026-04-19T13:34:09Z</time></trkpt><trkpt lat="37.815268599627196" lon="15.099186014851103"><ele>1031.0</ele><time>2026-04-19T13:34:10Z</time></trkpt><trkpt lat="37.81515560966854" lon="15.099198893102223"><ele>1031.0</ele><time>2026-04-19T13:34:11Z</time></trkpt><trkpt lat="37.81504316588665" lon="15.099190754433549"><ele>1034.75</ele><time>2026-04-19T13:34:12Z</time></trkpt><trkpt lat="37.81495521805151" lon="15.09908289520462"><ele>1038.5</ele><time>2026-04-19T13:34:13Z</time></trkpt><trkpt lat="37.81485584440659" lon="15.098959346064987"><ele>1042.25</ele><time>2026-04-19T13:34:14Z</time></trkpt><trkpt lat="37.81483863446631" lon="15.09877729988014"><ele>1046.0</ele><time>2026-04-19T13:34:15Z</time></trkpt><trkpt lat="37.81485954386266" lon="15.098613114114888"><ele>1046.0</ele><time>2026-04-19T13:34:16Z</time></trkpt><trkpt lat="37.81492653482783" lon="15.098470907659856"><ele>1046.0</ele><time>2026-04-19T13:34:17Z</time></trkpt><trkpt lat="37.81502678348635" lon="15.09835408516805"><ele>1046.0</ele><time>2026-04-19T13:34:18Z</time></trkpt><trkpt lat="37.81519162386121" lon="15.09825580161476"><ele>1046.0</ele><time>2026-04-19T13:34:19Z</time></trkpt><trkpt lat="37.81536107415732" lon="15.098159819010565"><ele>1048.0</ele><time>2026-04-19T13:34:20Z</time></trkpt><trkpt lat="37.8155070809894" lon="15.098004886938366"><ele>1050.0</ele><time>2026-04-19T13:34:21Z</time></trkpt><trkpt lat="37.81563637495083" lon="15.097798048283488"><ele>1052.0</ele><time>2026-04-19T13:34:22Z</time></trkpt><trkpt lat="37.81575665291288" lon="15.097547412680218"><ele>1051.5</ele><time>2026-04-19T13:34:23Z</time></trkpt><trkpt lat="37.815895710260804" lon="15.097299764615965"><ele>1051.0</ele><time>2026-04-19T13:34:24Z</time></trkpt><trkpt lat="37.816033920130266" lon="15.097080824759747"><ele>1051.0</ele><time>2026-04-19T13:34:25Z</time></trkpt><trkpt lat="37.816161106997114" lon="15.096915118827882"><ele>1051.0</ele><time>2026-04-19T13:34:26Z</time></trkpt><trkpt lat="37.81621198009289" lon="15.096756087151686"><ele>1051.0</ele><time>2026-04-19T13:34:27Z</time></trkpt><trkpt lat="37.81620954775259" lon="15.096545839610991"><ele>1053.6666666666665</ele><time>2026-04-19T13:34:28Z</time></trkpt><trkpt lat="37.81616156440093" lon="15.096307210969718"><ele>1056.3333333333333</ele><time>2026-04-19T13:34:29Z</time></trkpt><trkpt lat="37.8161364164955" lon="15.096092937525247"><ele>1059.0</ele><time>2026-04-19T13:34:30Z</time></trkpt><trkpt lat="37.81614738686996" lon="15.095904117009784"><ele>1061.6666666666667</ele><time>2026-04-19T13:34:31Z</time></trkpt><trkpt lat="37.81619592703557" lon="15.095748224275606"><ele>1064.3333333333335</ele><time>2026-04-19T13:34:32Z</time></trkpt><trkpt lat="37.81628246065068" lon="15.095609846803344"><ele>1067.0</ele><time>2026-04-19T13:34:33Z</time></trkpt><trkpt lat="37.81642548125107" lon="15.095444903469316"><ele>1067.0</ele><time>2026-04-19T13:34:34Z</time></trkpt><trkpt lat="37.81660246145445" lon="15.095293409871282"><ele>1067.0</ele><time>2026-04-19T13:34:35Z</time></trkpt><trkpt lat="37.8167103974223" lon="15.09517863876711"><ele>1067.0</ele><time>2026-04-19T13:34:36Z</time></trkpt><trkpt lat="37.816788719784476" lon="15.095068495523881"><ele>1068.0</ele><time>2026-04-19T13:34:37Z</time></trkpt><trkpt lat="37.81682846208838" lon="15.094917100411688"><ele>1069.0</ele><time>2026-04-19T13:34:38Z</time></trkpt><trkpt lat="37.81682514815964" lon="15.094733913593789"><ele>1070.0</ele><time>2026-04-19T13:34:39Z</time></trkpt><trkpt lat="37.81677426218085" lon="15.094562294009064"><ele>1071.0</ele><time>2026-04-19T13:34:40Z</time></trkpt><trkpt lat="37.8166962291958" lon="15.094423264171533"><ele>1073.5</ele><time>2026-04-19T13:34:41Z</time></trkpt><trkpt lat="37.8165639203011" lon="15.094350675217619"><ele>1076.0</ele><time>2026-04-19T13:34:42Z</time></trkpt><trkpt lat="37.81642091252289" lon="15.09434032002187"><ele>1078.5</ele><time>2026-04-19T13:34:43Z</time></trkpt><trkpt lat="37.816272807712295" lon="15.094409539901163"><ele>1081.0</ele><time>2026-04-19T13:34:44Z</time></trkpt><trkpt lat="37.8161411418754" lon="15.094550454541782"><ele>1081.0</ele><time>2026-04-19T13:34:45Z</time></trkpt><trkpt lat="37.81600676896988" lon="15.094705949288219"><ele>1081.0</ele><time>2026-04-19T13:34:46Z</time></trkpt><trkpt lat="37.81585998302233" lon="15.0948752349515"><ele>1081.0</ele><time>2026-04-19T13:34:47Z</time></trkpt><trkpt lat="37.81572484712072" lon="15.095023243315863"><ele>1080.25</ele><time>2026-04-19T13:34:48Z</time></trkpt><trkpt lat="37.815612148462066" lon="15.095101838251825"><ele>1079.5</ele><time>2026-04-19T13:34:49Z</time></trkpt><trkpt lat="37.81548277983666" lon="15.095108852284085"><ele>1078.75</ele><time>2026-04-19T13:34:50Z</time></trkpt><trkpt lat="37.815375697485216" lon="15.09508662979671"><ele>1078.0</ele><time>2026-04-19T13:34:51Z</time></trkpt><trkpt lat="37.81527315139383" lon="15.095026578178057"><ele>1081.6666666666665</ele><time>2026-04-19T13:34:52Z</time></trkpt><trkpt lat="37.81510966612307" lon="15.094939786751047"><ele>1085.3333333333333</ele><time>2026-04-19T13:34:53Z</time></trkpt><trkpt lat="37.8149175824326" lon="15.094947669947002"><ele>1089.0</ele><time>2026-04-19T13:34:54Z</time></trkpt><trkpt lat="37.814775362241726" lon="15.095018014004973"><ele>1089.0</ele><time>2026-04-19T13:34:55Z</time></trkpt><trkpt lat="37.81464488827069" lon="15.095149753892573"><ele>1089.0</ele><time>2026-04-19T13:34:56Z</time></trkpt><trkpt lat="37.81444431633266" lon="15.09523805538293"><ele>1089.0</ele><time>2026-04-19T13:34:57Z</time></trkpt><trkpt lat="37.81424785013071" lon="15.095293643552472"><ele>1093.0</ele><time>2026-04-19T13:34:58Z</time></trkpt><trkpt lat="37.81405877908294" lon="15.095347362624036"><ele>1097.0</ele><time>2026-04-19T13:34:59Z</time></trkpt><trkpt lat="37.81390583060154" lon="15.095345568531236"><ele>1101.0</ele><time>2026-04-19T13:35:00Z</time></trkpt><trkpt lat="37.813827825395514" lon="15.095297496627788"><ele>1105.0</ele><time>2026-04-19T13:35:01Z</time></trkpt><trkpt lat="37.81368690039694" lon="15.095238360459936"><ele>1105.0</ele><time>2026-04-19T13:35:02Z</time></trkpt><trkpt lat="37.81350219487916" lon="15.09525871368566"><ele>1105.0</ele><time>2026-04-19T13:35:03Z</time></trkpt><trkpt lat="37.813329116803104" lon="15.095287652249803"><ele>1105.0</ele><time>2026-04-19T13:35:04Z</time></trkpt><trkpt lat="37.81319430412267" lon="15.095446118906702"><ele>1107.25</ele><time>2026-04-19T13:35:05Z</time></trkpt><trkpt lat="37.813048573419266" lon="15.095582767549736"><ele>1109.5</ele><time>2026-04-19T13:35:06Z</time></trkpt><trkpt lat="37.812929105886845" lon="15.095643705108818"><ele>1111.75</ele><time>2026-04-19T13:35:07Z</time></trkpt><trkpt lat="37.81281382806417" lon="15.09562569334316"><ele>1114.0</ele><time>2026-04-19T13:35:08Z</time></trkpt><trkpt lat="37.812713193835364" lon="15.095570326318553"><ele>1119.5</ele><time>2026-04-19T13:35:09Z</time></trkpt><trkpt lat="37.81253940286426" lon="15.095505639259544"><ele>1125.0</ele><time>2026-04-19T13:35:10Z</time></trkpt><trkpt lat="37.81224216662848" lon="15.095477550004118"><ele>1125.0</ele><time>2026-04-19T13:35:11Z</time></trkpt><trkpt lat="37.812000416323244" lon="15.095541364560964"><ele>1125.0</ele><time>2026-04-19T13:35:12Z</time></trkpt><trkpt lat="37.81181233613362" lon="15.095626787464258"><ele>1125.0</ele><time>2026-04-19T13:35:13Z</time></trkpt><trkpt lat="37.811679795876096" lon="15.095637312418729"><ele>1125.2</ele><time>2026-04-19T13:35:14Z</time></trkpt><trkpt lat="37.81158735569448" lon="15.095601761392947"><ele>1125.4</ele><time>2026-04-19T13:35:15Z</time></trkpt><trkpt lat="37.81151838711408" lon="15.095528780044585"><ele>1125.6</ele><time>2026-04-19T13:35:16Z</time></trkpt><trkpt lat="37.81144411482142" lon="15.095430109206848"><ele>1125.8</ele><time>2026-04-19T13:35:17Z</time></trkpt><trkpt lat="37.81139663155448" lon="15.095291376011806"><ele>1126.0</ele><time>2026-04-19T13:35:18Z</time></trkpt><trkpt lat="37.81138337733709" lon="15.095147059034476"><ele>1126.0</ele><time>2026-04-19T13:35:19Z</time></trkpt><trkpt lat="37.811411794407256" lon="15.095010918925407"><ele>1126.0</ele><time>2026-04-19T13:35:20Z</time></trkpt><trkpt lat="37.81147775149973" lon="15.094899545820827"><ele>1126.0</ele><time>2026-04-19T13:35:21Z</time></trkpt><trkpt lat="37.8115695210619" lon="15.094805461721254"><ele>1126.0</ele><time>2026-04-19T13:35:22Z</time></trkpt><trkpt lat="37.811711159372464" lon="15.094738147211942"><ele>1130.6666666666665</ele><time>2026-04-19T13:35:23Z</time></trkpt><trkpt lat="37.811879006084006" lon="15.094778780077503"><ele>1135.3333333333333</ele><time>2026-04-19T13:35:24Z</time></trkpt><trkpt lat="37.81203894620786" lon="15.094827975655958"><ele>1140.0</ele><time>2026-04-19T13:35:25Z</time></trkpt><trkpt lat="37.812185996663366" lon="15.094805597572655"><ele>1140.0</ele><time>2026-04-19T13:35:26Z</time></trkpt><trkpt lat="37.81232105477387" lon="15.094707033647367"><ele>1140.0</ele><time>2026-04-19T13:35:27Z</time></trkpt><trkpt lat="37.812499595549795" lon="15.094517276355294"><ele>1140.0</ele><time>2026-04-19T13:35:28Z</time></trkpt><trkpt lat="37.81271782015495" lon="15.094260069625895"><ele>1143.0</ele><time>2026-04-19T13:35:29Z</time></trkpt><trkpt lat="37.812928733624254" lon="15.094018165422337"><ele>1146.0</ele><time>2026-04-19T13:35:30Z</time></trkpt><trkpt lat="37.813173215865056" lon="15.093740008858044"><ele>1146.0</ele><time>2026-04-19T13:35:31Z</time></trkpt><trkpt lat="37.81339338027484" lon="15.093500197379031"><ele>1146.0</ele><time>2026-04-19T13:35:32Z</time></trkpt><trkpt lat="37.81358011125628" lon="15.093252936963916"><ele>1145.0</ele><time>2026-04-19T13:35:33Z</time></trkpt><trkpt lat="37.81369162758574" lon="15.09304166625052"><ele>1144.0</ele><time>2026-04-19T13:35:34Z</time></trkpt><trkpt lat="37.81377273473538" lon="15.092875001004893"><ele>1143.0</ele><time>2026-04-19T13:35:35Z</time></trkpt><trkpt lat="37.81381090384529" lon="15.092793883500214"><ele>1142.0</ele><time>2026-04-19T13:35:36Z</time></trkpt><trkpt lat="37.81386301384934" lon="15.09267595023218"><ele>1142.0</ele><time>2026-04-19T13:35:37Z</time></trkpt><trkpt lat="37.81383748647837" lon="15.09260067680289"><ele>1142.0</ele><time>2026-04-19T13:35:38Z</time></trkpt><trkpt lat="37.81376149273323" lon="15.092547784169422"><ele>1142.0</ele><time>2026-04-19T13:35:39Z</time></trkpt><trkpt lat="37.8136588590934" lon="15.092554643733004"><ele>1142.0</ele><time>2026-04-19T13:35:40Z</time></trkpt><trkpt lat="37.81356509175012" lon="15.09264390923756"><ele>1142.0</ele><time>2026-04-19T13:35:41Z</time></trkpt><trkpt lat="37.81350392670768" lon="15.092795180260524"><ele>1146.75</ele><time>2026-04-19T13:35:42Z</time></trkpt><trkpt lat="37.81345523815248" lon="15.092951843547358"><ele>1151.5</ele><time>2026-04-19T13:35:43Z</time></trkpt><trkpt lat="37.81334479302267" lon="15.09301594484577"><ele>1156.25</ele><time>2026-04-19T13:35:44Z</time></trkpt><trkpt lat="37.813221181198045" lon="15.093052704566494"><ele>1161.0</ele><time>2026-04-19T13:35:45Z</time></trkpt><trkpt lat="37.81302232962859" lon="15.093060891667916"><ele>1161.0</ele><time>2026-04-19T13:35:46Z</time></trkpt><trkpt lat="37.812784163034046" lon="15.09309295688212"><ele>1161.0</ele><time>2026-04-19T13:35:47Z</time></trkpt><trkpt lat="37.81258582391408" lon="15.09308490258184"><ele>1161.0</ele><time>2026-04-19T13:35:48Z</time></trkpt><trkpt lat="37.81245931900476" lon="15.09306699880991"><ele>1163.75</ele><time>2026-04-19T13:35:49Z</time></trkpt><trkpt lat="37.812377620945654" lon="15.09301619959162"><ele>1166.5</ele><time>2026-04-19T13:35:50Z</time></trkpt><trkpt lat="37.81228525443814" lon="15.09291443825773"><ele>1169.25</ele><time>2026-04-19T13:35:51Z</time></trkpt><trkpt lat="37.812168367794655" lon="15.092787005358355"><ele>1172.0</ele><time>2026-04-19T13:35:52Z</time></trkpt><trkpt lat="37.8120686643267" lon="15.092618136505681"><ele>1172.0</ele><time>2026-04-19T13:35:53Z</time></trkpt><trkpt lat="37.81198516394376" lon="15.09250467487136"><ele>1172.0</ele><time>2026-04-19T13:35:54Z</time></trkpt><trkpt lat="37.811633823230345" lon="15.092141735340398"><ele>1175.25</ele><time>2026-04-19T13:35:55Z</time></trkpt><trkpt lat="37.81153161993152" lon="15.092102684118181"><ele>1178.5</ele><time>2026-04-19T13:35:56Z</time></trkpt><trkpt lat="37.811383220875605" lon="15.092133647134483"><ele>1181.75</ele><time>2026-04-19T13:35:57Z</time></trkpt><trkpt lat="37.811240038812166" lon="15.09218765801835"><ele>1185.0</ele><time>2026-04-19T13:35:58Z</time></trkpt><trkpt lat="37.81110562129755" lon="15.092239988685872"><ele>1185.0</ele><time>2026-04-19T13:35:59Z</time></trkpt><trkpt lat="37.81102373307016" lon="15.09224362178567"><ele>1185.0</ele><time>2026-04-19T13:36:00Z</time></trkpt><trkpt lat="37.810966390070426" lon="15.092209993522092"><ele>1185.0</ele><time>2026-04-19T13:36:01Z</time></trkpt><trkpt lat="37.810934248153366" lon="15.092075010694016"><ele>1185.0</ele><time>2026-04-19T13:36:04Z</time></trkpt><trkpt lat="37.81088360834394" lon="15.091934558803588"><ele>1185.0</ele><time>2026-04-19T13:36:05Z</time></trkpt><trkpt lat="37.81089363840591" lon="15.091698402000517"><ele>1188.0</ele><time>2026-04-19T13:36:06Z</time></trkpt><trkpt lat="37.81103761491942" lon="15.091488677533631"><ele>1191.0</ele><time>2026-04-19T13:36:07Z</time></trkpt><trkpt lat="37.81124805319811" lon="15.09141332735098"><ele>1194.0</ele><time>2026-04-19T13:36:08Z</time></trkpt><trkpt lat="37.8114227552119" lon="15.091328609649947"><ele>1194.0</ele><time>2026-04-19T13:36:09Z</time></trkpt><trkpt lat="37.81161081026111" lon="15.091145348509642"><ele>1194.0</ele><time>2026-04-19T13:36:10Z</time></trkpt><trkpt lat="37.811847122182236" lon="15.090919767668325"><ele>1196.0</ele><time>2026-04-19T13:36:11Z</time></trkpt><trkpt lat="37.812046888273706" lon="15.090754355521385"><ele>1198.0</ele><time>2026-04-19T13:36:12Z</time></trkpt><trkpt lat="37.81217413412104" lon="15.090584873550808"><ele>1200.0</ele><time>2026-04-19T13:36:13Z</time></trkpt><trkpt lat="37.81221771791027" lon="15.090439090987374"><ele>1200.0</ele><time>2026-04-19T13:36:14Z</time></trkpt><trkpt lat="37.81220876064015" lon="15.090271968762803"><ele>1200.0</ele><time>2026-04-19T13:36:15Z</time></trkpt><trkpt lat="37.812185294653354" lon="15.090141859321138"><ele>1200.0</ele><time>2026-04-19T13:36:16Z</time></trkpt><trkpt lat="37.81208944997501" lon="15.089947280719214"><ele>1200.0</ele><time>2026-04-19T13:36:17Z</time></trkpt><trkpt lat="37.8119286735277" lon="15.089817023617861"><ele>1201.3333333333333</ele><time>2026-04-19T13:36:18Z</time></trkpt><trkpt lat="37.81175202259661" lon="15.089786676348888"><ele>1202.6666666666665</ele><time>2026-04-19T13:36:19Z</time></trkpt><trkpt lat="37.811610017204664" lon="15.089827807475793"><ele>1204.0</ele><time>2026-04-19T13:36:20Z</time></trkpt><trkpt lat="37.811483272947086" lon="15.089950612875494"><ele>1204.0</ele><time>2026-04-19T13:36:21Z</time></trkpt><trkpt lat="37.8113452898307" lon="15.090095324814548"><ele>1204.0</ele><time>2026-04-19T13:36:22Z</time></trkpt><trkpt lat="37.81120443100296" lon="15.090143676522016"><ele>1204.0</ele><time>2026-04-19T13:36:23Z</time></trkpt><trkpt lat="37.81110364103433" lon="15.09015606851779"><ele>1204.0</ele><time>2026-04-19T13:36:24Z</time></trkpt><trkpt lat="37.81097655387284" lon="15.090121420886764"><ele>1205.75</ele><time>2026-04-19T13:36:25Z</time></trkpt><trkpt lat="37.81084280170131" lon="15.090079681957118"><ele>1207.5</ele><time>2026-04-19T13:36:26Z</time></trkpt><trkpt lat="37.8107446214444" lon="15.090001635540075"><ele>1209.25</ele><time>2026-04-19T13:36:27Z</time></trkpt><trkpt lat="37.810654435540634" lon="15.08989250180946"><ele>1211.0</ele><time>2026-04-19T13:36:28Z</time></trkpt><trkpt lat="37.81053199917281" lon="15.089708230375539"><ele>1218.5</ele><time>2026-04-19T13:36:29Z</time></trkpt><trkpt lat="37.81035645339433" lon="15.089501023589847"><ele>1226.0</ele><time>2026-04-19T13:36:30Z</time></trkpt><trkpt lat="37.81011991271474" lon="15.089438841392672"><ele>1228.5</ele><time>2026-04-19T13:36:31Z</time></trkpt><trkpt lat="37.8098657907392" lon="15.089378294735267"><ele>1231.0</ele><time>2026-04-19T13:36:32Z</time></trkpt><trkpt lat="37.809622613877124" lon="15.08934776925648"><ele>1231.0</ele><time>2026-04-19T13:36:33Z</time></trkpt><trkpt lat="37.80940177022123" lon="15.089346766217059"><ele>1231.0</ele><time>2026-04-19T13:36:34Z</time></trkpt><trkpt lat="37.80924847686621" lon="15.089307845700779"><ele>1231.0</ele><time>2026-04-19T13:36:35Z</time></trkpt><trkpt lat="37.80911796812018" lon="15.089211407715261"><ele>1237.0</ele><time>2026-04-19T13:36:36Z</time></trkpt><trkpt lat="37.8089456997007" lon="15.089075170142793"><ele>1243.0</ele><time>2026-04-19T13:36:37Z</time></trkpt><trkpt lat="37.808748532940065" lon="15.08891807864046"><ele>1249.0</ele><time>2026-04-19T13:36:38Z</time></trkpt><trkpt lat="37.80855813326445" lon="15.088764474071917"><ele>1248.5</ele><time>2026-04-19T13:36:39Z</time></trkpt><trkpt lat="37.80842185674243" lon="15.088641038368367"><ele>1248.0</ele><time>2026-04-19T13:36:40Z</time></trkpt><trkpt lat="37.8083222760175" lon="15.088501718709932"><ele>1247.5</ele><time>2026-04-19T13:36:41Z</time></trkpt><trkpt lat="37.808281362410646" lon="15.088361084496604"><ele>1247.0</ele><time>2026-04-19T13:36:42Z</time></trkpt><trkpt lat="37.80826506005149" lon="15.08824020828777"><ele>1248.4</ele><time>2026-04-19T13:36:43Z</time></trkpt><trkpt lat="37.80825852750213" lon="15.088095557161349"><ele>1249.8000000000002</ele><time>2026-04-19T13:36:44Z</time></trkpt><trkpt lat="37.80827354966311" lon="15.08797139130334"><ele>1251.2</ele><time>2026-04-19T13:36:45Z</time></trkpt><trkpt lat="37.80833994845045" lon="15.087833571492828"><ele>1252.6000000000001</ele><time>2026-04-19T13:36:47Z</time></trkpt><trkpt lat="37.808323061355125" lon="15.087751452927158"><ele>1254.0</ele><time>2026-04-19T13:36:48Z</time></trkpt><trkpt lat="37.80836674615244" lon="15.087637958644374"><ele>1254.0</ele><time>2026-04-19T13:36:49Z</time></trkpt><trkpt lat="37.808423074904184" lon="15.087559635267398"><ele>1254.0</ele><time>2026-04-19T13:36:50Z</time></trkpt><trkpt lat="37.80810178922643" lon="15.086948591191955"><ele>1260.0</ele><time>2026-04-19T13:36:51Z</time></trkpt><trkpt lat="37.80825796282445" lon="15.086702004524094"><ele>1266.0</ele><time>2026-04-19T13:36:52Z</time></trkpt><trkpt lat="37.808517862653304" lon="15.086516501267488"><ele>1266.5</ele><time>2026-04-19T13:36:53Z</time></trkpt><trkpt lat="37.80880255492429" lon="15.086340132374497"><ele>1267.0</ele><time>2026-04-19T13:36:54Z</time></trkpt><trkpt lat="37.80915091933681" lon="15.086161533612763"><ele>1266.5</ele><time>2026-04-19T13:36:55Z</time></trkpt><trkpt lat="37.80935342200853" lon="15.086010835100485"><ele>1266.0</ele><time>2026-04-19T13:36:56Z</time></trkpt><trkpt lat="37.8103031558568" lon="15.08596408948335"><ele>1266.0</ele><time>2026-04-19T13:36:57Z</time></trkpt><trkpt lat="37.8103966352368" lon="15.085807435884531"><ele>1266.0</ele><time>2026-04-19T13:36:58Z</time></trkpt><trkpt lat="37.8104425780269" lon="15.085679775452704"><ele>1266.0</ele><time>2026-04-19T13:36:59Z</time></trkpt><trkpt lat="37.810459193537035" lon="15.085546368198255"><ele>1266.0</ele><time>2026-04-19T13:37:00Z</time></trkpt><trkpt lat="37.8105340368859" lon="15.085410441811458"><ele>1267.0</ele><time>2026-04-19T13:37:01Z</time></trkpt><trkpt lat="37.81058556605582" lon="15.085276977132725"><ele>1268.0</ele><time>2026-04-19T13:37:02Z</time></trkpt><trkpt lat="37.810408425343304" lon="15.084998150445385"><ele>1269.0</ele><time>2026-04-19T13:37:03Z</time></trkpt><trkpt lat="37.81029480976218" lon="15.084812421594092"><ele>1272.6666666666667</ele><time>2026-04-19T13:37:04Z</time></trkpt><trkpt lat="37.81015276379853" lon="15.084671648775606"><ele>1276.3333333333335</ele><time>2026-04-19T13:37:05Z</time></trkpt><trkpt lat="37.80999938710248" lon="15.084568210637809"><ele>1280.0</ele><time>2026-04-19T13:37:06Z</time></trkpt><trkpt lat="37.80980400640878" lon="15.084510503305845"><ele>1280.0</ele><time>2026-04-19T13:37:07Z</time></trkpt><trkpt lat="37.809601731306635" lon="15.084483942175199"><ele>1280.0</ele><time>2026-04-19T13:37:08Z</time></trkpt><trkpt lat="37.80938521685556" lon="15.084480840262414"><ele>1280.0</ele><time>2026-04-19T13:37:09Z</time></trkpt><trkpt lat="37.80917609543321" lon="15.084504043259988"><ele>1281.0</ele><time>2026-04-19T13:37:10Z</time></trkpt><trkpt lat="37.80898087238414" lon="15.084501533917914"><ele>1282.0</ele><time>2026-04-19T13:37:11Z</time></trkpt><trkpt lat="37.80882675045943" lon="15.084549242901385"><ele>1283.0</ele><time>2026-04-19T13:37:12Z</time></trkpt><trkpt lat="37.808749756674494" lon="15.084602704304961"><ele>1284.0</ele><time>2026-04-19T13:37:13Z</time></trkpt><trkpt lat="37.80863798159282" lon="15.084649572834586"><ele>1284.0</ele><time>2026-04-19T13:37:14Z</time></trkpt><trkpt lat="37.80856601699071" lon="15.084611965622805"><ele>1284.0</ele><time>2026-04-19T13:37:15Z</time></trkpt><trkpt lat="37.80854093182633" lon="15.084526641999345"><ele>1284.0</ele><time>2026-04-19T13:37:16Z</time></trkpt><trkpt lat="37.80852843656916" lon="15.084377500688761"><ele>1284.0</ele><time>2026-04-19T13:37:17Z</time></trkpt><trkpt lat="37.808540182301954" lon="15.084226504949173"><ele>1284.0</ele><time>2026-04-19T13:37:18Z</time></trkpt><trkpt lat="37.80861916658837" lon="15.084127224301936"><ele>1284.0</ele><time>2026-04-19T13:37:19Z</time></trkpt><trkpt lat="37.808725505697886" lon="15.08406985056759"><ele>1284.0</ele><time>2026-04-19T13:37:20Z</time></trkpt><trkpt lat="37.809008340234264" lon="15.084102430913099"><ele>1284.0</ele><time>2026-04-19T13:37:21Z</time></trkpt><trkpt lat="37.80919060537456" lon="15.084070952511288"><ele>1294.0</ele><time>2026-04-19T13:37:22Z</time></trkpt><trkpt lat="37.8094261964858" lon="15.08403150327364"><ele>1304.0</ele><time>2026-04-19T13:37:23Z</time></trkpt><trkpt lat="37.80970006112545" lon="15.083941521618524"><ele>1304.0</ele><time>2026-04-19T13:37:24Z</time></trkpt><trkpt lat="37.8099391965061" lon="15.083847516507344"><ele>1304.0</ele><time>2026-04-19T13:37:25Z</time></trkpt><trkpt lat="37.810101088549175" lon="15.083751040679706"><ele>1304.0</ele><time>2026-04-19T13:37:26Z</time></trkpt><trkpt lat="37.810280826459426" lon="15.083602678476735"><ele>1305.6666666666667</ele><time>2026-04-19T13:37:27Z</time></trkpt><trkpt lat="37.81044130048076" lon="15.083421572265904"><ele>1307.3333333333333</ele><time>2026-04-19T13:37:28Z</time></trkpt><trkpt lat="37.810571951804135" lon="15.083264490581954"><ele>1309.0</ele><time>2026-04-19T13:37:29Z</time></trkpt><trkpt lat="37.81065888406463" lon="15.083123225586743"><ele>1309.0</ele><time>2026-04-19T13:37:30Z</time></trkpt><trkpt lat="37.810699547712225" lon="15.082951526924452"><ele>1309.0</ele><time>2026-04-19T13:37:31Z</time></trkpt><trkpt lat="37.81077189089203" lon="15.082759497846476"><ele>1309.0</ele><time>2026-04-19T13:37:32Z</time></trkpt><trkpt lat="37.81075119254515" lon="15.082592179787133"><ele>1309.0</ele><time>2026-04-19T13:37:33Z</time></trkpt><trkpt lat="37.810811863469986" lon="15.08236951848605"><ele>1308.0</ele><time>2026-04-19T13:37:34Z</time></trkpt><trkpt lat="37.81093711027989" lon="15.082180060470321"><ele>1307.0</ele><time>2026-04-19T13:37:35Z</time></trkpt><trkpt lat="37.81107852274033" lon="15.081935670023691"><ele>1306.0</ele><time>2026-04-19T13:37:36Z</time></trkpt><trkpt lat="37.81124930107522" lon="15.08170795135419"><ele>1307.6666666666665</ele><time>2026-04-19T13:37:37Z</time></trkpt><trkpt lat="37.811436947002896" lon="15.08158580444044"><ele>1309.3333333333333</ele><time>2026-04-19T13:37:38Z</time></trkpt><trkpt lat="37.811632887252834" lon="15.08150074558518"><ele>1311.0</ele><time>2026-04-19T13:37:39Z</time></trkpt><trkpt lat="37.811750586917924" lon="15.081449409087721"><ele>1309.0</ele><time>2026-04-19T13:37:40Z</time></trkpt><trkpt lat="37.81184284177467" lon="15.08129551307177"><ele>1307.0</ele><time>2026-04-19T13:37:41Z</time></trkpt><trkpt lat="37.811857305798476" lon="15.081080445689164"><ele>1305.0</ele><time>2026-04-19T13:37:42Z</time></trkpt><trkpt lat="37.81183481272136" lon="15.080873916698073"><ele>1311.3333333333333</ele><time>2026-04-19T13:37:43Z</time></trkpt><trkpt lat="37.8117709310616" lon="15.080686509763776"><ele>1317.6666666666665</ele><time>2026-04-19T13:37:44Z</time></trkpt><trkpt lat="37.81168233697011" lon="15.080588507460222"><ele>1324.0</ele><time>2026-04-19T13:37:45Z</time></trkpt><trkpt lat="37.811527218603075" lon="15.080496732372179"><ele>1324.0</ele><time>2026-04-19T13:37:46Z</time></trkpt><trkpt lat="37.81136531906938" lon="15.080448552516396"><ele>1324.0</ele><time>2026-04-19T13:37:47Z</time></trkpt><trkpt lat="37.811194562112966" lon="15.080432189729159"><ele>1324.0</ele><time>2026-04-19T13:37:48Z</time></trkpt><trkpt lat="37.81106035718769" lon="15.080492310838016"><ele>1326.0</ele><time>2026-04-19T13:37:49Z</time></trkpt><trkpt lat="37.810929643124965" lon="15.080652638304201"><ele>1328.0</ele><time>2026-04-19T13:37:50Z</time></trkpt><trkpt lat="37.81079405331798" lon="15.080842536986061"><ele>1330.0</ele><time>2026-04-19T13:37:51Z</time></trkpt><trkpt lat="37.81062939385706" lon="15.081108971013943"><ele>1330.0</ele><time>2026-04-19T13:37:52Z</time></trkpt><trkpt lat="37.810475807885915" lon="15.081292988889942"><ele>1330.0</ele><time>2026-04-19T13:37:53Z</time></trkpt><trkpt lat="37.810329832397095" lon="15.08143661527679"><ele>1330.0</ele><time>2026-04-19T13:37:54Z</time></trkpt><trkpt lat="37.81022565412223" lon="15.081510911685614"><ele>1330.0</ele><time>2026-04-19T13:37:55Z</time></trkpt><trkpt lat="37.81005276548274" lon="15.081615487769493"><ele>1330.0</ele><time>2026-04-19T13:37:56Z</time></trkpt><trkpt lat="37.80983899959769" lon="15.081716558813834"><ele>1330.0</ele><time>2026-04-19T13:37:57Z</time></trkpt><trkpt lat="37.80964016735475" lon="15.081798543066189"><ele>1330.0</ele><time>2026-04-19T13:37:58Z</time></trkpt><trkpt lat="37.809434917193606" lon="15.081875197630524"><ele>1330.0</ele><time>2026-04-19T13:37:59Z</time></trkpt><trkpt lat="37.80925883503806" lon="15.081960430673375"><ele>1330.0</ele><time>2026-04-19T13:38:00Z</time></trkpt><trkpt lat="37.809088734529055" lon="15.081947825710726"><ele>1332.25</ele><time>2026-04-19T13:38:02Z</time></trkpt><trkpt lat="37.809042240174506" lon="15.081760100008408"><ele>1334.5</ele><time>2026-04-19T13:38:04Z</time></trkpt><trkpt lat="37.80901641843272" lon="15.08160610825026"><ele>1336.75</ele><time>2026-04-19T13:38:05Z</time></trkpt><trkpt lat="37.80900061488479" lon="15.081409157325542"><ele>1339.0</ele><time>2026-04-19T13:38:06Z</time></trkpt><trkpt lat="37.80904825300767" lon="15.081312997019582"><ele>1340.3333333333333</ele><time>2026-04-19T13:38:07Z</time></trkpt><trkpt lat="37.80920298919243" lon="15.081263271014215"><ele>1341.6666666666667</ele><time>2026-04-19T13:38:08Z</time></trkpt><trkpt lat="37.80946010711258" lon="15.081126034354579"><ele>1343.0</ele><time>2026-04-19T13:38:09Z</time></trkpt><trkpt lat="37.80963781774388" lon="15.080926487546398"><ele>1348.0</ele><time>2026-04-19T13:38:10Z</time></trkpt><trkpt lat="37.80977044297453" lon="15.08068521873185"><ele>1353.0</ele><time>2026-04-19T13:38:11Z</time></trkpt><trkpt lat="37.80993598193557" lon="15.080380461754766"><ele>1353.0</ele><time>2026-04-19T13:38:12Z</time></trkpt><trkpt lat="37.810005821995226" lon="15.080214459996608"><ele>1353.0</ele><time>2026-04-19T13:38:13Z</time></trkpt><trkpt lat="37.810066380039075" lon="15.080042034697353"><ele>1353.0</ele><time>2026-04-19T13:38:14Z</time></trkpt><trkpt lat="37.81008879442512" lon="15.079902284106915"><ele>1353.0</ele><time>2026-04-19T13:38:15Z</time></trkpt><trkpt lat="37.8100527045347" lon="15.079758478743408"><ele>1354.0</ele><time>2026-04-19T13:38:16Z</time></trkpt><trkpt lat="37.81000617482877" lon="15.079616073796767"><ele>1355.0</ele><time>2026-04-19T13:38:17Z</time></trkpt><trkpt lat="37.80988873683437" lon="15.079508677500678"><ele>1356.0</ele><time>2026-04-19T13:38:18Z</time></trkpt><trkpt lat="37.80973476705931" lon="15.0794387832419"><ele>1357.0</ele><time>2026-04-19T13:38:19Z</time></trkpt><trkpt lat="37.80956420988544" lon="15.079457960513137"><ele>1357.0</ele><time>2026-04-19T13:38:20Z</time></trkpt><trkpt lat="37.8093869197307" lon="15.079541004638875"><ele>1357.0</ele><time>2026-04-19T13:38:21Z</time></trkpt><trkpt lat="37.80923175417793" lon="15.07966811057494"><ele>1357.0</ele><time>2026-04-19T13:38:22Z</time></trkpt><trkpt lat="37.80907363541136" lon="15.07977864433619"><ele>1362.3333333333333</ele><time>2026-04-19T13:38:23Z</time></trkpt><trkpt lat="37.80892562039752" lon="15.079873581508497"><ele>1367.6666666666667</ele><time>2026-04-19T13:38:24Z</time></trkpt><trkpt lat="37.80876878646183" lon="15.079931883004827"><ele>1373.0</ele><time>2026-04-19T13:38:25Z</time></trkpt><trkpt lat="37.80857225206858" lon="15.079905428994437"><ele>1375.6666666666667</ele><time>2026-04-19T13:38:26Z</time></trkpt><trkpt lat="37.8083738447211" lon="15.07984848570414"><ele>1378.3333333333333</ele><time>2026-04-19T13:38:27Z</time></trkpt><trkpt lat="37.808160670242756" lon="15.079806790201136"><ele>1381.0</ele><time>2026-04-19T13:38:28Z</time></trkpt><trkpt lat="37.807939367901895" lon="15.079821558824655"><ele>1381.0</ele><time>2026-04-19T13:38:29Z</time></trkpt><trkpt lat="37.80773602868782" lon="15.079868168524495"><ele>1381.0</ele><time>2026-04-19T13:38:30Z</time></trkpt><trkpt lat="37.80756020472391" lon="15.07992817457257"><ele>1381.0</ele><time>2026-04-19T13:38:31Z</time></trkpt><trkpt lat="37.807456590442314" lon="15.079971052233244"><ele>1381.25</ele><time>2026-04-19T13:38:32Z</time></trkpt><trkpt lat="37.80735537543018" lon="15.079974104143245"><ele>1381.5</ele><time>2026-04-19T13:38:33Z</time></trkpt><trkpt lat="37.80718851245691" lon="15.07993939004334"><ele>1381.75</ele><time>2026-04-19T13:38:34Z</time></trkpt><trkpt lat="37.807059265875644" lon="15.079883316318298"><ele>1382.0</ele><time>2026-04-19T13:38:35Z</time></trkpt><trkpt lat="37.806929481093576" lon="15.079822275479824"><ele>1383.0</ele><time>2026-04-19T13:38:36Z</time></trkpt><trkpt lat="37.80684510351342" lon="15.079766310560393"><ele>1384.0</ele><time>2026-04-19T13:38:37Z</time></trkpt><trkpt lat="37.806741455981424" lon="15.079681360976668"><ele>1385.0</ele><time>2026-04-19T13:38:38Z</time></trkpt><trkpt lat="37.806716271384" lon="15.079582192619329"><ele>1386.0</ele><time>2026-04-19T13:38:39Z</time></trkpt><trkpt lat="37.80672326706997" lon="15.079431404126217"><ele>1387.0</ele><time>2026-04-19T13:38:40Z</time></trkpt><trkpt lat="37.80665406949227" lon="15.07919782385572"><ele>1386.3333333333333</ele><time>2026-04-19T13:38:41Z</time></trkpt><trkpt lat="37.80660966475751" lon="15.07895205601308"><ele>1385.6666666666667</ele><time>2026-04-19T13:38:42Z</time></trkpt><trkpt lat="37.80659683225712" lon="15.078716639142481"><ele>1385.0</ele><time>2026-04-19T13:38:43Z</time></trkpt><trkpt lat="37.80657354707218" lon="15.078503902787649"><ele>1385.0</ele><time>2026-04-19T13:38:44Z</time></trkpt><trkpt lat="37.806569168869274" lon="15.078309365056022"><ele>1385.0</ele><time>2026-04-19T13:38:45Z</time></trkpt><trkpt lat="37.806555259935145" lon="15.078146409318062"><ele>1385.0</ele><time>2026-04-19T13:38:46Z</time></trkpt><trkpt lat="37.80655095180085" lon="15.07802080149522"><ele>1385.0</ele><time>2026-04-19T13:38:47Z</time></trkpt><trkpt lat="37.80656683503838" lon="15.077894132466213"><ele>1386.5</ele><time>2026-04-19T13:38:48Z</time></trkpt><trkpt lat="37.80663084965696" lon="15.077787566085583"><ele>1388.0</ele><time>2026-04-19T13:38:49Z</time></trkpt><trkpt lat="37.80674039944698" lon="15.077790335241719"><ele>1389.5</ele><time>2026-04-19T13:38:50Z</time></trkpt><trkpt lat="37.806870440359724" lon="15.077850072527513"><ele>1391.0</ele><time>2026-04-19T13:38:51Z</time></trkpt><trkpt lat="37.80700421291743" lon="15.077956034320657"><ele>1393.0</ele><time>2026-04-19T13:38:52Z</time></trkpt><trkpt lat="37.80709065582536" lon="15.078068732800741"><ele>1395.0</ele><time>2026-04-19T13:38:53Z</time></trkpt><trkpt lat="37.807093137121946" lon="15.078305160391956"><ele>1397.0</ele><time>2026-04-19T13:38:54Z</time></trkpt><trkpt lat="37.80709715449501" lon="15.078543657918551"><ele>1397.0</ele><time>2026-04-19T13:38:55Z</time></trkpt><trkpt lat="37.80708521839284" lon="15.078802116726939"><ele>1397.0</ele><time>2026-04-19T13:38:56Z</time></trkpt><trkpt lat="37.807104431386065" lon="15.079016223465777"><ele>1397.0</ele><time>2026-04-19T13:38:57Z</time></trkpt><trkpt lat="37.807113841852356" lon="15.079207888484303"><ele>1395.75</ele><time>2026-04-19T13:38:58Z</time></trkpt><trkpt lat="37.80717542331193" lon="15.079333179278608"><ele>1394.5</ele><time>2026-04-19T13:38:59Z</time></trkpt><trkpt lat="37.807261909859726" lon="15.079431822664338"><ele>1393.25</ele><time>2026-04-19T13:39:00Z</time></trkpt><trkpt lat="37.80737102754272" lon="15.079468956915564"><ele>1392.0</ele><time>2026-04-19T13:39:01Z</time></trkpt><trkpt lat="37.807482765164224" lon="15.079428911990165"><ele>1392.0</ele><time>2026-04-19T13:39:02Z</time></trkpt><trkpt lat="37.80758339592653" lon="15.079430331014745"><ele>1392.0</ele><time>2026-04-19T13:39:03Z</time></trkpt><trkpt lat="37.807622199977686" lon="15.079142207755048"><ele>1392.0</ele><time>2026-04-19T13:39:04Z</time></trkpt><trkpt lat="37.80762174371753" lon="15.078962076591496"><ele>1393.25</ele><time>2026-04-19T13:39:05Z</time></trkpt><trkpt lat="37.80757272260069" lon="15.078774815714906"><ele>1394.5</ele><time>2026-04-19T13:39:06Z</time></trkpt><trkpt lat="37.80753512008004" lon="15.078617366160318"><ele>1395.75</ele><time>2026-04-19T13:39:07Z</time></trkpt><trkpt lat="37.80754185389704" lon="15.078455139507621"><ele>1397.0</ele><time>2026-04-19T13:39:08Z</time></trkpt><trkpt lat="37.80759745803308" lon="15.078234123536639"><ele>1401.5</ele><time>2026-04-19T13:39:09Z</time></trkpt><trkpt lat="37.80769823580864" lon="15.078016880123249"><ele>1406.0</ele><time>2026-04-19T13:39:10Z</time></trkpt><trkpt lat="37.80782264598122" lon="15.077706299254263"><ele>1410.5</ele><time>2026-04-19T13:39:11Z</time></trkpt><trkpt lat="37.80799760614542" lon="15.077291510198986"><ele>1415.0</ele><time>2026-04-19T13:39:12Z</time></trkpt><trkpt lat="37.808152628239206" lon="15.076965289919837"><ele>1415.0</ele><time>2026-04-19T13:39:13Z</time></trkpt><trkpt lat="37.808304824048115" lon="15.076661534961007"><ele>1415.0</ele><time>2026-04-19T13:39:14Z</time></trkpt><trkpt lat="37.80842021746219" lon="15.076422421343523"><ele>1416.0</ele><time>2026-04-19T13:39:15Z</time></trkpt><trkpt lat="37.80848807312725" lon="15.076276379710347"><ele>1417.0</ele><time>2026-04-19T13:39:16Z</time></trkpt><trkpt lat="37.80852803473837" lon="15.07613140356035"><ele>1418.0</ele><time>2026-04-19T13:39:17Z</time></trkpt><trkpt lat="37.8085467075928" lon="15.075911097300981"><ele>1419.0</ele><time>2026-04-19T13:39:18Z</time></trkpt><trkpt lat="37.80850298768773" lon="15.075679110146302"><ele>1419.0</ele><time>2026-04-19T13:39:19Z</time></trkpt><trkpt lat="37.80843599266743" lon="15.07546426565693"><ele>1419.0</ele><time>2026-04-19T13:39:20Z</time></trkpt><trkpt lat="37.808373484718295" lon="15.07525276371879"><ele>1419.0</ele><time>2026-04-19T13:39:21Z</time></trkpt><trkpt lat="37.80830989230211" lon="15.07507442436001"><ele>1418.75</ele><time>2026-04-19T13:39:22Z</time></trkpt><trkpt lat="37.808282270280735" lon="15.074856359531896"><ele>1418.5</ele><time>2026-04-19T13:39:23Z</time></trkpt><trkpt lat="37.808258064995975" lon="15.074681632444067"><ele>1418.25</ele><time>2026-04-19T13:39:24Z</time></trkpt><trkpt lat="37.80823630013618" lon="15.074560875363929"><ele>1418.0</ele><time>2026-04-19T13:39:25Z</time></trkpt><trkpt lat="37.80822455813989" lon="15.074469078601217"><ele>1418.0</ele><time>2026-04-19T13:39:26Z</time></trkpt><trkpt lat="37.808200181881084" lon="15.074357457216328"><ele>1418.0</ele><time>2026-04-19T13:39:27Z</time></trkpt><trkpt lat="37.80819540342746" lon="15.074271197236246"><ele>1418.0</ele><time>2026-04-19T13:39:28Z</time></trkpt><trkpt lat="37.8081858766856" lon="15.074177968175482"><ele>1418.0</ele><time>2026-04-19T13:39:29Z</time></trkpt><trkpt lat="37.80819216343018" lon="15.074047187701568"><ele>1418.0</ele><time>2026-04-19T13:39:31Z</time></trkpt><trkpt lat="37.808197520120025" lon="15.073948954177583"><ele>1418.0</ele><time>2026-04-19T13:39:35Z</time></trkpt><trkpt lat="37.80821284126402" lon="15.07383386086964"><ele>1419.6666666666667</ele><time>2026-04-19T13:48:10.001Z</time></trkpt><trkpt lat="37.80820684362313" lon="15.07373497368344"><ele>1421.3333333333335</ele><time>2026-04-19T13:48:11.001Z</time></trkpt><trkpt lat="37.808217734793914" lon="15.073574797602994"><ele>1423.0</ele><time>2026-04-19T13:48:13.001Z</time></trkpt><trkpt lat="37.808241783275214" lon="15.073493097633838"><ele>1424.6666666666667</ele><time>2026-04-19T13:48:14.001Z</time></trkpt><trkpt lat="37.80830264862968" lon="15.07343978488585"><ele>1426.3333333333333</ele><time>2026-04-19T13:48:15.001Z</time></trkpt><trkpt lat="37.80835949648868" lon="15.073391377626306"><ele>1428.0</ele><time>2026-04-19T13:48:16.001Z</time></trkpt><trkpt lat="37.80842223465003" lon="15.073345756309955"><ele>1428.6000000000001</ele><time>2026-04-19T13:48:17.001Z</time></trkpt><trkpt lat="37.808519391172325" lon="15.07332570259165"><ele>1429.2</ele><time>2026-04-19T13:48:18.001Z</time></trkpt><trkpt lat="37.80861576914636" lon="15.073292824174683"><ele>1429.8</ele><time>2026-04-19T13:48:19.001Z</time></trkpt><trkpt lat="37.80871530419548" lon="15.073240936958593"><ele>1430.4</ele><time>2026-04-19T13:48:20.001Z</time></trkpt><trkpt lat="37.808803623144165" lon="15.073149152378056"><ele>1431.0</ele><time>2026-04-19T13:48:21.001Z</time></trkpt><trkpt lat="37.80887762042761" lon="15.073023181494015"><ele>1433.6666666666667</ele><time>2026-04-19T13:48:22.001Z</time></trkpt><trkpt lat="37.808895173317595" lon="15.072849826317624"><ele>1436.3333333333335</ele><time>2026-04-19T13:48:23.001Z</time></trkpt><trkpt lat="37.808908571093546" lon="15.072661672210552"><ele>1439.0</ele><time>2026-04-19T13:48:24.001Z</time></trkpt><trkpt lat="37.8089139115014" lon="15.072425548982908"><ele>1445.0</ele><time>2026-04-19T13:48:25.001Z</time></trkpt><trkpt lat="37.80891958251817" lon="15.072134781612196"><ele>1451.0</ele><time>2026-04-19T13:48:26.001Z</time></trkpt><trkpt lat="37.808938185842955" lon="15.071830736473427"><ele>1454.0</ele><time>2026-04-19T13:48:27.001Z</time></trkpt><trkpt lat="37.808933740418645" lon="15.071523131678342"><ele>1457.0</ele><time>2026-04-19T13:48:28.001Z</time></trkpt><trkpt lat="37.8089406571319" lon="15.07125040779628"><ele>1457.0</ele><time>2026-04-19T13:48:29.001Z</time></trkpt><trkpt lat="37.80894225546176" lon="15.07101623721875"><ele>1457.0</ele><time>2026-04-19T13:48:30.001Z</time></trkpt><trkpt lat="37.80893219278696" lon="15.070792147853863"><ele>1457.0</ele><time>2026-04-19T13:48:31.001Z</time></trkpt><trkpt lat="37.808957125393086" lon="15.070540088817609"><ele>1458.0</ele><time>2026-04-19T13:48:32.001Z</time></trkpt><trkpt lat="37.808971953379185" lon="15.070309195199684"><ele>1459.0</ele><time>2026-04-19T13:48:33.001Z</time></trkpt><trkpt lat="37.80899203905731" lon="15.07018996270166"><ele>1460.0</ele><time>2026-04-19T13:48:34.001Z</time></trkpt><trkpt lat="37.809033958258595" lon="15.069989626837211"><ele>1461.0</ele><time>2026-04-19T13:48:35.001Z</time></trkpt><trkpt lat="37.809113045864095" lon="15.069788942307662"><ele>1463.25</ele><time>2026-04-19T13:48:36.001Z</time></trkpt><trkpt lat="37.809194186974665" lon="15.06959320495086"><ele>1465.5</ele><time>2026-04-19T13:48:37.001Z</time></trkpt><trkpt lat="37.809248693841916" lon="15.069445905257842"><ele>1467.75</ele><time>2026-04-19T13:48:38.001Z</time></trkpt><trkpt lat="37.809292764670325" lon="15.069295157615812"><ele>1470.0</ele><time>2026-04-19T13:48:39.001Z</time></trkpt><trkpt lat="37.80935031070645" lon="15.069179447370923"><ele>1471.8333333333333</ele><time>2026-04-19T13:48:40.001Z</time></trkpt><trkpt lat="37.80935293303367" lon="15.069069455286396"><ele>1473.6666666666667</ele><time>2026-04-19T13:48:41.001Z</time></trkpt><trkpt lat="37.80932240520011" lon="15.068935630061027"><ele>1475.5</ele><time>2026-04-19T13:48:42.001Z</time></trkpt><trkpt lat="37.80925773544912" lon="15.068939122717351"><ele>1477.3333333333335</ele><time>2026-04-19T13:48:44.001Z</time></trkpt><trkpt lat="37.80916857486739" lon="15.068862740876815"><ele>1479.1666666666667</ele><time>2026-04-19T13:48:46.001Z</time></trkpt><trkpt lat="37.80910139038251" lon="15.068835816648287"><ele>1481.0</ele><time>2026-04-19T13:48:48.001Z</time></trkpt><trkpt lat="37.8090391953909" lon="15.068822066062149"><ele>1481.1666666666667</ele><time>2026-04-19T13:48:49.001Z</time></trkpt><trkpt lat="37.80895534333512" lon="15.068849648899306"><ele>1481.3333333333335</ele><time>2026-04-19T13:48:52.001Z</time></trkpt><trkpt lat="37.80886866703427" lon="15.068874605973557"><ele>1481.5</ele><time>2026-04-19T13:48:54.001Z</time></trkpt><trkpt lat="37.808805832451746" lon="15.06893189323418"><ele>1481.6666666666667</ele><time>2026-04-19T13:49:05.001Z</time></trkpt><trkpt lat="37.808753963897765" lon="15.069007145085388"><ele>1481.8333333333333</ele><time>2026-04-19T13:49:22.001Z</time></trkpt><trkpt lat="37.80867892089546" lon="15.069058827932842"><ele>1482.0</ele><time>2026-04-19T13:49:26.001Z</time></trkpt><trkpt lat="37.80868316739422" lon="15.069154372500535"><ele>1481.3999999999999</ele><time>2026-04-19T13:49:27.001Z</time></trkpt><trkpt lat="37.8086211626781" lon="15.069308608851701"><ele>1480.8</ele><time>2026-04-19T13:49:29.001Z</time></trkpt><trkpt lat="37.80857945356697" lon="15.06939060771405"><ele>1480.2</ele><time>2026-04-19T13:49:30.001Z</time></trkpt><trkpt lat="37.80852284078085" lon="15.069478012002183"><ele>1479.6</ele><time>2026-04-19T13:49:31.001Z</time></trkpt><trkpt lat="37.808441203565664" lon="15.069573992647266"><ele>1479.0</ele><time>2026-04-19T13:49:32.001Z</time></trkpt><trkpt lat="37.80837318903348" lon="15.069623909941727"><ele>1479.0</ele><time>2026-04-19T13:49:33.001Z</time></trkpt><trkpt lat="37.808308448528074" lon="15.069626180039608"><ele>1479.0</ele><time>2026-04-19T13:49:34.001Z</time></trkpt><trkpt lat="37.80818006449479" lon="15.0696292330149"><ele>1479.0</ele><time>2026-04-19T13:49:36.001Z</time></trkpt><trkpt lat="37.80816714087798" lon="15.069490130334263"><ele>1479.0</ele><time>2026-04-19T13:49:37.001Z</time></trkpt><trkpt lat="37.808123503488936" lon="15.069428411573481"><ele>1479.0</ele><time>2026-04-19T13:49:38.001Z</time></trkpt><trkpt lat="37.80797957009823" lon="15.069306821696314"><ele>1479.0</ele><time>2026-04-19T13:49:39.001Z</time></trkpt><trkpt lat="37.80789868826592" lon="15.069234967503952"><ele>1479.0</ele><time>2026-04-19T13:49:40.001Z</time></trkpt><trkpt lat="37.80782396488915" lon="15.069165615752272"><ele>1479.0</ele><time>2026-04-19T13:49:41.001Z</time></trkpt><trkpt lat="37.80776375599687" lon="15.069101720440727"><ele>1479.0</ele><time>2026-04-19T13:49:42.001Z</time></trkpt><trkpt lat="37.80770058444288" lon="15.069003545353002"><ele>1479.0</ele><time>2026-04-19T13:49:44.001Z</time></trkpt><trkpt lat="37.807649166787996" lon="15.068886667694917"><ele>1478.4285714285716</ele><time>2026-04-19T13:49:46.001Z</time></trkpt><trkpt lat="37.80762480707275" lon="15.068807518706272"><ele>1477.8571428571427</ele><time>2026-04-19T13:49:47.001Z</time></trkpt><trkpt lat="37.80759372782838" lon="15.068713906382452"><ele>1477.2857142857142</ele><time>2026-04-19T13:49:48.001Z</time></trkpt><trkpt lat="37.807565050724264" lon="15.068625383915748"><ele>1476.7142857142858</ele><time>2026-04-19T13:49:49.001Z</time></trkpt><trkpt lat="37.80753597732241" lon="15.068535638107381"><ele>1476.1428571428573</ele><time>2026-04-19T13:49:50.001Z</time></trkpt><trkpt lat="37.80750816389634" lon="15.068449781645235"><ele>1475.5714285714284</ele><time>2026-04-19T13:49:51.001Z</time></trkpt><trkpt lat="37.80748305069459" lon="15.068372260482205"><ele>1475.0</ele><time>2026-04-19T13:49:52.001Z</time></trkpt><trkpt lat="37.8074423879409" lon="15.06829695306065"><ele>1477.2</ele><time>2026-04-19T13:49:53.001Z</time></trkpt><trkpt lat="37.807414826087516" lon="15.068200500236554"><ele>1479.4</ele><time>2026-04-19T13:49:54.001Z</time></trkpt><trkpt lat="37.807383641290336" lon="15.068104060672761"><ele>1481.6</ele><time>2026-04-19T13:49:55.001Z</time></trkpt><trkpt lat="37.807355324149434" lon="15.068005432233555"><ele>1483.8</ele><time>2026-04-19T13:49:56.001Z</time></trkpt><trkpt lat="37.80732014580981" lon="15.06787705799585"><ele>1486.0</ele><time>2026-04-19T13:49:57.001Z</time></trkpt><trkpt lat="37.807274845393316" lon="15.067757939706256"><ele>1486.0</ele><time>2026-04-19T13:49:58.001Z</time></trkpt><trkpt lat="37.80721096292561" lon="15.067633127432103"><ele>1486.0</ele><time>2026-04-19T13:49:59.001Z</time></trkpt><trkpt lat="37.80711337871432" lon="15.067498207187416"><ele>1486.0</ele><time>2026-04-19T13:50:00.001Z</time></trkpt><trkpt lat="37.80699791111447" lon="15.06739488981857"><ele>1486.0</ele><time>2026-04-19T13:50:01.001Z</time></trkpt><trkpt lat="37.80687565507034" lon="15.067250811353041"><ele>1485.0</ele><time>2026-04-19T13:50:02.001Z</time></trkpt><trkpt lat="37.80674968298437" lon="15.067124589901633"><ele>1484.0</ele><time>2026-04-19T13:50:03.001Z</time></trkpt><trkpt lat="37.80659797722166" lon="15.066970088232061"><ele>1483.0</ele><time>2026-04-19T13:50:04.001Z</time></trkpt><trkpt lat="37.80643884162587" lon="15.06680801980373"><ele>1483.0</ele><time>2026-04-19T13:50:05.001Z</time></trkpt><trkpt lat="37.80627641090578" lon="15.066647419104639"><ele>1483.0</ele><time>2026-04-19T13:50:06.001Z</time></trkpt><trkpt lat="37.80611319700163" lon="15.066493589602304"><ele>1483.0</ele><time>2026-04-19T13:50:07.001Z</time></trkpt><trkpt lat="37.80595340539308" lon="15.066332333321105"><ele>1485.0</ele><time>2026-04-19T13:50:08.001Z</time></trkpt><trkpt lat="37.805798005502965" lon="15.066179408258032"><ele>1487.0</ele><time>2026-04-19T13:50:09.001Z</time></trkpt><trkpt lat="37.80565793156719" lon="15.066016436791838"><ele>1489.0</ele><time>2026-04-19T13:50:10.001Z</time></trkpt><trkpt lat="37.805563808175684" lon="15.065809726489718"><ele>1491.6666666666665</ele><time>2026-04-19T13:50:11.001Z</time></trkpt><trkpt lat="37.80549755067545" lon="15.065644050144106"><ele>1494.3333333333333</ele><time>2026-04-19T13:50:12.001Z</time></trkpt><trkpt lat="37.805408292600966" lon="15.065438259632062"><ele>1497.0</ele><time>2026-04-19T13:50:13.001Z</time></trkpt><trkpt lat="37.80532643976881" lon="15.065320071192627"><ele>1497.0</ele><time>2026-04-19T13:50:14.001Z</time></trkpt><trkpt lat="37.80522440292155" lon="15.065219406923276"><ele>1497.0</ele><time>2026-04-19T13:50:15.001Z</time></trkpt><trkpt lat="37.805064646454866" lon="15.065225148912381"><ele>1497.0</ele><time>2026-04-19T13:50:16.001Z</time></trkpt><trkpt lat="37.804894780962655" lon="15.065267565015247"><ele>1495.5</ele><time>2026-04-19T13:50:17.001Z</time></trkpt><trkpt lat="37.80467094035013" lon="15.065296224165492"><ele>1494.0</ele><time>2026-04-19T13:50:18.001Z</time></trkpt><trkpt lat="37.804395552506335" lon="15.065345968369675"><ele>1495.0</ele><time>2026-04-19T13:50:19.001Z</time></trkpt><trkpt lat="37.804083123303556" lon="15.065399417065516"><ele>1496.0</ele><time>2026-04-19T13:50:20.001Z</time></trkpt><trkpt lat="37.80378951950506" lon="15.06545465293127"><ele>1496.0</ele><time>2026-04-19T13:50:21.001Z</time></trkpt><trkpt lat="37.80354495511166" lon="15.065496945917124"><ele>1496.0</ele><time>2026-04-19T13:50:22.001Z</time></trkpt><trkpt lat="37.803339478161966" lon="15.065532008235717"><ele>1497.3333333333335</ele><time>2026-04-19T13:50:23.001Z</time></trkpt><trkpt lat="37.80316943953557" lon="15.065559022708573"><ele>1498.6666666666667</ele><time>2026-04-19T13:50:24.001Z</time></trkpt><trkpt lat="37.80301159534455" lon="15.065561221242106"><ele>1500.0</ele><time>2026-04-19T13:50:25.001Z</time></trkpt><trkpt lat="37.802837895466666" lon="15.065545179092819"><ele>1500.0</ele><time>2026-04-19T13:50:26.001Z</time></trkpt><trkpt lat="37.80268480404776" lon="15.065416394385545"><ele>1500.0</ele><time>2026-04-19T13:50:27.001Z</time></trkpt><trkpt lat="37.802515586937794" lon="15.065293524419813"><ele>1500.0</ele><time>2026-04-19T13:50:28.001Z</time></trkpt><trkpt lat="37.80235734909398" lon="15.065181961399341"><ele>1497.5</ele><time>2026-04-19T13:50:29.001Z</time></trkpt><trkpt lat="37.8021465497226" lon="15.065064401009444"><ele>1495.0</ele><time>2026-04-19T13:50:30.001Z</time></trkpt><trkpt lat="37.801903452907226" lon="15.064964858896552"><ele>1498.3333333333333</ele><time>2026-04-19T13:50:31.001Z</time></trkpt><trkpt lat="37.80173224514469" lon="15.064875783815161"><ele>1501.6666666666667</ele><time>2026-04-19T13:50:32.001Z</time></trkpt><trkpt lat="37.8015917367927" lon="15.064843675736533"><ele>1505.0</ele><time>2026-04-19T13:50:33.001Z</time></trkpt><trkpt lat="37.801472040762434" lon="15.064804625278256"><ele>1505.0</ele><time>2026-04-19T13:50:34.001Z</time></trkpt><trkpt lat="37.80134886141517" lon="15.064846371603153"><ele>1505.0</ele><time>2026-04-19T13:50:35.001Z</time></trkpt><trkpt lat="37.80123413085503" lon="15.064979394339094"><ele>1505.0</ele><time>2026-04-19T13:50:36.001Z</time></trkpt><trkpt lat="37.801127698728166" lon="15.065143331298806"><ele>1504.3333333333335</ele><time>2026-04-19T13:50:37.001Z</time></trkpt><trkpt lat="37.80101152312165" lon="15.065285105227675"><ele>1503.6666666666667</ele><time>2026-04-19T13:50:38.001Z</time></trkpt><trkpt lat="37.80088282148415" lon="15.0653779338875"><ele>1503.0</ele><time>2026-04-19T13:50:39.001Z</time></trkpt><trkpt lat="37.80073979729759" lon="15.065403972123878"><ele>1503.0</ele><time>2026-04-19T13:50:40.001Z</time></trkpt><trkpt lat="37.80059642813171" lon="15.065401448018243"><ele>1503.0</ele><time>2026-04-19T13:50:41.001Z</time></trkpt><trkpt lat="37.80041749553086" lon="15.065398459652684"><ele>1503.0</ele><time>2026-04-19T13:50:42.001Z</time></trkpt><trkpt lat="37.800247195654165" lon="15.0653834596871"><ele>1504.0</ele><time>2026-04-19T13:50:43.001Z</time></trkpt><trkpt lat="37.800063027660464" lon="15.065346525927524"><ele>1505.0</ele><time>2026-04-19T13:50:44.001Z</time></trkpt><trkpt lat="37.7998474389849" lon="15.065248985182507"><ele>1506.0</ele><time>2026-04-19T13:50:45.001Z</time></trkpt><trkpt lat="37.799656161179705" lon="15.065184562429874"><ele>1506.0</ele><time>2026-04-19T13:50:46.001Z</time></trkpt><trkpt lat="37.7994620539115" lon="15.065161758283114"><ele>1506.0</ele><time>2026-04-19T13:50:47.001Z</time></trkpt><trkpt lat="37.799308815422265" lon="15.065150553293043"><ele>1506.0</ele><time>2026-04-19T13:50:48.001Z</time></trkpt><trkpt lat="37.79915402021133" lon="15.065151226065414"><ele>1505.5</ele><time>2026-04-19T13:50:49.001Z</time></trkpt><trkpt lat="37.799013320821835" lon="15.065173244863168"><ele>1505.0</ele><time>2026-04-19T13:50:50.001Z</time></trkpt><trkpt lat="37.798883304485315" lon="15.065207256728034"><ele>1504.5</ele><time>2026-04-19T13:50:51.001Z</time></trkpt><trkpt lat="37.79877417872872" lon="15.06524223240343"><ele>1504.0</ele><time>2026-04-19T13:50:52.001Z</time></trkpt><trkpt lat="37.79869006437275" lon="15.065269378148225"><ele>1504.0</ele><time>2026-04-19T13:50:53.001Z</time></trkpt><trkpt lat="37.79858656404048" lon="15.065303344282135"><ele>1504.0</ele><time>2026-04-19T13:50:55.001Z</time></trkpt><trkpt lat="37.798520900024556" lon="15.065328154571471"><ele>1504.0</ele><time>2026-04-19T13:50:59.001Z</time></trkpt><trkpt lat="37.79843405213496" lon="15.065365758640349"><ele>1504.0</ele><time>2026-04-19T13:51:15.001Z</time></trkpt><trkpt lat="37.798326008711676" lon="15.065417862078217"><ele>1504.0</ele><time>2026-04-19T13:51:17.001Z</time></trkpt><trkpt lat="37.79826420087816" lon="15.065439274325934"><ele>1504.0</ele><time>2026-04-19T13:51:18.001Z</time></trkpt><trkpt lat="37.79819459991542" lon="15.065456575755993"><ele>1505.8000000000002</ele><time>2026-04-19T13:51:19.001Z</time></trkpt><trkpt lat="37.79811584070395" lon="15.065475139283503"><ele>1507.6000000000001</ele><time>2026-04-19T13:51:20.001Z</time></trkpt><trkpt lat="37.798031075839155" lon="15.065490718330471"><ele>1509.4</ele><time>2026-04-19T13:51:21.001Z</time></trkpt><trkpt lat="37.797931218742114" lon="15.065491699284633"><ele>1511.2</ele><time>2026-04-19T13:51:22.001Z</time></trkpt><trkpt lat="37.79783272743118" lon="15.065479835363348"><ele>1513.0</ele><time>2026-04-19T13:51:23.001Z</time></trkpt><trkpt lat="37.79773530620835" lon="15.065443989910023"><ele>1513.75</ele><time>2026-04-19T13:51:24.001Z</time></trkpt><trkpt lat="37.79763934231801" lon="15.065398182991315"><ele>1514.5</ele><time>2026-04-19T13:51:25.001Z</time></trkpt><trkpt lat="37.79754633102169" lon="15.065330837257301"><ele>1515.25</ele><time>2026-04-19T13:51:26.001Z</time></trkpt><trkpt lat="37.797462763053545" lon="15.065231103426447"><ele>1516.0</ele><time>2026-04-19T13:51:27.001Z</time></trkpt><trkpt lat="37.797389931652795" lon="15.065100934172005"><ele>1516.0</ele><time>2026-04-19T13:51:28.001Z</time></trkpt><trkpt lat="37.797327432339046" lon="15.064948326584716"><ele>1516.0</ele><time>2026-04-19T13:51:29.001Z</time></trkpt><trkpt lat="37.79727496910606" lon="15.06478848005531"><ele>1516.0</ele><time>2026-04-19T13:51:30.001Z</time></trkpt><trkpt lat="37.79722133395822" lon="15.064602289058518"><ele>1516.0</ele><time>2026-04-19T13:51:31.001Z</time></trkpt><trkpt lat="37.79716930981816" lon="15.064428534267757"><ele>1517.5</ele><time>2026-04-19T13:51:32.001Z</time></trkpt><trkpt lat="37.79711203240005" lon="15.0642530691155"><ele>1519.0</ele><time>2026-04-19T13:51:33.001Z</time></trkpt><trkpt lat="37.79705236919013" lon="15.064078131580159"><ele>1520.5</ele><time>2026-04-19T13:51:34.001Z</time></trkpt><trkpt lat="37.79700392459048" lon="15.063923675783485"><ele>1522.0</ele><time>2026-04-19T13:51:35.001Z</time></trkpt><trkpt lat="37.7969568895641" lon="15.063783898332735"><ele>1522.6666666666665</ele><time>2026-04-19T13:51:36.001Z</time></trkpt><trkpt lat="37.79692074161888" lon="15.063665807711942"><ele>1523.3333333333333</ele><time>2026-04-19T13:51:37.001Z</time></trkpt><trkpt lat="37.79689009700547" lon="15.063566658650595"><ele>1524.0</ele><time>2026-04-19T13:51:38.001Z</time></trkpt><trkpt lat="37.79686366915883" lon="15.06348430769057"><ele>1524.6666666666667</ele><time>2026-04-19T13:51:39.001Z</time></trkpt><trkpt lat="37.796839502583076" lon="15.06340510673769"><ele>1525.3333333333335</ele><time>2026-04-19T13:51:40.001Z</time></trkpt><trkpt lat="37.796817408650554" lon="15.063329513742877"><ele>1526.0</ele><time>2026-04-19T13:51:41.001Z</time></trkpt><trkpt lat="37.79677907068012" lon="15.063189911990388"><ele>1526.5</ele><time>2026-04-19T13:51:43.001Z</time></trkpt><trkpt lat="37.79676417537488" lon="15.063079201067257"><ele>1527.0</ele><time>2026-04-19T13:51:45.001Z</time></trkpt><trkpt lat="37.79672631847848" lon="15.06301371024943"><ele>1527.5</ele><time>2026-04-19T13:51:48.001Z</time></trkpt><trkpt lat="37.79671007931669" lon="15.062889571249451"><ele>1528.0</ele><time>2026-04-19T13:52:34.001Z</time></trkpt><trkpt lat="37.79669434653224" lon="15.062755099816027"><ele>1528.5</ele><time>2026-04-19T13:52:36.001Z</time></trkpt><trkpt lat="37.796692831370564" lon="15.062663692488874"><ele>1529.0</ele><time>2026-04-19T13:52:39.001Z</time></trkpt><trkpt lat="37.79669667643033" lon="15.062566947231934"><ele>1529.0</ele><time>2026-04-19T13:53:32.001Z</time></trkpt><trkpt lat="37.79664490779966" lon="15.062506449191435"><ele>1529.0</ele><time>2026-04-19T13:53:35.001Z</time></trkpt><trkpt lat="37.79658905995835" lon="15.06245349451929"><ele>1529.0</ele><time>2026-04-19T13:53:44.001Z</time></trkpt><trkpt lat="37.79648310089606" lon="15.062347381274359"><ele>1529.0</ele><time>2026-04-19T13:53:51.001Z</time></trkpt><trkpt lat="37.79641682959176" lon="15.062276154878449"><ele>1529.0</ele><time>2026-04-19T13:53:52.001Z</time></trkpt><trkpt lat="37.796331789678845" lon="15.06220070360417"><ele>1532.25</ele><time>2026-04-19T13:53:53.001Z</time></trkpt><trkpt lat="37.7962360929858" lon="15.0621228300154"><ele>1535.5</ele><time>2026-04-19T13:53:54Z</time></trkpt><trkpt lat="37.7961298900136" lon="15.062057635704852"><ele>1538.75</ele><time>2026-04-19T13:53:55Z</time></trkpt><trkpt lat="37.79600633644119" lon="15.06201073453567"><ele>1542.0</ele><time>2026-04-19T13:53:56Z</time></trkpt><trkpt lat="37.79586887901094" lon="15.061988999749397"><ele>1542.6666666666665</ele><time>2026-04-19T13:53:57Z</time></trkpt><trkpt lat="37.79572196995591" lon="15.061999655575237"><ele>1543.3333333333333</ele><time>2026-04-19T13:53:58Z</time></trkpt><trkpt lat="37.79557088548786" lon="15.06203948361268"><ele>1544.0</ele><time>2026-04-19T13:53:59Z</time></trkpt><trkpt lat="37.79542195281963" lon="15.062097684506725"><ele>1544.0</ele><time>2026-04-19T13:54:00Z</time></trkpt><trkpt lat="37.79526889836939" lon="15.06212323933138"><ele>1544.0</ele><time>2026-04-19T13:54:01Z</time></trkpt><trkpt lat="37.79512391818024" lon="15.062137761117505"><ele>1544.0</ele><time>2026-04-19T13:54:02Z</time></trkpt><trkpt lat="37.79498450863872" lon="15.062101280580864"><ele>1544.0</ele><time>2026-04-19T13:54:03Z</time></trkpt><trkpt lat="37.79484352949624" lon="15.062043386880882"><ele>1543.6666666666665</ele><time>2026-04-19T13:54:04Z</time></trkpt><trkpt lat="37.79470543450257" lon="15.061963810357442"><ele>1543.3333333333335</ele><time>2026-04-19T13:54:05Z</time></trkpt><trkpt lat="37.79456220981801" lon="15.061897483422953"><ele>1543.0</ele><time>2026-04-19T13:54:06Z</time></trkpt><trkpt lat="37.79439889275138" lon="15.061875776936729"><ele>1547.3333333333335</ele><time>2026-04-19T13:54:07Z</time></trkpt><trkpt lat="37.794214109783255" lon="15.0618862320006"><ele>1551.6666666666665</ele><time>2026-04-19T13:54:08Z</time></trkpt><trkpt lat="37.79401540289603" lon="15.06192804450703"><ele>1556.0</ele><time>2026-04-19T13:54:09Z</time></trkpt><trkpt lat="37.79380409201909" lon="15.061983934562784"><ele>1556.0</ele><time>2026-04-19T13:54:10Z</time></trkpt><trkpt lat="37.79358735638869" lon="15.062028122007556"><ele>1556.0</ele><time>2026-04-19T13:54:11Z</time></trkpt><trkpt lat="37.793370703863246" lon="15.062012659320962"><ele>1556.0</ele><time>2026-04-19T13:54:12Z</time></trkpt><trkpt lat="37.793148309923986" lon="15.062012637556183"><ele>1558.5</ele><time>2026-04-19T13:54:13Z</time></trkpt><trkpt lat="37.792923282807955" lon="15.062013413710053"><ele>1561.0</ele><time>2026-04-19T13:54:14Z</time></trkpt><trkpt lat="37.79269655263593" lon="15.062010925116024"><ele>1561.6666666666667</ele><time>2026-04-19T13:54:15Z</time></trkpt><trkpt lat="37.79248499519796" lon="15.062008651453644"><ele>1562.3333333333335</ele><time>2026-04-19T13:54:16Z</time></trkpt><trkpt lat="37.7923039950691" lon="15.062010956650752"><ele>1563.0</ele><time>2026-04-19T13:54:17Z</time></trkpt><trkpt lat="37.79213652959097" lon="15.062006659081165"><ele>1563.0</ele><time>2026-04-19T13:54:18Z</time></trkpt><trkpt lat="37.79197347171227" lon="15.061996004165614"><ele>1563.0</ele><time>2026-04-19T13:54:19Z</time></trkpt><trkpt lat="37.79182013309683" lon="15.061922489994831"><ele>1563.0</ele><time>2026-04-19T13:54:20Z</time></trkpt><trkpt lat="37.79167054362081" lon="15.061818961289548"><ele>1564.3333333333335</ele><time>2026-04-19T13:54:21Z</time></trkpt><trkpt lat="37.7915224508067" lon="15.061691637369108"><ele>1565.6666666666667</ele><time>2026-04-19T13:54:22Z</time></trkpt><trkpt lat="37.79139188742347" lon="15.061588774046855"><ele>1567.0</ele><time>2026-04-19T13:54:23Z</time></trkpt><trkpt lat="37.791240155235485" lon="15.061488497408403"><ele>1571.6666666666667</ele><time>2026-04-19T13:54:24Z</time></trkpt><trkpt lat="37.7910539032235" lon="15.061453240890673"><ele>1576.3333333333335</ele><time>2026-04-19T13:54:25Z</time></trkpt><trkpt lat="37.79086140213211" lon="15.061432171071475"><ele>1581.0</ele><time>2026-04-19T13:54:26Z</time></trkpt><trkpt lat="37.79066390262217" lon="15.061413045257353"><ele>1582.0</ele><time>2026-04-19T13:54:27Z</time></trkpt><trkpt lat="37.79048278091492" lon="15.0613955054603"><ele>1583.0</ele><time>2026-04-19T13:54:28Z</time></trkpt><trkpt lat="37.79031692514598" lon="15.061385343801536"><ele>1584.0</ele><time>2026-04-19T13:54:29Z</time></trkpt><trkpt lat="37.79014484071102" lon="15.06144088999087"><ele>1584.3333333333335</ele><time>2026-04-19T13:54:30Z</time></trkpt><trkpt lat="37.789969780500996" lon="15.061507077608235"><ele>1584.6666666666667</ele><time>2026-04-19T13:54:31Z</time></trkpt><trkpt lat="37.78979114073005" lon="15.061595391528623"><ele>1585.0</ele><time>2026-04-19T13:54:32Z</time></trkpt><trkpt lat="37.789604212365354" lon="15.06169033586526"><ele>1582.3333333333335</ele><time>2026-04-19T13:54:33Z</time></trkpt><trkpt lat="37.78941826140438" lon="15.06176078821007"><ele>1579.6666666666665</ele><time>2026-04-19T13:54:34Z</time></trkpt><trkpt lat="37.78925371987516" lon="15.061841123021992"><ele>1577.0</ele><time>2026-04-19T13:54:35Z</time></trkpt><trkpt lat="37.78909334843561" lon="15.061914699395965"><ele>1577.0</ele><time>2026-04-19T13:54:36Z</time></trkpt><trkpt lat="37.788930863739616" lon="15.061986111542888"><ele>1577.0</ele><time>2026-04-19T13:54:37Z</time></trkpt><trkpt lat="37.78878783762938" lon="15.062055939378016"><ele>1577.0</ele><time>2026-04-19T13:54:38Z</time></trkpt><trkpt lat="37.78866252175702" lon="15.062121054624793"><ele>1577.0</ele><time>2026-04-19T13:54:39Z</time></trkpt><trkpt lat="37.78854820608784" lon="15.062185075039913"><ele>1577.0</ele><time>2026-04-19T13:54:40Z</time></trkpt><trkpt lat="37.78845283630528" lon="15.06224496745556"><ele>1577.0</ele><time>2026-04-19T13:54:41Z</time></trkpt><trkpt lat="37.78836060881632" lon="15.062307870331981"><ele>1577.0</ele><time>2026-04-19T13:54:42Z</time></trkpt><trkpt lat="37.78825430008932" lon="15.062381735398237"><ele>1579.5</ele><time>2026-04-19T13:54:43Z</time></trkpt><trkpt lat="37.78813106646314" lon="15.06245774440158"><ele>1582.0</ele><time>2026-04-19T13:54:44Z</time></trkpt><trkpt lat="37.787995521749146" lon="15.062538928922113"><ele>1584.5</ele><time>2026-04-19T13:54:45Z</time></trkpt><trkpt lat="37.78785157734346" lon="15.062629419158489"><ele>1587.0</ele><time>2026-04-19T13:54:46Z</time></trkpt><trkpt lat="37.787701065997766" lon="15.062726244657831"><ele>1591.0</ele><time>2026-04-19T13:54:47Z</time></trkpt><trkpt lat="37.787552863717536" lon="15.062833158404489"><ele>1595.0</ele><time>2026-04-19T13:54:48Z</time></trkpt><trkpt lat="37.787404297275906" lon="15.062934515479357"><ele>1599.0</ele><time>2026-04-19T13:54:49Z</time></trkpt><trkpt lat="37.78725234045727" lon="15.063012865686083"><ele>1599.0</ele><time>2026-04-19T13:54:50Z</time></trkpt><trkpt lat="37.78709735076933" lon="15.063060492906514"><ele>1599.0</ele><time>2026-04-19T13:54:51Z</time></trkpt><trkpt lat="37.786938272236775" lon="15.063072444467888"><ele>1599.0</ele><time>2026-04-19T13:54:52Z</time></trkpt><trkpt lat="37.78676894614593" lon="15.06304908270673"><ele>1602.6666666666665</ele><time>2026-04-19T13:54:53Z</time></trkpt><trkpt lat="37.78659503499479" lon="15.063013424482941"><ele>1606.3333333333333</ele><time>2026-04-19T13:54:54Z</time></trkpt><trkpt lat="37.786442016187216" lon="15.06297617083505"><ele>1610.0</ele><time>2026-04-19T13:54:55Z</time></trkpt><trkpt lat="37.786313403732045" lon="15.062948824595576"><ele>1610.0</ele><time>2026-04-19T13:54:56Z</time></trkpt><trkpt lat="37.78619766245954" lon="15.062893570306608"><ele>1610.0</ele><time>2026-04-19T13:54:57Z</time></trkpt><trkpt lat="37.78609894389229" lon="15.06278376157705"><ele>1610.0</ele><time>2026-04-19T13:54:58Z</time></trkpt><trkpt lat="37.78599989063024" lon="15.062627076759602"><ele>1610.0</ele><time>2026-04-19T13:54:59Z</time></trkpt><trkpt lat="37.7858804406579" lon="15.06243943482668"><ele>1616.5</ele><time>2026-04-19T13:55:00Z</time></trkpt><trkpt lat="37.78574091079453" lon="15.062220753610182"><ele>1623.0</ele><time>2026-04-19T13:55:01Z</time></trkpt><trkpt lat="37.7855875627358" lon="15.061981189319468"><ele>1623.0</ele><time>2026-04-19T13:55:02Z</time></trkpt><trkpt lat="37.78543357831533" lon="15.061740631043497"><ele>1623.0</ele><time>2026-04-19T13:55:03Z</time></trkpt><trkpt lat="37.785278684059385" lon="15.061498651466085"><ele>1621.0</ele><time>2026-04-19T13:55:04Z</time></trkpt><trkpt lat="37.785126930982734" lon="15.06126049507681"><ele>1619.0</ele><time>2026-04-19T13:55:05Z</time></trkpt><trkpt lat="37.784982373486656" lon="15.061032710477084"><ele>1619.0</ele><time>2026-04-19T13:55:06Z</time></trkpt><trkpt lat="37.78485036038565" lon="15.060824692014396"><ele>1619.0</ele><time>2026-04-19T13:55:07Z</time></trkpt><trkpt lat="37.78473578157868" lon="15.060644578191846"><ele>1619.0</ele><time>2026-04-19T13:55:08Z</time></trkpt><trkpt lat="37.784626984059905" lon="15.060498453454354"><ele>1620.4</ele><time>2026-04-19T13:55:09Z</time></trkpt><trkpt lat="37.78454665450713" lon="15.060374231516539"><ele>1621.8000000000002</ele><time>2026-04-19T13:55:10Z</time></trkpt><trkpt lat="37.784485613553066" lon="15.060283959959232"><ele>1623.1999999999998</ele><time>2026-04-19T13:55:11Z</time></trkpt><trkpt lat="37.78444203086125" lon="15.060212735008077"><ele>1624.6</ele><time>2026-04-19T13:55:12Z</time></trkpt><trkpt lat="37.78436973233657" lon="15.060127836651828"><ele>1626.0</ele><time>2026-04-19T13:55:14Z</time></trkpt><trkpt lat="37.78430021717818" lon="15.060092194369638"><ele>1626.1666666666667</ele><time>2026-04-19T13:55:16Z</time></trkpt><trkpt lat="37.784238536712415" lon="15.060071708873137"><ele>1626.3333333333335</ele><time>2026-04-19T13:55:18Z</time></trkpt><trkpt lat="37.7841725212182" lon="15.06003913639379"><ele>1626.5</ele><time>2026-04-19T13:55:39Z</time></trkpt><trkpt lat="37.78409770275761" lon="15.060074869574096"><ele>1626.6666666666667</ele><time>2026-04-19T13:55:41Z</time></trkpt><trkpt lat="37.784039708763785" lon="15.060124609938027"><ele>1626.8333333333335</ele><time>2026-04-19T13:55:42Z</time></trkpt><trkpt lat="37.78396372531216" lon="15.060175909322831"><ele>1627.0</ele><time>2026-04-19T13:55:43Z</time></trkpt><trkpt lat="37.783870410374405" lon="15.060231984183503"><ele>1627.0</ele><time>2026-04-19T13:55:44Z</time></trkpt><trkpt lat="37.783771102637054" lon="15.060294689227792"><ele>1627.0</ele><time>2026-04-19T13:55:45Z</time></trkpt><trkpt lat="37.783667034202665" lon="15.060359175316226"><ele>1627.0</ele><time>2026-04-19T13:55:46Z</time></trkpt><trkpt lat="37.783559089560974" lon="15.060427454556747"><ele>1627.0</ele><time>2026-04-19T13:55:47Z</time></trkpt><trkpt lat="37.78344154726174" lon="15.060475566319266"><ele>1628.5</ele><time>2026-04-19T13:55:48Z</time></trkpt><trkpt lat="37.783311444113" lon="15.060498590104892"><ele>1630.0</ele><time>2026-04-19T13:55:49Z</time></trkpt><trkpt lat="37.78317845491734" lon="15.060493175376388"><ele>1631.5</ele><time>2026-04-19T13:55:50Z</time></trkpt><trkpt lat="37.78303107231384" lon="15.060463718704328"><ele>1633.0</ele><time>2026-04-19T13:55:51Z</time></trkpt><trkpt lat="37.78288653824488" lon="15.060423227152437"><ele>1633.0</ele><time>2026-04-19T13:55:52Z</time></trkpt><trkpt lat="37.78274689991289" lon="15.060410706359082"><ele>1633.0</ele><time>2026-04-19T13:55:53Z</time></trkpt><trkpt lat="37.782609779257385" lon="15.060459534076319"><ele>1633.0</ele><time>2026-04-19T13:55:54Z</time></trkpt><trkpt lat="37.782472153297896" lon="15.060560726256558"><ele>1633.0</ele><time>2026-04-19T13:55:55Z</time></trkpt><trkpt lat="37.782344424398566" lon="15.060727815052989"><ele>1633.0</ele><time>2026-04-19T13:55:56Z</time></trkpt><trkpt lat="37.78221361243889" lon="15.06092179110466"><ele>1633.0</ele><time>2026-04-19T13:55:57Z</time></trkpt><trkpt lat="37.782044875748426" lon="15.061154526789064"><ele>1633.0</ele><time>2026-04-19T13:55:58Z</time></trkpt><trkpt lat="37.78185555926686" lon="15.061423777476962"><ele>1633.0</ele><time>2026-04-19T13:55:59Z</time></trkpt><trkpt lat="37.781683439843675" lon="15.061663266869653"><ele>1633.0</ele><time>2026-04-19T13:56:00Z</time></trkpt><trkpt lat="37.78151452609666" lon="15.061900624430516"><ele>1633.0</ele><time>2026-04-19T13:56:01Z</time></trkpt><trkpt lat="37.78135716619654" lon="15.062117323909522"><ele>1633.0</ele><time>2026-04-19T13:56:02Z</time></trkpt><trkpt lat="37.781208738868216" lon="15.062327833428396"><ele>1633.0</ele><time>2026-04-19T13:56:03Z</time></trkpt><trkpt lat="37.78106822954277" lon="15.062527355010221"><ele>1633.0</ele><time>2026-04-19T13:56:04Z</time></trkpt><trkpt lat="37.780941314900254" lon="15.062708544131198"><ele>1636.0</ele><time>2026-04-19T13:56:05Z</time></trkpt><trkpt lat="37.780826775728514" lon="15.062874330242659"><ele>1639.0</ele><time>2026-04-19T13:56:06Z</time></trkpt><trkpt lat="37.78072574453795" lon="15.06303152854344"><ele>1642.0</ele><time>2026-04-19T13:56:07Z</time></trkpt><trkpt lat="37.780631765776114" lon="15.063193925320316"><ele>1640.3333333333335</ele><time>2026-04-19T13:56:08Z</time></trkpt><trkpt lat="37.78054411577331" lon="15.063374817207709"><ele>1638.6666666666665</ele><time>2026-04-19T13:56:09Z</time></trkpt><trkpt lat="37.780464998611706" lon="15.063588480906226"><ele>1637.0</ele><time>2026-04-19T13:56:10Z</time></trkpt><trkpt lat="37.780387137472744" lon="15.063822075411998"><ele>1637.0</ele><time>2026-04-19T13:56:11Z</time></trkpt><trkpt lat="37.7803039878241" lon="15.064061463760133"><ele>1637.0</ele><time>2026-04-19T13:56:12Z</time></trkpt><trkpt lat="37.78021671758524" lon="15.06430564491775"><ele>1637.0</ele><time>2026-04-19T13:56:13Z</time></trkpt><trkpt lat="37.7801232860362" lon="15.064552193406717"><ele>1634.0</ele><time>2026-04-19T13:56:14Z</time></trkpt><trkpt lat="37.78003201003977" lon="15.06479909609188"><ele>1631.0</ele><time>2026-04-19T13:56:15Z</time></trkpt><trkpt lat="37.77995108674469" lon="15.065029025123327"><ele>1628.0</ele><time>2026-04-19T13:56:16Z</time></trkpt><trkpt lat="37.77987840204257" lon="15.065231853601334"><ele>1626.5</ele><time>2026-04-19T13:56:17Z</time></trkpt><trkpt lat="37.77980850312644" lon="15.065382622709336"><ele>1625.0</ele><time>2026-04-19T13:56:18Z</time></trkpt><trkpt lat="37.77971489071225" lon="15.065505713997018"><ele>1623.5</ele><time>2026-04-19T13:56:19Z</time></trkpt><trkpt lat="37.77958503998892" lon="15.065606580599392"><ele>1622.0</ele><time>2026-04-19T13:56:20Z</time></trkpt><trkpt lat="37.779435154538696" lon="15.065671291270363"><ele>1620.6666666666665</ele><time>2026-04-19T13:56:21Z</time></trkpt><trkpt lat="37.77925329735711" lon="15.06571743827591"><ele>1619.3333333333335</ele><time>2026-04-19T13:56:22Z</time></trkpt><trkpt lat="37.77905119874059" lon="15.065763596823574"><ele>1618.0</ele><time>2026-04-19T13:56:23Z</time></trkpt><trkpt lat="37.7788200370649" lon="15.065821290864388"><ele>1615.5</ele><time>2026-04-19T13:56:24Z</time></trkpt><trkpt lat="37.77857167820998" lon="15.065887217105058"><ele>1613.0</ele><time>2026-04-19T13:56:25Z</time></trkpt><trkpt lat="37.778311376669535" lon="15.065960442520945"><ele>1609.0</ele><time>2026-04-19T13:56:26Z</time></trkpt><trkpt lat="37.778036074094835" lon="15.066031364130126"><ele>1605.0</ele><time>2026-04-19T13:56:27Z</time></trkpt><trkpt lat="37.77776223712379" lon="15.066100190884615"><ele>1605.5</ele><time>2026-04-19T13:56:28Z</time></trkpt><trkpt lat="37.77751393084435" lon="15.066166700187438"><ele>1606.0</ele><time>2026-04-19T13:56:29Z</time></trkpt><trkpt lat="37.77728129181732" lon="15.06623001429604"><ele>1606.0</ele><time>2026-04-19T13:56:30Z</time></trkpt><trkpt lat="37.77705833340215" lon="15.06628768497601"><ele>1606.0</ele><time>2026-04-19T13:56:31Z</time></trkpt><trkpt lat="37.77683471954171" lon="15.06633713934037"><ele>1606.0</ele><time>2026-04-19T13:56:32Z</time></trkpt><trkpt lat="37.776602440694106" lon="15.066354508577454"><ele>1606.0</ele><time>2026-04-19T13:56:33Z</time></trkpt><trkpt lat="37.77635255470354" lon="15.066336398034505"><ele>1606.0</ele><time>2026-04-19T13:56:34Z</time></trkpt><trkpt lat="37.776083766017145" lon="15.066305341666713"><ele>1606.0</ele><time>2026-04-19T13:56:35Z</time></trkpt><trkpt lat="37.77583142669757" lon="15.06627725318442"><ele>1607.0</ele><time>2026-04-19T13:56:36Z</time></trkpt><trkpt lat="37.775606301094804" lon="15.066253971466548"><ele>1608.0</ele><time>2026-04-19T13:56:37Z</time></trkpt><trkpt lat="37.775395129079634" lon="15.06623694651074"><ele>1609.0</ele><time>2026-04-19T13:56:38Z</time></trkpt><trkpt lat="37.775190606857684" lon="15.066210209045845"><ele>1609.3333333333335</ele><time>2026-04-19T13:56:39Z</time></trkpt><trkpt lat="37.77500784612723" lon="15.066173853516487"><ele>1609.6666666666665</ele><time>2026-04-19T13:56:40Z</time></trkpt><trkpt lat="37.77485566381191" lon="15.066132454086901"><ele>1610.0</ele><time>2026-04-19T13:56:41Z</time></trkpt><trkpt lat="37.774722329194034" lon="15.066092158610255"><ele>1610.0</ele><time>2026-04-19T13:56:42Z</time></trkpt><trkpt lat="37.774614437007585" lon="15.066061064512912"><ele>1610.0</ele><time>2026-04-19T13:56:43Z</time></trkpt><trkpt lat="37.774524393133476" lon="15.066034795976561"><ele>1610.0</ele><time>2026-04-19T13:56:44Z</time></trkpt><trkpt lat="37.7744549381281" lon="15.066019903785461"><ele>1610.0</ele><time>2026-04-19T13:56:45Z</time></trkpt><trkpt lat="37.774356019684014" lon="15.06600206906071"><ele>1610.0</ele><time>2026-04-19T13:56:47Z</time></trkpt><trkpt lat="37.77427662534179" lon="15.066019119012193"><ele>1609.2</ele><time>2026-04-19T13:56:49Z</time></trkpt><trkpt lat="37.7741988457082" lon="15.066048490428352"><ele>1608.4</ele><time>2026-04-19T13:56:51Z</time></trkpt><trkpt lat="37.77411304098943" lon="15.066120394318544"><ele>1607.6</ele><time>2026-04-19T13:56:53Z</time></trkpt><trkpt lat="37.774014787318805" lon="15.0662085304233"><ele>1606.8</ele><time>2026-04-19T13:56:55Z</time></trkpt><trkpt lat="37.77395176612187" lon="15.066256978360082"><ele>1606.0</ele><time>2026-04-19T13:56:56Z</time></trkpt><trkpt lat="37.773873431812454" lon="15.066319616592706"><ele>1606.0</ele><time>2026-04-19T13:56:57Z</time></trkpt><trkpt lat="37.773780902862235" lon="15.066396490500892"><ele>1606.0</ele><time>2026-04-19T13:56:58Z</time></trkpt><trkpt lat="37.77366610029991" lon="15.06648803532972"><ele>1606.0</ele><time>2026-04-19T13:56:59Z</time></trkpt><trkpt lat="37.77353442327996" lon="15.066587919203334"><ele>1606.0</ele><time>2026-04-19T13:57:00Z</time></trkpt><trkpt lat="37.77339158458256" lon="15.066700440979815"><ele>1602.3333333333335</ele><time>2026-04-19T13:57:01Z</time></trkpt><trkpt lat="37.77323746712003" lon="15.066835299422522"><ele>1598.6666666666665</ele><time>2026-04-19T13:57:02Z</time></trkpt><trkpt lat="37.77309314020428" lon="15.066999974250162"><ele>1595.0</ele><time>2026-04-19T13:57:03Z</time></trkpt><trkpt lat="37.772974434799295" lon="15.067198372098552"><ele>1595.0</ele><time>2026-04-19T13:57:04Z</time></trkpt><trkpt lat="37.77288750541912" lon="15.067421998209097"><ele>1595.0</ele><time>2026-04-19T13:57:05Z</time></trkpt><trkpt lat="37.77283039753559" lon="15.067669954545858"><ele>1595.0</ele><time>2026-04-19T13:57:06Z</time></trkpt><trkpt lat="37.77278568310074" lon="15.067924501386058"><ele>1591.3333333333333</ele><time>2026-04-19T13:57:07Z</time></trkpt><trkpt lat="37.77274461019517" lon="15.06815852030715"><ele>1587.6666666666665</ele><time>2026-04-19T13:57:08Z</time></trkpt><trkpt lat="37.7726990625161" lon="15.06837741418616"><ele>1584.0</ele><time>2026-04-19T13:57:09Z</time></trkpt><trkpt lat="37.77265146454213" lon="15.068584333298709"><ele>1584.0</ele><time>2026-04-19T13:57:10Z</time></trkpt><trkpt lat="37.772602778295926" lon="15.068779308456905"><ele>1584.0</ele><time>2026-04-19T13:57:11Z</time></trkpt><trkpt lat="37.77254331479546" lon="15.068959665090105"><ele>1584.0</ele><time>2026-04-19T13:57:12Z</time></trkpt><trkpt lat="37.77247134068706" lon="15.069125248986108"><ele>1581.0</ele><time>2026-04-19T13:57:13Z</time></trkpt><trkpt lat="37.77238134842775" lon="15.069282798514527"><ele>1578.0</ele><time>2026-04-19T13:57:14Z</time></trkpt><trkpt lat="37.7722664070854" lon="15.069433733429872"><ele>1575.0</ele><time>2026-04-19T13:57:15Z</time></trkpt><trkpt lat="37.77213061258785" lon="15.069570424156506"><ele>1575.0</ele><time>2026-04-19T13:57:16Z</time></trkpt><trkpt lat="37.771985191986346" lon="15.06969528065247"><ele>1575.0</ele><time>2026-04-19T13:57:17Z</time></trkpt><trkpt lat="37.771838425310186" lon="15.069816328938906"><ele>1575.0</ele><time>2026-04-19T13:57:18Z</time></trkpt><trkpt lat="37.77169902652904" lon="15.069941128940831"><ele>1572.0</ele><time>2026-04-19T13:57:19Z</time></trkpt><trkpt lat="37.771557021438554" lon="15.070067866617707"><ele>1569.0</ele><time>2026-04-19T13:57:20Z</time></trkpt><trkpt lat="37.77141012283946" lon="15.070199129297183"><ele>1566.0</ele><time>2026-04-19T13:57:21Z</time></trkpt><trkpt lat="37.77125966391503" lon="15.070333906437313"><ele>1566.0</ele><time>2026-04-19T13:57:22Z</time></trkpt><trkpt lat="37.771106372847846" lon="15.07047212669502"><ele>1566.0</ele><time>2026-04-19T13:57:23Z</time></trkpt><trkpt lat="37.770949099955814" lon="15.0706092187815"><ele>1566.0</ele><time>2026-04-19T13:57:24.001Z</time></trkpt><trkpt lat="37.77078739822419" lon="15.070752590443744"><ele>1565.0</ele><time>2026-04-19T13:57:25.001Z</time></trkpt><trkpt lat="37.770620450605115" lon="15.070908120594984"><ele>1564.0</ele><time>2026-04-19T13:57:26.001Z</time></trkpt><trkpt lat="37.77044872552346" lon="15.071071384599827"><ele>1563.0</ele><time>2026-04-19T13:57:27.001Z</time></trkpt><trkpt lat="37.770282107086445" lon="15.071200220885858"><ele>1562.3333333333335</ele><time>2026-04-19T13:57:28.001Z</time></trkpt><trkpt lat="37.77012156586968" lon="15.071324463379716"><ele>1561.6666666666667</ele><time>2026-04-19T13:57:29.001Z</time></trkpt><trkpt lat="37.76998235263492" lon="15.071441890346497"><ele>1561.0</ele><time>2026-04-19T13:57:30.001Z</time></trkpt><trkpt lat="37.76985877048014" lon="15.071553211379499"><ele>1560.0</ele><time>2026-04-19T13:57:31.001Z</time></trkpt><trkpt lat="37.76975630797611" lon="15.07165535238079"><ele>1559.0</ele><time>2026-04-19T13:57:32.001Z</time></trkpt><trkpt lat="37.76967482753391" lon="15.071781709955857"><ele>1558.0</ele><time>2026-04-19T13:57:33.001Z</time></trkpt><trkpt lat="37.769624163639065" lon="15.071938959816041"><ele>1557.0</ele><time>2026-04-19T13:57:34.001Z</time></trkpt><trkpt lat="37.76960600700506" lon="15.072122356830686"><ele>1557.0</ele><time>2026-04-19T13:57:35.001Z</time></trkpt><trkpt lat="37.76962282021069" lon="15.072317006925523"><ele>1557.0</ele><time>2026-04-19T13:57:36.001Z</time></trkpt><trkpt lat="37.769669205099845" lon="15.072514380020461"><ele>1557.0</ele><time>2026-04-19T13:57:37.001Z</time></trkpt><trkpt lat="37.76973679643169" lon="15.072698022535716"><ele>1555.5</ele><time>2026-04-19T13:57:38.001Z</time></trkpt><trkpt lat="37.76981027949786" lon="15.072859092114225"><ele>1554.0</ele><time>2026-04-19T13:57:39.001Z</time></trkpt><trkpt lat="37.76987262110487" lon="15.073022614854256"><ele>1552.5</ele><time>2026-04-19T13:57:40.001Z</time></trkpt><trkpt lat="37.76993366745494" lon="15.073191094314707"><ele>1551.0</ele><time>2026-04-19T13:57:41.001Z</time></trkpt><trkpt lat="37.77000050297133" lon="15.07334678439567"><ele>1548.75</ele><time>2026-04-19T13:57:42.001Z</time></trkpt><trkpt lat="37.77008485625529" lon="15.073491494842077"><ele>1546.5</ele><time>2026-04-19T13:57:43.001Z</time></trkpt><trkpt lat="37.77019126614082" lon="15.073620849786867"><ele>1544.25</ele><time>2026-04-19T13:57:44.001Z</time></trkpt><trkpt lat="37.77031918346447" lon="15.073731038931193"><ele>1542.0</ele><time>2026-04-19T13:57:45.001Z</time></trkpt><trkpt lat="37.77048719247112" lon="15.073811126779288"><ele>1540.5</ele><time>2026-04-19T13:57:46.001Z</time></trkpt><trkpt lat="37.77070875542517" lon="15.073880514512393"><ele>1539.0</ele><time>2026-04-19T13:57:47.001Z</time></trkpt><trkpt lat="37.7709404345217" lon="15.073940861081898"><ele>1539.6666666666665</ele><time>2026-04-19T13:57:48.001Z</time></trkpt><trkpt lat="37.77113616907078" lon="15.07400586815923"><ele>1540.3333333333333</ele><time>2026-04-19T13:57:49.001Z</time></trkpt><trkpt lat="37.7713176903723" lon="15.074063168915007"><ele>1541.0</ele><time>2026-04-19T13:57:50.001Z</time></trkpt><trkpt lat="37.771475413165824" lon="15.074127008714614"><ele>1538.0</ele><time>2026-04-19T13:57:51.001Z</time></trkpt><trkpt lat="37.77160898816232" lon="15.074213216102667"><ele>1535.0</ele><time>2026-04-19T13:57:52.001Z</time></trkpt><trkpt lat="37.77172212871829" lon="15.074349540381824"><ele>1532.0</ele><time>2026-04-19T13:57:53.001Z</time></trkpt><trkpt lat="37.77181198101835" lon="15.0745257144041"><ele>1531.6666666666667</ele><time>2026-04-19T13:57:54.001Z</time></trkpt><trkpt lat="37.77188130618217" lon="15.074733150317353"><ele>1531.3333333333333</ele><time>2026-04-19T13:57:55.001Z</time></trkpt><trkpt lat="37.77192586925727" lon="15.07499407662059"><ele>1531.0</ele><time>2026-04-19T13:57:56.001Z</time></trkpt><trkpt lat="37.7719754841471" lon="15.075287652850113"><ele>1531.0</ele><time>2026-04-19T13:57:57.001Z</time></trkpt><trkpt lat="37.77204660770231" lon="15.075566480850823"><ele>1531.0</ele><time>2026-04-19T13:57:58.001Z</time></trkpt><trkpt lat="37.77214319622193" lon="15.07583566332308"><ele>1528.0</ele><time>2026-04-19T13:57:59.001Z</time></trkpt><trkpt lat="37.77226387445784" lon="15.076082165542557"><ele>1525.0</ele><time>2026-04-19T13:58:00.001Z</time></trkpt><trkpt lat="37.77237947053471" lon="15.076300022922414"><ele>1522.0</ele><time>2026-04-19T13:58:01.001Z</time></trkpt><trkpt lat="37.77248715585027" lon="15.076490658575775"><ele>1519.3333333333333</ele><time>2026-04-19T13:58:02.001Z</time></trkpt><trkpt lat="37.77258122888275" lon="15.076664675576813"><ele>1516.6666666666667</ele><time>2026-04-19T13:58:03.001Z</time></trkpt><trkpt lat="37.772697214466476" lon="15.076801155095984"><ele>1514.0</ele><time>2026-04-19T13:58:04.001Z</time></trkpt><trkpt lat="37.77284975049454" lon="15.07689834049547"><ele>1513.6666666666667</ele><time>2026-04-19T13:58:05.001Z</time></trkpt><trkpt lat="37.77304056689421" lon="15.076968704415838"><ele>1513.3333333333333</ele><time>2026-04-19T13:58:06Z</time></trkpt><trkpt lat="37.7732083117884" lon="15.077033033156562"><ele>1513.0</ele><time>2026-04-19T13:58:07Z</time></trkpt><trkpt lat="37.773366446867236" lon="15.07711125213711"><ele>1513.0</ele><time>2026-04-19T13:58:08Z</time></trkpt><trkpt lat="37.773519764737124" lon="15.077232548286306"><ele>1513.0</ele><time>2026-04-19T13:58:09Z</time></trkpt><trkpt lat="37.773660130606174" lon="15.077395916412256"><ele>1513.0</ele><time>2026-04-19T13:58:10Z</time></trkpt><trkpt lat="37.77376682627803" lon="15.077568359256198"><ele>1511.0</ele><time>2026-04-19T13:58:11Z</time></trkpt><trkpt lat="37.77384309908905" lon="15.077740122336222"><ele>1509.0</ele><time>2026-04-19T13:58:12Z</time></trkpt><trkpt lat="37.773891926385936" lon="15.07790268847466"><ele>1507.0</ele><time>2026-04-19T13:58:13Z</time></trkpt><trkpt lat="37.77388883200815" lon="15.07806186704288"><ele>1505.0</ele><time>2026-04-19T13:58:14Z</time></trkpt><trkpt lat="37.77383791164462" lon="15.07821268708306"><ele>1503.6666666666667</ele><time>2026-04-19T13:58:15Z</time></trkpt><trkpt lat="37.773732895424764" lon="15.078343286887922"><ele>1502.3333333333333</ele><time>2026-04-19T13:58:16Z</time></trkpt><trkpt lat="37.77357561340485" lon="15.078467737390874"><ele>1501.0</ele><time>2026-04-19T13:58:17Z</time></trkpt><trkpt lat="37.773377497516876" lon="15.078576502403028"><ele>1499.5</ele><time>2026-04-19T13:58:18Z</time></trkpt><trkpt lat="37.77315933562404" lon="15.078705956552849"><ele>1498.0</ele><time>2026-04-19T13:58:19Z</time></trkpt><trkpt lat="37.77291035107928" lon="15.07885355505867"><ele>1500.0</ele><time>2026-04-19T13:58:20Z</time></trkpt><trkpt lat="37.7726777273883" lon="15.079010469435373"><ele>1502.0</ele><time>2026-04-19T13:58:21Z</time></trkpt><trkpt lat="37.77246551378806" lon="15.079149592474922"><ele>1499.3333333333335</ele><time>2026-04-19T13:58:22Z</time></trkpt><trkpt lat="37.772266374093434" lon="15.079286620485146"><ele>1496.6666666666667</ele><time>2026-04-19T13:58:23Z</time></trkpt><trkpt lat="37.77206762965874" lon="15.07941305213704"><ele>1494.0</ele><time>2026-04-19T13:58:24Z</time></trkpt><trkpt lat="37.77186836635967" lon="15.079545674963226"><ele>1495.5</ele><time>2026-04-19T13:58:25Z</time></trkpt><trkpt lat="37.771663779047316" lon="15.079680459851518"><ele>1497.0</ele><time>2026-04-19T13:58:26Z</time></trkpt><trkpt lat="37.77144940022703" lon="15.079815358869856"><ele>1494.0</ele><time>2026-04-19T13:58:27Z</time></trkpt><trkpt lat="37.771237805100974" lon="15.079950746336866"><ele>1491.0</ele><time>2026-04-19T13:58:28Z</time></trkpt><trkpt lat="37.77104787689333" lon="15.080070756502163"><ele>1488.0</ele><time>2026-04-19T13:58:29Z</time></trkpt><trkpt lat="37.77088112569964" lon="15.080172224669965"><ele>1488.0</ele><time>2026-04-19T13:58:30Z</time></trkpt><trkpt lat="37.770739155356154" lon="15.080260709773281"><ele>1488.0</ele><time>2026-04-19T13:58:31Z</time></trkpt><trkpt lat="37.770615129745195" lon="15.080343558790245"><ele>1488.0</ele><time>2026-04-19T13:58:32Z</time></trkpt><trkpt lat="37.770500270615514" lon="15.08042219402337"><ele>1488.0</ele><time>2026-04-19T13:58:33Z</time></trkpt><trkpt lat="37.770406685862824" lon="15.080512232401277"><ele>1488.0</ele><time>2026-04-19T13:58:34Z</time></trkpt><trkpt lat="37.770329341560654" lon="15.0806212048919"><ele>1488.0</ele><time>2026-04-19T13:58:35Z</time></trkpt><trkpt lat="37.77025681059203" lon="15.080745982613925"><ele>1488.0</ele><time>2026-04-19T13:58:36Z</time></trkpt><trkpt lat="37.77019533557609" lon="15.080896828460228"><ele>1488.0</ele><time>2026-04-19T13:58:37Z</time></trkpt><trkpt lat="37.770154591539516" lon="15.081052435412026"><ele>1483.5</ele><time>2026-04-19T13:58:38Z</time></trkpt><trkpt lat="37.770134837333416" lon="15.081218120798924"><ele>1479.0</ele><time>2026-04-19T13:58:39Z</time></trkpt><trkpt lat="37.770130326725834" lon="15.081395626234247"><ele>1474.5</ele><time>2026-04-19T13:58:40Z</time></trkpt><trkpt lat="37.77014208231145" lon="15.0815684119925"><ele>1470.0</ele><time>2026-04-19T13:58:41Z</time></trkpt><trkpt lat="37.770172691997544" lon="15.081735572886858"><ele>1469.5</ele><time>2026-04-19T13:58:42Z</time></trkpt><trkpt lat="37.77022206801744" lon="15.08189723005163"><ele>1469.0</ele><time>2026-04-19T13:58:43Z</time></trkpt><trkpt lat="37.77029393193247" lon="15.082050274994621"><ele>1468.5</ele><time>2026-04-19T13:58:44Z</time></trkpt><trkpt lat="37.770401074495155" lon="15.082191977848366"><ele>1468.0</ele><time>2026-04-19T13:58:45Z</time></trkpt><trkpt lat="37.77056947381179" lon="15.082356426037956"><ele>1464.5</ele><time>2026-04-19T13:58:46Z</time></trkpt><trkpt lat="37.77076597546642" lon="15.082572065453114"><ele>1461.0</ele><time>2026-04-19T13:58:47Z</time></trkpt><trkpt lat="37.77095930484562" lon="15.082796929232945"><ele>1461.6666666666667</ele><time>2026-04-19T13:58:48Z</time></trkpt><trkpt lat="37.77113061224059" lon="15.082994136278813"><ele>1462.3333333333335</ele><time>2026-04-19T13:58:49Z</time></trkpt><trkpt lat="37.7712888555029" lon="15.083160514070466"><ele>1463.0</ele><time>2026-04-19T13:58:50Z</time></trkpt><trkpt lat="37.7714264558036" lon="15.083310927218017"><ele>1459.3333333333335</ele><time>2026-04-19T13:58:51Z</time></trkpt><trkpt lat="37.77155618011674" lon="15.083462665439614"><ele>1455.6666666666667</ele><time>2026-04-19T13:58:52Z</time></trkpt><trkpt lat="37.77165979058362" lon="15.083629770120005"><ele>1452.0</ele><time>2026-04-19T13:58:53Z</time></trkpt><trkpt lat="37.771739881785784" lon="15.083849990276518"><ele>1452.6666666666667</ele><time>2026-04-19T13:58:54Z</time></trkpt><trkpt lat="37.77179022685124" lon="15.084109362152425"><ele>1453.3333333333335</ele><time>2026-04-19T13:58:55Z</time></trkpt><trkpt lat="37.7718369871657" lon="15.084391589062946"><ele>1454.0</ele><time>2026-04-19T13:58:56Z</time></trkpt><trkpt lat="37.77189430230716" lon="15.084690770471324"><ele>1451.0</ele><time>2026-04-19T13:58:57Z</time></trkpt><trkpt lat="37.77193579648174" lon="15.084965292250406"><ele>1448.0</ele><time>2026-04-19T13:58:58Z</time></trkpt><trkpt lat="37.771979165232025" lon="15.08521145019286"><ele>1445.0</ele><time>2026-04-19T13:58:59Z</time></trkpt><trkpt lat="37.77202440083889" lon="15.08544644550959"><ele>1445.0</ele><time>2026-04-19T13:59:00Z</time></trkpt><trkpt lat="37.77208677736969" lon="15.085660482852486"><ele>1445.0</ele><time>2026-04-19T13:59:01Z</time></trkpt><trkpt lat="37.77219075512985" lon="15.085862766792118"><ele>1445.0</ele><time>2026-04-19T13:59:02Z</time></trkpt><trkpt lat="37.77233574540923" lon="15.086041485757455"><ele>1441.0</ele><time>2026-04-19T13:59:03Z</time></trkpt><trkpt lat="37.772523465939166" lon="15.086201497833176"><ele>1437.0</ele><time>2026-04-19T13:59:04Z</time></trkpt><trkpt lat="37.772738712697134" lon="15.086368788802371"><ele>1435.5</ele><time>2026-04-19T13:59:05Z</time></trkpt><trkpt lat="37.772962790764645" lon="15.08655272284307"><ele>1434.0</ele><time>2026-04-19T13:59:06Z</time></trkpt><trkpt lat="37.77318822999855" lon="15.086747558956295"><ele>1429.5</ele><time>2026-04-19T13:59:07Z</time></trkpt><trkpt lat="37.77342665949451" lon="15.086952085511262"><ele>1425.0</ele><time>2026-04-19T13:59:08Z</time></trkpt><trkpt lat="37.77366703233755" lon="15.08716342214092"><ele>1425.0</ele><time>2026-04-19T13:59:09Z</time></trkpt><trkpt lat="37.773912711971434" lon="15.087392728124907"><ele>1425.0</ele><time>2026-04-19T13:59:10Z</time></trkpt><trkpt lat="37.774148878491864" lon="15.087614326210367"><ele>1421.5</ele><time>2026-04-19T13:59:11Z</time></trkpt><trkpt lat="37.77437135981416" lon="15.0878110068555"><ele>1418.0</ele><time>2026-04-19T13:59:12Z</time></trkpt><trkpt lat="37.774576871639546" lon="15.087990956295952"><ele>1418.0</ele><time>2026-04-19T13:59:13Z</time></trkpt><trkpt lat="37.77475724859296" lon="15.088155966952451"><ele>1418.0</ele><time>2026-04-19T13:59:14Z</time></trkpt><trkpt lat="37.77491187294987" lon="15.088291590274192"><ele>1418.0</ele><time>2026-04-19T13:59:15Z</time></trkpt><trkpt lat="37.77504207260033" lon="15.088408326244766"><ele>1415.25</ele><time>2026-04-19T13:59:16Z</time></trkpt><trkpt lat="37.77514684553314" lon="15.08849523071687"><ele>1412.5</ele><time>2026-04-19T13:59:17Z</time></trkpt><trkpt lat="37.775255989280495" lon="15.08855699423456"><ele>1409.75</ele><time>2026-04-19T13:59:18Z</time></trkpt><trkpt lat="37.775365095028704" lon="15.088554137290116"><ele>1407.0</ele><time>2026-04-19T13:59:19Z</time></trkpt><trkpt lat="37.77546439071247" lon="15.088491535465915"><ele>1408.25</ele><time>2026-04-19T13:59:20Z</time></trkpt><trkpt lat="37.7755428942375" lon="15.088365126986048"><ele>1409.5</ele><time>2026-04-19T13:59:21Z</time></trkpt><trkpt lat="37.77556858097364" lon="15.088200392533906"><ele>1410.75</ele><time>2026-04-19T13:59:22Z</time></trkpt><trkpt lat="37.77555305312442" lon="15.088036833325763"><ele>1412.0</ele><time>2026-04-19T13:59:23Z</time></trkpt><trkpt lat="37.77554785713162" lon="15.087906521779985"><ele>1412.0</ele><time>2026-04-19T13:59:24Z</time></trkpt><trkpt lat="37.77556484211998" lon="15.087793484851383"><ele>1412.0</ele><time>2026-04-19T13:59:25Z</time></trkpt><trkpt lat="37.77563079065725" lon="15.087702443270404"><ele>1412.0</ele><time>2026-04-19T13:59:26Z</time></trkpt><trkpt lat="37.7757273441783" lon="15.08767486336951"><ele>1412.0</ele><time>2026-04-19T13:59:27Z</time></trkpt><trkpt lat="37.775832799686526" lon="15.08772166844946"><ele>1412.0</ele><time>2026-04-19T13:59:28Z</time></trkpt><trkpt lat="37.77590562464026" lon="15.087836007680657"><ele>1412.0</ele><time>2026-04-19T13:59:29.001Z</time></trkpt><trkpt lat="37.77594436717467" lon="15.088010477526641"><ele>1412.0</ele><time>2026-04-19T13:59:30.001Z</time></trkpt><trkpt lat="37.775959678725705" lon="15.088243255490783"><ele>1412.0</ele><time>2026-04-19T13:59:31.001Z</time></trkpt><trkpt lat="37.77599656282627" lon="15.088472836561376"><ele>1407.3333333333335</ele><time>2026-04-19T13:59:32.001Z</time></trkpt><trkpt lat="37.776037296027354" lon="15.088722435452564"><ele>1402.6666666666667</ele><time>2026-04-19T13:59:33.001Z</time></trkpt><trkpt lat="37.776081226670016" lon="15.088987889769884"><ele>1398.0</ele><time>2026-04-19T13:59:34.001Z</time></trkpt><trkpt lat="37.776121331907945" lon="15.089268651031977"><ele>1396.3333333333333</ele><time>2026-04-19T13:59:35.001Z</time></trkpt><trkpt lat="37.776163952206055" lon="15.089548335145714"><ele>1394.6666666666665</ele><time>2026-04-19T13:59:36.001Z</time></trkpt><trkpt lat="37.77621083856634" lon="15.089811579609263"><ele>1393.0</ele><time>2026-04-19T13:59:37.001Z</time></trkpt><trkpt lat="37.77625386100376" lon="15.090059969204097"><ele>1391.6666666666665</ele><time>2026-04-19T13:59:38.001Z</time></trkpt><trkpt lat="37.77628462537451" lon="15.090296042110614"><ele>1390.3333333333333</ele><time>2026-04-19T13:59:39.001Z</time></trkpt><trkpt lat="37.77628671594277" lon="15.090525273100546"><ele>1389.0</ele><time>2026-04-19T13:59:40.001Z</time></trkpt><trkpt lat="37.77624374505274" lon="15.090766121449427"><ele>1386.6666666666667</ele><time>2026-04-19T13:59:41.001Z</time></trkpt><trkpt lat="37.77615328287662" lon="15.091018997194562"><ele>1384.3333333333335</ele><time>2026-04-19T13:59:42.001Z</time></trkpt><trkpt lat="37.776036958861496" lon="15.091260099973365"><ele>1382.0</ele><time>2026-04-19T13:59:43.001Z</time></trkpt><trkpt lat="37.77593603989162" lon="15.091474907437464"><ele>1379.0</ele><time>2026-04-19T13:59:44.001Z</time></trkpt><trkpt lat="37.77583351932488" lon="15.091661336780211"><ele>1376.0</ele><time>2026-04-19T13:59:45.001Z</time></trkpt><trkpt lat="37.77571648878221" lon="15.091811678887323"><ele>1373.0</ele><time>2026-04-19T13:59:46.001Z</time></trkpt><trkpt lat="37.775573565379375" lon="15.091905161407038"><ele>1373.0</ele><time>2026-04-19T13:59:47.001Z</time></trkpt><trkpt lat="37.77542900339867" lon="15.091950699963645"><ele>1373.0</ele><time>2026-04-19T13:59:48.001Z</time></trkpt><trkpt lat="37.77527323448202" lon="15.091929256054044"><ele>1373.0</ele><time>2026-04-19T13:59:49.001Z</time></trkpt><trkpt lat="37.77511945020032" lon="15.091843302237368"><ele>1373.0</ele><time>2026-04-19T13:59:50.001Z</time></trkpt><trkpt lat="37.77495838850666" lon="15.091751837709987"><ele>1373.0</ele><time>2026-04-19T13:59:51.001Z</time></trkpt><trkpt lat="37.77479980606556" lon="15.091715309533875"><ele>1373.0</ele><time>2026-04-19T13:59:52.001Z</time></trkpt><trkpt lat="37.77462586944596" lon="15.091737119271373"><ele>1373.0</ele><time>2026-04-19T13:59:53.001Z</time></trkpt><trkpt lat="37.774444777300886" lon="15.091816378390096"><ele>1373.0</ele><time>2026-04-19T13:59:54.001Z</time></trkpt><trkpt lat="37.774264434262086" lon="15.091927608337203"><ele>1373.0</ele><time>2026-04-19T13:59:55.001Z</time></trkpt><trkpt lat="37.77408225387789" lon="15.092025560916479"><ele>1374.0</ele><time>2026-04-19T13:59:56.001Z</time></trkpt><trkpt lat="37.77389366151855" lon="15.092110791326311"><ele>1375.0</ele><time>2026-04-19T13:59:57.001Z</time></trkpt><trkpt lat="37.773697571610334" lon="15.092156835786719"><ele>1376.0</ele><time>2026-04-19T13:59:58.001Z</time></trkpt><trkpt lat="37.77349007143888" lon="15.092150284356206"><ele>1376.0</ele><time>2026-04-19T13:59:59.001Z</time></trkpt><trkpt lat="37.77326150497644" lon="15.092110070820832"><ele>1376.0</ele><time>2026-04-19T14:00:00.001Z</time></trkpt><trkpt lat="37.773014755482286" lon="15.092086070108682"><ele>1376.0</ele><time>2026-04-19T14:00:01.001Z</time></trkpt><trkpt lat="37.77276719687343" lon="15.092087917052176"><ele>1376.0</ele><time>2026-04-19T14:00:02.001Z</time></trkpt><trkpt lat="37.772543748697714" lon="15.092103261160428"><ele>1374.0</ele><time>2026-04-19T14:00:03.001Z</time></trkpt><trkpt lat="37.77234759590322" lon="15.092114363964562"><ele>1372.0</ele><time>2026-04-19T14:00:04.001Z</time></trkpt><trkpt lat="37.77216769355758" lon="15.092101928978943"><ele>1370.0</ele><time>2026-04-19T14:00:05.001Z</time></trkpt><trkpt lat="37.77197903852847" lon="15.092033878808877"><ele>1367.0</ele><time>2026-04-19T14:00:06.001Z</time></trkpt><trkpt lat="37.771785416984784" lon="15.091927529170311"><ele>1364.0</ele><time>2026-04-19T14:00:07.001Z</time></trkpt><trkpt lat="37.77157102051428" lon="15.091800312350356"><ele>1361.0</ele><time>2026-04-19T14:00:08.001Z</time></trkpt><trkpt lat="37.77135390533036" lon="15.091693366702586"><ele>1361.0</ele><time>2026-04-19T14:00:09.001Z</time></trkpt><trkpt lat="37.77111592381641" lon="15.091610433021195"><ele>1361.0</ele><time>2026-04-19T14:00:10.001Z</time></trkpt><trkpt lat="37.770860548157536" lon="15.091550748307053"><ele>1367.0</ele><time>2026-04-19T14:00:11.001Z</time></trkpt><trkpt lat="37.770606337562434" lon="15.091502824368133"><ele>1373.0</ele><time>2026-04-19T14:00:12Z</time></trkpt><trkpt lat="37.770374352506536" lon="15.091454917510294"><ele>1370.0</ele><time>2026-04-19T14:00:13Z</time></trkpt><trkpt lat="37.77015378527029" lon="15.091404394446226"><ele>1367.0</ele><time>2026-04-19T14:00:14Z</time></trkpt><trkpt lat="37.76995369817908" lon="15.091358033187"><ele>1364.0</ele><time>2026-04-19T14:00:15Z</time></trkpt><trkpt lat="37.769777099662605" lon="15.091321782966455"><ele>1364.0</ele><time>2026-04-19T14:00:16Z</time></trkpt><trkpt lat="37.76963698831567" lon="15.091283894694309"><ele>1364.0</ele><time>2026-04-19T14:00:17Z</time></trkpt><trkpt lat="37.76951970301582" lon="15.091212772187065"><ele>1364.0</ele><time>2026-04-19T14:00:18Z</time></trkpt><trkpt lat="37.76942778860625" lon="15.09108138399432"><ele>1364.0</ele><time>2026-04-19T14:00:19Z</time></trkpt><trkpt lat="37.7693345543211" lon="15.090913511058812"><ele>1365.0</ele><time>2026-04-19T14:00:20Z</time></trkpt><trkpt lat="37.76921108134592" lon="15.090786478768655"><ele>1366.0</ele><time>2026-04-19T14:00:21Z</time></trkpt><trkpt lat="37.76905370370245" lon="15.090694384464857"><ele>1367.0</ele><time>2026-04-19T14:00:22Z</time></trkpt><trkpt lat="37.76888652912064" lon="15.09066631850716"><ele>1367.0</ele><time>2026-04-19T14:00:23Z</time></trkpt><trkpt lat="37.76873881208518" lon="15.090651605074992"><ele>1367.0</ele><time>2026-04-19T14:00:24Z</time></trkpt><trkpt lat="37.76859352078152" lon="15.090601830933116"><ele>1367.0</ele><time>2026-04-19T14:00:25Z</time></trkpt><trkpt lat="37.76846903912083" lon="15.090512212253218"><ele>1367.0</ele><time>2026-04-19T14:00:26Z</time></trkpt><trkpt lat="37.768377560344376" lon="15.090372238060827"><ele>1364.0</ele><time>2026-04-19T14:00:27Z</time></trkpt><trkpt lat="37.76830735155916" lon="15.090191003767499"><ele>1361.0</ele><time>2026-04-19T14:00:28Z</time></trkpt><trkpt lat="37.76824715199709" lon="15.090016741728197"><ele>1358.0</ele><time>2026-04-19T14:00:29Z</time></trkpt><trkpt lat="37.76814481774708" lon="15.089884663634916"><ele>1358.0</ele><time>2026-04-19T14:00:30Z</time></trkpt><trkpt lat="37.76800447049825" lon="15.08977255780028"><ele>1358.0</ele><time>2026-04-19T14:00:31Z</time></trkpt><trkpt lat="37.76783662893498" lon="15.089683187216318"><ele>1358.0</ele><time>2026-04-19T14:00:32Z</time></trkpt><trkpt lat="37.7676876675616" lon="15.089549185646181"><ele>1348.3333333333335</ele><time>2026-04-19T14:00:33Z</time></trkpt><trkpt lat="37.767547896862084" lon="15.089376570762669"><ele>1338.6666666666667</ele><time>2026-04-19T14:00:34Z</time></trkpt><trkpt lat="37.76739419739162" lon="15.08921808738299"><ele>1329.0</ele><time>2026-04-19T14:00:35Z</time></trkpt><trkpt lat="37.76721164021262" lon="15.089109193173158"><ele>1327.6666666666667</ele><time>2026-04-19T14:00:36Z</time></trkpt><trkpt lat="37.767012665272794" lon="15.089036347152605"><ele>1326.3333333333335</ele><time>2026-04-19T14:00:37Z</time></trkpt><trkpt lat="37.76680393743276" lon="15.088959286025462"><ele>1325.0</ele><time>2026-04-19T14:00:38Z</time></trkpt><trkpt lat="37.766588266237385" lon="15.08885449811945"><ele>1325.0</ele><time>2026-04-19T14:00:39Z</time></trkpt><trkpt lat="37.76638087276976" lon="15.088713511696987"><ele>1325.0</ele><time>2026-04-19T14:00:40Z</time></trkpt><trkpt lat="37.76618571853858" lon="15.088585466228235"><ele>1323.6666666666667</ele><time>2026-04-19T14:00:41Z</time></trkpt><trkpt lat="37.766000623990486" lon="15.088458547026221"><ele>1322.3333333333333</ele><time>2026-04-19T14:00:42Z</time></trkpt><trkpt lat="37.76582025162089" lon="15.088323256787238"><ele>1321.0</ele><time>2026-04-19T14:00:43Z</time></trkpt><trkpt lat="37.76563792583674" lon="15.088164333748148"><ele>1321.0</ele><time>2026-04-19T14:00:44Z</time></trkpt><trkpt lat="37.76546005043646" lon="15.087983290756657"><ele>1321.0</ele><time>2026-04-19T14:00:45Z</time></trkpt><trkpt lat="37.765295978367774" lon="15.08780742203898"><ele>1321.0</ele><time>2026-04-19T14:00:46Z</time></trkpt><trkpt lat="37.76513830289263" lon="15.087646685875203"><ele>1318.3333333333333</ele><time>2026-04-19T14:00:47Z</time></trkpt><trkpt lat="37.76498209189868" lon="15.087498199428843"><ele>1315.6666666666667</ele><time>2026-04-19T14:00:48Z</time></trkpt><trkpt lat="37.764796439138834" lon="15.08737433058366"><ele>1313.0</ele><time>2026-04-19T14:00:49Z</time></trkpt><trkpt lat="37.76458236777485" lon="15.087275269488778"><ele>1303.5</ele><time>2026-04-19T14:00:50Z</time></trkpt><trkpt lat="37.76435952054239" lon="15.087182197169511"><ele>1294.0</ele><time>2026-04-19T14:00:51Z</time></trkpt><trkpt lat="37.764141679616294" lon="15.08706712060065"><ele>1294.0</ele><time>2026-04-19T14:00:52Z</time></trkpt><trkpt lat="37.76392878764288" lon="15.086929806830307"><ele>1294.0</ele><time>2026-04-19T14:00:53Z</time></trkpt><trkpt lat="37.7637141864485" lon="15.086774030712382"><ele>1289.5</ele><time>2026-04-19T14:00:54Z</time></trkpt><trkpt lat="37.763494159855696" lon="15.08661830036455"><ele>1285.0</ele><time>2026-04-19T14:00:55Z</time></trkpt><trkpt lat="37.76327187874318" lon="15.08646807127562"><ele>1285.0</ele><time>2026-04-19T14:00:56Z</time></trkpt><trkpt lat="37.7630546204667" lon="15.086319112281044"><ele>1285.0</ele><time>2026-04-19T14:00:57Z</time></trkpt><trkpt lat="37.76285523709627" lon="15.086177547924642"><ele>1279.6666666666665</ele><time>2026-04-19T14:00:58Z</time></trkpt><trkpt lat="37.76266928465901" lon="15.086044767953744"><ele>1274.3333333333333</ele><time>2026-04-19T14:00:59Z</time></trkpt><trkpt lat="37.762491756415905" lon="15.085918502829042"><ele>1269.0</ele><time>2026-04-19T14:01:00Z</time></trkpt><trkpt lat="37.76232144008907" lon="15.08580075414171"><ele>1273.3333333333333</ele><time>2026-04-19T14:01:01Z</time></trkpt><trkpt lat="37.76214764566957" lon="15.085692943001087"><ele>1277.6666666666665</ele><time>2026-04-19T14:01:02Z</time></trkpt><trkpt lat="37.76195383755904" lon="15.085615808121556"><ele>1282.0</ele><time>2026-04-19T14:01:03Z</time></trkpt><trkpt lat="37.76174198918609" lon="15.085566346131918"><ele>1282.0</ele><time>2026-04-19T14:01:04Z</time></trkpt><trkpt lat="37.76151060523173" lon="15.08553370327379"><ele>1282.0</ele><time>2026-04-19T14:01:05Z</time></trkpt><trkpt lat="37.7612802451626" lon="15.085498023429762"><ele>1282.0</ele><time>2026-04-19T14:01:06Z</time></trkpt><trkpt lat="37.7610752166674" lon="15.085456581233677"><ele>1282.0</ele><time>2026-04-19T14:01:07Z</time></trkpt><trkpt lat="37.76088949091162" lon="15.085414676780564"><ele>1282.0</ele><time>2026-04-19T14:01:08Z</time></trkpt><trkpt lat="37.76071318685608" lon="15.08537664819924"><ele>1279.3333333333333</ele><time>2026-04-19T14:01:09Z</time></trkpt><trkpt lat="37.76054629748631" lon="15.085350784812244"><ele>1276.6666666666667</ele><time>2026-04-19T14:01:10Z</time></trkpt><trkpt lat="37.76037332049499" lon="15.085359507579284"><ele>1274.0</ele><time>2026-04-19T14:01:11Z</time></trkpt><trkpt lat="37.76018848910641" lon="15.085434058079588"><ele>1273.0</ele><time>2026-04-19T14:01:12Z</time></trkpt><trkpt lat="37.759986029087834" lon="15.085559963074477"><ele>1272.0</ele><time>2026-04-19T14:01:13Z</time></trkpt><trkpt lat="37.75975981892375" lon="15.08570427353178"><ele>1262.0</ele><time>2026-04-19T14:01:14Z</time></trkpt><trkpt lat="37.759521619783456" lon="15.085842075151236"><ele>1252.0</ele><time>2026-04-19T14:01:15Z</time></trkpt><trkpt lat="37.759293197905116" lon="15.08597545549767"><ele>1251.6666666666665</ele><time>2026-04-19T14:01:16Z</time></trkpt><trkpt lat="37.759086622363775" lon="15.086097350203127"><ele>1251.3333333333333</ele><time>2026-04-19T14:01:17Z</time></trkpt><trkpt lat="37.7589046096167" lon="15.086197320438254"><ele>1251.0</ele><time>2026-04-19T14:01:18Z</time></trkpt><trkpt lat="37.75872841516381" lon="15.086279269057105"><ele>1251.0</ele><time>2026-04-19T14:01:19Z</time></trkpt><trkpt lat="37.75854788730931" lon="15.086323278427756"><ele>1251.0</ele><time>2026-04-19T14:01:20Z</time></trkpt><trkpt lat="37.758369920895454" lon="15.086317818865215"><ele>1251.0</ele><time>2026-04-19T14:01:21Z</time></trkpt><trkpt lat="37.75817358528867" lon="15.086252204346708"><ele>1249.6666666666667</ele><time>2026-04-19T14:01:22Z</time></trkpt><trkpt lat="37.75798825928303" lon="15.086152148490594"><ele>1248.3333333333335</ele><time>2026-04-19T14:01:23Z</time></trkpt><trkpt lat="37.75781418083091" lon="15.086086694329305"><ele>1247.0</ele><time>2026-04-19T14:01:24Z</time></trkpt><trkpt lat="37.75762395962858" lon="15.08607043633031"><ele>1243.6666666666667</ele><time>2026-04-19T14:01:25Z</time></trkpt><trkpt lat="37.7574099349648" lon="15.086096894040926"><ele>1240.3333333333333</ele><time>2026-04-19T14:01:26Z</time></trkpt><trkpt lat="37.757191220698665" lon="15.086151707390993"><ele>1237.0</ele><time>2026-04-19T14:01:27Z</time></trkpt><trkpt lat="37.756968412325826" lon="15.086208338237782"><ele>1234.3333333333333</ele><time>2026-04-19T14:01:28Z</time></trkpt><trkpt lat="37.75676336746308" lon="15.086254347581521"><ele>1231.6666666666667</ele><time>2026-04-19T14:01:29Z</time></trkpt><trkpt lat="37.75655284919808" lon="15.08631399467312"><ele>1229.0</ele><time>2026-04-19T14:01:30Z</time></trkpt><trkpt lat="37.756340506347506" lon="15.086391559624332"><ele>1229.0</ele><time>2026-04-19T14:01:31Z</time></trkpt><trkpt lat="37.756120581744156" lon="15.086475544069591"><ele>1229.0</ele><time>2026-04-19T14:01:32Z</time></trkpt><trkpt lat="37.75589441964886" lon="15.08656222914215"><ele>1221.5</ele><time>2026-04-19T14:01:33Z</time></trkpt><trkpt lat="37.75566061245251" lon="15.086647141892614"><ele>1214.0</ele><time>2026-04-19T14:01:34Z</time></trkpt><trkpt lat="37.755426487308185" lon="15.086730040446401"><ele>1212.0</ele><time>2026-04-19T14:01:35Z</time></trkpt><trkpt lat="37.75520016692194" lon="15.086813118164441"><ele>1210.0</ele><time>2026-04-19T14:01:36Z</time></trkpt><trkpt lat="37.754980668588246" lon="15.086895890668048"><ele>1210.0</ele><time>2026-04-19T14:01:37Z</time></trkpt><trkpt lat="37.75477038798069" lon="15.08697459931546"><ele>1210.0</ele><time>2026-04-19T14:01:38Z</time></trkpt><trkpt lat="37.754587282316514" lon="15.087039332937477"><ele>1210.0</ele><time>2026-04-19T14:01:39Z</time></trkpt><trkpt lat="37.75442145578799" lon="15.087087825824911"><ele>1209.3333333333333</ele><time>2026-04-19T14:01:40Z</time></trkpt><trkpt lat="37.754250707188966" lon="15.087103552340729"><ele>1208.6666666666667</ele><time>2026-04-19T14:01:41Z</time></trkpt><trkpt lat="37.75405017289227" lon="15.087087548443405"><ele>1208.0</ele><time>2026-04-19T14:01:42Z</time></trkpt><trkpt lat="37.75384966883824" lon="15.087067562100534"><ele>1208.0</ele><time>2026-04-19T14:01:43Z</time></trkpt><trkpt lat="37.753642532419775" lon="15.087038190502444"><ele>1208.0</ele><time>2026-04-19T14:01:44Z</time></trkpt><trkpt lat="37.75343219797339" lon="15.08698511511644"><ele>1208.0</ele><time>2026-04-19T14:01:45Z</time></trkpt><trkpt lat="37.75321639123387" lon="15.086910905934003"><ele>1204.0</ele><time>2026-04-19T14:01:46Z</time></trkpt><trkpt lat="37.75299717735853" lon="15.086839684527726"><ele>1200.0</ele><time>2026-04-19T14:01:47Z</time></trkpt><trkpt lat="37.75277271899533" lon="15.086767233931017"><ele>1195.5</ele><time>2026-04-19T14:01:48Z</time></trkpt><trkpt lat="37.752548383754245" lon="15.086692850633902"><ele>1191.0</ele><time>2026-04-19T14:01:49Z</time></trkpt><trkpt lat="37.752326201290984" lon="15.086621593470227"><ele>1191.0</ele><time>2026-04-19T14:01:50Z</time></trkpt><trkpt lat="37.752125678556254" lon="15.086556594634825"><ele>1191.0</ele><time>2026-04-19T14:01:51Z</time></trkpt><trkpt lat="37.75196177123518" lon="15.08649891471605"><ele>1191.0</ele><time>2026-04-19T14:01:52Z</time></trkpt><trkpt lat="37.75181622171518" lon="15.086425390497535"><ele>1191.0</ele><time>2026-04-19T14:01:53Z</time></trkpt><trkpt lat="37.75168002282643" lon="15.086310493976166"><ele>1191.0</ele><time>2026-04-19T14:01:54Z</time></trkpt><trkpt lat="37.75157347176832" lon="15.086183519221557"><ele>1191.0</ele><time>2026-04-19T14:01:55Z</time></trkpt><trkpt lat="37.75148732841777" lon="15.086091027163846"><ele>1191.0</ele><time>2026-04-19T14:01:56.001Z</time></trkpt><trkpt lat="37.751399595394226" lon="15.08603641516881"><ele>1191.0</ele><time>2026-04-19T14:01:57.001Z</time></trkpt><trkpt lat="37.751304210089216" lon="15.086059761122128"><ele>1191.0</ele><time>2026-04-19T14:01:58.001Z</time></trkpt><trkpt lat="37.751200602212705" lon="15.086150458876128"><ele>1191.0</ele><time>2026-04-19T14:01:59.001Z</time></trkpt><trkpt lat="37.7511033348915" lon="15.086305109107968"><ele>1191.0</ele><time>2026-04-19T14:02:00.001Z</time></trkpt><trkpt lat="37.75099013030126" lon="15.086468012621252"><ele>1188.0</ele><time>2026-04-19T14:02:01.001Z</time></trkpt><trkpt lat="37.75085833199217" lon="15.086649310023438"><ele>1185.0</ele><time>2026-04-19T14:02:02.001Z</time></trkpt><trkpt lat="37.75073223829605" lon="15.08682047632749"><ele>1182.0</ele><time>2026-04-19T14:02:03.001Z</time></trkpt><trkpt lat="37.75061412319756" lon="15.086986534778264"><ele>1182.0</ele><time>2026-04-19T14:02:04.001Z</time></trkpt><trkpt lat="37.75047393770103" lon="15.08715093246633"><ele>1182.0</ele><time>2026-04-19T14:02:05.001Z</time></trkpt><trkpt lat="37.750307432612324" lon="15.087301696602992"><ele>1182.0</ele><time>2026-04-19T14:02:06.001Z</time></trkpt><trkpt lat="37.75011257342002" lon="15.087423810194021"><ele>1179.0</ele><time>2026-04-19T14:02:07.001Z</time></trkpt><trkpt lat="37.74990159238626" lon="15.087505051017025"><ele>1176.0</ele><time>2026-04-19T14:02:08.001Z</time></trkpt><trkpt lat="37.74968830196846" lon="15.08755527214699"><ele>1173.0</ele><time>2026-04-19T14:02:09.001Z</time></trkpt><trkpt lat="37.74948767145391" lon="15.087575853673208"><ele>1169.6666666666667</ele><time>2026-04-19T14:02:10.001Z</time></trkpt><trkpt lat="37.74928312593632" lon="15.087550901447376"><ele>1166.3333333333335</ele><time>2026-04-19T14:02:11.001Z</time></trkpt><trkpt lat="37.74907103975884" lon="15.087517579635671"><ele>1163.0</ele><time>2026-04-19T14:02:12.001Z</time></trkpt><trkpt lat="37.748877791412" lon="15.087504990765938"><ele>1163.0</ele><time>2026-04-19T14:02:13.001Z</time></trkpt><trkpt lat="37.74869173458727" lon="15.087517202696915"><ele>1163.0</ele><time>2026-04-19T14:02:14.001Z</time></trkpt><trkpt lat="37.74850178471167" lon="15.087572332386069"><ele>1163.0</ele><time>2026-04-19T14:02:15.001Z</time></trkpt><trkpt lat="37.74832855366962" lon="15.087672122446637"><ele>1161.75</ele><time>2026-04-19T14:02:16.001Z</time></trkpt><trkpt lat="37.74818240873786" lon="15.08777595432666"><ele>1160.5</ele><time>2026-04-19T14:02:17Z</time></trkpt><trkpt lat="37.74805920622148" lon="15.087861059019552"><ele>1159.25</ele><time>2026-04-19T14:02:18Z</time></trkpt><trkpt lat="37.74795410657599" lon="15.087938238807096"><ele>1158.0</ele><time>2026-04-19T14:02:19Z</time></trkpt><trkpt lat="37.747880670622" lon="15.088047228346282"><ele>1158.0</ele><time>2026-04-19T14:02:20Z</time></trkpt><trkpt lat="37.74785430645359" lon="15.088201135974675"><ele>1158.0</ele><time>2026-04-19T14:02:21Z</time></trkpt><trkpt lat="37.74788375880944" lon="15.08837538168912"><ele>1158.0</ele><time>2026-04-19T14:02:22Z</time></trkpt><trkpt lat="37.747953967032316" lon="15.088528012710666"><ele>1158.0</ele><time>2026-04-19T14:02:23Z</time></trkpt><trkpt lat="37.7480565987085" lon="15.08862876830663"><ele>1156.6666666666667</ele><time>2026-04-19T14:02:24Z</time></trkpt><trkpt lat="37.748191863755984" lon="15.088672146218899"><ele>1155.3333333333335</ele><time>2026-04-19T14:02:25Z</time></trkpt><trkpt lat="37.748342217156456" lon="15.088662760820085"><ele>1154.0</ele><time>2026-04-19T14:02:26Z</time></trkpt><trkpt lat="37.74850335772769" lon="15.08866032248656"><ele>1156.3333333333335</ele><time>2026-04-19T14:02:27Z</time></trkpt><trkpt lat="37.74866218673053" lon="15.088732760629775"><ele>1158.6666666666667</ele><time>2026-04-19T14:02:28Z</time></trkpt><trkpt lat="37.74882140428628" lon="15.08884546052282"><ele>1161.0</ele><time>2026-04-19T14:02:29Z</time></trkpt><trkpt lat="37.748988228854344" lon="15.089005534638392"><ele>1159.3333333333333</ele><time>2026-04-19T14:02:30Z</time></trkpt><trkpt lat="37.74917333766676" lon="15.089174721896141"><ele>1157.6666666666665</ele><time>2026-04-19T14:02:31Z</time></trkpt><trkpt lat="37.74935397501248" lon="15.089326469383257"><ele>1156.0</ele><time>2026-04-19T14:02:32Z</time></trkpt><trkpt lat="37.74952339095035" lon="15.089430519964335"><ele>1156.0</ele><time>2026-04-19T14:02:33Z</time></trkpt><trkpt lat="37.749667667246094" lon="15.089505365057061"><ele>1156.0</ele><time>2026-04-19T14:02:34Z</time></trkpt><trkpt lat="37.749783944100685" lon="15.089607952347237"><ele>1156.0</ele><time>2026-04-19T14:02:35Z</time></trkpt><trkpt lat="37.749880101833" lon="15.089787229707627"><ele>1148.0</ele><time>2026-04-19T14:02:36Z</time></trkpt><trkpt lat="37.74998359196412" lon="15.090018582845609"><ele>1140.0</ele><time>2026-04-19T14:02:37Z</time></trkpt><trkpt lat="37.750115880140044" lon="15.090281533749698"><ele>1139.6666666666667</ele><time>2026-04-19T14:02:38Z</time></trkpt><trkpt lat="37.75023042580077" lon="15.09049143925423"><ele>1139.3333333333335</ele><time>2026-04-19T14:02:39Z</time></trkpt><trkpt lat="37.750337100157765" lon="15.090688144747729"><ele>1139.0</ele><time>2026-04-19T14:02:40Z</time></trkpt><trkpt lat="37.750450958562176" lon="15.090869937815558"><ele>1139.0</ele><time>2026-04-19T14:02:41Z</time></trkpt><trkpt lat="37.75056945895996" lon="15.091059932015446"><ele>1139.0</ele><time>2026-04-19T14:02:42Z</time></trkpt><trkpt lat="37.750671159645655" lon="15.091247037463503"><ele>1139.0</ele><time>2026-04-19T14:02:43Z</time></trkpt><trkpt lat="37.75074823808664" lon="15.09145644640384"><ele>1136.6666666666667</ele><time>2026-04-19T14:02:44Z</time></trkpt><trkpt lat="37.750799202683815" lon="15.091680732862237"><ele>1134.3333333333333</ele><time>2026-04-19T14:02:45Z</time></trkpt><trkpt lat="37.75084093095147" lon="15.091905592409566"><ele>1132.0</ele><time>2026-04-19T14:02:46Z</time></trkpt><trkpt lat="37.750887290908686" lon="15.092124522553087"><ele>1132.0</ele><time>2026-04-19T14:02:47Z</time></trkpt><trkpt lat="37.750940199693346" lon="15.092324003951633"><ele>1132.0</ele><time>2026-04-19T14:02:48Z</time></trkpt><trkpt lat="37.75101645428745" lon="15.092526682523646"><ele>1132.0</ele><time>2026-04-19T14:02:49Z</time></trkpt><trkpt lat="37.75113323758148" lon="15.092730619505323"><ele>1131.0</ele><time>2026-04-19T14:02:50Z</time></trkpt><trkpt lat="37.75127691500466" lon="15.092933017078854"><ele>1130.0</ele><time>2026-04-19T14:02:51Z</time></trkpt><trkpt lat="37.75142137512456" lon="15.093141141181349"><ele>1129.0</ele><time>2026-04-19T14:02:52Z</time></trkpt><trkpt lat="37.751553902313844" lon="15.093338097871916"><ele>1126.0</ele><time>2026-04-19T14:02:53Z</time></trkpt><trkpt lat="37.75167886699398" lon="15.093535777987569"><ele>1123.0</ele><time>2026-04-19T14:02:54Z</time></trkpt><trkpt lat="37.751790796661005" lon="15.093761863279314"><ele>1120.0</ele><time>2026-04-19T14:02:55Z</time></trkpt><trkpt lat="37.751865460413974" lon="15.093972430936498"><ele>1118.3333333333333</ele><time>2026-04-19T14:02:56Z</time></trkpt><trkpt lat="37.75193820899819" lon="15.094150398264185"><ele>1116.6666666666667</ele><time>2026-04-19T14:02:57Z</time></trkpt><trkpt lat="37.75206198693892" lon="15.094327083823563"><ele>1115.0</ele><time>2026-04-19T14:02:58Z</time></trkpt><trkpt lat="37.75221537887002" lon="15.094506584514164"><ele>1115.0</ele><time>2026-04-19T14:02:59Z</time></trkpt><trkpt lat="37.7523534964771" lon="15.09468056498257"><ele>1115.0</ele><time>2026-04-19T14:03:00Z</time></trkpt><trkpt lat="37.7524753987183" lon="15.09483069330725"><ele>1115.0</ele><time>2026-04-19T14:03:01Z</time></trkpt><trkpt lat="37.752587504666586" lon="15.094984545266142"><ele>1114.6666666666667</ele><time>2026-04-19T14:03:02Z</time></trkpt><trkpt lat="37.75267371841913" lon="15.095169173412613"><ele>1114.3333333333333</ele><time>2026-04-19T14:03:03Z</time></trkpt><trkpt lat="37.75274484614409" lon="15.095374086935983"><ele>1114.0</ele><time>2026-04-19T14:03:04Z</time></trkpt><trkpt lat="37.752824344422606" lon="15.09558113662316"><ele>1110.6666666666665</ele><time>2026-04-19T14:03:05Z</time></trkpt><trkpt lat="37.75290721855314" lon="15.095763424203222"><ele>1107.3333333333333</ele><time>2026-04-19T14:03:06Z</time></trkpt><trkpt lat="37.753006873728744" lon="15.095934292506616"><ele>1104.0</ele><time>2026-04-19T14:03:07Z</time></trkpt><trkpt lat="37.75314460818754" lon="15.096109548736308"><ele>1104.0</ele><time>2026-04-19T14:03:08Z</time></trkpt><trkpt lat="37.753308145379634" lon="15.096282599141341"><ele>1104.0</ele><time>2026-04-19T14:03:09Z</time></trkpt><trkpt lat="37.75348226488408" lon="15.096451535391248"><ele>1104.0</ele><time>2026-04-19T14:03:10Z</time></trkpt><trkpt lat="37.753657404726454" lon="15.096619585113192"><ele>1101.0</ele><time>2026-04-19T14:03:11Z</time></trkpt><trkpt lat="37.75383361146595" lon="15.09679005419706"><ele>1098.0</ele><time>2026-04-19T14:03:12Z</time></trkpt><trkpt lat="37.754013362356304" lon="15.0969659760571"><ele>1095.0</ele><time>2026-04-19T14:03:13Z</time></trkpt><trkpt lat="37.75418906100906" lon="15.09714672668472"><ele>1095.0</ele><time>2026-04-19T14:03:14Z</time></trkpt><trkpt lat="37.75435412496293" lon="15.097315971435158"><ele>1095.0</ele><time>2026-04-19T14:03:15Z</time></trkpt><trkpt lat="37.75451115062236" lon="15.097477581825748"><ele>1095.0</ele><time>2026-04-19T14:03:16Z</time></trkpt><trkpt lat="37.75466063519343" lon="15.0976288869027"><ele>1092.3333333333333</ele><time>2026-04-19T14:03:17Z</time></trkpt><trkpt lat="37.75479588315458" lon="15.09776438707442"><ele>1089.6666666666665</ele><time>2026-04-19T14:03:18Z</time></trkpt><trkpt lat="37.75492420751632" lon="15.097866079610357"><ele>1087.0</ele><time>2026-04-19T14:03:19Z</time></trkpt><trkpt lat="37.755059732235516" lon="15.097908913777728"><ele>1087.0</ele><time>2026-04-19T14:03:20Z</time></trkpt><trkpt lat="37.75518934903997" lon="15.097922330564105"><ele>1087.0</ele><time>2026-04-19T14:03:21Z</time></trkpt><trkpt lat="37.75529425823047" lon="15.09794059839697"><ele>1087.0</ele><time>2026-04-19T14:03:22Z</time></trkpt><trkpt lat="37.75538854165726" lon="15.097993551088129"><ele>1087.0</ele><time>2026-04-19T14:03:23Z</time></trkpt><trkpt lat="37.75544208513484" lon="15.098070738288108"><ele>1087.0</ele><time>2026-04-19T14:03:24Z</time></trkpt><trkpt lat="37.755467704357265" lon="15.09817523198877"><ele>1084.2</ele><time>2026-04-19T14:03:25Z</time></trkpt><trkpt lat="37.7554433431823" lon="15.09829312290546"><ele>1081.4</ele><time>2026-04-19T14:03:26Z</time></trkpt><trkpt lat="37.755380905753455" lon="15.098395935329481"><ele>1078.6</ele><time>2026-04-19T14:03:27Z</time></trkpt><trkpt lat="37.75528339071553" lon="15.098443485426538"><ele>1075.8</ele><time>2026-04-19T14:03:28Z</time></trkpt><trkpt lat="37.75516679640087" lon="15.098430240132757"><ele>1073.0</ele><time>2026-04-19T14:03:29Z</time></trkpt><trkpt lat="37.75504323833762" lon="15.098371954065312"><ele>1072.3333333333335</ele><time>2026-04-19T14:03:30Z</time></trkpt><trkpt lat="37.75487475927453" lon="15.09831987222675"><ele>1071.6666666666667</ele><time>2026-04-19T14:03:31Z</time></trkpt><trkpt lat="37.754689698662055" lon="15.098267167120952"><ele>1071.0</ele><time>2026-04-19T14:03:32Z</time></trkpt><trkpt lat="37.75447060152848" lon="15.098217909707367"><ele>1076.0</ele><time>2026-04-19T14:03:33Z</time></trkpt><trkpt lat="37.7542153507757" lon="15.098185083285525"><ele>1081.0</ele><time>2026-04-19T14:03:34Z</time></trkpt><trkpt lat="37.75392801580136" lon="15.098158735771351"><ele>1081.0</ele><time>2026-04-19T14:03:35Z</time></trkpt><trkpt lat="37.7536366681039" lon="15.098151458400618"><ele>1081.0</ele><time>2026-04-19T14:03:36Z</time></trkpt><trkpt lat="37.753345550929666" lon="15.098127958912476"><ele>1076.0</ele><time>2026-04-19T14:03:37Z</time></trkpt><trkpt lat="37.75305417042836" lon="15.098106932323732"><ele>1071.0</ele><time>2026-04-19T14:03:38Z</time></trkpt><trkpt lat="37.75277729473808" lon="15.098087703921747"><ele>1065.5</ele><time>2026-04-19T14:03:39Z</time></trkpt><trkpt lat="37.7524936942137" lon="15.098067709859583"><ele>1060.0</ele><time>2026-04-19T14:03:40Z</time></trkpt><trkpt lat="37.752215608647354" lon="15.098049469068895"><ele>1060.0</ele><time>2026-04-19T14:03:41Z</time></trkpt><trkpt lat="37.75195255093968" lon="15.098032012494023"><ele>1060.0</ele><time>2026-04-19T14:03:42Z</time></trkpt><trkpt lat="37.75168603335203" lon="15.098017076943348"><ele>1059.0</ele><time>2026-04-19T14:03:43Z</time></trkpt><trkpt lat="37.75143777793834" lon="15.098006832864565"><ele>1058.0</ele><time>2026-04-19T14:03:44Z</time></trkpt><trkpt lat="37.75121684279592" lon="15.098005955520346"><ele>1055.3333333333335</ele><time>2026-04-19T14:03:45Z</time></trkpt><trkpt lat="37.75100632610533" lon="15.09800659229589"><ele>1052.6666666666667</ele><time>2026-04-19T14:03:46Z</time></trkpt><trkpt lat="37.750797334317966" lon="15.098019085221388"><ele>1050.0</ele><time>2026-04-19T14:03:47Z</time></trkpt><trkpt lat="37.750596699657166" lon="15.098046941791914"><ele>1050.0</ele><time>2026-04-19T14:03:48Z</time></trkpt><trkpt lat="37.75041416184415" lon="15.098078015485278"><ele>1050.0</ele><time>2026-04-19T14:03:49Z</time></trkpt><trkpt lat="37.750245650891515" lon="15.098109644468078"><ele>1050.0</ele><time>2026-04-19T14:03:50Z</time></trkpt><trkpt lat="37.75009774091802" lon="15.098152677707752"><ele>1049.0</ele><time>2026-04-19T14:03:51Z</time></trkpt><trkpt lat="37.749954138481456" lon="15.09823691852535"><ele>1048.0</ele><time>2026-04-19T14:03:52Z</time></trkpt><trkpt lat="37.74981306308924" lon="15.098356021594688"><ele>1047.0</ele><time>2026-04-19T14:03:53Z</time></trkpt><trkpt lat="37.7496996035534" lon="15.098490134528317"><ele>1044.0</ele><time>2026-04-19T14:03:54Z</time></trkpt><trkpt lat="37.74963462286459" lon="15.098632592672168"><ele>1041.0</ele><time>2026-04-19T14:03:55Z</time></trkpt><trkpt lat="37.74960936644812" lon="15.098789558647997"><ele>1038.0</ele><time>2026-04-19T14:03:56Z</time></trkpt><trkpt lat="37.749583407067995" lon="15.098959050484568"><ele>1035.0</ele><time>2026-04-19T14:03:57Z</time></trkpt><trkpt lat="37.74954563401885" lon="15.099105683207037"><ele>1032.25</ele><time>2026-04-19T14:03:58Z</time></trkpt><trkpt lat="37.74948870100226" lon="15.09923016382448"><ele>1029.5</ele><time>2026-04-19T14:03:59Z</time></trkpt><trkpt lat="37.74938276029445" lon="15.09933828161899"><ele>1026.75</ele><time>2026-04-19T14:04:00Z</time></trkpt><trkpt lat="37.74925118539234" lon="15.099426310298028"><ele>1024.0</ele><time>2026-04-19T14:04:01Z</time></trkpt><trkpt lat="37.74912048808974" lon="15.099496998021474"><ele>1024.0</ele><time>2026-04-19T14:04:02Z</time></trkpt><trkpt lat="37.7490032668866" lon="15.099546649737162"><ele>1024.0</ele><time>2026-04-19T14:04:03Z</time></trkpt><trkpt lat="37.748876185524445" lon="15.099552521315156"><ele>1024.0</ele><time>2026-04-19T14:04:04Z</time></trkpt><trkpt lat="37.74872234378852" lon="15.09951076171347"><ele>1024.0</ele><time>2026-04-19T14:04:05Z</time></trkpt><trkpt lat="37.74854687767598" lon="15.099459310560835"><ele>1021.3333333333333</ele><time>2026-04-19T14:04:06Z</time></trkpt><trkpt lat="37.7483722809684" lon="15.099412174875312"><ele>1018.6666666666667</ele><time>2026-04-19T14:04:07Z</time></trkpt><trkpt lat="37.748189108528514" lon="15.099365361684042"><ele>1016.0</ele><time>2026-04-19T14:04:08Z</time></trkpt><trkpt lat="37.748005489789854" lon="15.099318311291274"><ele>1016.0</ele><time>2026-04-19T14:04:09Z</time></trkpt><trkpt lat="37.747822250631486" lon="15.099272106692364"><ele>1016.0</ele><time>2026-04-19T14:04:10Z</time></trkpt><trkpt lat="37.7476529016609" lon="15.09923182448302"><ele>1016.0</ele><time>2026-04-19T14:04:11Z</time></trkpt><trkpt lat="37.74748156302405" lon="15.099209089678244"><ele>1015.0</ele><time>2026-04-19T14:04:12Z</time></trkpt><trkpt lat="37.747317617363535" lon="15.099204486080547"><ele>1014.0</ele><time>2026-04-19T14:04:13Z</time></trkpt><trkpt lat="37.747167938859604" lon="15.099200814656605"><ele>1013.0</ele><time>2026-04-19T14:04:14Z</time></trkpt><trkpt lat="37.74701454691871" lon="15.099192789107537"><ele>1012.0</ele><time>2026-04-19T14:04:15Z</time></trkpt><trkpt lat="37.74685294618739" lon="15.099184431022982"><ele>1011.0</ele><time>2026-04-19T14:04:16Z</time></trkpt><trkpt lat="37.746687699368294" lon="15.099175936014671"><ele>1010.0</ele><time>2026-04-19T14:04:17Z</time></trkpt><trkpt lat="37.74654104013997" lon="15.099171557447681"><ele>1010.0</ele><time>2026-04-19T14:04:18Z</time></trkpt><trkpt lat="37.746410125751815" lon="15.099163536663207"><ele>1010.0</ele><time>2026-04-19T14:04:19Z</time></trkpt><trkpt lat="37.74629441971831" lon="15.099128136184618"><ele>1010.0</ele><time>2026-04-19T14:04:20Z</time></trkpt><trkpt lat="37.746185412075235" lon="15.099034419454858"><ele>1010.0</ele><time>2026-04-19T14:04:21Z</time></trkpt><trkpt lat="37.74608017924269" lon="15.098906802793742"><ele>1010.25</ele><time>2026-04-19T14:04:22Z</time></trkpt><trkpt lat="37.745978202699085" lon="15.0987587295426"><ele>1010.5</ele><time>2026-04-19T14:04:23Z</time></trkpt><trkpt lat="37.74588923545514" lon="15.09862024792808"><ele>1010.75</ele><time>2026-04-19T14:04:24Z</time></trkpt><trkpt lat="37.745796962446676" lon="15.098509404425501"><ele>1011.0</ele><time>2026-04-19T14:04:25Z</time></trkpt><trkpt lat="37.74569021575002" lon="15.098446385050128"><ele>1011.0</ele><time>2026-04-19T14:04:26Z</time></trkpt><trkpt lat="37.74556769956407" lon="15.098451220998733"><ele>1011.0</ele><time>2026-04-19T14:04:27Z</time></trkpt><trkpt lat="37.74543629051015" lon="15.098526962930302"><ele>1011.0</ele><time>2026-04-19T14:04:28Z</time></trkpt><trkpt lat="37.74529590170426" lon="15.098657815220133"><ele>1011.0</ele><time>2026-04-19T14:04:29Z</time></trkpt><trkpt lat="37.74514147592092" lon="15.098797294365031"><ele>1008.3333333333333</ele><time>2026-04-19T14:04:30Z</time></trkpt><trkpt lat="37.7449905551795" lon="15.09892751045773"><ele>1005.6666666666666</ele><time>2026-04-19T14:04:31Z</time></trkpt><trkpt lat="37.74485015932583" lon="15.099058028394635"><ele>1003.0</ele><time>2026-04-19T14:04:32Z</time></trkpt><trkpt lat="37.74472221630467" lon="15.099193309408205"><ele>1001.25</ele><time>2026-04-19T14:04:33Z</time></trkpt><trkpt lat="37.74460576447094" lon="15.09932924617083"><ele>999.5</ele><time>2026-04-19T14:04:34Z</time></trkpt><trkpt lat="37.744497444595645" lon="15.099455470201834"><ele>997.75</ele><time>2026-04-19T14:04:35Z</time></trkpt><trkpt lat="37.744383086971524" lon="15.099562550742919"><ele>996.0</ele><time>2026-04-19T14:04:36Z</time></trkpt><trkpt lat="37.74426392513853" lon="15.099636640772774"><ele>996.0</ele><time>2026-04-19T14:04:37Z</time></trkpt><trkpt lat="37.744139321100626" lon="15.09967096955165"><ele>996.0</ele><time>2026-04-19T14:04:38Z</time></trkpt><trkpt lat="37.7440068350692" lon="15.099683809596618"><ele>996.0</ele><time>2026-04-19T14:04:39Z</time></trkpt><trkpt lat="37.743870126975665" lon="15.099730363824083"><ele>996.0</ele><time>2026-04-19T14:04:40Z</time></trkpt><trkpt lat="37.74373702183898" lon="15.099840432230662"><ele>991.0</ele><time>2026-04-19T14:04:41Z</time></trkpt><trkpt lat="37.74362081034506" lon="15.099994842497754"><ele>986.0</ele><time>2026-04-19T14:04:42Z</time></trkpt><trkpt lat="37.74352445307958" lon="15.100141207191347"><ele>981.0</ele><time>2026-04-19T14:04:43Z</time></trkpt><trkpt lat="37.74343199984912" lon="15.100265158544207"><ele>980.75</ele><time>2026-04-19T14:04:44Z</time></trkpt><trkpt lat="37.74331470151562" lon="15.100339875557221"><ele>980.5</ele><time>2026-04-19T14:04:45Z</time></trkpt><trkpt lat="37.74317220405017" lon="15.100357660823857"><ele>980.25</ele><time>2026-04-19T14:04:46Z</time></trkpt><trkpt lat="37.743019258923" lon="15.100318568898897"><ele>980.0</ele><time>2026-04-19T14:04:47Z</time></trkpt><trkpt lat="37.7428712600635" lon="15.10023499021911"><ele>980.0</ele><time>2026-04-19T14:04:48Z</time></trkpt><trkpt lat="37.74274383838249" lon="15.100097854884602"><ele>980.0</ele><time>2026-04-19T14:04:49Z</time></trkpt><trkpt lat="37.74263013299719" lon="15.099914070245491"><ele>980.0</ele><time>2026-04-19T14:04:50Z</time></trkpt><trkpt lat="37.742510960914835" lon="15.099719707545763"><ele>979.5</ele><time>2026-04-19T14:04:51Z</time></trkpt><trkpt lat="37.742406909497646" lon="15.099564184041562"><ele>979.0</ele><time>2026-04-19T14:04:52Z</time></trkpt><trkpt lat="37.742308299471716" lon="15.099426906894882"><ele>978.5</ele><time>2026-04-19T14:04:53Z</time></trkpt><trkpt lat="37.74220546326493" lon="15.09930662353673"><ele>978.0</ele><time>2026-04-19T14:04:54Z</time></trkpt><trkpt lat="37.74207950427443" lon="15.099210734070823"><ele>978.0</ele><time>2026-04-19T14:04:55Z</time></trkpt><trkpt lat="37.74195587090941" lon="15.099176797427786"><ele>978.0</ele><time>2026-04-19T14:04:56Z</time></trkpt><trkpt lat="37.74183069044773" lon="15.099208344958836"><ele>978.0</ele><time>2026-04-19T14:04:57Z</time></trkpt><trkpt lat="37.74168711588145" lon="15.099297604559467"><ele>978.0</ele><time>2026-04-19T14:04:58Z</time></trkpt><trkpt lat="37.74152091574517" lon="15.099427366103807"><ele>975.3333333333333</ele><time>2026-04-19T14:04:59Z</time></trkpt><trkpt lat="37.741344934972965" lon="15.099524191016865"><ele>972.6666666666666</ele><time>2026-04-19T14:05:00Z</time></trkpt><trkpt lat="37.741153266687185" lon="15.099636677575567"><ele>970.0</ele><time>2026-04-19T14:05:01Z</time></trkpt><trkpt lat="37.7409531354849" lon="15.099756075288177"><ele>969.0</ele><time>2026-04-19T14:05:02Z</time></trkpt><trkpt lat="37.74075382243335" lon="15.099873061206871"><ele>968.0</ele><time>2026-04-19T14:05:03Z</time></trkpt><trkpt lat="37.74053577888805" lon="15.09996323960374"><ele>967.0</ele><time>2026-04-19T14:05:04Z</time></trkpt><trkpt lat="37.74031246894381" lon="15.100047499322086"><ele>960.0</ele><time>2026-04-19T14:05:05Z</time></trkpt><trkpt lat="37.74008329453392" lon="15.100132693048566"><ele>953.0</ele><time>2026-04-19T14:05:06Z</time></trkpt><trkpt lat="37.73985043607797" lon="15.100220650701436"><ele>953.0</ele><time>2026-04-19T14:05:07Z</time></trkpt><trkpt lat="37.73961456303593" lon="15.100312527554705"><ele>953.0</ele><time>2026-04-19T14:05:08Z</time></trkpt><trkpt lat="37.73938834789413" lon="15.10039913782898"><ele>951.0</ele><time>2026-04-19T14:05:09Z</time></trkpt><trkpt lat="37.739176990158654" lon="15.100478152329858"><ele>949.0</ele><time>2026-04-19T14:05:10Z</time></trkpt><trkpt lat="37.73899031880809" lon="15.10054698325322"><ele>947.0</ele><time>2026-04-19T14:05:11Z</time></trkpt><trkpt lat="37.7388330216399" lon="15.10060754184733"><ele>947.0</ele><time>2026-04-19T14:05:12Z</time></trkpt><trkpt lat="37.73870119897258" lon="15.10066844333303"><ele>947.0</ele><time>2026-04-19T14:05:13Z</time></trkpt><trkpt lat="37.73859283913083" lon="15.100771866758858"><ele>947.0</ele><time>2026-04-19T14:05:14Z</time></trkpt><trkpt lat="37.73851448541468" lon="15.100932867826721"><ele>947.0</ele><time>2026-04-19T14:05:15Z</time></trkpt><trkpt lat="37.73847375342161" lon="15.101109046705101"><ele>946.3333333333334</ele><time>2026-04-19T14:05:16Z</time></trkpt><trkpt lat="37.738469032879806" lon="15.101301763318261"><ele>945.6666666666667</ele><time>2026-04-19T14:05:17Z</time></trkpt><trkpt lat="37.738510542421224" lon="15.10150591335561"><ele>945.0</ele><time>2026-04-19T14:05:18Z</time></trkpt><trkpt lat="37.73859200538105" lon="15.101720252748947"><ele>941.6666666666667</ele><time>2026-04-19T14:05:19Z</time></trkpt><trkpt lat="37.738684058905584" lon="15.101940088283644"><ele>938.3333333333334</ele><time>2026-04-19T14:05:20Z</time></trkpt><trkpt lat="37.738773065020176" lon="15.102152878369195"><ele>935.0</ele><time>2026-04-19T14:05:21Z</time></trkpt><trkpt lat="37.738849685275724" lon="15.102361722190658"><ele>932.6666666666667</ele><time>2026-04-19T14:05:22Z</time></trkpt><trkpt lat="37.738910461888665" lon="15.102581019894405"><ele>930.3333333333333</ele><time>2026-04-19T14:05:23Z</time></trkpt><trkpt lat="37.73895918221938" lon="15.102818324790258"><ele>928.0</ele><time>2026-04-19T14:05:24Z</time></trkpt><trkpt lat="37.73898380046293" lon="15.103071879341433"><ele>926.0</ele><time>2026-04-19T14:05:25Z</time></trkpt><trkpt lat="37.738974871032624" lon="15.103342866910534"><ele>924.0</ele><time>2026-04-19T14:05:26Z</time></trkpt><trkpt lat="37.73894287020377" lon="15.10362138383449"><ele>922.0</ele><time>2026-04-19T14:05:27Z</time></trkpt><trkpt lat="37.73888638232714" lon="15.103909738510893"><ele>918.0</ele><time>2026-04-19T14:05:28Z</time></trkpt><trkpt lat="37.73882080226937" lon="15.104203080471935"><ele>914.0</ele><time>2026-04-19T14:05:29Z</time></trkpt><trkpt lat="37.73875312180896" lon="15.104501615892545"><ele>914.0</ele><time>2026-04-19T14:05:30Z</time></trkpt><trkpt lat="37.73868971226523" lon="15.104793012419348"><ele>914.0</ele><time>2026-04-19T14:05:31Z</time></trkpt><trkpt lat="37.73862877607968" lon="15.10506633987184"><ele>912.0</ele><time>2026-04-19T14:05:32Z</time></trkpt><trkpt lat="37.7385712024828" lon="15.105327821411025"><ele>910.0</ele><time>2026-04-19T14:05:33Z</time></trkpt><trkpt lat="37.738518669025375" lon="15.105572553881812"><ele>908.0</ele><time>2026-04-19T14:05:34Z</time></trkpt><trkpt lat="37.73847222626505" lon="15.105788967702653"><ele>906.75</ele><time>2026-04-19T14:05:35Z</time></trkpt><trkpt lat="37.738429056237884" lon="15.105980489707793"><ele>905.5</ele><time>2026-04-19T14:05:36Z</time></trkpt><trkpt lat="37.738381748599714" lon="15.106146642525768"><ele>904.25</ele><time>2026-04-19T14:05:37Z</time></trkpt><trkpt lat="37.73830333528114" lon="15.10629289143675"><ele>903.0</ele><time>2026-04-19T14:05:38Z</time></trkpt><trkpt lat="37.73818698266819" lon="15.106417999719133"><ele>903.0</ele><time>2026-04-19T14:05:39Z</time></trkpt><trkpt lat="37.73804444938942" lon="15.106501588145345"><ele>903.0</ele><time>2026-04-19T14:05:40Z</time></trkpt><trkpt lat="37.73789034642337" lon="15.10653948219422"><ele>903.0</ele><time>2026-04-19T14:05:41Z</time></trkpt><trkpt lat="37.73773921968409" lon="15.106542154868086"><ele>899.5</ele><time>2026-04-19T14:05:42Z</time></trkpt><trkpt lat="37.73760616593705" lon="15.106566847387949"><ele>896.0</ele><time>2026-04-19T14:05:43Z</time></trkpt><trkpt lat="37.73747950534615" lon="15.106632665118976"><ele>892.5</ele><time>2026-04-19T14:05:44Z</time></trkpt><trkpt lat="37.73736069028134" lon="15.10675092909392"><ele>889.0</ele><time>2026-04-19T14:05:45Z</time></trkpt><trkpt lat="37.73728125232981" lon="15.10688582583312"><ele>889.0</ele><time>2026-04-19T14:05:46Z</time></trkpt><trkpt lat="37.737239014856264" lon="15.10703416666715"><ele>889.0</ele><time>2026-04-19T14:05:47Z</time></trkpt><trkpt lat="37.737228876089056" lon="15.107202243241488"><ele>889.0</ele><time>2026-04-19T14:05:48Z</time></trkpt><trkpt lat="37.737254350758846" lon="15.107375820822506"><ele>889.0</ele><time>2026-04-19T14:05:49Z</time></trkpt><trkpt lat="37.7373234274933" lon="15.107526336654127"><ele>887.5</ele><time>2026-04-19T14:05:50Z</time></trkpt><trkpt lat="37.73740514331" lon="15.10765268737203"><ele>886.0</ele><time>2026-04-19T14:05:51Z</time></trkpt><trkpt lat="37.737459327030365" lon="15.10778796510333"><ele>884.5</ele><time>2026-04-19T14:05:52Z</time></trkpt><trkpt lat="37.73751418034669" lon="15.10792798727728"><ele>883.0</ele><time>2026-04-19T14:05:53Z</time></trkpt><trkpt lat="37.737558320432" lon="15.108070938956"><ele>883.0</ele><time>2026-04-19T14:05:54Z</time></trkpt><trkpt lat="37.737571247756584" lon="15.10820984239095"><ele>883.0</ele><time>2026-04-19T14:05:55Z</time></trkpt><trkpt lat="37.737557390761" lon="15.108352757702972"><ele>883.0</ele><time>2026-04-19T14:05:56Z</time></trkpt><trkpt lat="37.737520391625985" lon="15.108490355300448"><ele>883.0</ele><time>2026-04-19T14:05:57Z</time></trkpt><trkpt lat="37.737459965423284" lon="15.108611812032892"><ele>883.0</ele><time>2026-04-19T14:05:58Z</time></trkpt><trkpt lat="37.73738972672124" lon="15.10871926216222"><ele>883.0</ele><time>2026-04-19T14:05:59Z</time></trkpt><trkpt lat="37.73729404892893" lon="15.108807513353282"><ele>883.0</ele><time>2026-04-19T14:06:00Z</time></trkpt><trkpt lat="37.73717986037686" lon="15.10887589750216"><ele>883.0</ele><time>2026-04-19T14:06:01Z</time></trkpt><trkpt lat="37.73705474769655" lon="15.108913357405608"><ele>883.0</ele><time>2026-04-19T14:06:02Z</time></trkpt><trkpt lat="37.736920887492325" lon="15.108910795530717"><ele>883.0</ele><time>2026-04-19T14:06:03Z</time></trkpt><trkpt lat="37.736780636704154" lon="15.108866661549792"><ele>883.0</ele><time>2026-04-19T14:06:04Z</time></trkpt><trkpt lat="37.73664131383315" lon="15.108796398771174"><ele>883.0</ele><time>2026-04-19T14:06:05Z</time></trkpt><trkpt lat="37.73649624712052" lon="15.108728568088573"><ele>880.75</ele><time>2026-04-19T14:06:06Z</time></trkpt><trkpt lat="37.73634986622546" lon="15.108670385078725"><ele>878.5</ele><time>2026-04-19T14:06:07Z</time></trkpt><trkpt lat="37.736217602707605" lon="15.108618878020327"><ele>876.25</ele><time>2026-04-19T14:06:08Z</time></trkpt><trkpt lat="37.73609316124405" lon="15.10856983672702"><ele>874.0</ele><time>2026-04-19T14:06:09Z</time></trkpt><trkpt lat="37.735975423304716" lon="15.108534085689515"><ele>872.75</ele><time>2026-04-19T14:06:10Z</time></trkpt><trkpt lat="37.7358622595375" lon="15.108529136902526"><ele>871.5</ele><time>2026-04-19T14:06:11Z</time></trkpt><trkpt lat="37.73574671416308" lon="15.108558346447413"><ele>870.25</ele><time>2026-04-19T14:06:12Z</time></trkpt><trkpt lat="37.735636268942294" lon="15.108621733895452"><ele>869.0</ele><time>2026-04-19T14:06:13Z</time></trkpt><trkpt lat="37.73553991666391" lon="15.108714232072126"><ele>869.0</ele><time>2026-04-19T14:06:14Z</time></trkpt><trkpt lat="37.735473842549105" lon="15.108846135617265"><ele>869.0</ele><time>2026-04-19T14:06:15Z</time></trkpt><trkpt lat="37.73544377762745" lon="15.10899257946051"><ele>869.0</ele><time>2026-04-19T14:06:16Z</time></trkpt><trkpt lat="37.73542484848201" lon="15.10912647531509"><ele>869.0</ele><time>2026-04-19T14:06:17Z</time></trkpt><trkpt lat="37.73539199814315" lon="15.109253524465869"><ele>866.75</ele><time>2026-04-19T14:06:18Z</time></trkpt><trkpt lat="37.73532563024719" lon="15.109364092606562"><ele>864.5</ele><time>2026-04-19T14:06:19Z</time></trkpt><trkpt lat="37.73523430416125" lon="15.109460514935769"><ele>862.25</ele><time>2026-04-19T14:06:20Z</time></trkpt><trkpt lat="37.73510307977828" lon="15.109539534543757"><ele>860.0</ele><time>2026-04-19T14:06:21Z</time></trkpt><trkpt lat="37.73495948502092" lon="15.109609782231725"><ele>858.6666666666667</ele><time>2026-04-19T14:06:22Z</time></trkpt><trkpt lat="37.73480792055707" lon="15.109692987822172"><ele>857.3333333333333</ele><time>2026-04-19T14:06:23Z</time></trkpt><trkpt lat="37.73463994280962" lon="15.10978454754397"><ele>856.0</ele><time>2026-04-19T14:06:24Z</time></trkpt><trkpt lat="37.73450001168446" lon="15.109874104556868"><ele>852.0</ele><time>2026-04-19T14:06:25Z</time></trkpt><trkpt lat="37.73439016875226" lon="15.110000269262756"><ele>848.0</ele><time>2026-04-19T14:06:26Z</time></trkpt><trkpt lat="37.73431714688543" lon="15.110179463886714"><ele>844.0</ele><time>2026-04-19T14:06:27Z</time></trkpt><trkpt lat="37.73428970138874" lon="15.110380689703788"><ele>842.0</ele><time>2026-04-19T14:06:28Z</time></trkpt><trkpt lat="37.73431212962794" lon="15.110590530556951"><ele>840.0</ele><time>2026-04-19T14:06:29Z</time></trkpt><trkpt lat="37.734379741993195" lon="15.11079624507828"><ele>838.0</ele><time>2026-04-19T14:06:30Z</time></trkpt><trkpt lat="37.73448922303504" lon="15.110990849581688"><ele>837.3333333333333</ele><time>2026-04-19T14:06:31Z</time></trkpt><trkpt lat="37.73461742757374" lon="15.111174967054756"><ele>836.6666666666667</ele><time>2026-04-19T14:06:32Z</time></trkpt><trkpt lat="37.73474110594402" lon="15.111366881410722"><ele>836.0</ele><time>2026-04-19T14:06:33Z</time></trkpt><trkpt lat="37.73485927831412" lon="15.111559704423417"><ele>833.6666666666667</ele><time>2026-04-19T14:06:34Z</time></trkpt><trkpt lat="37.73496600593348" lon="15.11173021730805"><ele>831.3333333333333</ele><time>2026-04-19T14:06:35Z</time></trkpt><trkpt lat="37.73506471074357" lon="15.111887419712138"><ele>829.0</ele><time>2026-04-19T14:06:36Z</time></trkpt><trkpt lat="37.7351563648836" lon="15.1120323279435"><ele>828.75</ele><time>2026-04-19T14:06:37Z</time></trkpt><trkpt lat="37.7352395882157" lon="15.112168929589517"><ele>828.5</ele><time>2026-04-19T14:06:38Z</time></trkpt><trkpt lat="37.73531833263864" lon="15.11229702126918"><ele>828.25</ele><time>2026-04-19T14:06:39Z</time></trkpt><trkpt lat="37.73538722378433" lon="15.11240905954295"><ele>828.0</ele><time>2026-04-19T14:06:40Z</time></trkpt><trkpt lat="37.735443133833556" lon="15.112495965763658"><ele>828.0</ele><time>2026-04-19T14:06:41Z</time></trkpt><trkpt lat="37.73549328362325" lon="15.11257422354168"><ele>828.0</ele><time>2026-04-19T14:06:42Z</time></trkpt><trkpt lat="37.73553133478756" lon="15.112642751328499"><ele>828.0</ele><time>2026-04-19T14:06:43Z</time></trkpt><trkpt lat="37.73557194074712" lon="15.112749019222102"><ele>828.0</ele><time>2026-04-19T14:06:45Z</time></trkpt><trkpt lat="37.73551592593063" lon="15.11288760721618"><ele>828.0</ele><time>2026-04-19T14:06:48Z</time></trkpt><trkpt lat="37.73543816227493" lon="15.112938934441301"><ele>828.0</ele><time>2026-04-19T14:06:49Z</time></trkpt><trkpt lat="37.735352452980166" lon="15.112998071784352"><ele>828.0</ele><time>2026-04-19T14:06:50Z</time></trkpt><trkpt lat="37.73525806900299" lon="15.11305767835902"><ele>828.0</ele><time>2026-04-19T14:06:51Z</time></trkpt><trkpt lat="37.73515145224521" lon="15.113086476925341"><ele>828.0</ele><time>2026-04-19T14:06:52Z</time></trkpt><trkpt lat="37.73504327610941" lon="15.113106627804678"><ele>828.0</ele><time>2026-04-19T14:06:53Z</time></trkpt><trkpt lat="37.73493936388715" lon="15.113123559234252"><ele>828.25</ele><time>2026-04-19T14:06:54Z</time></trkpt><trkpt lat="37.734848068422664" lon="15.113116198372248"><ele>828.5</ele><time>2026-04-19T14:06:55Z</time></trkpt><trkpt lat="37.73475561280353" lon="15.113066379301028"><ele>828.75</ele><time>2026-04-19T14:06:56Z</time></trkpt><trkpt lat="37.73465664513804" lon="15.112979664071561"><ele>829.0</ele><time>2026-04-19T14:06:57Z</time></trkpt><trkpt lat="37.73453993457247" lon="15.112871419581412"><ele>829.0</ele><time>2026-04-19T14:06:58Z</time></trkpt><trkpt lat="37.73441424413854" lon="15.112771946476025"><ele>829.0</ele><time>2026-04-19T14:06:59Z</time></trkpt><trkpt lat="37.73428817458509" lon="15.112675237190437"><ele>829.0</ele><time>2026-04-19T14:07:00Z</time></trkpt><trkpt lat="37.73416179546283" lon="15.112569070214795"><ele>829.0</ele><time>2026-04-19T14:07:01Z</time></trkpt><trkpt lat="37.73405798882932" lon="15.112458611361689"><ele>827.25</ele><time>2026-04-19T14:07:02Z</time></trkpt><trkpt lat="37.73397598063101" lon="15.112318417862772"><ele>825.5</ele><time>2026-04-19T14:07:03Z</time></trkpt><trkpt lat="37.73391001439386" lon="15.11215213810593"><ele>823.75</ele><time>2026-04-19T14:07:04Z</time></trkpt><trkpt lat="37.73384882692388" lon="15.112002203206114"><ele>822.0</ele><time>2026-04-19T14:07:05Z</time></trkpt><trkpt lat="37.73378619425788" lon="15.111873544663796"><ele>822.0</ele><time>2026-04-19T14:07:06Z</time></trkpt><trkpt lat="37.73371975599721" lon="15.111786319208747"><ele>822.0</ele><time>2026-04-19T14:07:07Z</time></trkpt><trkpt lat="37.73363116199997" lon="15.111741265104317"><ele>822.0</ele><time>2026-04-19T14:07:08Z</time></trkpt><trkpt lat="37.73352144409921" lon="15.111757706401242"><ele>822.0</ele><time>2026-04-19T14:07:09Z</time></trkpt><trkpt lat="37.733400955204814" lon="15.1118468318187"><ele>822.0</ele><time>2026-04-19T14:07:10Z</time></trkpt><trkpt lat="37.73328939281922" lon="15.112002098581751"><ele>823.3333333333333</ele><time>2026-04-19T14:07:11Z</time></trkpt><trkpt lat="37.73319603608096" lon="15.112190950847522"><ele>824.6666666666666</ele><time>2026-04-19T14:07:12Z</time></trkpt><trkpt lat="37.73311100112101" lon="15.112399864998293"><ele>826.0</ele><time>2026-04-19T14:07:13Z</time></trkpt><trkpt lat="37.733030698406324" lon="15.11263427711656"><ele>823.0</ele><time>2026-04-19T14:07:14Z</time></trkpt><trkpt lat="37.73295843647702" lon="15.112887338850229"><ele>820.0</ele><time>2026-04-19T14:07:15Z</time></trkpt><trkpt lat="37.73288413567101" lon="15.113134679181666"><ele>817.0</ele><time>2026-04-19T14:07:16Z</time></trkpt><trkpt lat="37.73280931610566" lon="15.113342352408932"><ele>813.0</ele><time>2026-04-19T14:07:17Z</time></trkpt><trkpt lat="37.73273891119826" lon="15.113514194106335"><ele>809.0</ele><time>2026-04-19T14:07:18Z</time></trkpt><trkpt lat="37.73266242645957" lon="15.113643221978126"><ele>805.0</ele><time>2026-04-19T14:07:19Z</time></trkpt><trkpt lat="37.732588325404734" lon="15.1137103572027"><ele>801.0</ele><time>2026-04-19T14:07:20Z</time></trkpt><trkpt lat="37.73249083305524" lon="15.113714301806748"><ele>801.0</ele><time>2026-04-19T14:07:21Z</time></trkpt><trkpt lat="37.73239424783039" lon="15.113678258407031"><ele>801.0</ele><time>2026-04-19T14:07:22Z</time></trkpt><trkpt lat="37.73232656945727" lon="15.113589345598111"><ele>801.0</ele><time>2026-04-19T14:07:23Z</time></trkpt><trkpt lat="37.7322851431133" lon="15.113481415517132"><ele>801.0</ele><time>2026-04-19T14:07:24Z</time></trkpt><trkpt lat="37.73227705691401" lon="15.113388004575054"><ele>801.0</ele><time>2026-04-19T14:07:25Z</time></trkpt><trkpt lat="37.73228284848471" lon="15.11330527441946"><ele>801.0</ele><time>2026-04-19T14:07:26Z</time></trkpt><trkpt lat="37.73230418124087" lon="15.113159441646285"><ele>802.0</ele><time>2026-04-19T14:07:28Z</time></trkpt><trkpt lat="37.7323115206945" lon="15.113068539061738"><ele>803.0</ele><time>2026-04-19T14:07:29Z</time></trkpt><trkpt lat="37.732308244533165" lon="15.112967834557622"><ele>804.0</ele><time>2026-04-19T14:07:30Z</time></trkpt><trkpt lat="37.73228487596726" lon="15.112864786954184"><ele>805.0</ele><time>2026-04-19T14:07:31Z</time></trkpt><trkpt lat="37.73222783409798" lon="15.112769985031553"><ele>806.0</ele><time>2026-04-19T14:07:32Z</time></trkpt><trkpt lat="37.732141310712855" lon="15.112711828552007"><ele>807.0</ele><time>2026-04-19T14:07:33Z</time></trkpt><trkpt lat="37.732069608932875" lon="15.11269745373595"><ele>807.0</ele><time>2026-04-19T14:07:34Z</time></trkpt><trkpt lat="37.731999463567185" lon="15.112713269802475"><ele>807.0</ele><time>2026-04-19T14:07:35Z</time></trkpt><trkpt lat="37.73192730828635" lon="15.112767295979959"><ele>807.0</ele><time>2026-04-19T14:07:36Z</time></trkpt><trkpt lat="37.7318255363478" lon="15.112852419455061"><ele>807.0</ele><time>2026-04-19T14:07:37Z</time></trkpt><trkpt lat="37.73173961409325" lon="15.11299890478564"><ele>807.0</ele><time>2026-04-19T14:07:38Z</time></trkpt><trkpt lat="37.73163591112597" lon="15.113130935004707"><ele>803.0</ele><time>2026-04-19T14:07:39Z</time></trkpt><trkpt lat="37.731526450853984" lon="15.113250726490609"><ele>799.0</ele><time>2026-04-19T14:07:40Z</time></trkpt><trkpt lat="37.73141892901929" lon="15.113340844038833"><ele>795.0</ele><time>2026-04-19T14:07:41Z</time></trkpt><trkpt lat="37.7312890406697" lon="15.113399518538486"><ele>791.0</ele><time>2026-04-19T14:07:42Z</time></trkpt><trkpt lat="37.73114313667893" lon="15.113444739037677"><ele>791.4</ele><time>2026-04-19T14:07:43Z</time></trkpt><trkpt lat="37.731011689752734" lon="15.11347520235969"><ele>791.8</ele><time>2026-04-19T14:07:44Z</time></trkpt><trkpt lat="37.7309048690633" lon="15.113474938402339"><ele>792.1999999999999</ele><time>2026-04-19T14:07:45Z</time></trkpt><trkpt lat="37.73082198577833" lon="15.113437404117676"><ele>792.5999999999999</ele><time>2026-04-19T14:07:46Z</time></trkpt><trkpt lat="37.73074289215837" lon="15.113347029468722"><ele>793.0</ele><time>2026-04-19T14:07:47Z</time></trkpt><trkpt lat="37.73068651526879" lon="15.113259885211638"><ele>794.5999999999999</ele><time>2026-04-19T14:07:48Z</time></trkpt><trkpt lat="37.73064503072379" lon="15.113164160112099"><ele>796.1999999999999</ele><time>2026-04-19T14:07:49Z</time></trkpt><trkpt lat="37.73060135849417" lon="15.113054194738334"><ele>797.8</ele><time>2026-04-19T14:07:50Z</time></trkpt><trkpt lat="37.730560465580055" lon="15.112950512004414"><ele>799.4</ele><time>2026-04-19T14:07:51Z</time></trkpt><trkpt lat="37.7304742164616" lon="15.112870460934701"><ele>801.0</ele><time>2026-04-19T14:07:52Z</time></trkpt><trkpt lat="37.730343889893845" lon="15.112828234954979"><ele>798.0</ele><time>2026-04-19T14:07:53Z</time></trkpt><trkpt lat="37.73020330309619" lon="15.112822022927695"><ele>795.0</ele><time>2026-04-19T14:07:54Z</time></trkpt><trkpt lat="37.73006146492568" lon="15.112819548214771"><ele>792.0</ele><time>2026-04-19T14:07:55Z</time></trkpt><trkpt lat="37.72994281103353" lon="15.112806913933523"><ele>789.0</ele><time>2026-04-19T14:07:56Z</time></trkpt><trkpt lat="37.72983706993394" lon="15.112794891547926"><ele>789.0</ele><time>2026-04-19T14:07:57Z</time></trkpt><trkpt lat="37.72974391624291" lon="15.112784015467357"><ele>789.0</ele><time>2026-04-19T14:07:58Z</time></trkpt><trkpt lat="37.72965729912909" lon="15.112770705426668"><ele>789.0</ele><time>2026-04-19T14:07:59Z</time></trkpt><trkpt lat="37.729572912768425" lon="15.112758913404031"><ele>789.0</ele><time>2026-04-19T14:08:00Z</time></trkpt><trkpt lat="37.729487813911184" lon="15.112746560239973"><ele>789.0</ele><time>2026-04-19T14:08:01Z</time></trkpt><trkpt lat="37.72941398188975" lon="15.112741159069378"><ele>789.0</ele><time>2026-04-19T14:08:02Z</time></trkpt><trkpt lat="37.729347446123796" lon="15.112736120867394"><ele>789.1666666666666</ele><time>2026-04-19T14:08:03Z</time></trkpt><trkpt lat="37.72924206798503" lon="15.11272233954876"><ele>789.3333333333333</ele><time>2026-04-19T14:08:05Z</time></trkpt><trkpt lat="37.72915706231863" lon="15.112710689833833"><ele>789.5</ele><time>2026-04-19T14:08:07Z</time></trkpt><trkpt lat="37.72908353134654" lon="15.112699071574143"><ele>789.6666666666666</ele><time>2026-04-19T14:08:09Z</time></trkpt><trkpt lat="37.72901571267014" lon="15.112692009730331"><ele>789.8333333333333</ele><time>2026-04-19T14:08:11Z</time></trkpt><trkpt lat="37.7289191205162" lon="15.112682964303616"><ele>790.0</ele><time>2026-04-19T14:08:13Z</time></trkpt><trkpt lat="37.72882799582884" lon="15.112676203345183"><ele>789.9999999999999</ele><time>2026-04-19T14:08:15Z</time></trkpt><trkpt lat="37.728711732728485" lon="15.112655912888183"><ele>790.0</ele><time>2026-04-19T14:08:17Z</time></trkpt><trkpt lat="37.7286434760725" lon="15.112646389768475"><ele>790.0</ele><time>2026-04-19T14:08:18Z</time></trkpt><trkpt lat="37.72857431360572" lon="15.11263852704034"><ele>790.0</ele><time>2026-04-19T14:08:19Z</time></trkpt><trkpt lat="37.728504395302416" lon="15.11262863618673"><ele>789.9999999999999</ele><time>2026-04-19T14:08:20Z</time></trkpt><trkpt lat="37.72843433299028" lon="15.112625264255195"><ele>790.0</ele><time>2026-04-19T14:08:21Z</time></trkpt><trkpt lat="37.72836530616327" lon="15.112625210433338"><ele>789.6666666666666</ele><time>2026-04-19T14:08:22Z</time></trkpt><trkpt lat="37.728293610851374" lon="15.11262400159863"><ele>789.3333333333333</ele><time>2026-04-19T14:08:23Z</time></trkpt><trkpt lat="37.72821375884136" lon="15.112624665150397"><ele>789.0</ele><time>2026-04-19T14:08:24Z</time></trkpt><trkpt lat="37.728127615833465" lon="15.112629502668067"><ele>788.6666666666667</ele><time>2026-04-19T14:08:25Z</time></trkpt><trkpt lat="37.728034303538976" lon="15.112632855089698"><ele>788.3333333333334</ele><time>2026-04-19T14:08:26Z</time></trkpt><trkpt lat="37.72794168477922" lon="15.112636950671714"><ele>788.0</ele><time>2026-04-19T14:08:27Z</time></trkpt><trkpt lat="37.72785126815975" lon="15.112643683835831"><ele>788.0000000000001</ele><time>2026-04-19T14:08:28Z</time></trkpt><trkpt lat="37.727756134520526" lon="15.112656898251103"><ele>788.0</ele><time>2026-04-19T14:08:29Z</time></trkpt><trkpt lat="37.727669638341126" lon="15.112669905513007"><ele>788.0</ele><time>2026-04-19T14:08:30Z</time></trkpt><trkpt lat="37.727592262503435" lon="15.112688488683004"><ele>788.0</ele><time>2026-04-19T14:08:31Z</time></trkpt><trkpt lat="37.727521904235985" lon="15.11270626924267"><ele>788.0000000000001</ele><time>2026-04-19T14:08:32Z</time></trkpt><trkpt lat="37.72745760781447" lon="15.112722626506127"><ele>788.0</ele><time>2026-04-19T14:08:33Z</time></trkpt><trkpt lat="37.72739354423546" lon="15.112737308018264"><ele>786.8571428571429</ele><time>2026-04-19T14:08:34Z</time></trkpt><trkpt lat="37.72732934322805" lon="15.112752096220763"><ele>785.7142857142858</ele><time>2026-04-19T14:08:35Z</time></trkpt><trkpt lat="37.72726437750985" lon="15.112758938073537"><ele>784.5714285714286</ele><time>2026-04-19T14:08:36Z</time></trkpt><trkpt lat="37.72719537037782" lon="15.112761527496104"><ele>783.4285714285714</ele><time>2026-04-19T14:08:37Z</time></trkpt><trkpt lat="37.72712519967334" lon="15.112782707960779"><ele>782.2857142857142</ele><time>2026-04-19T14:08:38Z</time></trkpt><trkpt lat="37.7270534751399" lon="15.112823688111838"><ele>781.1428571428571</ele><time>2026-04-19T14:08:39Z</time></trkpt><trkpt lat="37.72698576735678" lon="15.112883109580043"><ele>780.0</ele><time>2026-04-19T14:08:40Z</time></trkpt><trkpt lat="37.72690446994471" lon="15.112932143640073"><ele>778.8</ele><time>2026-04-19T14:08:41Z</time></trkpt><trkpt lat="37.72682088013782" lon="15.112951097857698"><ele>777.6</ele><time>2026-04-19T14:08:42Z</time></trkpt><trkpt lat="37.72672101067877" lon="15.112941710332521"><ele>776.4000000000001</ele><time>2026-04-19T14:08:43Z</time></trkpt><trkpt lat="37.72662130159903" lon="15.11292318844757"><ele>775.2</ele><time>2026-04-19T14:08:44Z</time></trkpt><trkpt lat="37.72652819747666" lon="15.11291005462799"><ele>774.0</ele><time>2026-04-19T14:08:45Z</time></trkpt><trkpt lat="37.72643255956108" lon="15.112944015083313"><ele>774.0</ele><time>2026-04-19T14:08:46Z</time></trkpt><trkpt lat="37.726339881109475" lon="15.11298383894413"><ele>774.0</ele><time>2026-04-19T14:08:47Z</time></trkpt><trkpt lat="37.7262474257186" lon="15.11301458176501"><ele>774.0</ele><time>2026-04-19T14:08:48Z</time></trkpt><trkpt lat="37.726178971958625" lon="15.113064387749388"><ele>774.0</ele><time>2026-04-19T14:08:49Z</time></trkpt><trkpt lat="37.72610728801411" lon="15.113137542037158"><ele>774.0</ele><time>2026-04-19T14:08:51Z</time></trkpt><trkpt lat="37.72603788642757" lon="15.113195268735257"><ele>774.0</ele><time>2026-04-19T14:08:53Z</time></trkpt><trkpt lat="37.725945564898865" lon="15.113194912988263"><ele>772.8333333333334</ele><time>2026-04-19T14:08:54Z</time></trkpt><trkpt lat="37.725864984567224" lon="15.113235571721921"><ele>771.6666666666666</ele><time>2026-04-19T14:08:55Z</time></trkpt><trkpt lat="37.725780165613" lon="15.113281302921935"><ele>770.5</ele><time>2026-04-19T14:08:56Z</time></trkpt><trkpt lat="37.725703326829894" lon="15.113332025714831"><ele>769.3333333333333</ele><time>2026-04-19T14:08:57Z</time></trkpt><trkpt lat="37.72564783191339" lon="15.113408954135554"><ele>768.1666666666666</ele><time>2026-04-19T14:08:58Z</time></trkpt><trkpt lat="37.725604132730425" lon="15.113502808622565"><ele>767.0</ele><time>2026-04-19T14:08:59Z</time></trkpt><trkpt lat="37.72558180764418" lon="15.113586288709529"><ele>766.8</ele><time>2026-04-19T14:09:00Z</time></trkpt><trkpt lat="37.72551676714776" lon="15.113697381116445"><ele>766.6</ele><time>2026-04-19T14:09:02Z</time></trkpt><trkpt lat="37.725468036681576" lon="15.113777678547045"><ele>766.4</ele><time>2026-04-19T14:09:04Z</time></trkpt><trkpt lat="37.72534619997332" lon="15.113768341710687"><ele>766.1999999999999</ele><time>2026-04-19T14:09:08Z</time></trkpt><trkpt lat="37.725243989365524" lon="15.113700417448392"><ele>766.0</ele><time>2026-04-19T14:09:10Z</time></trkpt><trkpt lat="37.725152073025555" lon="15.11360911036943"><ele>766.0</ele><time>2026-04-19T14:09:12Z</time></trkpt><trkpt lat="37.72508555678215" lon="15.113482693133916"><ele>766.0</ele><time>2026-04-19T14:09:14Z</time></trkpt><trkpt lat="37.725052089076435" lon="15.113413288510872"><ele>766.0</ele><time>2026-04-19T14:09:15Z</time></trkpt><trkpt lat="37.725022100894556" lon="15.113338936071539"><ele>766.0</ele><time>2026-04-19T14:09:16Z</time></trkpt><trkpt lat="37.724997321500936" lon="15.113262210637217"><ele>766.0</ele><time>2026-04-19T14:09:17Z</time></trkpt><trkpt lat="37.72497307261719" lon="15.113182403706475"><ele>766.0</ele><time>2026-04-19T14:09:18Z</time></trkpt><trkpt lat="37.72494728899259" lon="15.113104145810466"><ele>767.3333333333334</ele><time>2026-04-19T14:09:19Z</time></trkpt><trkpt lat="37.72492007994019" lon="15.113025334280088"><ele>768.6666666666667</ele><time>2026-04-19T14:09:20Z</time></trkpt><trkpt lat="37.724885586734416" lon="15.112944548248178"><ele>770.0</ele><time>2026-04-19T14:09:21Z</time></trkpt><trkpt lat="37.7248473442571" lon="15.112848994941418"><ele>771.3333333333334</ele><time>2026-04-19T14:09:22Z</time></trkpt><trkpt lat="37.72480811247347" lon="15.112758739651792"><ele>772.6666666666666</ele><time>2026-04-19T14:09:23Z</time></trkpt><trkpt lat="37.72476889713309" lon="15.112682683574922"><ele>774.0</ele><time>2026-04-19T14:09:24Z</time></trkpt><trkpt lat="37.72472755533856" lon="15.112609212338826"><ele>774.0</ele><time>2026-04-19T14:09:25Z</time></trkpt><trkpt lat="37.724673953168676" lon="15.112535736367036"><ele>774.0</ele><time>2026-04-19T14:09:26Z</time></trkpt><trkpt lat="37.724582962934" lon="15.11250698882905"><ele>774.0</ele><time>2026-04-19T14:09:27Z</time></trkpt><trkpt lat="37.724476693654694" lon="15.112486270760527"><ele>774.0</ele><time>2026-04-19T14:09:28Z</time></trkpt><trkpt lat="37.72436742125898" lon="15.11245743998395"><ele>774.0</ele><time>2026-04-19T14:09:29Z</time></trkpt><trkpt lat="37.72425846833456" lon="15.112447438516758"><ele>774.25</ele><time>2026-04-19T14:09:30Z</time></trkpt><trkpt lat="37.72415064589011" lon="15.112407534411236"><ele>774.5</ele><time>2026-04-19T14:09:31Z</time></trkpt><trkpt lat="37.724025616144644" lon="15.112376314004027"><ele>774.75</ele><time>2026-04-19T14:09:32Z</time></trkpt><trkpt lat="37.72388888730443" lon="15.11234049097605"><ele>775.0</ele><time>2026-04-19T14:09:33Z</time></trkpt><trkpt lat="37.72374938043431" lon="15.112294582163981"><ele>776.0</ele><time>2026-04-19T14:09:34Z</time></trkpt><trkpt lat="37.72362264956981" lon="15.112243632532854"><ele>777.0</ele><time>2026-04-19T14:09:35Z</time></trkpt><trkpt lat="37.723503234062605" lon="15.112175391746272"><ele>778.0</ele><time>2026-04-19T14:09:36Z</time></trkpt><trkpt lat="37.723394957416104" lon="15.112091096954057"><ele>779.0</ele><time>2026-04-19T14:09:37Z</time></trkpt><trkpt lat="37.72328367202348" lon="15.111974666607907"><ele>779.0</ele><time>2026-04-19T14:09:38Z</time></trkpt><trkpt lat="37.72316424876994" lon="15.111849171473535"><ele>779.0</ele><time>2026-04-19T14:09:39Z</time></trkpt><trkpt lat="37.72304236167226" lon="15.111716566954106"><ele>779.0</ele><time>2026-04-19T14:09:40Z</time></trkpt><trkpt lat="37.72291680977851" lon="15.111587198518583"><ele>779.5</ele><time>2026-04-19T14:09:41Z</time></trkpt><trkpt lat="37.722788390862085" lon="15.111461576236568"><ele>780.0</ele><time>2026-04-19T14:09:42Z</time></trkpt><trkpt lat="37.722678584772574" lon="15.11135131518315"><ele>780.5</ele><time>2026-04-19T14:09:43Z</time></trkpt><trkpt lat="37.722575742421434" lon="15.111245314913297"><ele>781.0</ele><time>2026-04-19T14:09:44Z</time></trkpt><trkpt lat="37.72248888618748" lon="15.11114651179168"><ele>781.0</ele><time>2026-04-19T14:09:45Z</time></trkpt><trkpt lat="37.72242393765502" lon="15.111024967076348"><ele>781.0</ele><time>2026-04-19T14:09:46Z</time></trkpt><trkpt lat="37.722381955075655" lon="15.110873821513811"><ele>781.0</ele><time>2026-04-19T14:09:47Z</time></trkpt><trkpt lat="37.72233208602161" lon="15.110726076181482"><ele>781.0</ele><time>2026-04-19T14:09:48Z</time></trkpt><trkpt lat="37.72223348436393" lon="15.11061485089582"><ele>781.75</ele><time>2026-04-19T14:09:49Z</time></trkpt><trkpt lat="37.722114173360815" lon="15.11052795661596"><ele>782.5</ele><time>2026-04-19T14:09:50Z</time></trkpt><trkpt lat="37.721999269886794" lon="15.110422175233014"><ele>783.25</ele><time>2026-04-19T14:09:51Z</time></trkpt><trkpt lat="37.72189675217398" lon="15.110289938623826"><ele>784.0</ele><time>2026-04-19T14:09:52Z</time></trkpt><trkpt lat="37.72181380906992" lon="15.110136994422067"><ele>784.75</ele><time>2026-04-19T14:09:53Z</time></trkpt><trkpt lat="37.721758724673926" lon="15.10997779220077"><ele>785.5</ele><time>2026-04-19T14:09:54Z</time></trkpt><trkpt lat="37.7217012228683" lon="15.109829489883227"><ele>786.25</ele><time>2026-04-19T14:09:55Z</time></trkpt><trkpt lat="37.72161990397751" lon="15.109725881155676"><ele>787.0</ele><time>2026-04-19T14:09:56Z</time></trkpt><trkpt lat="37.72152698775192" lon="15.109641639192853"><ele>787.0</ele><time>2026-04-19T14:09:57Z</time></trkpt><trkpt lat="37.72143480183868" lon="15.10957837077035"><ele>787.0</ele><time>2026-04-19T14:09:58Z</time></trkpt><trkpt lat="37.72136879147369" lon="15.109508755080416"><ele>787.0</ele><time>2026-04-19T14:09:59Z</time></trkpt><trkpt lat="37.721305992342295" lon="15.109452265351512"><ele>787.0</ele><time>2026-04-19T14:10:00Z</time></trkpt><trkpt lat="37.72117695489151" lon="15.109505363563608"><ele>787.0</ele><time>2026-04-19T14:10:01Z</time></trkpt><trkpt lat="37.721079298660186" lon="15.109475190973113"><ele>786.75</ele><time>2026-04-19T14:10:02Z</time></trkpt><trkpt lat="37.72098055308896" lon="15.109423954015577"><ele>786.5</ele><time>2026-04-19T14:10:03Z</time></trkpt><trkpt lat="37.72087193717324" lon="15.109352499462112"><ele>786.25</ele><time>2026-04-19T14:10:04Z</time></trkpt><trkpt lat="37.72073391786897" lon="15.109359155449994"><ele>786.0</ele><time>2026-04-19T14:10:05Z</time></trkpt><trkpt lat="37.720599680179276" lon="15.109396288877933"><ele>786.0</ele><time>2026-04-19T14:10:06Z</time></trkpt><trkpt lat="37.72047165153801" lon="15.109476745826447"><ele>786.0</ele><time>2026-04-19T14:10:07Z</time></trkpt><trkpt lat="37.720354912101826" lon="15.10955278855313"><ele>786.0</ele><time>2026-04-19T14:10:08Z</time></trkpt><trkpt lat="37.72025898206476" lon="15.109631239312804"><ele>786.0</ele><time>2026-04-19T14:10:09Z</time></trkpt><trkpt lat="37.7201823354775" lon="15.109762651636307"><ele>784.25</ele><time>2026-04-19T14:10:10Z</time></trkpt><trkpt lat="37.720117981418426" lon="15.109934041676174"><ele>782.5</ele><time>2026-04-19T14:10:11Z</time></trkpt><trkpt lat="37.720047111262005" lon="15.110113242183889"><ele>780.75</ele><time>2026-04-19T14:10:12Z</time></trkpt><trkpt lat="37.719969832928896" lon="15.110258707234632"><ele>779.0</ele><time>2026-04-19T14:10:13Z</time></trkpt><trkpt lat="37.71991951484684" lon="15.110337824308566"><ele>779.0</ele><time>2026-04-19T14:10:14Z</time></trkpt><trkpt lat="37.71984333708023" lon="15.110383177992215"><ele>779.0</ele><time>2026-04-19T14:10:16Z</time></trkpt><trkpt lat="37.71976079236281" lon="15.110314482113173"><ele>779.0</ele><time>2026-04-19T14:10:17Z</time></trkpt><trkpt lat="37.71967273087341" lon="15.110270882498021"><ele>779.0</ele><time>2026-04-19T14:10:18Z</time></trkpt><trkpt lat="37.71957184584663" lon="15.110249450174967"><ele>779.0</ele><time>2026-04-19T14:10:19Z</time></trkpt><trkpt lat="37.719425219645196" lon="15.11021473510945"><ele>778.25</ele><time>2026-04-19T14:10:20Z</time></trkpt><trkpt lat="37.71932213553174" lon="15.110152617713174"><ele>777.5</ele><time>2026-04-19T14:10:21Z</time></trkpt><trkpt lat="37.7192177532275" lon="15.110090123351815"><ele>776.75</ele><time>2026-04-19T14:10:22Z</time></trkpt><trkpt lat="37.71910703905632" lon="15.110051818575547"><ele>776.0</ele><time>2026-04-19T14:10:23Z</time></trkpt><trkpt lat="37.718971712537716" lon="15.110056676919893"><ele>776.0</ele><time>2026-04-19T14:10:24Z</time></trkpt><trkpt lat="37.718826716811485" lon="15.110079492093348"><ele>776.0</ele><time>2026-04-19T14:10:25Z</time></trkpt><trkpt lat="37.71865831563872" lon="15.11009464229044"><ele>776.0</ele><time>2026-04-19T14:10:26Z</time></trkpt><trkpt lat="37.71848523832654" lon="15.110102417445141"><ele>776.75</ele><time>2026-04-19T14:10:27Z</time></trkpt><trkpt lat="37.71833053552117" lon="15.110108288617496"><ele>777.5</ele><time>2026-04-19T14:10:28Z</time></trkpt><trkpt lat="37.71819220421627" lon="15.110119947679445"><ele>778.25</ele><time>2026-04-19T14:10:29Z</time></trkpt><trkpt lat="37.71805125991847" lon="15.110135572613231"><ele>779.0</ele><time>2026-04-19T14:10:30Z</time></trkpt><trkpt lat="37.71793333890537" lon="15.110159599933876"><ele>779.0</ele><time>2026-04-19T14:10:31Z</time></trkpt><trkpt lat="37.71780912106237" lon="15.110184135339422"><ele>779.0</ele><time>2026-04-19T14:10:32Z</time></trkpt><trkpt lat="37.71770543572351" lon="15.11021440668853"><ele>779.0</ele><time>2026-04-19T14:10:33Z</time></trkpt><trkpt lat="37.71761457527427" lon="15.110244088833365"><ele>779.0</ele><time>2026-04-19T14:10:34Z</time></trkpt><trkpt lat="37.71754055488489" lon="15.110279131661015"><ele>779.0</ele><time>2026-04-19T14:10:35Z</time></trkpt><trkpt lat="37.71744551843509" lon="15.110314056783963"><ele>779.5000000000001</ele><time>2026-04-19T14:10:36Z</time></trkpt><trkpt lat="37.71736858101919" lon="15.110330990094624"><ele>780.0</ele><time>2026-04-19T14:10:37Z</time></trkpt><trkpt lat="37.71726729805611" lon="15.110362496431335"><ele>780.5</ele><time>2026-04-19T14:10:38Z</time></trkpt><trkpt lat="37.717176046740505" lon="15.110377076426106"><ele>781.0</ele><time>2026-04-19T14:10:39Z</time></trkpt><trkpt lat="37.71710948335674" lon="15.1103421617309"><ele>781.5000000000001</ele><time>2026-04-19T14:10:40Z</time></trkpt><trkpt lat="37.71702802085387" lon="15.110332446769823"><ele>782.0</ele><time>2026-04-19T14:10:41Z</time></trkpt><trkpt lat="37.71693889610277" lon="15.110302878499699"><ele>779.0</ele><time>2026-04-19T14:10:42Z</time></trkpt><trkpt lat="37.71684039629263" lon="15.110281686291119"><ele>776.0</ele><time>2026-04-19T14:10:43Z</time></trkpt><trkpt lat="37.71673750800906" lon="15.110258903594028"><ele>773.0</ele><time>2026-04-19T14:10:44Z</time></trkpt><trkpt lat="37.716635435703" lon="15.110231842367174"><ele>770.0</ele><time>2026-04-19T14:10:45Z</time></trkpt><trkpt lat="37.716532759803734" lon="15.110184589628368"><ele>767.0</ele><time>2026-04-19T14:10:46Z</time></trkpt><trkpt lat="37.71644250903243" lon="15.110138112235138"><ele>767.0</ele><time>2026-04-19T14:10:47Z</time></trkpt><trkpt lat="37.716326623379565" lon="15.11007114580596"><ele>767.0</ele><time>2026-04-19T14:10:48Z</time></trkpt><trkpt lat="37.716219518870126" lon="15.11001712882433"><ele>767.0</ele><time>2026-04-19T14:10:49Z</time></trkpt><trkpt lat="37.71611750392315" lon="15.109963999573042"><ele>767.0</ele><time>2026-04-19T14:10:50Z</time></trkpt><trkpt lat="37.71601192602246" lon="15.10990237253912"><ele>766.5</ele><time>2026-04-19T14:10:51Z</time></trkpt><trkpt lat="37.71589892711011" lon="15.1098242258408"><ele>766.0</ele><time>2026-04-19T14:10:52Z</time></trkpt><trkpt lat="37.71578830143795" lon="15.109753643608144"><ele>765.5</ele><time>2026-04-19T14:10:53Z</time></trkpt><trkpt lat="37.715679709837794" lon="15.109682778628015"><ele>765.0</ele><time>2026-04-19T14:10:54Z</time></trkpt><trkpt lat="37.71557746074222" lon="15.109614075051383"><ele>765.0</ele><time>2026-04-19T14:10:55Z</time></trkpt><trkpt lat="37.715475994216675" lon="15.109552300998887"><ele>765.0</ele><time>2026-04-19T14:10:56Z</time></trkpt><trkpt lat="37.71538624780467" lon="15.109490141491088"><ele>765.0</ele><time>2026-04-19T14:10:57Z</time></trkpt><trkpt lat="37.71529636637999" lon="15.109420451748912"><ele>765.0</ele><time>2026-04-19T14:10:58Z</time></trkpt><trkpt lat="37.71519850688365" lon="15.109347981460079"><ele>765.0</ele><time>2026-04-19T14:10:59Z</time></trkpt><trkpt lat="37.71509408354408" lon="15.10927692266353"><ele>764.75</ele><time>2026-04-19T14:11:00Z</time></trkpt><trkpt lat="37.71497379171781" lon="15.109210886114116"><ele>764.5</ele><time>2026-04-19T14:11:01Z</time></trkpt><trkpt lat="37.71484060964064" lon="15.109159729049432"><ele>764.25</ele><time>2026-04-19T14:11:02Z</time></trkpt><trkpt lat="37.714702490198576" lon="15.10912756390941"><ele>764.0</ele><time>2026-04-19T14:11:03Z</time></trkpt><trkpt lat="37.714561345374186" lon="15.109087611240632"><ele>762.25</ele><time>2026-04-19T14:11:04Z</time></trkpt><trkpt lat="37.71441998885664" lon="15.109041873996896"><ele>760.5</ele><time>2026-04-19T14:11:05Z</time></trkpt><trkpt lat="37.714295107879266" lon="15.10899989958266"><ele>758.75</ele><time>2026-04-19T14:11:06Z</time></trkpt><trkpt lat="37.71416914781189" lon="15.108962284097046"><ele>757.0</ele><time>2026-04-19T14:11:07Z</time></trkpt><trkpt lat="37.71405156750102" lon="15.108912108530971"><ele>757.0</ele><time>2026-04-19T14:11:08Z</time></trkpt><trkpt lat="37.7139413374281" lon="15.108876412290742"><ele>757.0</ele><time>2026-04-19T14:11:09Z</time></trkpt><trkpt lat="37.713822592554585" lon="15.108853801873561"><ele>757.0</ele><time>2026-04-19T14:11:10Z</time></trkpt><trkpt lat="37.71370312734965" lon="15.108851804107065"><ele>757.0</ele><time>2026-04-19T14:11:11Z</time></trkpt><trkpt lat="37.71359091748865" lon="15.108848660605556"><ele>753.4000000000001</ele><time>2026-04-19T14:11:12Z</time></trkpt><trkpt lat="37.71348374545368" lon="15.108828761639005"><ele>749.8000000000001</ele><time>2026-04-19T14:11:13Z</time></trkpt><trkpt lat="37.71338526095338" lon="15.108785462543363"><ele>746.2</ele><time>2026-04-19T14:11:14Z</time></trkpt><trkpt lat="37.71331217610295" lon="15.108721160204366"><ele>742.6</ele><time>2026-04-19T14:11:15Z</time></trkpt><trkpt lat="37.71326267655471" lon="15.108620733696226"><ele>739.0</ele><time>2026-04-19T14:11:16Z</time></trkpt><trkpt lat="37.71323537354904" lon="15.108482062064702"><ele>739.0</ele><time>2026-04-19T14:11:17Z</time></trkpt><trkpt lat="37.71319000748323" lon="15.108332806738543"><ele>739.0</ele><time>2026-04-19T14:11:18Z</time></trkpt><trkpt lat="37.71314607566113" lon="15.108206378839071"><ele>739.0</ele><time>2026-04-19T14:11:19Z</time></trkpt><trkpt lat="37.713090959974394" lon="15.108099356025825"><ele>739.0</ele><time>2026-04-19T14:11:20Z</time></trkpt><trkpt lat="37.71302275039378" lon="15.107994512548933"><ele>739.0</ele><time>2026-04-19T14:11:21Z</time></trkpt><trkpt lat="37.71292616180679" lon="15.107891240446765"><ele>738.0</ele><time>2026-04-19T14:11:22Z</time></trkpt><trkpt lat="37.71281889215211" lon="15.107779614527747"><ele>737.0</ele><time>2026-04-19T14:11:23Z</time></trkpt><trkpt lat="37.71271504315112" lon="15.10766454121004"><ele>736.0</ele><time>2026-04-19T14:11:24Z</time></trkpt><trkpt lat="37.712598241631994" lon="15.107567340757816"><ele>735.0</ele><time>2026-04-19T14:11:25Z</time></trkpt><trkpt lat="37.712463959563486" lon="15.107490405633826"><ele>735.0</ele><time>2026-04-19T14:11:26Z</time></trkpt><trkpt lat="37.71231581270398" lon="15.10742130136353"><ele>735.0</ele><time>2026-04-19T14:11:27Z</time></trkpt><trkpt lat="37.712158672278534" lon="15.107356312681805"><ele>735.0</ele><time>2026-04-19T14:11:28Z</time></trkpt><trkpt lat="37.71198851581757" lon="15.107291206674951"><ele>734.3333333333334</ele><time>2026-04-19T14:11:29Z</time></trkpt><trkpt lat="37.71180539571349" lon="15.107228527723995"><ele>733.6666666666667</ele><time>2026-04-19T14:11:30Z</time></trkpt><trkpt lat="37.71161783953239" lon="15.107176260428046"><ele>733.0</ele><time>2026-04-19T14:11:31Z</time></trkpt><trkpt lat="37.71144567076416" lon="15.107134128188699"><ele>733.0</ele><time>2026-04-19T14:11:32Z</time></trkpt><trkpt lat="37.71129228781614" lon="15.10711513362852"><ele>733.0</ele><time>2026-04-19T14:11:33Z</time></trkpt><trkpt lat="37.71115319292213" lon="15.1071150572441"><ele>733.0</ele><time>2026-04-19T14:11:34Z</time></trkpt><trkpt lat="37.71103098650371" lon="15.107111642970741"><ele>733.0</ele><time>2026-04-19T14:11:35Z</time></trkpt><trkpt lat="37.71093403168431" lon="15.107034789313436"><ele>732.0</ele><time>2026-04-19T14:11:36Z</time></trkpt><trkpt lat="37.710834994848035" lon="15.106927813755561"><ele>731.0</ele><time>2026-04-19T14:11:37Z</time></trkpt><trkpt lat="37.710730271506065" lon="15.106802364985006"><ele>730.0</ele><time>2026-04-19T14:11:38Z</time></trkpt><trkpt lat="37.710618312587734" lon="15.10666392200169"><ele>729.0</ele><time>2026-04-19T14:11:39Z</time></trkpt><trkpt lat="37.7105059481008" lon="15.106532122946078"><ele>730.5</ele><time>2026-04-19T14:11:40Z</time></trkpt><trkpt lat="37.71040478660196" lon="15.106422055693406"><ele>732.0</ele><time>2026-04-19T14:11:41Z</time></trkpt><trkpt lat="37.71029752238854" lon="15.106342757432138"><ele>733.5</ele><time>2026-04-19T14:11:42Z</time></trkpt><trkpt lat="37.71017446062264" lon="15.106298329860318"><ele>735.0</ele><time>2026-04-19T14:11:43Z</time></trkpt><trkpt lat="37.71004907911478" lon="15.106282956608505"><ele>735.0</ele><time>2026-04-19T14:11:44Z</time></trkpt><trkpt lat="37.7099281821485" lon="15.106295147694189"><ele>735.0</ele><time>2026-04-19T14:11:45Z</time></trkpt><trkpt lat="37.709824634551985" lon="15.106335387203432"><ele>735.0</ele><time>2026-04-19T14:11:46Z</time></trkpt><trkpt lat="37.70973775651171" lon="15.106415535669791"><ele>735.0</ele><time>2026-04-19T14:11:47Z</time></trkpt><trkpt lat="37.709658318769655" lon="15.106535409198525"><ele>732.6</ele><time>2026-04-19T14:11:48Z</time></trkpt><trkpt lat="37.709590227989764" lon="15.10665466208827"><ele>730.2</ele><time>2026-04-19T14:11:49Z</time></trkpt><trkpt lat="37.709536666831674" lon="15.106757332239075"><ele>727.8</ele><time>2026-04-19T14:11:50Z</time></trkpt><trkpt lat="37.70946985498321" lon="15.106819292364884"><ele>725.4</ele><time>2026-04-19T14:11:51Z</time></trkpt><trkpt lat="37.70939151813528" lon="15.106835978985748"><ele>723.0</ele><time>2026-04-19T14:11:52Z</time></trkpt><trkpt lat="37.709316724830586" lon="15.10681370877037"><ele>721.1666666666666</ele><time>2026-04-19T14:11:53Z</time></trkpt><trkpt lat="37.70924901117355" lon="15.10677993726898"><ele>719.3333333333334</ele><time>2026-04-19T14:11:54Z</time></trkpt><trkpt lat="37.70917885406936" lon="15.106739689209586"><ele>717.5</ele><time>2026-04-19T14:11:55Z</time></trkpt><trkpt lat="37.709103003187614" lon="15.106710278392661"><ele>715.6666666666667</ele><time>2026-04-19T14:11:56Z</time></trkpt><trkpt lat="37.70901580281034" lon="15.106689676614783"><ele>713.8333333333334</ele><time>2026-04-19T14:11:57Z</time></trkpt><trkpt lat="37.708932239386336" lon="15.106686417730492"><ele>712.0</ele><time>2026-04-19T14:11:58Z</time></trkpt><trkpt lat="37.708861109301516" lon="15.106686748375012"><ele>712.0</ele><time>2026-04-19T14:11:59Z</time></trkpt><trkpt lat="37.70874857427706" lon="15.106682102882687"><ele>712.0</ele><time>2026-04-19T14:12:01Z</time></trkpt><trkpt lat="37.7086454288209" lon="15.1066831925641"><ele>712.0</ele><time>2026-04-19T14:12:03Z</time></trkpt><trkpt lat="37.708573680050385" lon="15.106686791067633"><ele>712.0</ele><time>2026-04-19T14:12:05Z</time></trkpt><trkpt lat="37.708478350935025" lon="15.106682386226739"><ele>712.0</ele><time>2026-04-19T14:12:07Z</time></trkpt><trkpt lat="37.70835922543216" lon="15.106640628632665"><ele>710.6</ele><time>2026-04-19T14:12:09Z</time></trkpt><trkpt lat="37.70827948022313" lon="15.106596421681427"><ele>709.2</ele><time>2026-04-19T14:12:10Z</time></trkpt><trkpt lat="37.708197726230274" lon="15.106543578171484"><ele>707.8</ele><time>2026-04-19T14:12:11Z</time></trkpt><trkpt lat="37.70811154245751" lon="15.106492995511008"><ele>706.4</ele><time>2026-04-19T14:12:12Z</time></trkpt><trkpt lat="37.70802241625773" lon="15.106460589251645"><ele>705.0</ele><time>2026-04-19T14:12:13Z</time></trkpt><trkpt lat="37.70791725936885" lon="15.106456045601345"><ele>705.0</ele><time>2026-04-19T14:12:14Z</time></trkpt><trkpt lat="37.7078064679039" lon="15.106451320009857"><ele>705.0</ele><time>2026-04-19T14:12:15Z</time></trkpt><trkpt lat="37.70768812995067" lon="15.10642410191424"><ele>705.0</ele><time>2026-04-19T14:12:16Z</time></trkpt><trkpt lat="37.707557626626325" lon="15.106397923105684"><ele>705.0</ele><time>2026-04-19T14:12:17Z</time></trkpt><trkpt lat="37.70743153113794" lon="15.106356143757218"><ele>702.75</ele><time>2026-04-19T14:12:18Z</time></trkpt><trkpt lat="37.70731180854214" lon="15.106283010132048"><ele>700.5</ele><time>2026-04-19T14:12:19Z</time></trkpt><trkpt lat="37.707207025282194" lon="15.106197228572377"><ele>698.25</ele><time>2026-04-19T14:12:20Z</time></trkpt><trkpt lat="37.70708964639715" lon="15.106115935376968"><ele>696.0</ele><time>2026-04-19T14:12:21Z</time></trkpt><trkpt lat="37.70694964077088" lon="15.106048319242042"><ele>693.6666666666666</ele><time>2026-04-19T14:12:22Z</time></trkpt><trkpt lat="37.70680158383267" lon="15.105985788163187"><ele>691.3333333333333</ele><time>2026-04-19T14:12:23Z</time></trkpt><trkpt lat="37.70664724939181" lon="15.105936258310695"><ele>689.0</ele><time>2026-04-19T14:12:24Z</time></trkpt><trkpt lat="37.70648754871028" lon="15.10589641800576"><ele>689.0</ele><time>2026-04-19T14:12:25Z</time></trkpt><trkpt lat="37.706341498666156" lon="15.105861879770107"><ele>689.0</ele><time>2026-04-19T14:12:26Z</time></trkpt><trkpt lat="37.706205054093644" lon="15.105834161595295"><ele>689.0</ele><time>2026-04-19T14:12:27Z</time></trkpt><trkpt lat="37.706072928571466" lon="15.105808355649465"><ele>689.0</ele><time>2026-04-19T14:12:28Z</time></trkpt><trkpt lat="37.70594599956023" lon="15.10578546510248"><ele>689.4000000000001</ele><time>2026-04-19T14:12:29Z</time></trkpt><trkpt lat="37.705831404494006" lon="15.105761396653413"><ele>689.8</ele><time>2026-04-19T14:12:30Z</time></trkpt><trkpt lat="37.70572619491141" lon="15.10573650394699"><ele>690.2</ele><time>2026-04-19T14:12:31Z</time></trkpt><trkpt lat="37.70562923609888" lon="15.105723307160005"><ele>690.5999999999999</ele><time>2026-04-19T14:12:32Z</time></trkpt><trkpt lat="37.705540339620896" lon="15.105740969883495"><ele>691.0</ele><time>2026-04-19T14:12:33Z</time></trkpt><trkpt lat="37.70545358482673" lon="15.105790997218927"><ele>688.5</ele><time>2026-04-19T14:12:34Z</time></trkpt><trkpt lat="37.70537499258408" lon="15.105877790897328"><ele>686.0</ele><time>2026-04-19T14:12:35Z</time></trkpt><trkpt lat="37.705287677087135" lon="15.105963511893858"><ele>683.5</ele><time>2026-04-19T14:12:36Z</time></trkpt><trkpt lat="37.70518970355455" lon="15.106064673979086"><ele>681.0</ele><time>2026-04-19T14:12:37Z</time></trkpt><trkpt lat="37.70507360630232" lon="15.10617379610045"><ele>680.0</ele><time>2026-04-19T14:12:38Z</time></trkpt><trkpt lat="37.704957613001945" lon="15.10628820588682"><ele>679.0</ele><time>2026-04-19T14:12:39Z</time></trkpt><trkpt lat="37.704848217845566" lon="15.106396345188665"><ele>678.0</ele><time>2026-04-19T14:12:40Z</time></trkpt><trkpt lat="37.70474861673378" lon="15.106490043360187"><ele>677.0</ele><time>2026-04-19T14:12:41Z</time></trkpt><trkpt lat="37.704654823819304" lon="15.106570058312583"><ele>674.4000000000001</ele><time>2026-04-19T14:12:42Z</time></trkpt><trkpt lat="37.70456203185124" lon="15.106621577636641"><ele>671.8000000000001</ele><time>2026-04-19T14:12:43Z</time></trkpt><trkpt lat="37.704457966438895" lon="15.106625356921343"><ele>669.2</ele><time>2026-04-19T14:12:44Z</time></trkpt><trkpt lat="37.70435498781286" lon="15.106561647564748"><ele>666.6</ele><time>2026-04-19T14:12:45Z</time></trkpt><trkpt lat="37.70424350478133" lon="15.106522047915247"><ele>664.0</ele><time>2026-04-19T14:12:46Z</time></trkpt><trkpt lat="37.70416495894487" lon="15.10648375964506"><ele>663.8333333333334</ele><time>2026-04-19T14:12:47Z</time></trkpt><trkpt lat="37.70410552759464" lon="15.106456667232878"><ele>663.6666666666667</ele><time>2026-04-19T14:12:49Z</time></trkpt><trkpt lat="37.70403871494825" lon="15.106379252069397"><ele>663.5</ele><time>2026-04-19T14:12:52Z</time></trkpt><trkpt lat="37.704014242031626" lon="15.106279665677445"><ele>663.3333333333334</ele><time>2026-04-19T14:12:54Z</time></trkpt><trkpt lat="37.70402895391796" lon="15.10611789154828"><ele>663.1666666666666</ele><time>2026-04-19T14:12:56Z</time></trkpt><trkpt lat="37.70403726153645" lon="15.106020095814689"><ele>663.0</ele><time>2026-04-19T14:12:57Z</time></trkpt><trkpt lat="37.70404803727366" lon="15.105924424975552"><ele>663.0</ele><time>2026-04-19T14:12:58Z</time></trkpt><trkpt lat="37.70405341155455" lon="15.105834249708243"><ele>663.0</ele><time>2026-04-19T14:12:59Z</time></trkpt><trkpt lat="37.704000548632905" lon="15.105707053354681"><ele>663.0</ele><time>2026-04-19T14:13:01Z</time></trkpt><trkpt lat="37.703936485580286" lon="15.105658522581162"><ele>663.0</ele><time>2026-04-19T14:13:02Z</time></trkpt><trkpt lat="37.70386381620062" lon="15.105643315006159"><ele>663.0</ele><time>2026-04-19T14:13:03Z</time></trkpt><trkpt lat="37.70379703837566" lon="15.105639621125228"><ele>663.0</ele><time>2026-04-19T14:13:04Z</time></trkpt><trkpt lat="37.70372929691997" lon="15.10563259057128"><ele>663.0</ele><time>2026-04-19T14:13:05Z</time></trkpt><trkpt lat="37.7036604892552" lon="15.10562340896861"><ele>663.0</ele><time>2026-04-19T14:13:06Z</time></trkpt><trkpt lat="37.703592850801215" lon="15.105604853934828"><ele>663.0</ele><time>2026-04-19T14:13:07Z</time></trkpt><trkpt lat="37.7035265349238" lon="15.105558126367564"><ele>663.0</ele><time>2026-04-19T14:13:08Z</time></trkpt><trkpt lat="37.7034687570326" lon="15.105478314141356"><ele>663.0</ele><time>2026-04-19T14:13:09Z</time></trkpt><trkpt lat="37.703414879656364" lon="15.10537707679739"><ele>663.0</ele><time>2026-04-19T14:13:10Z</time></trkpt><trkpt lat="37.70334831840346" lon="15.105299217746268"><ele>663.0</ele><time>2026-04-19T14:13:11Z</time></trkpt><trkpt lat="37.703270325840755" lon="15.105237221925035"><ele>663.0</ele><time>2026-04-19T14:13:12Z</time></trkpt><trkpt lat="37.703181923978065" lon="15.10523522088663"><ele>663.0</ele><time>2026-04-19T14:13:13Z</time></trkpt><trkpt lat="37.7030898026107" lon="15.10527634597512"><ele>663.0</ele><time>2026-04-19T14:13:14Z</time></trkpt><trkpt lat="37.70299966050284" lon="15.10535944615368"><ele>663.0</ele><time>2026-04-19T14:13:15Z</time></trkpt><trkpt lat="37.70290892174066" lon="15.105458579388785"><ele>663.0</ele><time>2026-04-19T14:13:16Z</time></trkpt><trkpt lat="37.70279551808475" lon="15.105574753587046"><ele>663.0</ele><time>2026-04-19T14:13:17Z</time></trkpt><trkpt lat="37.70266922191143" lon="15.105702705932872"><ele>663.0</ele><time>2026-04-19T14:13:18Z</time></trkpt><trkpt lat="37.702522105156206" lon="15.1058229104954"><ele>656.3333333333334</ele><time>2026-04-19T14:13:19Z</time></trkpt><trkpt lat="37.70237956410532" lon="15.105956371423748"><ele>649.6666666666667</ele><time>2026-04-19T14:13:20Z</time></trkpt><trkpt lat="37.702253679332024" lon="15.106076755410584"><ele>643.0</ele><time>2026-04-19T14:13:21Z</time></trkpt><trkpt lat="37.702133755958926" lon="15.106187916412559"><ele>643.0</ele><time>2026-04-19T14:13:22Z</time></trkpt><trkpt lat="37.70200904370184" lon="15.106301514770404"><ele>643.0</ele><time>2026-04-19T14:13:23Z</time></trkpt><trkpt lat="37.70190282131747" lon="15.106404803025212"><ele>643.0</ele><time>2026-04-19T14:13:24Z</time></trkpt><trkpt lat="37.70181479593509" lon="15.106496275057332"><ele>643.0</ele><time>2026-04-19T14:13:25Z</time></trkpt><trkpt lat="37.70172074431512" lon="15.106532872251764"><ele>643.0</ele><time>2026-04-19T14:13:26Z</time></trkpt><trkpt lat="37.701624252283466" lon="15.10654285244964"><ele>643.0</ele><time>2026-04-19T14:13:27Z</time></trkpt><trkpt lat="37.70152479924405" lon="15.10651099641749"><ele>643.0</ele><time>2026-04-19T14:13:28Z</time></trkpt><trkpt lat="37.701409945936334" lon="15.106464018616233"><ele>643.0</ele><time>2026-04-19T14:13:29Z</time></trkpt><trkpt lat="37.70130905079614" lon="15.106442023823583"><ele>643.0</ele><time>2026-04-19T14:13:30Z</time></trkpt><trkpt lat="37.70121143995876" lon="15.106444928853685"><ele>643.0</ele><time>2026-04-19T14:13:31Z</time></trkpt><trkpt lat="37.70111143110561" lon="15.106501214997712"><ele>643.0</ele><time>2026-04-19T14:13:32Z</time></trkpt><trkpt lat="37.70102376257692" lon="15.106615337724156"><ele>643.0</ele><time>2026-04-19T14:13:33Z</time></trkpt><trkpt lat="37.700966121141036" lon="15.106771583926323"><ele>643.0</ele><time>2026-04-19T14:13:34Z</time></trkpt><trkpt lat="37.700927628108005" lon="15.106910703897997"><ele>641.1999999999999</ele><time>2026-04-19T14:13:35Z</time></trkpt><trkpt lat="37.70087938310885" lon="15.107042407978916"><ele>639.4</ele><time>2026-04-19T14:13:36Z</time></trkpt><trkpt lat="37.700848518587996" lon="15.107168552748426"><ele>637.5999999999999</ele><time>2026-04-19T14:13:37Z</time></trkpt><trkpt lat="37.70084602551246" lon="15.107287207405127"><ele>635.8</ele><time>2026-04-19T14:13:38Z</time></trkpt><trkpt lat="37.7008773956162" lon="15.10740949952917"><ele>634.0</ele><time>2026-04-19T14:13:39Z</time></trkpt><trkpt lat="37.70094050557876" lon="15.107492867238161"><ele>632.0</ele><time>2026-04-19T14:13:40Z</time></trkpt><trkpt lat="37.701014698281995" lon="15.10754536516616"><ele>630.0</ele><time>2026-04-19T14:13:41Z</time></trkpt><trkpt lat="37.701080343824785" lon="15.10757295869616"><ele>628.0</ele><time>2026-04-19T14:13:42Z</time></trkpt><trkpt lat="37.70116311206385" lon="15.107634466741674"><ele>626.0</ele><time>2026-04-19T14:13:44Z</time></trkpt><trkpt lat="37.70111088791269" lon="15.107715960289568"><ele>624.0</ele><time>2026-04-19T14:13:47Z</time></trkpt><trkpt lat="37.701042571122585" lon="15.107756568997997"><ele>622.0</ele><time>2026-04-19T14:13:48Z</time></trkpt><trkpt lat="37.7009698903846" lon="15.107824901779438"><ele>622.0</ele><time>2026-04-19T14:13:49Z</time></trkpt><trkpt lat="37.70086443193771" lon="15.107864873288023"><ele>622.0</ele><time>2026-04-19T14:13:50Z</time></trkpt><trkpt lat="37.70076776872398" lon="15.107933458640721"><ele>622.0</ele><time>2026-04-19T14:13:51Z</time></trkpt><trkpt lat="37.70065279935" lon="15.107980054415586"><ele>622.0</ele><time>2026-04-19T14:13:52Z</time></trkpt><trkpt lat="37.700546243280584" lon="15.108025985568947"><ele>622.0</ele><time>2026-04-19T14:13:53Z</time></trkpt><trkpt lat="37.70044862992578" lon="15.108064410954723"><ele>622.0</ele><time>2026-04-19T14:13:54Z</time></trkpt><trkpt lat="37.700365545797375" lon="15.108099515436816"><ele>622.0</ele><time>2026-04-19T14:13:55Z</time></trkpt><trkpt lat="37.70028746106556" lon="15.10811690335894"><ele>622.0</ele><time>2026-04-19T14:13:56Z</time></trkpt><trkpt lat="37.70021828782847" lon="15.108134383841628"><ele>622.0</ele><time>2026-04-19T14:13:57Z</time></trkpt><trkpt lat="37.70015327668321" lon="15.108162958892684"><ele>622.0</ele><time>2026-04-19T14:13:58Z</time></trkpt><trkpt lat="37.70009340961228" lon="15.108191182316235"><ele>621.3333333333334</ele><time>2026-04-19T14:13:59Z</time></trkpt><trkpt lat="37.70002179324984" lon="15.108231459500493"><ele>620.6666666666667</ele><time>2026-04-19T14:14:01Z</time></trkpt><trkpt lat="37.69995624918355" lon="15.108242885140712"><ele>620.0</ele><time>2026-04-19T14:14:03Z</time></trkpt><trkpt lat="37.6998411836961" lon="15.108256272627836"><ele>619.3333333333334</ele><time>2026-04-19T14:14:05Z</time></trkpt><trkpt lat="37.699772824985416" lon="15.108268035764118"><ele>618.6666666666666</ele><time>2026-04-19T14:14:06Z</time></trkpt><trkpt lat="37.69970010302473" lon="15.108269367212335"><ele>618.0</ele><time>2026-04-19T14:14:07Z</time></trkpt><trkpt lat="37.69962843638099" lon="15.108265347545604"><ele>618.0</ele><time>2026-04-19T14:14:08Z</time></trkpt><trkpt lat="37.699557710185374" lon="15.108252108519904"><ele>618.0</ele><time>2026-04-19T14:14:09Z</time></trkpt><trkpt lat="37.69948658548686" lon="15.108219664583801"><ele>618.0</ele><time>2026-04-19T14:14:10Z</time></trkpt><trkpt lat="37.6993981814261" lon="15.108160827959056"><ele>618.0</ele><time>2026-04-19T14:14:11Z</time></trkpt><trkpt lat="37.699295967849096" lon="15.108095805631061"><ele>618.0</ele><time>2026-04-19T14:14:12Z</time></trkpt><trkpt lat="37.69918875402237" lon="15.108046684174548"><ele>615.1999999999999</ele><time>2026-04-19T14:14:13Z</time></trkpt><trkpt lat="37.69906625833257" lon="15.108029057892841"><ele>612.4</ele><time>2026-04-19T14:14:14Z</time></trkpt><trkpt lat="37.698944576715164" lon="15.10802980036164"><ele>609.5999999999999</ele><time>2026-04-19T14:14:15Z</time></trkpt><trkpt lat="37.698839607318476" lon="15.10803220341998"><ele>606.8</ele><time>2026-04-19T14:14:16Z</time></trkpt><trkpt lat="37.69875120675367" lon="15.10803370437024"><ele>604.0</ele><time>2026-04-19T14:14:17Z</time></trkpt><trkpt lat="37.69867569920565" lon="15.108039222273623"><ele>604.0</ele><time>2026-04-19T14:14:18Z</time></trkpt><trkpt lat="37.698605387224816" lon="15.108045330401822"><ele>604.0</ele><time>2026-04-19T14:14:19Z</time></trkpt><trkpt lat="37.69848735361582" lon="15.108033377549093"><ele>604.0</ele><time>2026-04-19T14:14:21Z</time></trkpt><trkpt lat="37.6983936575307" lon="15.10799336622854"><ele>604.0</ele><time>2026-04-19T14:14:23Z</time></trkpt><trkpt lat="37.698328272473006" lon="15.107950017894428"><ele>604.0</ele><time>2026-04-19T14:14:24Z</time></trkpt><trkpt lat="37.69826696720993" lon="15.107903206655333"><ele>604.0</ele><time>2026-04-19T14:14:25Z</time></trkpt><trkpt lat="37.69820889513503" lon="15.107862139491827"><ele>603.0</ele><time>2026-04-19T14:14:26Z</time></trkpt><trkpt lat="37.698149057880045" lon="15.10782167605459"><ele>602.0</ele><time>2026-04-19T14:14:27Z</time></trkpt><trkpt lat="37.698087358788975" lon="15.107786765913788"><ele>601.0</ele><time>2026-04-19T14:14:28Z</time></trkpt><trkpt lat="37.69802760393085" lon="15.107756383184563"><ele>600.0</ele><time>2026-04-19T14:14:29Z</time></trkpt><trkpt lat="37.69791991029266" lon="15.107716127313113"><ele>599.0</ele><time>2026-04-19T14:14:31Z</time></trkpt><trkpt lat="37.697798395938555" lon="15.107692711445656"><ele>598.0</ele><time>2026-04-19T14:14:33Z</time></trkpt><trkpt lat="37.69773220784244" lon="15.107685415227452"><ele>596.8333333333334</ele><time>2026-04-19T14:14:34Z</time></trkpt><trkpt lat="37.697661684707825" lon="15.107679669245538"><ele>595.6666666666667</ele><time>2026-04-19T14:14:35Z</time></trkpt><trkpt lat="37.69758638496106" lon="15.10767446457523"><ele>594.5</ele><time>2026-04-19T14:14:36Z</time></trkpt><trkpt lat="37.69750734527148" lon="15.107674936408731"><ele>593.3333333333334</ele><time>2026-04-19T14:14:37Z</time></trkpt><trkpt lat="37.69742175119814" lon="15.10767741831074"><ele>592.1666666666666</ele><time>2026-04-19T14:14:38Z</time></trkpt><trkpt lat="37.69733199616117" lon="15.107682705929767"><ele>591.0</ele><time>2026-04-19T14:14:39Z</time></trkpt><trkpt lat="37.69722991146965" lon="15.107688375427056"><ele>591.0</ele><time>2026-04-19T14:14:40Z</time></trkpt><trkpt lat="37.69710802211605" lon="15.107710665703824"><ele>591.0</ele><time>2026-04-19T14:14:41Z</time></trkpt><trkpt lat="37.69697710237177" lon="15.10771883184442"><ele>591.0</ele><time>2026-04-19T14:14:42Z</time></trkpt><trkpt lat="37.69683614317675" lon="15.107722313246814"><ele>591.0</ele><time>2026-04-19T14:14:43Z</time></trkpt><trkpt lat="37.69668037933296" lon="15.107743182028617"><ele>589.0</ele><time>2026-04-19T14:14:44Z</time></trkpt><trkpt lat="37.6965004196833" lon="15.107745488978729"><ele>587.0</ele><time>2026-04-19T14:14:45Z</time></trkpt><trkpt lat="37.696351430538684" lon="15.107740446056"><ele>585.0</ele><time>2026-04-19T14:14:46Z</time></trkpt><trkpt lat="37.696219704695785" lon="15.107750413946766"><ele>585.0</ele><time>2026-04-19T14:14:47Z</time></trkpt><trkpt lat="37.696098384206714" lon="15.107762489712247"><ele>585.0</ele><time>2026-04-19T14:14:48Z</time></trkpt><trkpt lat="37.69599518311871" lon="15.107767002801813"><ele>585.0</ele><time>2026-04-19T14:14:49Z</time></trkpt><trkpt lat="37.695906798453706" lon="15.107770572060927"><ele>585.0</ele><time>2026-04-19T14:14:50Z</time></trkpt><trkpt lat="37.69582344628263" lon="15.107779096272573"><ele>585.0</ele><time>2026-04-19T14:14:51Z</time></trkpt><trkpt lat="37.69574184848335" lon="15.10778212665986"><ele>585.5</ele><time>2026-04-19T14:14:52Z</time></trkpt><trkpt lat="37.695660035344" lon="15.107781862962119"><ele>586.0</ele><time>2026-04-19T14:14:53Z</time></trkpt><trkpt lat="37.695576813096324" lon="15.10776747800116"><ele>586.5</ele><time>2026-04-19T14:14:54Z</time></trkpt><trkpt lat="37.695492878458495" lon="15.107736509803582"><ele>587.0</ele><time>2026-04-19T14:14:55Z</time></trkpt><trkpt lat="37.69540454323045" lon="15.107695075599535"><ele>587.5</ele><time>2026-04-19T14:14:56Z</time></trkpt><trkpt lat="37.695315482116385" lon="15.107643780228292"><ele>588.0</ele><time>2026-04-19T14:14:57Z</time></trkpt><trkpt lat="37.6952221744007" lon="15.10758965413666"><ele>587.6</ele><time>2026-04-19T14:14:58Z</time></trkpt><trkpt lat="37.695129395675536" lon="15.10753083800005"><ele>587.1999999999999</ele><time>2026-04-19T14:14:59Z</time></trkpt><trkpt lat="37.69503472736988" lon="15.107473630397559"><ele>586.8</ele><time>2026-04-19T14:15:00Z</time></trkpt><trkpt lat="37.69494699118922" lon="15.107419117579445"><ele>586.4</ele><time>2026-04-19T14:15:01Z</time></trkpt><trkpt lat="37.694865911835365" lon="15.107375643417852"><ele>586.0</ele><time>2026-04-19T14:15:02Z</time></trkpt><trkpt lat="37.69479595934789" lon="15.107332973003992"><ele>586.0</ele><time>2026-04-19T14:15:03Z</time></trkpt><trkpt lat="37.6947383844157" lon="15.107298704831722"><ele>586.0</ele><time>2026-04-19T14:15:04Z</time></trkpt><trkpt lat="37.69465649635083" lon="15.10724351064578"><ele>586.0</ele><time>2026-04-19T14:15:06Z</time></trkpt><trkpt lat="37.694633433867175" lon="15.107152521420135"><ele>586.0</ele><time>2026-04-19T14:15:09Z</time></trkpt><trkpt lat="37.69464857554947" lon="15.107042532231649"><ele>586.0</ele><time>2026-04-19T14:15:12Z</time></trkpt><trkpt lat="37.69463669796352" lon="15.106924541700891"><ele>586.0</ele><time>2026-04-19T14:15:14Z</time></trkpt><trkpt lat="37.694611463858905" lon="15.106791179946926"><ele>586.0</ele><time>2026-04-19T14:15:16Z</time></trkpt><trkpt lat="37.69459272625278" lon="15.106713494035759"><ele>586.0</ele><time>2026-04-19T14:15:17Z</time></trkpt><trkpt lat="37.6945704733365" lon="15.106637681191827"><ele>586.0</ele><time>2026-04-19T14:15:18Z</time></trkpt><trkpt lat="37.69451663311589" lon="15.10651493831228"><ele>586.0</ele><time>2026-04-19T14:15:20Z</time></trkpt><trkpt lat="37.69448516603487" lon="15.106400516295112"><ele>586.0</ele><time>2026-04-19T14:15:22Z</time></trkpt><trkpt lat="37.69447935757095" lon="15.106243785089942"><ele>586.2</ele><time>2026-04-19T14:15:24Z</time></trkpt><trkpt lat="37.694497722770365" lon="15.10614813333951"><ele>586.4000000000001</ele><time>2026-04-19T14:15:25Z</time></trkpt><trkpt lat="37.69452197332806" lon="15.106028289588325"><ele>586.6</ele><time>2026-04-19T14:15:26Z</time></trkpt><trkpt lat="37.69454722271544" lon="15.105911832818801"><ele>586.8000000000001</ele><time>2026-04-19T14:15:27Z</time></trkpt><trkpt lat="37.694572132395336" lon="15.105779847595896"><ele>587.0</ele><time>2026-04-19T14:15:28Z</time></trkpt><trkpt lat="37.69457584861623" lon="15.10562535175118"><ele>588.4</ele><time>2026-04-19T14:15:29Z</time></trkpt><trkpt lat="37.69460175986584" lon="15.105477870264005"><ele>589.8000000000001</ele><time>2026-04-19T14:15:30Z</time></trkpt><trkpt lat="37.694629972856525" lon="15.105345777571701"><ele>591.2</ele><time>2026-04-19T14:15:31Z</time></trkpt><trkpt lat="37.69465917863535" lon="15.105226827905113"><ele>592.6</ele><time>2026-04-19T14:15:32Z</time></trkpt><trkpt lat="37.694689630176036" lon="15.105103281599153"><ele>594.0</ele><time>2026-04-19T14:15:33Z</time></trkpt><trkpt lat="37.694719896028765" lon="15.10496887752618"><ele>595.25</ele><time>2026-04-19T14:15:34Z</time></trkpt><trkpt lat="37.69475266031787" lon="15.104817646427948"><ele>596.5</ele><time>2026-04-19T14:15:35Z</time></trkpt><trkpt lat="37.69477965379955" lon="15.104658707752973"><ele>597.75</ele><time>2026-04-19T14:15:36Z</time></trkpt><trkpt lat="37.694799193140774" lon="15.104496455887851"><ele>599.0</ele><time>2026-04-19T14:15:37Z</time></trkpt><trkpt lat="37.69481341091901" lon="15.104334901332043"><ele>599.0</ele><time>2026-04-19T14:15:38Z</time></trkpt><trkpt lat="37.6948086507325" lon="15.104172008552325"><ele>599.0</ele><time>2026-04-19T14:15:39Z</time></trkpt><trkpt lat="37.694778376727626" lon="15.104010520319191"><ele>599.0</ele><time>2026-04-19T14:15:40Z</time></trkpt><trkpt lat="37.69475265053762" lon="15.103853811665928"><ele>599.0</ele><time>2026-04-19T14:15:41Z</time></trkpt><trkpt lat="37.69474135213393" lon="15.103695189828374"><ele>601.5</ele><time>2026-04-19T14:15:42Z</time></trkpt><trkpt lat="37.69471083131028" lon="15.103548133860553"><ele>604.0</ele><time>2026-04-19T14:15:43Z</time></trkpt><trkpt lat="37.694681345561854" lon="15.10340964707778"><ele>606.5</ele><time>2026-04-19T14:15:44Z</time></trkpt><trkpt lat="37.69465361187098" lon="15.103272664610193"><ele>609.0</ele><time>2026-04-19T14:15:45Z</time></trkpt><trkpt lat="37.69462868164828" lon="15.103142741423397"><ele>610.0</ele><time>2026-04-19T14:15:46Z</time></trkpt><trkpt lat="37.69459732821942" lon="15.103014272957093"><ele>611.0</ele><time>2026-04-19T14:15:47Z</time></trkpt><trkpt lat="37.69456345707019" lon="15.102889801574362"><ele>612.0</ele><time>2026-04-19T14:15:48Z</time></trkpt><trkpt lat="37.69456598067357" lon="15.102774945215351"><ele>613.0</ele><time>2026-04-19T14:15:49Z</time></trkpt><trkpt lat="37.69455790118655" lon="15.102637486251778"><ele>614.0</ele><time>2026-04-19T14:15:51Z</time></trkpt><trkpt lat="37.69456703627843" lon="15.102526003619404"><ele>615.2</ele><time>2026-04-19T14:15:53Z</time></trkpt><trkpt lat="37.69456490814617" lon="15.102382187854042"><ele>616.4</ele><time>2026-04-19T14:15:55Z</time></trkpt><trkpt lat="37.694695814547536" lon="15.102323578530072"><ele>617.6</ele><time>2026-04-19T14:15:56Z</time></trkpt><trkpt lat="37.69476123022327" lon="15.102262435055126"><ele>618.8</ele><time>2026-04-19T14:15:57Z</time></trkpt><trkpt lat="37.69483565366749" lon="15.102215241388972"><ele>620.0</ele><time>2026-04-19T14:15:58Z</time></trkpt><trkpt lat="37.69491217538635" lon="15.10217487538793"><ele>620.0</ele><time>2026-04-19T14:15:59Z</time></trkpt><trkpt lat="37.694985933882215" lon="15.102156119472037"><ele>620.0</ele><time>2026-04-19T14:16:00Z</time></trkpt><trkpt lat="37.695064246321884" lon="15.102146866295218"><ele>620.0</ele><time>2026-04-19T14:16:01Z</time></trkpt><trkpt lat="37.69513352413885" lon="15.10214832333447"><ele>620.0</ele><time>2026-04-19T14:16:02Z</time></trkpt><trkpt lat="37.69522719841421" lon="15.102141267661148"><ele>620.0</ele><time>2026-04-19T14:16:04Z</time></trkpt><trkpt lat="37.69533868188425" lon="15.102048833809192"><ele>620.4</ele><time>2026-04-19T14:16:06Z</time></trkpt><trkpt lat="37.695390796643075" lon="15.101938802194397"><ele>620.8</ele><time>2026-04-19T14:16:07Z</time></trkpt><trkpt lat="37.69545719623678" lon="15.101824943473323"><ele>621.2</ele><time>2026-04-19T14:16:08Z</time></trkpt><trkpt lat="37.69551023549758" lon="15.101734945206461"><ele>621.6</ele><time>2026-04-19T14:16:09Z</time></trkpt><trkpt lat="37.69555812056291" lon="15.101661929424328"><ele>622.0</ele><time>2026-04-19T14:16:10Z</time></trkpt><trkpt lat="37.695626743745315" lon="15.101566827710059"><ele>622.0</ele><time>2026-04-19T14:16:12Z</time></trkpt><trkpt lat="37.695675070938215" lon="15.101515843075214"><ele>622.0</ele><time>2026-04-19T14:16:15Z</time></trkpt><trkpt lat="37.69571960862222" lon="15.101442286621545"><ele>622.0</ele><time>2026-04-19T14:16:21Z</time></trkpt><trkpt lat="37.695614289794186" lon="15.10155876795998"><ele>622.0</ele><time>2026-04-19T14:16:30Z</time></trkpt><trkpt lat="37.69552840058726" lon="15.101678412820247"><ele>622.0</ele><time>2026-04-19T14:16:31Z</time></trkpt><trkpt lat="37.69545196674638" lon="15.101787668422256"><ele>622.0</ele><time>2026-04-19T14:16:32Z</time></trkpt><trkpt lat="37.695386837633606" lon="15.101882485283815"><ele>622.0</ele><time>2026-04-19T14:16:33Z</time></trkpt><trkpt lat="37.695341726321374" lon="15.101964289663043"><ele>622.0</ele><time>2026-04-19T14:16:34Z</time></trkpt><trkpt lat="37.69530769016163" lon="15.10203435000624"><ele>622.0</ele><time>2026-04-19T14:16:35Z</time></trkpt><trkpt lat="37.69522875282773" lon="15.102110490746137"><ele>622.0</ele><time>2026-04-19T14:16:37Z</time></trkpt><trkpt lat="37.695089018485454" lon="15.10210541959902"><ele>621.6</ele><time>2026-04-19T14:16:39Z</time></trkpt><trkpt lat="37.69499247237654" lon="15.102110987904666"><ele>621.2</ele><time>2026-04-19T14:16:40Z</time></trkpt><trkpt lat="37.69489465152943" lon="15.102131285954991"><ele>620.8</ele><time>2026-04-19T14:16:41Z</time></trkpt><trkpt lat="37.694819503450404" lon="15.10215965721383"><ele>620.4</ele><time>2026-04-19T14:16:42Z</time></trkpt><trkpt lat="37.69472117182788" lon="15.102221649246607"><ele>620.0</ele><time>2026-04-19T14:16:44Z</time></trkpt><trkpt lat="37.69463181006209" lon="15.102249930816825"><ele>620.0</ele><time>2026-04-19T14:16:46Z</time></trkpt><trkpt lat="37.694663874132516" lon="15.102118479883458"><ele>620.0</ele><time>2026-04-19T14:16:49Z</time></trkpt><trkpt lat="37.694604282561286" lon="15.101995839953124"><ele>620.0</ele><time>2026-04-19T14:16:50Z</time></trkpt><trkpt lat="37.69461532736838" lon="15.101868583023403"><ele>620.0</ele><time>2026-04-19T14:16:51Z</time></trkpt><trkpt lat="37.69462386363342" lon="15.101728786189856"><ele>620.0</ele><time>2026-04-19T14:16:52Z</time></trkpt><trkpt lat="37.694638023294715" lon="15.10157979235197"><ele>622.0</ele><time>2026-04-19T14:16:53Z</time></trkpt><trkpt lat="37.694658279361164" lon="15.101421356538552"><ele>624.0</ele><time>2026-04-19T14:16:54Z</time></trkpt><trkpt lat="37.69468468931146" lon="15.101240931893674"><ele>626.0</ele><time>2026-04-19T14:16:55Z</time></trkpt><trkpt lat="37.69471917063246" lon="15.101048963535948"><ele>628.0</ele><time>2026-04-19T14:16:56Z</time></trkpt><trkpt lat="37.694763020294744" lon="15.100840727178543"><ele>631.0</ele><time>2026-04-19T14:16:57Z</time></trkpt><trkpt lat="37.69481684288182" lon="15.100618212944688"><ele>634.0</ele><time>2026-04-19T14:16:58Z</time></trkpt><trkpt lat="37.69486499235586" lon="15.100402235116826"><ele>637.0</ele><time>2026-04-19T14:16:59Z</time></trkpt><trkpt lat="37.69491021412691" lon="15.10021646638577"><ele>637.0</ele><time>2026-04-19T14:17:00Z</time></trkpt><trkpt lat="37.69496933913483" lon="15.100015708574208"><ele>637.0</ele><time>2026-04-19T14:17:01Z</time></trkpt><trkpt lat="37.69503497163224" lon="15.099811391803874"><ele>637.0</ele><time>2026-04-19T14:17:02Z</time></trkpt><trkpt lat="37.6950974830576" lon="15.09960715434037"><ele>639.0</ele><time>2026-04-19T14:17:03Z</time></trkpt><trkpt lat="37.6951602665245" lon="15.099408509834904"><ele>641.0</ele><time>2026-04-19T14:17:04Z</time></trkpt><trkpt lat="37.69521910010079" lon="15.099221692678304"><ele>643.0</ele><time>2026-04-19T14:17:05Z</time></trkpt><trkpt lat="37.69527311398683" lon="15.099056587205165"><ele>643.0</ele><time>2026-04-19T14:17:06Z</time></trkpt><trkpt lat="37.69532677031056" lon="15.09892038684532"><ele>643.0</ele><time>2026-04-19T14:17:07Z</time></trkpt><trkpt lat="37.6953597294068" lon="15.098787282788866"><ele>643.0</ele><time>2026-04-19T14:17:08Z</time></trkpt><trkpt lat="37.695378380402836" lon="15.098640064112988"><ele>643.0</ele><time>2026-04-19T14:17:09Z</time></trkpt><trkpt lat="37.695368766979016" lon="15.09848828108682"><ele>643.0</ele><time>2026-04-19T14:17:10Z</time></trkpt><trkpt lat="37.695326140706364" lon="15.09835990806237"><ele>643.0</ele><time>2026-04-19T14:17:11Z</time></trkpt><trkpt lat="37.69527473132458" lon="15.098265340108295"><ele>643.0</ele><time>2026-04-19T14:17:12Z</time></trkpt><trkpt lat="37.695233568297425" lon="15.098161877197132"><ele>643.0</ele><time>2026-04-19T14:17:13Z</time></trkpt><trkpt lat="37.69521086043061" lon="15.098049438738201"><ele>643.0</ele><time>2026-04-19T14:17:14Z</time></trkpt><trkpt lat="37.695206005686934" lon="15.097952749395995"><ele>645.8</ele><time>2026-04-19T14:17:15Z</time></trkpt><trkpt lat="37.695223217737905" lon="15.09786082215188"><ele>648.5999999999999</ele><time>2026-04-19T14:17:16Z</time></trkpt><trkpt lat="37.69523791213705" lon="15.097753921872782"><ele>651.4000000000001</ele><time>2026-04-19T14:17:17Z</time></trkpt><trkpt lat="37.6953363759241" lon="15.097665393104329"><ele>654.2</ele><time>2026-04-19T14:17:18Z</time></trkpt><trkpt lat="37.695408344304376" lon="15.097569918462167"><ele>657.0</ele><time>2026-04-19T14:17:19Z</time></trkpt><trkpt lat="37.695453589265675" lon="15.097488323650236"><ele>659.8333333333334</ele><time>2026-04-19T14:17:20Z</time></trkpt><trkpt lat="37.695466625129036" lon="15.097406374567178"><ele>662.6666666666666</ele><time>2026-04-19T14:17:21Z</time></trkpt><trkpt lat="37.695433191541056" lon="15.097326926050693"><ele>665.5</ele><time>2026-04-19T14:17:22Z</time></trkpt><trkpt lat="37.695361243412734" lon="15.097279498725513"><ele>668.3333333333333</ele><time>2026-04-19T14:17:23Z</time></trkpt><trkpt lat="37.69527090579878" lon="15.097288702447159"><ele>671.1666666666666</ele><time>2026-04-19T14:17:24Z</time></trkpt><trkpt lat="37.6951604592454" lon="15.09734296972163"><ele>674.0</ele><time>2026-04-19T14:17:25Z</time></trkpt><trkpt lat="37.69503526503336" lon="15.097400827625892"><ele>672.3333333333333</ele><time>2026-04-19T14:17:26Z</time></trkpt><trkpt lat="37.6948974410043" lon="15.097457682534072"><ele>670.6666666666666</ele><time>2026-04-19T14:17:27Z</time></trkpt><trkpt lat="37.694748202377255" lon="15.097498560188267"><ele>669.0</ele><time>2026-04-19T14:17:28Z</time></trkpt><trkpt lat="37.69459900284805" lon="15.097559193046832"><ele>669.0</ele><time>2026-04-19T14:17:29Z</time></trkpt><trkpt lat="37.69445028837146" lon="15.09760243802984"><ele>669.0</ele><time>2026-04-19T14:17:30Z</time></trkpt><trkpt lat="37.69430373022172" lon="15.097609525974113"><ele>669.0</ele><time>2026-04-19T14:17:31Z</time></trkpt><trkpt lat="37.69415988993309" lon="15.097598934399128"><ele>669.0</ele><time>2026-04-19T14:17:32Z</time></trkpt><trkpt lat="37.6940329834477" lon="15.097498664893784"><ele>675.6666666666666</ele><time>2026-04-19T14:17:33Z</time></trkpt><trkpt lat="37.69391072355836" lon="15.097390656298353"><ele>682.3333333333333</ele><time>2026-04-19T14:17:34Z</time></trkpt><trkpt lat="37.69381552987267" lon="15.097214288622709"><ele>689.0</ele><time>2026-04-19T14:17:35Z</time></trkpt><trkpt lat="37.69368442020983" lon="15.097013477595521"><ele>689.3333333333333</ele><time>2026-04-19T14:17:36Z</time></trkpt><trkpt lat="37.693559043820876" lon="15.096776012889181"><ele>689.6666666666666</ele><time>2026-04-19T14:17:37Z</time></trkpt><trkpt lat="37.693445341403326" lon="15.096577166661161"><ele>690.0</ele><time>2026-04-19T14:17:38Z</time></trkpt><trkpt lat="37.693328236779635" lon="15.096405109951197"><ele>697.0</ele><time>2026-04-19T14:17:39Z</time></trkpt><trkpt lat="37.69317640955662" lon="15.096265909346757"><ele>704.0</ele><time>2026-04-19T14:17:40Z</time></trkpt><trkpt lat="37.69299096070893" lon="15.096169391975941"><ele>711.0</ele><time>2026-04-19T14:17:41Z</time></trkpt><trkpt lat="37.69278076678069" lon="15.096107103328858"><ele>709.5</ele><time>2026-04-19T14:17:42Z</time></trkpt><trkpt lat="37.69255992397502" lon="15.096018618528797"><ele>708.0</ele><time>2026-04-19T14:17:43Z</time></trkpt><trkpt lat="37.69233980801554" lon="15.09592133257385"><ele>708.0</ele><time>2026-04-19T14:17:44Z</time></trkpt><trkpt lat="37.69211357586189" lon="15.095827248917642"><ele>708.0</ele><time>2026-04-19T14:17:45Z</time></trkpt><trkpt lat="37.69188755279956" lon="15.09573326665826"><ele>715.0</ele><time>2026-04-19T14:17:46Z</time></trkpt><trkpt lat="37.69167474398209" lon="15.095649626322702"><ele>722.0</ele><time>2026-04-19T14:17:47Z</time></trkpt><trkpt lat="37.69149362714091" lon="15.095578418213394"><ele>729.0</ele><time>2026-04-19T14:17:48Z</time></trkpt><trkpt lat="37.69132901033833" lon="15.095544605739995"><ele>729.0</ele><time>2026-04-19T14:17:49Z</time></trkpt><trkpt lat="37.6911772986532" lon="15.09553809940573"><ele>729.0</ele><time>2026-04-19T14:17:50Z</time></trkpt><trkpt lat="37.6910193310052" lon="15.09546761635649"><ele>729.0</ele><time>2026-04-19T14:17:51Z</time></trkpt><trkpt lat="37.69087411999524" lon="15.095332308892358"><ele>730.25</ele><time>2026-04-19T14:17:52Z</time></trkpt><trkpt lat="37.69076081554271" lon="15.095203149635516"><ele>731.5</ele><time>2026-04-19T14:17:53Z</time></trkpt><trkpt lat="37.69064267904986" lon="15.095112352553183"><ele>732.75</ele><time>2026-04-19T14:17:54Z</time></trkpt><trkpt lat="37.69050186062548" lon="15.095094500656447"><ele>734.0</ele><time>2026-04-19T14:17:55Z</time></trkpt><trkpt lat="37.69036357857867" lon="15.095162828669201"><ele>736.6666666666666</ele><time>2026-04-19T14:17:56Z</time></trkpt><trkpt lat="37.690214428196114" lon="15.095274785264312"><ele>739.3333333333334</ele><time>2026-04-19T14:17:57Z</time></trkpt><trkpt lat="37.69004789897532" lon="15.095363928208862"><ele>742.0</ele><time>2026-04-19T14:17:58Z</time></trkpt><trkpt lat="37.68990620159386" lon="15.095413425771719"><ele>742.0</ele><time>2026-04-19T14:17:59Z</time></trkpt><trkpt lat="37.68979523004466" lon="15.095439092854553"><ele>742.0</ele><time>2026-04-19T14:18:00Z</time></trkpt><trkpt lat="37.689698461407566" lon="15.095455304193566"><ele>742.0</ele><time>2026-04-19T14:18:01Z</time></trkpt><trkpt lat="37.68961646876902" lon="15.095473901859526"><ele>742.0</ele><time>2026-04-19T14:18:02Z</time></trkpt><trkpt lat="37.689542970204506" lon="15.095491529079974"><ele>742.0</ele><time>2026-04-19T14:18:03Z</time></trkpt><trkpt lat="37.68947168574277" lon="15.095508956184624"><ele>742.0</ele><time>2026-04-19T14:18:04Z</time></trkpt><trkpt lat="37.689393264846075" lon="15.095511725823032"><ele>743.2</ele><time>2026-04-19T14:18:05Z</time></trkpt><trkpt lat="37.68930659059401" lon="15.09548184692673"><ele>744.4000000000001</ele><time>2026-04-19T14:18:06Z</time></trkpt><trkpt lat="37.68921219571859" lon="15.095430507345851"><ele>745.5999999999999</ele><time>2026-04-19T14:18:07Z</time></trkpt><trkpt lat="37.689111980299934" lon="15.09537533811559"><ele>746.8</ele><time>2026-04-19T14:18:08Z</time></trkpt><trkpt lat="37.689025433906934" lon="15.095308411889444"><ele>748.0</ele><time>2026-04-19T14:18:09Z</time></trkpt><trkpt lat="37.68895846808617" lon="15.095244972507716"><ele>748.0</ele><time>2026-04-19T14:18:10Z</time></trkpt><trkpt lat="37.68887354225843" lon="15.095172604731646"><ele>748.0</ele><time>2026-04-19T14:18:11Z</time></trkpt><trkpt lat="37.68878230419544" lon="15.095071885096239"><ele>748.0</ele><time>2026-04-19T14:18:12Z</time></trkpt><trkpt lat="37.68870035444848" lon="15.094998768772404"><ele>748.0</ele><time>2026-04-19T14:18:13Z</time></trkpt><trkpt lat="37.688582092311876" lon="15.094966867783308"><ele>748.0</ele><time>2026-04-19T14:18:14Z</time></trkpt><trkpt lat="37.68843827137505" lon="15.094974644040597"><ele>748.0</ele><time>2026-04-19T14:18:15Z</time></trkpt><trkpt lat="37.68827190135389" lon="15.094995225738373"><ele>748.0</ele><time>2026-04-19T14:18:16Z</time></trkpt><trkpt lat="37.688106169681255" lon="15.095000335408193"><ele>748.0</ele><time>2026-04-19T14:18:17Z</time></trkpt><trkpt lat="37.687941395642426" lon="15.09500529047908"><ele>748.0</ele><time>2026-04-19T14:18:18Z</time></trkpt><trkpt lat="37.6877661646866" lon="15.094993619472282"><ele>748.0</ele><time>2026-04-19T14:18:19Z</time></trkpt><trkpt lat="37.687621575731654" lon="15.09494088670199"><ele>748.0</ele><time>2026-04-19T14:18:20Z</time></trkpt><trkpt lat="37.687485640660036" lon="15.094898933454616"><ele>750.25</ele><time>2026-04-19T14:18:21Z</time></trkpt><trkpt lat="37.68733565534262" lon="15.094931097724167"><ele>752.5</ele><time>2026-04-19T14:18:22Z</time></trkpt><trkpt lat="37.68718343362783" lon="15.095007579741983"><ele>754.75</ele><time>2026-04-19T14:18:23Z</time></trkpt><trkpt lat="37.68706232873128" lon="15.095078113354761"><ele>757.0</ele><time>2026-04-19T14:18:24Z</time></trkpt><trkpt lat="37.68694898121402" lon="15.09508632268577"><ele>758.75</ele><time>2026-04-19T14:18:25Z</time></trkpt><trkpt lat="37.686840857978446" lon="15.095031361600897"><ele>760.5</ele><time>2026-04-19T14:18:26Z</time></trkpt><trkpt lat="37.68673345519525" lon="15.094924887668233"><ele>762.25</ele><time>2026-04-19T14:18:27Z</time></trkpt><trkpt lat="37.68662625745287" lon="15.094827061347418"><ele>764.0</ele><time>2026-04-19T14:18:28Z</time></trkpt><trkpt lat="37.6865037886047" lon="15.09478253177916"><ele>767.6666666666666</ele><time>2026-04-19T14:18:29Z</time></trkpt><trkpt lat="37.68635394965697" lon="15.09480434855479"><ele>771.3333333333333</ele><time>2026-04-19T14:18:30Z</time></trkpt><trkpt lat="37.68616929755692" lon="15.094876613147534"><ele>775.0</ele><time>2026-04-19T14:18:31Z</time></trkpt><trkpt lat="37.68598731554482" lon="15.094957574944303"><ele>775.0</ele><time>2026-04-19T14:18:32Z</time></trkpt><trkpt lat="37.68584464993937" lon="15.09501890821565"><ele>775.0</ele><time>2026-04-19T14:18:33Z</time></trkpt><trkpt lat="37.685734590503756" lon="15.095076997351963"><ele>775.0</ele><time>2026-04-19T14:18:34Z</time></trkpt><trkpt lat="37.68565365201912" lon="15.09512093936617"><ele>775.0</ele><time>2026-04-19T14:18:35Z</time></trkpt><trkpt lat="37.68556279788289" lon="15.095084195056769"><ele>775.0</ele><time>2026-04-19T14:18:37Z</time></trkpt><trkpt lat="37.68561869880052" lon="15.094988426888213"><ele>775.0</ele><time>2026-04-19T14:18:39Z</time></trkpt><trkpt lat="37.68573598087134" lon="15.094965427710731"><ele>775.0</ele><time>2026-04-19T14:18:40Z</time></trkpt><trkpt lat="37.68585751321857" lon="15.09491996864733"><ele>775.0</ele><time>2026-04-19T14:18:41Z</time></trkpt><trkpt lat="37.68597356514772" lon="15.094840191644984"><ele>779.6666666666666</ele><time>2026-04-19T14:18:42Z</time></trkpt><trkpt lat="37.68610730365364" lon="15.094753665192808"><ele>784.3333333333333</ele><time>2026-04-19T14:18:43Z</time></trkpt><trkpt lat="37.68622690496889" lon="15.094646468784836"><ele>789.0</ele><time>2026-04-19T14:18:44Z</time></trkpt><trkpt lat="37.68631631421386" lon="15.094486075235986"><ele>789.0</ele><time>2026-04-19T14:18:45Z</time></trkpt><trkpt lat="37.68638036675024" lon="15.094314598319901"><ele>789.0</ele><time>2026-04-19T14:18:46Z</time></trkpt><trkpt lat="37.68647332867679" lon="15.09418847453363"><ele>789.0</ele><time>2026-04-19T14:18:47Z</time></trkpt><trkpt lat="37.686604648299706" lon="15.094101537642194"><ele>789.0</ele><time>2026-04-19T14:18:48Z</time></trkpt><trkpt lat="37.686754760109295" lon="15.094052180446754"><ele>789.75</ele><time>2026-04-19T14:18:49Z</time></trkpt><trkpt lat="37.68687651517782" lon="15.093981618412215"><ele>790.5</ele><time>2026-04-19T14:18:50Z</time></trkpt><trkpt lat="37.686978561431324" lon="15.093851918330202"><ele>791.25</ele><time>2026-04-19T14:18:51Z</time></trkpt><trkpt lat="37.6870460420224" lon="15.093675961016453"><ele>792.0</ele><time>2026-04-19T14:18:52Z</time></trkpt><trkpt lat="37.68709475342629" lon="15.093480523295861"><ele>792.0</ele><time>2026-04-19T14:18:53Z</time></trkpt><trkpt lat="37.68716697228937" lon="15.093306560790884"><ele>792.0</ele><time>2026-04-19T14:18:54Z</time></trkpt><trkpt lat="37.687260837692186" lon="15.093150276940955"><ele>792.0</ele><time>2026-04-19T14:18:55Z</time></trkpt><trkpt lat="37.68740072439954" lon="15.09303604399985"><ele>791.6666666666667</ele><time>2026-04-19T14:18:56Z</time></trkpt><trkpt lat="37.6875788022575" lon="15.092947343207392"><ele>791.3333333333334</ele><time>2026-04-19T14:18:57Z</time></trkpt><trkpt lat="37.68773272021734" lon="15.092849445159201"><ele>791.0</ele><time>2026-04-19T14:18:58Z</time></trkpt><trkpt lat="37.68783828138328" lon="15.092745092628446"><ele>791.0</ele><time>2026-04-19T14:18:59Z</time></trkpt><trkpt lat="37.68790296093771" lon="15.092607791484015"><ele>791.0</ele><time>2026-04-19T14:19:00Z</time></trkpt><trkpt lat="37.687920645498394" lon="15.092412526264424"><ele>791.0</ele><time>2026-04-19T14:19:01Z</time></trkpt><trkpt lat="37.687891367867216" lon="15.092199683258979"><ele>795.5</ele><time>2026-04-19T14:19:02Z</time></trkpt><trkpt lat="37.687878852013654" lon="15.092012467775545"><ele>800.0</ele><time>2026-04-19T14:19:03Z</time></trkpt><trkpt lat="37.68792537508151" lon="15.091872236930012"><ele>804.5</ele><time>2026-04-19T14:19:04Z</time></trkpt><trkpt lat="37.68803979301562" lon="15.091760878473268"><ele>809.0</ele><time>2026-04-19T14:19:05Z</time></trkpt><trkpt lat="37.68816899266301" lon="15.09163733835626"><ele>815.6666666666667</ele><time>2026-04-19T14:19:06Z</time></trkpt><trkpt lat="37.68825596384691" lon="15.091459053493036"><ele>822.3333333333333</ele><time>2026-04-19T14:19:07Z</time></trkpt><trkpt lat="37.68829482329242" lon="15.091237085774784"><ele>829.0</ele><time>2026-04-19T14:19:08Z</time></trkpt><trkpt lat="37.68831841942734" lon="15.091063099466204"><ele>829.0</ele><time>2026-04-19T14:19:09Z</time></trkpt><trkpt lat="37.688349501859825" lon="15.090935879836241"><ele>829.0</ele><time>2026-04-19T14:19:10Z</time></trkpt><trkpt lat="37.68840915020172" lon="15.090847395906792"><ele>829.0</ele><time>2026-04-19T14:19:11Z</time></trkpt><trkpt lat="37.68850994232425" lon="15.090809959577383"><ele>829.0</ele><time>2026-04-19T14:19:12Z</time></trkpt><trkpt lat="37.68864218944789" lon="15.090847729675724"><ele>829.0</ele><time>2026-04-19T14:19:13Z</time></trkpt><trkpt lat="37.68880168892634" lon="15.090953508952264"><ele>828.3333333333333</ele><time>2026-04-19T14:19:14Z</time></trkpt><trkpt lat="37.68898332308525" lon="15.0910611635191"><ele>827.6666666666667</ele><time>2026-04-19T14:19:15Z</time></trkpt><trkpt lat="37.689176965634545" lon="15.09116292528175"><ele>827.0</ele><time>2026-04-19T14:19:16Z</time></trkpt><trkpt lat="37.68936923207492" lon="15.091253922750049"><ele>831.0</ele><time>2026-04-19T14:19:17Z</time></trkpt><trkpt lat="37.689530848951975" lon="15.091332653862546"><ele>835.0</ele><time>2026-04-19T14:19:18Z</time></trkpt><trkpt lat="37.689671073854434" lon="15.091401486638294"><ele>839.0</ele><time>2026-04-19T14:19:19Z</time></trkpt><trkpt lat="37.689827444259265" lon="15.091420575088026"><ele>839.0</ele><time>2026-04-19T14:19:20Z</time></trkpt><trkpt lat="37.69000680505782" lon="15.091348951033707"><ele>839.0</ele><time>2026-04-19T14:19:21Z</time></trkpt><trkpt lat="37.6901613345311" lon="15.091286798880363"><ele>839.0</ele><time>2026-04-19T14:19:22Z</time></trkpt><trkpt lat="37.69031442701481" lon="15.09129814760436"><ele>842.6666666666667</ele><time>2026-04-19T14:19:23Z</time></trkpt><trkpt lat="37.690476186806194" lon="15.091394231276373"><ele>846.3333333333333</ele><time>2026-04-19T14:19:24Z</time></trkpt><trkpt lat="37.69065569273519" lon="15.091508188931922"><ele>850.0</ele><time>2026-04-19T14:19:25Z</time></trkpt><trkpt lat="37.69082618542404" lon="15.09154907994991"><ele>850.0</ele><time>2026-04-19T14:19:26Z</time></trkpt><trkpt lat="37.691002403723395" lon="15.09154999270636"><ele>850.0</ele><time>2026-04-19T14:19:27Z</time></trkpt><trkpt lat="37.69113661013378" lon="15.09154680864985"><ele>850.0</ele><time>2026-04-19T14:19:28Z</time></trkpt><trkpt lat="37.69126892881527" lon="15.091505039120056"><ele>850.0</ele><time>2026-04-19T14:19:29Z</time></trkpt><trkpt lat="37.69138810188034" lon="15.09137565974258"><ele>850.6666666666666</ele><time>2026-04-19T14:19:30Z</time></trkpt><trkpt lat="37.69150775841413" lon="15.091211273890611"><ele>851.3333333333333</ele><time>2026-04-19T14:19:31Z</time></trkpt><trkpt lat="37.69162980535472" lon="15.091069248830724"><ele>852.0</ele><time>2026-04-19T14:19:32Z</time></trkpt><trkpt lat="37.691759884137596" lon="15.090976306690367"><ele>853.0</ele><time>2026-04-19T14:19:33Z</time></trkpt><trkpt lat="37.691937226308795" lon="15.090935051865795"><ele>854.0</ele><time>2026-04-19T14:19:34Z</time></trkpt><trkpt lat="37.692122379565305" lon="15.090943598376613"><ele>855.0</ele><time>2026-04-19T14:19:35Z</time></trkpt><trkpt lat="37.69230786956504" lon="15.091011309773208"><ele>855.0</ele><time>2026-04-19T14:19:36Z</time></trkpt><trkpt lat="37.69247514137696" lon="15.091031409934994"><ele>855.0</ele><time>2026-04-19T14:19:37Z</time></trkpt><trkpt lat="37.69263871940239" lon="15.090974140179"><ele>855.0</ele><time>2026-04-19T14:19:38Z</time></trkpt><trkpt lat="37.69279495951234" lon="15.090878542940901"><ele>855.6666666666667</ele><time>2026-04-19T14:19:39Z</time></trkpt><trkpt lat="37.69295338382728" lon="15.090816052819664"><ele>856.3333333333334</ele><time>2026-04-19T14:19:40Z</time></trkpt><trkpt lat="37.693120815995115" lon="15.090817550241178"><ele>857.0</ele><time>2026-04-19T14:19:41Z</time></trkpt><trkpt lat="37.693265642002125" lon="15.09084082829971"><ele>857.0</ele><time>2026-04-19T14:19:42Z</time></trkpt><trkpt lat="37.693387024834266" lon="15.09085255935086"><ele>857.0</ele><time>2026-04-19T14:19:43Z</time></trkpt><trkpt lat="37.6934779869147" lon="15.090855095025402"><ele>857.0</ele><time>2026-04-19T14:19:44Z</time></trkpt><trkpt lat="37.69354999977833" lon="15.090863844422593"><ele>857.0</ele><time>2026-04-19T14:19:45Z</time></trkpt><trkpt lat="37.6936444573697" lon="15.09077996048167"><ele>857.0</ele><time>2026-04-19T14:19:47Z</time></trkpt><trkpt lat="37.69363561820421" lon="15.090688755146985"><ele>863.4000000000001</ele><time>2026-04-19T14:19:48Z</time></trkpt><trkpt lat="37.69354712981349" lon="15.09063926598938"><ele>869.8000000000001</ele><time>2026-04-19T14:19:49Z</time></trkpt><trkpt lat="37.69345450373768" lon="15.090629842408516"><ele>876.2</ele><time>2026-04-19T14:19:50Z</time></trkpt><trkpt lat="37.69333811611092" lon="15.090627403251322"><ele>882.6</ele><time>2026-04-19T14:19:51Z</time></trkpt><trkpt lat="37.69320736230743" lon="15.090605661817891"><ele>889.0</ele><time>2026-04-19T14:19:52Z</time></trkpt><trkpt lat="37.69307114597024" lon="15.090574433946164"><ele>889.0</ele><time>2026-04-19T14:19:53Z</time></trkpt><trkpt lat="37.69291062356904" lon="15.090539130387711"><ele>889.0</ele><time>2026-04-19T14:19:54Z</time></trkpt><trkpt lat="37.69273695986419" lon="15.090501304862135"><ele>889.0</ele><time>2026-04-19T14:19:55Z</time></trkpt><trkpt lat="37.69256020884017" lon="15.0904590898158"><ele>886.3333333333333</ele><time>2026-04-19T14:19:56Z</time></trkpt><trkpt lat="37.69237522505288" lon="15.090395463960252"><ele>883.6666666666667</ele><time>2026-04-19T14:19:57Z</time></trkpt><trkpt lat="37.692166447268825" lon="15.09028299900466"><ele>881.0</ele><time>2026-04-19T14:19:58Z</time></trkpt><trkpt lat="37.69193009902241" lon="15.090136575927078"><ele>878.0</ele><time>2026-04-19T14:19:59Z</time></trkpt><trkpt lat="37.69167724981337" lon="15.089988257634891"><ele>875.0</ele><time>2026-04-19T14:20:00Z</time></trkpt><trkpt lat="37.69147158311717" lon="15.089886057768448"><ele>878.0</ele><time>2026-04-19T14:20:01Z</time></trkpt><trkpt lat="37.69128517646585" lon="15.089784213714013"><ele>881.0</ele><time>2026-04-19T14:20:02Z</time></trkpt><trkpt lat="37.69111338969302" lon="15.089678629915202"><ele>884.0</ele><time>2026-04-19T14:20:03Z</time></trkpt><trkpt lat="37.69094266328645" lon="15.0895286428753"><ele>884.0</ele><time>2026-04-19T14:20:04Z</time></trkpt><trkpt lat="37.69076549276714" lon="15.089339149675839"><ele>884.0</ele><time>2026-04-19T14:20:05Z</time></trkpt><trkpt lat="37.69058234561069" lon="15.08912822442262"><ele>885.6666666666667</ele><time>2026-04-19T14:20:06Z</time></trkpt><trkpt lat="37.69042380240717" lon="15.088948110257522"><ele>887.3333333333333</ele><time>2026-04-19T14:20:07Z</time></trkpt><trkpt lat="37.69028484520825" lon="15.088796611775035"><ele>889.0</ele><time>2026-04-19T14:20:08Z</time></trkpt><trkpt lat="37.69017361911384" lon="15.08865918688694"><ele>889.0</ele><time>2026-04-19T14:20:09Z</time></trkpt><trkpt lat="37.69009467032146" lon="15.088495873969258"><ele>889.0</ele><time>2026-04-19T14:20:10Z</time></trkpt><trkpt lat="37.690043706691604" lon="15.088285932100511"><ele>889.0</ele><time>2026-04-19T14:20:11Z</time></trkpt><trkpt lat="37.69000447451713" lon="15.088074753347701"><ele>895.3333333333333</ele><time>2026-04-19T14:20:12Z</time></trkpt><trkpt lat="37.68993768857043" lon="15.087901494935155"><ele>901.6666666666667</ele><time>2026-04-19T14:20:13Z</time></trkpt><trkpt lat="37.689831805420226" lon="15.087763177909864"><ele>908.0</ele><time>2026-04-19T14:20:14Z</time></trkpt><trkpt lat="37.68967822971165" lon="15.087650974776022"><ele>908.0</ele><time>2026-04-19T14:20:15Z</time></trkpt><trkpt lat="37.68947096146351" lon="15.08754423719824"><ele>908.0</ele><time>2026-04-19T14:20:16Z</time></trkpt><trkpt lat="37.68923294265079" lon="15.087419131567216"><ele>912.3333333333334</ele><time>2026-04-19T14:20:17Z</time></trkpt><trkpt lat="37.689018033013774" lon="15.08729401935095"><ele>916.6666666666667</ele><time>2026-04-19T14:20:18Z</time></trkpt><trkpt lat="37.68883201826597" lon="15.08718679417431"><ele>921.0</ele><time>2026-04-19T14:20:19Z</time></trkpt><trkpt lat="37.688664678777016" lon="15.087095698533801"><ele>923.3333333333333</ele><time>2026-04-19T14:20:20Z</time></trkpt><trkpt lat="37.68851240327297" lon="15.087038453628637"><ele>925.6666666666666</ele><time>2026-04-19T14:20:21Z</time></trkpt><trkpt lat="37.68836759493356" lon="15.08703536384399"><ele>928.0</ele><time>2026-04-19T14:20:22Z</time></trkpt><trkpt lat="37.688212219889934" lon="15.087093958588317"><ele>928.0</ele><time>2026-04-19T14:20:23Z</time></trkpt><trkpt lat="37.68804636490535" lon="15.087192132059277"><ele>928.0</ele><time>2026-04-19T14:20:24Z</time></trkpt><trkpt lat="37.68786689637914" lon="15.087255478249752"><ele>928.0</ele><time>2026-04-19T14:20:25Z</time></trkpt><trkpt lat="37.68770882935818" lon="15.087347587463645"><ele>931.0</ele><time>2026-04-19T14:20:26Z</time></trkpt><trkpt lat="37.68755179035466" lon="15.087396279458813"><ele>934.0</ele><time>2026-04-19T14:20:27Z</time></trkpt><trkpt lat="37.68738797559608" lon="15.087395699920968"><ele>937.0</ele><time>2026-04-19T14:20:28Z</time></trkpt><trkpt lat="37.68724145154866" lon="15.08739604046621"><ele>937.0</ele><time>2026-04-19T14:20:29Z</time></trkpt><trkpt lat="37.68706842362964" lon="15.087355977834108"><ele>937.0</ele><time>2026-04-19T14:20:30Z</time></trkpt><trkpt lat="37.68688215595156" lon="15.087256953536812"><ele>937.0</ele><time>2026-04-19T14:20:31Z</time></trkpt><trkpt lat="37.686692885652604" lon="15.087146070622353"><ele>937.0</ele><time>2026-04-19T14:20:32Z</time></trkpt><trkpt lat="37.6865353643089" lon="15.087076162769236"><ele>937.0</ele><time>2026-04-19T14:20:33Z</time></trkpt><trkpt lat="37.686388136760414" lon="15.087019143736219"><ele>937.0</ele><time>2026-04-19T14:20:34Z</time></trkpt><trkpt lat="37.68623577931362" lon="15.087011784187094"><ele>937.0</ele><time>2026-04-19T14:20:35Z</time></trkpt><trkpt lat="37.686112976901526" lon="15.087059747431981"><ele>937.0</ele><time>2026-04-19T14:20:36Z</time></trkpt><trkpt lat="37.68599821970091" lon="15.087161899012287"><ele>937.0</ele><time>2026-04-19T14:20:37Z</time></trkpt><trkpt lat="37.6859065039929" lon="15.087316993650033"><ele>937.0</ele><time>2026-04-19T14:20:38Z</time></trkpt><trkpt lat="37.68583306301058" lon="15.087512293000607"><ele>935.6</ele><time>2026-04-19T14:20:39Z</time></trkpt><trkpt lat="37.685756975500595" lon="15.087652813786653"><ele>934.2</ele><time>2026-04-19T14:20:40Z</time></trkpt><trkpt lat="37.685674402134474" lon="15.08775232528078"><ele>932.8</ele><time>2026-04-19T14:20:41Z</time></trkpt><trkpt lat="37.68558237483095" lon="15.087806135869627"><ele>931.4</ele><time>2026-04-19T14:20:42Z</time></trkpt><trkpt lat="37.68549291321943" lon="15.087793848199425"><ele>930.0</ele><time>2026-04-19T14:20:43Z</time></trkpt><trkpt lat="37.68542002325387" lon="15.087748723131263"><ele>930.0</ele><time>2026-04-19T14:20:44Z</time></trkpt><trkpt lat="37.68536418289469" lon="15.087659522905957"><ele>930.0</ele><time>2026-04-19T14:20:45Z</time></trkpt><trkpt lat="37.68536298331144" lon="15.087551231877166"><ele>930.0</ele><time>2026-04-19T14:20:46Z</time></trkpt><trkpt lat="37.68539442148233" lon="15.087437788070929"><ele>930.0</ele><time>2026-04-19T14:20:47Z</time></trkpt><trkpt lat="37.685464243841025" lon="15.087304086229565"><ele>930.0</ele><time>2026-04-19T14:20:48Z</time></trkpt><trkpt lat="37.685553574516426" lon="15.087144279910806"><ele>936.3333333333333</ele><time>2026-04-19T14:20:49Z</time></trkpt><trkpt lat="37.68564926694046" lon="15.086959333291055"><ele>942.6666666666666</ele><time>2026-04-19T14:20:50Z</time></trkpt><trkpt lat="37.685773977113236" lon="15.086709469043738"><ele>949.0</ele><time>2026-04-19T14:20:51Z</time></trkpt><trkpt lat="37.68590411057152" lon="15.086441701534708"><ele>950.0</ele><time>2026-04-19T14:20:52Z</time></trkpt><trkpt lat="37.68601199763352" lon="15.086224286603427"><ele>951.0</ele><time>2026-04-19T14:20:53Z</time></trkpt><trkpt lat="37.68611108146824" lon="15.086032638673267"><ele>952.0</ele><time>2026-04-19T14:20:54Z</time></trkpt><trkpt lat="37.68620179844331" lon="15.085869941707244"><ele>955.25</ele><time>2026-04-19T14:20:55Z</time></trkpt><trkpt lat="37.68630271180645" lon="15.085753944713924"><ele>958.5</ele><time>2026-04-19T14:20:56Z</time></trkpt><trkpt lat="37.686423693568734" lon="15.085691648952983"><ele>961.75</ele><time>2026-04-19T14:20:57Z</time></trkpt><trkpt lat="37.68655274347014" lon="15.085691116063227"><ele>965.0</ele><time>2026-04-19T14:20:58Z</time></trkpt><trkpt lat="37.686695845655905" lon="15.085743544209755"><ele>965.0</ele><time>2026-04-19T14:20:59Z</time></trkpt><trkpt lat="37.6868535663615" lon="15.085751092577638"><ele>965.0</ele><time>2026-04-19T14:21:00Z</time></trkpt><trkpt lat="37.6869877586461" lon="15.085695149425321"><ele>965.0</ele><time>2026-04-19T14:21:01Z</time></trkpt><trkpt lat="37.6871025847319" lon="15.085569866847662"><ele>964.25</ele><time>2026-04-19T14:21:02Z</time></trkpt><trkpt lat="37.68720304929866" lon="15.085410912456593"><ele>963.5</ele><time>2026-04-19T14:21:03Z</time></trkpt><trkpt lat="37.68730253665435" lon="15.085259903749126"><ele>962.75</ele><time>2026-04-19T14:21:04Z</time></trkpt><trkpt lat="37.68739288152931" lon="15.085162544570515"><ele>962.0</ele><time>2026-04-19T14:21:05Z</time></trkpt><trkpt lat="37.68751092485613" lon="15.085116889441847"><ele>962.0</ele><time>2026-04-19T14:21:06Z</time></trkpt><trkpt lat="37.687662824565415" lon="15.085123844712122"><ele>962.0</ele><time>2026-04-19T14:21:07Z</time></trkpt><trkpt lat="37.687826039325735" lon="15.085165165960339"><ele>962.0</ele><time>2026-04-19T14:21:08Z</time></trkpt><trkpt lat="37.688003005457865" lon="15.085198910673567"><ele>964.0</ele><time>2026-04-19T14:21:09Z</time></trkpt><trkpt lat="37.68817582551791" lon="15.085188305552897"><ele>966.0</ele><time>2026-04-19T14:21:10Z</time></trkpt><trkpt lat="37.688348953887306" lon="15.085121455801442"><ele>968.0</ele><time>2026-04-19T14:21:11Z</time></trkpt><trkpt lat="37.68852601907259" lon="15.08503224085076"><ele>969.0</ele><time>2026-04-19T14:21:12Z</time></trkpt><trkpt lat="37.68872744664198" lon="15.084994192573307"><ele>970.0</ele><time>2026-04-19T14:21:13Z</time></trkpt><trkpt lat="37.68896585514891" lon="15.08496990325972"><ele>971.0</ele><time>2026-04-19T14:21:14Z</time></trkpt><trkpt lat="37.689194712299" lon="15.084946243634425"><ele>978.6666666666667</ele><time>2026-04-19T14:21:15Z</time></trkpt><trkpt lat="37.689385453022254" lon="15.084920514738917"><ele>986.3333333333333</ele><time>2026-04-19T14:21:16Z</time></trkpt><trkpt lat="37.6895765489449" lon="15.084857058096594"><ele>994.0</ele><time>2026-04-19T14:21:17Z</time></trkpt><trkpt lat="37.68973697918904" lon="15.084755206756672"><ele>994.0</ele><time>2026-04-19T14:21:18Z</time></trkpt><trkpt lat="37.689896982354085" lon="15.0846580221702"><ele>994.0</ele><time>2026-04-19T14:21:19Z</time></trkpt><trkpt lat="37.690093313565804" lon="15.084604469896785"><ele>994.0</ele><time>2026-04-19T14:21:20Z</time></trkpt><trkpt lat="37.6903087345458" lon="15.084571378478424"><ele>995.0</ele><time>2026-04-19T14:21:21Z</time></trkpt><trkpt lat="37.69052276238485" lon="15.084522652925758"><ele>996.0</ele><time>2026-04-19T14:21:22Z</time></trkpt><trkpt lat="37.69069571394583" lon="15.084480684196382"><ele>997.0</ele><time>2026-04-19T14:21:23Z</time></trkpt><trkpt lat="37.69083854746074" lon="15.084447484086573"><ele>997.0</ele><time>2026-04-19T14:21:24Z</time></trkpt><trkpt lat="37.690953595822194" lon="15.084396819197671"><ele>997.0</ele><time>2026-04-19T14:21:25Z</time></trkpt><trkpt lat="37.69105201523869" lon="15.084282632443967"><ele>997.0</ele><time>2026-04-19T14:21:26Z</time></trkpt><trkpt lat="37.69112782219576" lon="15.084116949470783"><ele>997.0</ele><time>2026-04-19T14:21:27Z</time></trkpt><trkpt lat="37.69120832157329" lon="15.08396193934918"><ele>1000.3333333333333</ele><time>2026-04-19T14:21:28Z</time></trkpt><trkpt lat="37.691334731551365" lon="15.083845275561696"><ele>1003.6666666666667</ele><time>2026-04-19T14:21:29Z</time></trkpt><trkpt lat="37.69149382135008" lon="15.083763038496548"><ele>1007.0</ele><time>2026-04-19T14:21:30Z</time></trkpt><trkpt lat="37.69165551661328" lon="15.08369832688554"><ele>1007.0</ele><time>2026-04-19T14:21:31Z</time></trkpt><trkpt lat="37.69180850864278" lon="15.083633920711115"><ele>1007.0</ele><time>2026-04-19T14:21:32Z</time></trkpt><trkpt lat="37.69197454501023" lon="15.083611278424778"><ele>1007.0</ele><time>2026-04-19T14:21:33Z</time></trkpt><trkpt lat="37.69214617270402" lon="15.083611211201553"><ele>1009.0</ele><time>2026-04-19T14:21:34Z</time></trkpt><trkpt lat="37.69229184117834" lon="15.083590584701835"><ele>1011.0</ele><time>2026-04-19T14:21:35Z</time></trkpt><trkpt lat="37.692438276775455" lon="15.083513755036629"><ele>1013.0</ele><time>2026-04-19T14:21:36Z</time></trkpt><trkpt lat="37.69257562626963" lon="15.083386183350203"><ele>1013.0</ele><time>2026-04-19T14:21:37Z</time></trkpt><trkpt lat="37.69270702373091" lon="15.083286167606028"><ele>1013.0</ele><time>2026-04-19T14:21:38Z</time></trkpt><trkpt lat="37.692842803112256" lon="15.08325352164313"><ele>1013.0</ele><time>2026-04-19T14:21:39Z</time></trkpt><trkpt lat="37.69300535128352" lon="15.083268878697318"><ele>1014.6666666666667</ele><time>2026-04-19T14:21:40Z</time></trkpt><trkpt lat="37.69319422702867" lon="15.083318930649705"><ele>1016.3333333333333</ele><time>2026-04-19T14:21:41Z</time></trkpt><trkpt lat="37.69337356311799" lon="15.08333153424314"><ele>1018.0</ele><time>2026-04-19T14:21:42Z</time></trkpt><trkpt lat="37.69352590155532" lon="15.08325223493408"><ele>1021.25</ele><time>2026-04-19T14:21:43Z</time></trkpt><trkpt lat="37.69366959451171" lon="15.083132691963407"><ele>1024.5</ele><time>2026-04-19T14:21:44Z</time></trkpt><trkpt lat="37.693781587692555" lon="15.083041240784556"><ele>1027.75</ele><time>2026-04-19T14:21:45Z</time></trkpt><trkpt lat="37.69391331623105" lon="15.08300573932597"><ele>1031.0</ele><time>2026-04-19T14:21:46Z</time></trkpt><trkpt lat="37.69407086757003" lon="15.083021265988302"><ele>1031.0</ele><time>2026-04-19T14:21:47Z</time></trkpt><trkpt lat="37.694266630403675" lon="15.08301311091901"><ele>1031.0</ele><time>2026-04-19T14:21:48Z</time></trkpt><trkpt lat="37.69449306724275" lon="15.082991180305001"><ele>1031.0</ele><time>2026-04-19T14:21:49Z</time></trkpt><trkpt lat="37.69467633037058" lon="15.08295670555133"><ele>1030.3333333333335</ele><time>2026-04-19T14:21:50Z</time></trkpt><trkpt lat="37.694834906413014" lon="15.082941060201515"><ele>1029.6666666666667</ele><time>2026-04-19T14:21:51Z</time></trkpt><trkpt lat="37.695005793937604" lon="15.082964813932312"><ele>1029.0</ele><time>2026-04-19T14:21:52Z</time></trkpt><trkpt lat="37.69517871845374" lon="15.083029153808834"><ele>1029.3333333333333</ele><time>2026-04-19T14:21:53Z</time></trkpt><trkpt lat="37.695344041989664" lon="15.083070265303745"><ele>1029.6666666666665</ele><time>2026-04-19T14:21:54Z</time></trkpt><trkpt lat="37.695524231873115" lon="15.083088608395675"><ele>1030.0</ele><time>2026-04-19T14:21:55Z</time></trkpt><trkpt lat="37.695683252267955" lon="15.08310193290273"><ele>1030.0</ele><time>2026-04-19T14:21:56Z</time></trkpt><trkpt lat="37.6958281731784" lon="15.083121160552311"><ele>1030.0</ele><time>2026-04-19T14:21:57Z</time></trkpt><trkpt lat="37.6959590524894" lon="15.08317768995206"><ele>1030.0</ele><time>2026-04-19T14:21:58Z</time></trkpt><trkpt lat="37.6960687546686" lon="15.083263125514197"><ele>1030.0</ele><time>2026-04-19T14:21:59Z</time></trkpt><trkpt lat="37.6961605627901" lon="15.083321174132557"><ele>1029.8</ele><time>2026-04-19T14:22:00Z</time></trkpt><trkpt lat="37.696254097848374" lon="15.083315865020595"><ele>1029.6</ele><time>2026-04-19T14:22:01Z</time></trkpt><trkpt lat="37.69634722120091" lon="15.083263212512716"><ele>1029.4</ele><time>2026-04-19T14:22:02Z</time></trkpt><trkpt lat="37.69642899673369" lon="15.083153880009291"><ele>1029.2</ele><time>2026-04-19T14:22:03Z</time></trkpt><trkpt lat="37.69649673714472" lon="15.083020313649257"><ele>1029.0</ele><time>2026-04-19T14:22:04Z</time></trkpt><trkpt lat="37.69654360661098" lon="15.082814437573864"><ele>1029.0</ele><time>2026-04-19T14:22:05Z</time></trkpt><trkpt lat="37.69660914416838" lon="15.08253859372197"><ele>1029.0</ele><time>2026-04-19T14:22:06Z</time></trkpt><trkpt lat="37.696693264961425" lon="15.082233207706716"><ele>1032.0</ele><time>2026-04-19T14:22:07Z</time></trkpt><trkpt lat="37.69677653295793" lon="15.081994948046429"><ele>1035.0</ele><time>2026-04-19T14:22:08Z</time></trkpt><trkpt lat="37.6968516273449" lon="15.081807616468977"><ele>1038.0</ele><time>2026-04-19T14:22:09Z</time></trkpt><trkpt lat="37.69693344903016" lon="15.081653164658528"><ele>1042.3333333333333</ele><time>2026-04-19T14:22:10Z</time></trkpt><trkpt lat="37.6969827652724" lon="15.081480987366355"><ele>1046.6666666666665</ele><time>2026-04-19T14:22:11Z</time></trkpt><trkpt lat="37.696964768699104" lon="15.081242836471384"><ele>1051.0</ele><time>2026-04-19T14:22:12Z</time></trkpt><trkpt lat="37.696968164728254" lon="15.080982021709598"><ele>1055.6666666666665</ele><time>2026-04-19T14:22:13Z</time></trkpt><trkpt lat="37.69697666988229" lon="15.080726236710271"><ele>1060.3333333333333</ele><time>2026-04-19T14:22:14Z</time></trkpt><trkpt lat="37.696982522557796" lon="15.080480833679099"><ele>1065.0</ele><time>2026-04-19T14:22:15Z</time></trkpt><trkpt lat="37.696977054595315" lon="15.080280875480453"><ele>1065.0</ele><time>2026-04-19T14:22:16Z</time></trkpt><trkpt lat="37.696953843172956" lon="15.080089160579892"><ele>1065.0</ele><time>2026-04-19T14:22:17Z</time></trkpt><trkpt lat="37.696890181028174" lon="15.079911012406384"><ele>1065.0</ele><time>2026-04-19T14:22:18Z</time></trkpt><trkpt lat="37.69681390314477" lon="15.079732205806069"><ele>1064.3333333333333</ele><time>2026-04-19T14:22:19Z</time></trkpt><trkpt lat="37.69675761255191" lon="15.079545051314858"><ele>1063.6666666666665</ele><time>2026-04-19T14:22:20Z</time></trkpt><trkpt lat="37.696737129291634" lon="15.07934045649608"><ele>1063.0</ele><time>2026-04-19T14:22:21Z</time></trkpt><trkpt lat="37.69673783332628" lon="15.079132451044554"><ele>1064.6666666666665</ele><time>2026-04-19T14:22:22Z</time></trkpt><trkpt lat="37.69674761802401" lon="15.07892517392109"><ele>1066.3333333333333</ele><time>2026-04-19T14:22:23Z</time></trkpt><trkpt lat="37.69675439969682" lon="15.078744329268318"><ele>1068.0</ele><time>2026-04-19T14:22:24Z</time></trkpt><trkpt lat="37.69679145410533" lon="15.078547278682693"><ele>1068.0</ele><time>2026-04-19T14:22:25Z</time></trkpt><trkpt lat="37.696857549945015" lon="15.078332909443805"><ele>1068.0</ele><time>2026-04-19T14:22:26Z</time></trkpt><trkpt lat="37.69693172685457" lon="15.0780960491579"><ele>1068.0</ele><time>2026-04-19T14:22:27Z</time></trkpt><trkpt lat="37.69700642858866" lon="15.077851559575091"><ele>1071.5</ele><time>2026-04-19T14:22:28Z</time></trkpt><trkpt lat="37.69706932435075" lon="15.077640892624606"><ele>1075.0</ele><time>2026-04-19T14:22:29Z</time></trkpt><trkpt lat="37.6971171245416" lon="15.0774724681083"><ele>1078.5</ele><time>2026-04-19T14:22:30Z</time></trkpt><trkpt lat="37.697143510263636" lon="15.077333766139366"><ele>1082.0</ele><time>2026-04-19T14:22:31Z</time></trkpt><trkpt lat="37.69712611114174" lon="15.077193741622255"><ele>1083.0</ele><time>2026-04-19T14:22:32Z</time></trkpt><trkpt lat="37.697063981136175" lon="15.077037922898345"><ele>1084.0</ele><time>2026-04-19T14:22:33Z</time></trkpt><trkpt lat="37.69695842468676" lon="15.076860209918685"><ele>1085.0</ele><time>2026-04-19T14:22:34Z</time></trkpt><trkpt lat="37.69682578769478" lon="15.076647255440632"><ele>1090.0</ele><time>2026-04-19T14:22:35Z</time></trkpt><trkpt lat="37.69668010723074" lon="15.076417109382891"><ele>1095.0</ele><time>2026-04-19T14:22:36Z</time></trkpt><trkpt lat="37.6965749814852" lon="15.076234372926395"><ele>1100.0</ele><time>2026-04-19T14:22:37Z</time></trkpt><trkpt lat="37.69645282430303" lon="15.07609300041649"><ele>1100.0</ele><time>2026-04-19T14:22:38Z</time></trkpt><trkpt lat="37.696326966285476" lon="15.076019423198302"><ele>1100.0</ele><time>2026-04-19T14:22:39Z</time></trkpt><trkpt lat="37.6961896097754" lon="15.075999392867734"><ele>1100.0</ele><time>2026-04-19T14:22:40Z</time></trkpt><trkpt lat="37.69606541498307" lon="15.075965627787173"><ele>1100.0</ele><time>2026-04-19T14:22:41Z</time></trkpt><trkpt lat="37.695960325076086" lon="15.07585858684082"><ele>1100.6</ele><time>2026-04-19T14:22:42Z</time></trkpt><trkpt lat="37.69589348409692" lon="15.075756444135454"><ele>1101.2</ele><time>2026-04-19T14:22:43Z</time></trkpt><trkpt lat="37.69585940597263" lon="15.075660432342303"><ele>1101.8</ele><time>2026-04-19T14:22:44Z</time></trkpt><trkpt lat="37.69586412005264" lon="15.075542656287913"><ele>1102.4</ele><time>2026-04-19T14:22:45Z</time></trkpt><trkpt lat="37.69591845987457" lon="15.075433577978592"><ele>1103.0</ele><time>2026-04-19T14:22:46Z</time></trkpt><trkpt lat="37.69594481428455" lon="15.075275311986932"><ele>1103.0</ele><time>2026-04-19T14:22:47Z</time></trkpt><trkpt lat="37.69598371583707" lon="15.075089132127914"><ele>1103.0</ele><time>2026-04-19T14:22:48Z</time></trkpt><trkpt lat="37.69626730356631" lon="15.074941205193761"><ele>1104.75</ele><time>2026-04-19T14:22:49Z</time></trkpt><trkpt lat="37.69637905729608" lon="15.074761185392923"><ele>1106.5</ele><time>2026-04-19T14:22:50Z</time></trkpt><trkpt lat="37.69646183359688" lon="15.074618106762234"><ele>1108.25</ele><time>2026-04-19T14:22:51Z</time></trkpt><trkpt lat="37.696502008379916" lon="15.074475443263104"><ele>1110.0</ele><time>2026-04-19T14:22:52Z</time></trkpt><trkpt lat="37.69650084931623" lon="15.074307701619656"><ele>1110.0</ele><time>2026-04-19T14:22:53Z</time></trkpt><trkpt lat="37.69646638774117" lon="15.074153100111703"><ele>1110.0</ele><time>2026-04-19T14:22:54Z</time></trkpt><trkpt lat="37.696392990577245" lon="15.074034590760442"><ele>1110.0</ele><time>2026-04-19T14:22:55Z</time></trkpt><trkpt lat="37.69626678531938" lon="15.073920363372233"><ele>1110.0</ele><time>2026-04-19T14:22:56Z</time></trkpt><trkpt lat="37.69608873919021" lon="15.073828727834556"><ele>1113.5</ele><time>2026-04-19T14:22:57Z</time></trkpt><trkpt lat="37.6958656391832" lon="15.073740463908777"><ele>1117.0</ele><time>2026-04-19T14:22:58Z</time></trkpt><trkpt lat="37.695615608369344" lon="15.073652181905603"><ele>1117.0</ele><time>2026-04-19T14:22:59Z</time></trkpt><trkpt lat="37.69540770318575" lon="15.073562577803324"><ele>1117.0</ele><time>2026-04-19T14:23:00Z</time></trkpt><trkpt lat="37.695215430879074" lon="15.07347510824975"><ele>1117.0</ele><time>2026-04-19T14:23:01Z</time></trkpt><trkpt lat="37.695039596366286" lon="15.073393368776633"><ele>1116.3333333333333</ele><time>2026-04-19T14:23:02Z</time></trkpt><trkpt lat="37.69487887898468" lon="15.073356660148002"><ele>1115.6666666666667</ele><time>2026-04-19T14:23:03Z</time></trkpt><trkpt lat="37.69473566536062" lon="15.073390031608145"><ele>1115.0</ele><time>2026-04-19T14:23:04Z</time></trkpt><trkpt lat="37.694600292883614" lon="15.073475340687152"><ele>1115.0</ele><time>2026-04-19T14:23:05Z</time></trkpt><trkpt lat="37.69446561297313" lon="15.073612154263053"><ele>1115.0</ele><time>2026-04-19T14:23:06Z</time></trkpt><trkpt lat="37.694341010370294" lon="15.073739044308391"><ele>1115.0</ele><time>2026-04-19T14:23:07Z</time></trkpt><trkpt lat="37.69422183762282" lon="15.073826223938154"><ele>1115.2</ele><time>2026-04-19T14:23:08Z</time></trkpt><trkpt lat="37.69411124640429" lon="15.07385951384966"><ele>1115.4</ele><time>2026-04-19T14:23:09Z</time></trkpt><trkpt lat="37.69401208604144" lon="15.07384876773761"><ele>1115.6</ele><time>2026-04-19T14:23:10Z</time></trkpt><trkpt lat="37.69390024610471" lon="15.073799642343348"><ele>1115.8</ele><time>2026-04-19T14:23:11Z</time></trkpt><trkpt lat="37.69381149394606" lon="15.073715295031288"><ele>1116.0</ele><time>2026-04-19T14:23:12Z</time></trkpt><trkpt lat="37.69376772006131" lon="15.07359775142236"><ele>1116.0</ele><time>2026-04-19T14:23:13Z</time></trkpt><trkpt lat="37.69374382648482" lon="15.073448979055081"><ele>1116.0</ele><time>2026-04-19T14:23:14Z</time></trkpt><trkpt lat="37.693756775333554" lon="15.073294368784973"><ele>1116.0</ele><time>2026-04-19T14:23:15Z</time></trkpt><trkpt lat="37.693811426729845" lon="15.07315361657909"><ele>1116.0</ele><time>2026-04-19T14:23:16Z</time></trkpt><trkpt lat="37.69391020050045" lon="15.073020477561764"><ele>1118.6666666666667</ele><time>2026-04-19T14:23:17Z</time></trkpt><trkpt lat="37.69405468933421" lon="15.072859072678787"><ele>1121.3333333333335</ele><time>2026-04-19T14:23:18Z</time></trkpt><trkpt lat="37.694240276552385" lon="15.07265371357092"><ele>1124.0</ele><time>2026-04-19T14:23:19Z</time></trkpt><trkpt lat="37.69445719317157" lon="15.072412966058174"><ele>1130.0</ele><time>2026-04-19T14:23:20Z</time></trkpt><trkpt lat="37.69466556628844" lon="15.072173371559353"><ele>1136.0</ele><time>2026-04-19T14:23:21Z</time></trkpt><trkpt lat="37.69484315528502" lon="15.071971736874435"><ele>1136.0</ele><time>2026-04-19T14:23:22Z</time></trkpt><trkpt lat="37.695008864371545" lon="15.071778644517055"><ele>1136.0</ele><time>2026-04-19T14:23:23Z</time></trkpt><trkpt lat="37.69515264249601" lon="15.071623297687733"><ele>1136.0</ele><time>2026-04-19T14:23:24Z</time></trkpt><trkpt lat="37.695302771927345" lon="15.071511811457405"><ele>1140.0</ele><time>2026-04-19T14:23:25Z</time></trkpt><trkpt lat="37.69548248704255" lon="15.071445085474531"><ele>1144.0</ele><time>2026-04-19T14:23:26Z</time></trkpt><trkpt lat="37.69568539548094" lon="15.071416249716005"><ele>1148.0</ele><time>2026-04-19T14:23:27Z</time></trkpt><trkpt lat="37.69586613975163" lon="15.071391346327939"><ele>1148.0</ele><time>2026-04-19T14:23:28Z</time></trkpt><trkpt lat="37.696020074773905" lon="15.071338646408192"><ele>1148.0</ele><time>2026-04-19T14:23:29Z</time></trkpt><trkpt lat="37.69615034244179" lon="15.071244928297336"><ele>1148.0</ele><time>2026-04-19T14:23:30Z</time></trkpt><trkpt lat="37.69625382262555" lon="15.071102643320867"><ele>1149.5</ele><time>2026-04-19T14:23:31Z</time></trkpt><trkpt lat="37.69630766248413" lon="15.070941970287237"><ele>1151.0</ele><time>2026-04-19T14:23:32Z</time></trkpt><trkpt lat="37.69631268181748" lon="15.070807653504517"><ele>1152.5</ele><time>2026-04-19T14:23:33Z</time></trkpt><trkpt lat="37.69627939134172" lon="15.070653094287051"><ele>1154.0</ele><time>2026-04-19T14:23:34Z</time></trkpt><trkpt lat="37.69620352900774" lon="15.070489278793763"><ele>1156.0</ele><time>2026-04-19T14:23:35Z</time></trkpt><trkpt lat="37.69613029756454" lon="15.070376021803543"><ele>1158.0</ele><time>2026-04-19T14:23:36Z</time></trkpt><trkpt lat="37.69605336998762" lon="15.070309654737251"><ele>1160.0</ele><time>2026-04-19T14:23:37Z</time></trkpt><trkpt lat="37.69597916034158" lon="15.070280192461945"><ele>1162.0</ele><time>2026-04-19T14:23:38Z</time></trkpt><trkpt lat="37.695861373977465" lon="15.070253876588486"><ele>1164.0</ele><time>2026-04-19T14:23:40Z</time></trkpt><trkpt lat="37.695747233486024" lon="15.070208242583822"><ele>1164.25</ele><time>2026-04-19T14:23:42Z</time></trkpt><trkpt lat="37.69564258219014" lon="15.0701733057359"><ele>1164.5</ele><time>2026-04-19T14:23:43Z</time></trkpt><trkpt lat="37.695516247002146" lon="15.070132019530647"><ele>1164.75</ele><time>2026-04-19T14:23:44Z</time></trkpt><trkpt lat="37.69537797938018" lon="15.070080284700106"><ele>1165.0</ele><time>2026-04-19T14:23:45Z</time></trkpt><trkpt lat="37.69522450859263" lon="15.070022451440144"><ele>1165.6666666666665</ele><time>2026-04-19T14:23:46Z</time></trkpt><trkpt lat="37.695062584636815" lon="15.069960181290824"><ele>1166.3333333333333</ele><time>2026-04-19T14:23:47Z</time></trkpt><trkpt lat="37.69490373881352" lon="15.069887021654282"><ele>1167.0</ele><time>2026-04-19T14:23:48Z</time></trkpt><trkpt lat="37.69476071816791" lon="15.069779347208405"><ele>1169.0</ele><time>2026-04-19T14:23:49Z</time></trkpt><trkpt lat="37.694624418248935" lon="15.069631932814195"><ele>1171.0</ele><time>2026-04-19T14:23:50Z</time></trkpt><trkpt lat="37.69446004232601" lon="15.069444999472653"><ele>1173.0</ele><time>2026-04-19T14:23:51Z</time></trkpt><trkpt lat="37.69427518078131" lon="15.069244942134876"><ele>1178.0</ele><time>2026-04-19T14:23:52Z</time></trkpt><trkpt lat="37.69410979813475" lon="15.069066782520313"><ele>1183.0</ele><time>2026-04-19T14:23:53Z</time></trkpt><trkpt lat="37.693954390716044" lon="15.068899940273301"><ele>1188.0</ele><time>2026-04-19T14:23:54Z</time></trkpt><trkpt lat="37.69381890447819" lon="15.068757549871446"><ele>1188.0</ele><time>2026-04-19T14:23:55Z</time></trkpt><trkpt lat="37.69370589447341" lon="15.068633807804307"><ele>1188.0</ele><time>2026-04-19T14:23:56Z</time></trkpt><trkpt lat="37.69361670498452" lon="15.068523370325789"><ele>1188.0</ele><time>2026-04-19T14:23:57Z</time></trkpt><trkpt lat="37.69355912531621" lon="15.068405063218885"><ele>1188.0</ele><time>2026-04-19T14:23:58Z</time></trkpt><trkpt lat="37.6935442580638" lon="15.068273300839522"><ele>1188.5</ele><time>2026-04-19T14:23:59Z</time></trkpt><trkpt lat="37.6935670773922" lon="15.06813699106698"><ele>1189.0</ele><time>2026-04-19T14:24:00Z</time></trkpt><trkpt lat="37.69363075413629" lon="15.068009690923548"><ele>1189.5</ele><time>2026-04-19T14:24:01Z</time></trkpt><trkpt lat="37.6937248957847" lon="15.067914015480218"><ele>1190.0</ele><time>2026-04-19T14:24:02Z</time></trkpt><trkpt lat="37.69384130283133" lon="15.067859402986242"><ele>1191.75</ele><time>2026-04-19T14:24:03Z</time></trkpt><trkpt lat="37.69396355234784" lon="15.067860944041179"><ele>1193.5</ele><time>2026-04-19T14:24:04Z</time></trkpt><trkpt lat="37.694083968030796" lon="15.067927362887946"><ele>1195.25</ele><time>2026-04-19T14:24:05Z</time></trkpt><trkpt lat="37.694186146995825" lon="15.068050980841953"><ele>1197.0</ele><time>2026-04-19T14:24:06Z</time></trkpt><trkpt lat="37.69430644502757" lon="15.068219861525971"><ele>1197.0</ele><time>2026-04-19T14:24:07Z</time></trkpt><trkpt lat="37.69445026856269" lon="15.068401427545648"><ele>1197.0</ele><time>2026-04-19T14:24:08Z</time></trkpt><trkpt lat="37.69460301113106" lon="15.068579755281764"><ele>1197.0</ele><time>2026-04-19T14:24:09Z</time></trkpt><trkpt lat="37.69474925836856" lon="15.068748880839406"><ele>1197.0</ele><time>2026-04-19T14:24:10Z</time></trkpt><trkpt lat="37.6948738281284" lon="15.068884368545893"><ele>1197.0</ele><time>2026-04-19T14:24:11Z</time></trkpt><trkpt lat="37.69498062840473" lon="15.068981923980509"><ele>1197.0</ele><time>2026-04-19T14:24:12Z</time></trkpt><trkpt lat="37.695090316193415" lon="15.069037825528065"><ele>1197.0</ele><time>2026-04-19T14:24:13Z</time></trkpt><trkpt lat="37.69518840656697" lon="15.069027409424791"><ele>1197.0</ele><time>2026-04-19T14:24:14Z</time></trkpt><trkpt lat="37.69527111648891" lon="15.068960497564275"><ele>1197.0</ele><time>2026-04-19T14:24:15Z</time></trkpt><trkpt lat="37.69532901775544" lon="15.068851782181593"><ele>1197.0</ele><time>2026-04-19T14:24:16Z</time></trkpt><trkpt lat="37.69535016286257" lon="15.068715515085518"><ele>1197.0</ele><time>2026-04-19T14:24:17Z</time></trkpt><trkpt lat="37.695320356485276" lon="15.068564821339113"><ele>1197.0</ele><time>2026-04-19T14:24:18Z</time></trkpt><trkpt lat="37.69525022887477" lon="15.06840122263766"><ele>1201.0</ele><time>2026-04-19T14:24:19Z</time></trkpt><trkpt lat="37.69513985332738" lon="15.068206634763847"><ele>1205.0</ele><time>2026-04-19T14:24:20Z</time></trkpt><trkpt lat="37.695013698175714" lon="15.067991997769393"><ele>1209.0</ele><time>2026-04-19T14:24:21Z</time></trkpt><trkpt lat="37.69488289914999" lon="15.067773535513162"><ele>1209.0</ele><time>2026-04-19T14:24:22Z</time></trkpt><trkpt lat="37.6947806203482" lon="15.067571663793137"><ele>1209.0</ele><time>2026-04-19T14:24:23Z</time></trkpt><trkpt lat="37.69468159506846" lon="15.067359327051133"><ele>1209.0</ele><time>2026-04-19T14:24:24Z</time></trkpt><trkpt lat="37.69459548525759" lon="15.067170853184544"><ele>1208.5</ele><time>2026-04-19T14:24:25Z</time></trkpt><trkpt lat="37.69452056751236" lon="15.066998964997737"><ele>1208.0</ele><time>2026-04-19T14:24:26Z</time></trkpt><trkpt lat="37.69444906876211" lon="15.0668352490262"><ele>1207.5</ele><time>2026-04-19T14:24:27Z</time></trkpt><trkpt lat="37.694390446749544" lon="15.066686041004587"><ele>1207.0</ele><time>2026-04-19T14:24:28Z</time></trkpt><trkpt lat="37.694363901660594" lon="15.066521997451936"><ele>1210.4</ele><time>2026-04-19T14:24:29Z</time></trkpt><trkpt lat="37.69435801647316" lon="15.066358803753612"><ele>1213.8000000000002</ele><time>2026-04-19T14:24:30Z</time></trkpt><trkpt lat="37.69437279673389" lon="15.066226515959384"><ele>1217.2</ele><time>2026-04-19T14:24:31Z</time></trkpt><trkpt lat="37.6944133070231" lon="15.066106775129782"><ele>1220.6000000000001</ele><time>2026-04-19T14:24:32Z</time></trkpt><trkpt lat="37.694490071314235" lon="15.066017531930337"><ele>1224.0</ele><time>2026-04-19T14:24:33Z</time></trkpt><trkpt lat="37.694597133388534" lon="15.06597789819238"><ele>1225.6666666666667</ele><time>2026-04-19T14:24:34Z</time></trkpt><trkpt lat="37.69473598143706" lon="15.06600166195155"><ele>1227.3333333333335</ele><time>2026-04-19T14:24:35Z</time></trkpt><trkpt lat="37.69491815757095" lon="15.066030376089456"><ele>1229.0</ele><time>2026-04-19T14:24:36Z</time></trkpt><trkpt lat="37.69513196386565" lon="15.0660950178491"><ele>1232.5</ele><time>2026-04-19T14:24:37Z</time></trkpt><trkpt lat="37.69536455286347" lon="15.066170701344838"><ele>1236.0</ele><time>2026-04-19T14:24:38Z</time></trkpt><trkpt lat="37.69559498380348" lon="15.066245210090614"><ele>1236.0</ele><time>2026-04-19T14:24:39Z</time></trkpt><trkpt lat="37.6957870295597" lon="15.066310254054505"><ele>1236.0</ele><time>2026-04-19T14:24:40Z</time></trkpt><trkpt lat="37.69593267068892" lon="15.066350129842238"><ele>1236.0</ele><time>2026-04-19T14:24:41Z</time></trkpt><trkpt lat="37.69607745163424" lon="15.066335161611521"><ele>1239.0</ele><time>2026-04-19T14:24:42Z</time></trkpt><trkpt lat="37.696219073569885" lon="15.066266292752287"><ele>1242.0</ele><time>2026-04-19T14:24:43Z</time></trkpt><trkpt lat="37.6963266970849" lon="15.066138451857542"><ele>1245.0</ele><time>2026-04-19T14:24:44Z</time></trkpt><trkpt lat="37.69638450600853" lon="15.065976904251592"><ele>1248.0</ele><time>2026-04-19T14:24:45Z</time></trkpt><trkpt lat="37.696390773371746" lon="15.06580888741639"><ele>1249.0</ele><time>2026-04-19T14:24:46Z</time></trkpt><trkpt lat="37.696342854343456" lon="15.065657267499295"><ele>1250.0</ele><time>2026-04-19T14:24:47Z</time></trkpt><trkpt lat="37.69623974054133" lon="15.065517940346469"><ele>1251.0</ele><time>2026-04-19T14:24:48Z</time></trkpt><trkpt lat="37.69610939103263" lon="15.065383187211912"><ele>1252.0</ele><time>2026-04-19T14:24:49Z</time></trkpt><trkpt lat="37.69593767003185" lon="15.0652501527058"><ele>1252.0</ele><time>2026-04-19T14:24:50Z</time></trkpt><trkpt lat="37.69577174144743" lon="15.065127895151162"><ele>1252.0</ele><time>2026-04-19T14:24:51Z</time></trkpt><trkpt lat="37.6956462327229" lon="15.065022013074497"><ele>1252.0</ele><time>2026-04-19T14:24:52Z</time></trkpt><trkpt lat="37.695556045028326" lon="15.064912218435051"><ele>1254.2</ele><time>2026-04-19T14:24:53Z</time></trkpt><trkpt lat="37.6955039787773" lon="15.064790193861212"><ele>1256.4</ele><time>2026-04-19T14:24:54Z</time></trkpt><trkpt lat="37.695491094314285" lon="15.064638141340724"><ele>1258.6</ele><time>2026-04-19T14:24:55Z</time></trkpt><trkpt lat="37.69552069129367" lon="15.064505217266928"><ele>1260.8</ele><time>2026-04-19T14:24:56Z</time></trkpt><trkpt lat="37.69559479587924" lon="15.064413384875317"><ele>1263.0</ele><time>2026-04-19T14:24:57Z</time></trkpt><trkpt lat="37.69570447901371" lon="15.064363149132358"><ele>1263.0</ele><time>2026-04-19T14:24:58Z</time></trkpt><trkpt lat="37.69582969192605" lon="15.06436587963047"><ele>1263.0</ele><time>2026-04-19T14:24:59Z</time></trkpt><trkpt lat="37.695971913447465" lon="15.064429775150286"><ele>1263.0</ele><time>2026-04-19T14:25:00Z</time></trkpt><trkpt lat="37.69614635008097" lon="15.06454161512564"><ele>1264.6666666666667</ele><time>2026-04-19T14:25:01Z</time></trkpt><trkpt lat="37.69632832424178" lon="15.06465897001038"><ele>1266.3333333333335</ele><time>2026-04-19T14:25:02Z</time></trkpt><trkpt lat="37.69648352544441" lon="15.064718711574487"><ele>1268.0</ele><time>2026-04-19T14:25:03Z</time></trkpt><trkpt lat="37.69662622054724" lon="15.064727217183028"><ele>1268.0</ele><time>2026-04-19T14:25:04Z</time></trkpt><trkpt lat="37.69674584611238" lon="15.06468591467645"><ele>1268.0</ele><time>2026-04-19T14:25:05Z</time></trkpt><trkpt lat="37.6968464676896" lon="15.064602874880475"><ele>1268.0</ele><time>2026-04-19T14:25:06Z</time></trkpt><trkpt lat="37.69691200965097" lon="15.064505004650444"><ele>1268.0</ele><time>2026-04-19T14:25:07Z</time></trkpt><trkpt lat="37.69693212053716" lon="15.064387987093655"><ele>1268.0</ele><time>2026-04-19T14:25:08Z</time></trkpt><trkpt lat="37.69690240907334" lon="15.064251131092494"><ele>1272.3333333333335</ele><time>2026-04-19T14:25:09Z</time></trkpt><trkpt lat="37.69682685114899" lon="15.06409567554895"><ele>1276.6666666666667</ele><time>2026-04-19T14:25:10Z</time></trkpt><trkpt lat="37.69669956837462" lon="15.063926954133846"><ele>1281.0</ele><time>2026-04-19T14:25:11Z</time></trkpt><trkpt lat="37.69652620953465" lon="15.063753196395302"><ele>1281.0</ele><time>2026-04-19T14:25:12Z</time></trkpt><trkpt lat="37.69634434651479" lon="15.06359478421262"><ele>1281.0</ele><time>2026-04-19T14:25:13Z</time></trkpt><trkpt lat="37.69617869638179" lon="15.063438914473577"><ele>1281.0</ele><time>2026-04-19T14:25:14Z</time></trkpt><trkpt lat="37.69598495066687" lon="15.063307871741944"><ele>1283.0</ele><time>2026-04-19T14:25:15Z</time></trkpt><trkpt lat="37.69578676776436" lon="15.063233481463827"><ele>1285.0</ele><time>2026-04-19T14:25:16Z</time></trkpt><trkpt lat="37.69562484297444" lon="15.063163272571371"><ele>1287.0</ele><time>2026-04-19T14:25:17Z</time></trkpt><trkpt lat="37.69551392234548" lon="15.063068468038466"><ele>1287.0</ele><time>2026-04-19T14:25:18Z</time></trkpt><trkpt lat="37.69541785021475" lon="15.062954743163868"><ele>1287.0</ele><time>2026-04-19T14:25:19Z</time></trkpt><trkpt lat="37.69536519216349" lon="15.06279403354126"><ele>1287.0</ele><time>2026-04-19T14:25:20Z</time></trkpt><trkpt lat="37.695357764595904" lon="15.062657114074753"><ele>1287.0</ele><time>2026-04-19T14:25:21Z</time></trkpt><trkpt lat="37.69540829190669" lon="15.062545848661221"><ele>1287.0</ele><time>2026-04-19T14:25:22Z</time></trkpt><trkpt lat="37.695500174733915" lon="15.062458133144887"><ele>1287.0</ele><time>2026-04-19T14:25:23Z</time></trkpt><trkpt lat="37.69563695649748" lon="15.062354930424492"><ele>1287.0</ele><time>2026-04-19T14:25:24Z</time></trkpt><trkpt lat="37.69581728852422" lon="15.062263095715071"><ele>1289.3333333333333</ele><time>2026-04-19T14:25:25Z</time></trkpt><trkpt lat="37.69599801499749" lon="15.062194449144812"><ele>1291.6666666666665</ele><time>2026-04-19T14:25:26Z</time></trkpt><trkpt lat="37.69615525340641" lon="15.062120265773384"><ele>1294.0</ele><time>2026-04-19T14:25:27Z</time></trkpt><trkpt lat="37.696287508499566" lon="15.062016281209864"><ele>1295.6666666666665</ele><time>2026-04-19T14:25:28Z</time></trkpt><trkpt lat="37.696416089007016" lon="15.06185473736667"><ele>1297.3333333333333</ele><time>2026-04-19T14:25:29Z</time></trkpt><trkpt lat="37.696565652921116" lon="15.061628272853865"><ele>1299.0</ele><time>2026-04-19T14:25:30Z</time></trkpt><trkpt lat="37.69670802372814" lon="15.061388315848548"><ele>1301.6666666666667</ele><time>2026-04-19T14:25:31Z</time></trkpt><trkpt lat="37.69683375302648" lon="15.061200825175993"><ele>1304.3333333333335</ele><time>2026-04-19T14:25:32Z</time></trkpt><trkpt lat="37.69696853898708" lon="15.061041713653285"><ele>1307.0</ele><time>2026-04-19T14:25:33Z</time></trkpt><trkpt lat="37.69710252192554" lon="15.060930147058247"><ele>1307.3333333333335</ele><time>2026-04-19T14:25:34Z</time></trkpt><trkpt lat="37.697235938735204" lon="15.06085810678326"><ele>1307.6666666666667</ele><time>2026-04-19T14:25:35Z</time></trkpt><trkpt lat="37.69738692780756" lon="15.060826737593366"><ele>1308.0</ele><time>2026-04-19T14:25:36Z</time></trkpt><trkpt lat="37.69756035379974" lon="15.060838450552918"><ele>1308.3333333333333</ele><time>2026-04-19T14:25:37Z</time></trkpt><trkpt lat="37.697775106363075" lon="15.060880347967807"><ele>1308.6666666666665</ele><time>2026-04-19T14:25:38Z</time></trkpt><trkpt lat="37.69793471639608" lon="15.06089455700073"><ele>1309.0</ele><time>2026-04-19T14:25:39Z</time></trkpt><trkpt lat="37.69808842686817" lon="15.060882570662162"><ele>1309.0</ele><time>2026-04-19T14:25:40Z</time></trkpt><trkpt lat="37.69824372411652" lon="15.060841359022694"><ele>1309.0</ele><time>2026-04-19T14:25:41Z</time></trkpt><trkpt lat="37.69839931880054" lon="15.060755394389652"><ele>1309.0</ele><time>2026-04-19T14:25:42Z</time></trkpt><trkpt lat="37.698543034109115" lon="15.060635458439112"><ele>1311.25</ele><time>2026-04-19T14:25:43Z</time></trkpt><trkpt lat="37.69864564895579" lon="15.060520146266095"><ele>1313.5</ele><time>2026-04-19T14:25:44Z</time></trkpt><trkpt lat="37.69871518551525" lon="15.060391736375363"><ele>1315.75</ele><time>2026-04-19T14:25:45Z</time></trkpt><trkpt lat="37.698746106890454" lon="15.060223372798294"><ele>1318.0</ele><time>2026-04-19T14:25:46Z</time></trkpt><trkpt lat="37.69873854876735" lon="15.060041102088304"><ele>1319.0</ele><time>2026-04-19T14:25:47Z</time></trkpt><trkpt lat="37.69868696281099" lon="15.059855468652316"><ele>1320.0</ele><time>2026-04-19T14:25:48Z</time></trkpt><trkpt lat="37.698588225469365" lon="15.059675700329791"><ele>1321.0</ele><time>2026-04-19T14:25:49Z</time></trkpt><trkpt lat="37.69845178872195" lon="15.059473854548251"><ele>1321.0</ele><time>2026-04-19T14:25:50Z</time></trkpt><trkpt lat="37.69828363085644" lon="15.059250982971095"><ele>1321.0</ele><time>2026-04-19T14:25:51Z</time></trkpt><trkpt lat="37.698145986758064" lon="15.059036815528037"><ele>1323.0</ele><time>2026-04-19T14:25:52Z</time></trkpt><trkpt lat="37.698016712674054" lon="15.058787130799066"><ele>1325.0</ele><time>2026-04-19T14:25:53Z</time></trkpt><trkpt lat="37.697909387183834" lon="15.058518045560467"><ele>1325.0</ele><time>2026-04-19T14:25:54Z</time></trkpt><trkpt lat="37.697821210076796" lon="15.058285169062774"><ele>1325.0</ele><time>2026-04-19T14:25:55Z</time></trkpt><trkpt lat="37.69773048661051" lon="15.058075712894832"><ele>1325.0</ele><time>2026-04-19T14:25:56Z</time></trkpt><trkpt lat="37.69762457972217" lon="15.057876376733859"><ele>1328.6666666666667</ele><time>2026-04-19T14:25:57Z</time></trkpt><trkpt lat="37.69748722073166" lon="15.057707685294162"><ele>1332.3333333333333</ele><time>2026-04-19T14:25:58Z</time></trkpt><trkpt lat="37.697318951016435" lon="15.057569559939706"><ele>1336.0</ele><time>2026-04-19T14:25:59Z</time></trkpt><trkpt lat="37.69712658781935" lon="15.05745282930576"><ele>1335.6666666666665</ele><time>2026-04-19T14:26:00Z</time></trkpt><trkpt lat="37.69695234891829" lon="15.057363373482241"><ele>1335.3333333333333</ele><time>2026-04-19T14:26:01Z</time></trkpt><trkpt lat="37.69679316771459" lon="15.057288977459619"><ele>1335.0</ele><time>2026-04-19T14:26:02Z</time></trkpt><trkpt lat="37.69666294614867" lon="15.057195310186904"><ele>1335.0</ele><time>2026-04-19T14:26:03Z</time></trkpt><trkpt lat="37.69657123233648" lon="15.057065176018508"><ele>1335.0</ele><time>2026-04-19T14:26:04Z</time></trkpt><trkpt lat="37.69652341612446" lon="15.056906765523378"><ele>1335.0</ele><time>2026-04-19T14:26:05Z</time></trkpt><trkpt lat="37.69653230612286" lon="15.056754376264683"><ele>1335.0</ele><time>2026-04-19T14:26:06Z</time></trkpt><trkpt lat="37.69658558669526" lon="15.056624802868397"><ele>1337.25</ele><time>2026-04-19T14:26:07Z</time></trkpt><trkpt lat="37.696673922876215" lon="15.056541753765485"><ele>1339.5</ele><time>2026-04-19T14:26:08Z</time></trkpt><trkpt lat="37.69678885079155" lon="15.056503843668596"><ele>1341.75</ele><time>2026-04-19T14:26:09Z</time></trkpt><trkpt lat="37.6969459868152" lon="15.05651836644949"><ele>1344.0</ele><time>2026-04-19T14:26:10Z</time></trkpt><trkpt lat="37.69713903356696" lon="15.05655845633046"><ele>1344.0</ele><time>2026-04-19T14:26:11Z</time></trkpt><trkpt lat="37.697357388970765" lon="15.056636340418608"><ele>1344.0</ele><time>2026-04-19T14:26:12Z</time></trkpt><trkpt lat="37.697564227590526" lon="15.056748863300784"><ele>1347.3333333333333</ele><time>2026-04-19T14:26:13Z</time></trkpt><trkpt lat="37.69775833292023" lon="15.056873149596699"><ele>1350.6666666666665</ele><time>2026-04-19T14:26:14Z</time></trkpt><trkpt lat="37.69794631294083" lon="15.056949425712459"><ele>1354.0</ele><time>2026-04-19T14:26:15Z</time></trkpt><trkpt lat="37.698102933326844" lon="15.056995712899484"><ele>1354.0</ele><time>2026-04-19T14:26:16Z</time></trkpt><trkpt lat="37.69822758616503" lon="15.057008963613864"><ele>1354.0</ele><time>2026-04-19T14:26:17Z</time></trkpt><trkpt lat="37.698331287903756" lon="15.056967837585917"><ele>1354.0</ele><time>2026-04-19T14:26:18Z</time></trkpt><trkpt lat="37.698414642062566" lon="15.056857047789698"><ele>1354.0</ele><time>2026-04-19T14:26:19Z</time></trkpt><trkpt lat="37.698458715613675" lon="15.056704649147498"><ele>1357.0</ele><time>2026-04-19T14:26:20Z</time></trkpt><trkpt lat="37.69846545660246" lon="15.056532065250241"><ele>1360.0</ele><time>2026-04-19T14:26:21Z</time></trkpt><trkpt lat="37.698430745498015" lon="15.056328164627818"><ele>1363.0</ele><time>2026-04-19T14:26:22Z</time></trkpt><trkpt lat="37.698370600399805" lon="15.056132433935298"><ele>1363.0</ele><time>2026-04-19T14:26:23Z</time></trkpt><trkpt lat="37.698324955456435" lon="15.055968331415363"><ele>1363.0</ele><time>2026-04-19T14:26:24Z</time></trkpt><trkpt lat="37.698317770883634" lon="15.055808805715335"><ele>1363.0</ele><time>2026-04-19T14:26:25Z</time></trkpt><trkpt lat="37.69835977965897" lon="15.055656747028763"><ele>1363.0</ele><time>2026-04-19T14:26:26Z</time></trkpt><trkpt lat="37.69844645488667" lon="15.055451174346908"><ele>1364.5</ele><time>2026-04-19T14:26:27Z</time></trkpt><trkpt lat="37.69855298341067" lon="15.055184178281936"><ele>1366.0</ele><time>2026-04-19T14:26:28Z</time></trkpt><trkpt lat="37.698669916391566" lon="15.054898700986458"><ele>1370.0</ele><time>2026-04-19T14:26:29Z</time></trkpt><trkpt lat="37.69877453419993" lon="15.054638247448844"><ele>1374.0</ele><time>2026-04-19T14:26:30Z</time></trkpt><trkpt lat="37.698862243669154" lon="15.054415761908832"><ele>1378.0</ele><time>2026-04-19T14:26:31Z</time></trkpt><trkpt lat="37.69892086851199" lon="15.054253685269336"><ele>1377.6666666666665</ele><time>2026-04-19T14:26:32Z</time></trkpt><trkpt lat="37.69895745941028" lon="15.054090466010532"><ele>1377.3333333333333</ele><time>2026-04-19T14:26:33Z</time></trkpt><trkpt lat="37.698972259540284" lon="15.053905874698453"><ele>1377.0</ele><time>2026-04-19T14:26:34Z</time></trkpt><trkpt lat="37.6989626290661" lon="15.053664769493832"><ele>1377.0</ele><time>2026-04-19T14:26:35Z</time></trkpt><trkpt lat="37.698955237382094" lon="15.05337867323947"><ele>1377.0</ele><time>2026-04-19T14:26:36Z</time></trkpt><trkpt lat="37.698956308907555" lon="15.053030320987352"><ele>1378.5</ele><time>2026-04-19T14:26:37Z</time></trkpt><trkpt lat="37.69897158633505" lon="15.052667291963498"><ele>1380.0</ele><time>2026-04-19T14:26:38Z</time></trkpt><trkpt lat="37.698976361328896" lon="15.052358303730097"><ele>1382.0</ele><time>2026-04-19T14:26:39Z</time></trkpt><trkpt lat="37.69898027908606" lon="15.0520624656019"><ele>1384.0</ele><time>2026-04-19T14:26:40Z</time></trkpt><trkpt lat="37.69898520339718" lon="15.051761030788061"><ele>1385.6666666666665</ele><time>2026-04-19T14:26:41Z</time></trkpt><trkpt lat="37.69899199961643" lon="15.051475654612679"><ele>1387.3333333333333</ele><time>2026-04-19T14:26:42Z</time></trkpt><trkpt lat="37.69899904072161" lon="15.051230688504925"><ele>1389.0</ele><time>2026-04-19T14:26:43Z</time></trkpt><trkpt lat="37.699010384592974" lon="15.051010148472365"><ele>1389.0</ele><time>2026-04-19T14:26:44Z</time></trkpt><trkpt lat="37.69904598568595" lon="15.050807505794172"><ele>1389.0</ele><time>2026-04-19T14:26:45Z</time></trkpt><trkpt lat="37.699125044110446" lon="15.05058619239381"><ele>1389.0</ele><time>2026-04-19T14:26:46Z</time></trkpt><trkpt lat="37.699225163579904" lon="15.050358459407125"><ele>1392.0</ele><time>2026-04-19T14:26:47Z</time></trkpt><trkpt lat="37.69931920228565" lon="15.05012740702455"><ele>1395.0</ele><time>2026-04-19T14:26:48Z</time></trkpt><trkpt lat="37.69939961232297" lon="15.04992937545646"><ele>1398.0</ele><time>2026-04-19T14:26:49Z</time></trkpt><trkpt lat="37.69946188113926" lon="15.049772530590285"><ele>1399.5</ele><time>2026-04-19T14:26:50Z</time></trkpt><trkpt lat="37.69950985124155" lon="15.049634930438991"><ele>1401.0</ele><time>2026-04-19T14:26:51Z</time></trkpt><trkpt lat="37.69952643420022" lon="15.049480854508229"><ele>1402.5</ele><time>2026-04-19T14:26:52Z</time></trkpt><trkpt lat="37.69948427583957" lon="15.049330654364326"><ele>1404.0</ele><time>2026-04-19T14:26:53Z</time></trkpt><trkpt lat="37.699391170620785" lon="15.04920932869151"><ele>1404.0</ele><time>2026-04-19T14:26:54Z</time></trkpt><trkpt lat="37.69928737534988" lon="15.049161764181221"><ele>1404.0</ele><time>2026-04-19T14:26:55Z</time></trkpt><trkpt lat="37.69916829574994" lon="15.049173645531258"><ele>1404.0</ele><time>2026-04-19T14:26:56Z</time></trkpt><trkpt lat="37.69905339684254" lon="15.04925817217799"><ele>1404.0</ele><time>2026-04-19T14:26:57Z</time></trkpt><trkpt lat="37.698955026427576" lon="15.04940317930361"><ele>1404.0</ele><time>2026-04-19T14:26:58Z</time></trkpt><trkpt lat="37.69887166831048" lon="15.0496055730562"><ele>1404.0</ele><time>2026-04-19T14:26:59Z</time></trkpt><trkpt lat="37.69880883312153" lon="15.049830521631032"><ele>1404.0</ele><time>2026-04-19T14:27:00Z</time></trkpt><trkpt lat="37.698738377676435" lon="15.049996976428359"><ele>1405.25</ele><time>2026-04-19T14:27:01Z</time></trkpt><trkpt lat="37.69866220127352" lon="15.05011289322827"><ele>1406.5</ele><time>2026-04-19T14:27:02Z</time></trkpt><trkpt lat="37.6985713009127" lon="15.050182891685807"><ele>1407.75</ele><time>2026-04-19T14:27:03Z</time></trkpt><trkpt lat="37.69845955683683" lon="15.050203781142"><ele>1409.0</ele><time>2026-04-19T14:27:04Z</time></trkpt><trkpt lat="37.698344192313485" lon="15.050169210342583"><ele>1409.0</ele><time>2026-04-19T14:27:05Z</time></trkpt><trkpt lat="37.6982494959085" lon="15.050078361010808"><ele>1409.0</ele><time>2026-04-19T14:27:06Z</time></trkpt><trkpt lat="37.69819009723702" lon="15.049952509851284"><ele>1409.0</ele><time>2026-04-19T14:27:07Z</time></trkpt><trkpt lat="37.6981911816074" lon="15.049822989439164"><ele>1409.0</ele><time>2026-04-19T14:27:08Z</time></trkpt><trkpt lat="37.69822417963223" lon="15.049677727691005"><ele>1409.5</ele><time>2026-04-19T14:27:09Z</time></trkpt><trkpt lat="37.69825952915192" lon="15.049524400308696"><ele>1410.0</ele><time>2026-04-19T14:27:10Z</time></trkpt><trkpt lat="37.6982756150862" lon="15.04937094255498"><ele>1410.5</ele><time>2026-04-19T14:27:11Z</time></trkpt><trkpt lat="37.69829613158864" lon="15.049216751879692"><ele>1411.0</ele><time>2026-04-19T14:27:12Z</time></trkpt><trkpt lat="37.69832550489802" lon="15.049063588743953"><ele>1413.1999999999998</ele><time>2026-04-19T14:27:13Z</time></trkpt><trkpt lat="37.69835525551497" lon="15.048925872702219"><ele>1415.3999999999999</ele><time>2026-04-19T14:27:14Z</time></trkpt><trkpt lat="37.69837688762743" lon="15.04879772543995"><ele>1417.6</ele><time>2026-04-19T14:27:15Z</time></trkpt><trkpt lat="37.69838690462366" lon="15.048674272078589"><ele>1419.8</ele><time>2026-04-19T14:27:16Z</time></trkpt><trkpt lat="37.69838713970714" lon="15.048543670831211"><ele>1422.0</ele><time>2026-04-19T14:27:17Z</time></trkpt><trkpt lat="37.69837368191911" lon="15.048403338437627"><ele>1424.75</ele><time>2026-04-19T14:27:18Z</time></trkpt><trkpt lat="37.698340318202746" lon="15.048264333199025"><ele>1427.5</ele><time>2026-04-19T14:27:19Z</time></trkpt><trkpt lat="37.69828260989968" lon="15.048131341137097"><ele>1430.25</ele><time>2026-04-19T14:27:20Z</time></trkpt><trkpt lat="37.69819682446351" lon="15.048010333129684"><ele>1433.0</ele><time>2026-04-19T14:27:21Z</time></trkpt><trkpt lat="37.69809527242404" lon="15.047899531468833"><ele>1433.0</ele><time>2026-04-19T14:27:22Z</time></trkpt><trkpt lat="37.697985979906804" lon="15.047781545468318"><ele>1433.0</ele><time>2026-04-19T14:27:23Z</time></trkpt><trkpt lat="37.697877096875594" lon="15.047648225274164"><ele>1433.0</ele><time>2026-04-19T14:27:24Z</time></trkpt><trkpt lat="37.697748759718735" lon="15.047483387667132"><ele>1434.6666666666667</ele><time>2026-04-19T14:27:25Z</time></trkpt><trkpt lat="37.69762028431735" lon="15.047308816950915"><ele>1436.3333333333333</ele><time>2026-04-19T14:27:26Z</time></trkpt><trkpt lat="37.69750493725516" lon="15.047157745616847"><ele>1438.0</ele><time>2026-04-19T14:27:27Z</time></trkpt><trkpt lat="37.69740142847168" lon="15.047040519248922"><ele>1438.0</ele><time>2026-04-19T14:27:28Z</time></trkpt><trkpt lat="37.6972948982064" lon="15.04696523863152"><ele>1438.0</ele><time>2026-04-19T14:27:29Z</time></trkpt><trkpt lat="37.69717121336947" lon="15.046947896032076"><ele>1438.0</ele><time>2026-04-19T14:27:30Z</time></trkpt><trkpt lat="37.697030279939355" lon="15.046982520695867"><ele>1438.0</ele><time>2026-04-19T14:27:31Z</time></trkpt><trkpt lat="37.69689809634325" lon="15.047066595310492"><ele>1437.5</ele><time>2026-04-19T14:27:32Z</time></trkpt><trkpt lat="37.696785551250564" lon="15.04713786992571"><ele>1437.0</ele><time>2026-04-19T14:27:33Z</time></trkpt><trkpt lat="37.69667498897941" lon="15.047138150855009"><ele>1436.5</ele><time>2026-04-19T14:27:34Z</time></trkpt><trkpt lat="37.6965721036235" lon="15.047075052501818"><ele>1436.0</ele><time>2026-04-19T14:27:35Z</time></trkpt><trkpt lat="37.69649846737127" lon="15.046965446771138"><ele>1436.0</ele><time>2026-04-19T14:27:36Z</time></trkpt><trkpt lat="37.69648105720175" lon="15.046831104983905"><ele>1436.0</ele><time>2026-04-19T14:27:37Z</time></trkpt><trkpt lat="37.696503333801395" lon="15.046699974914718"><ele>1436.0</ele><time>2026-04-19T14:27:38Z</time></trkpt><trkpt lat="37.696571035797156" lon="15.046578849254356"><ele>1436.0</ele><time>2026-04-19T14:27:39Z</time></trkpt><trkpt lat="37.69667680742577" lon="15.046500937374622"><ele>1440.0</ele><time>2026-04-19T14:27:40Z</time></trkpt><trkpt lat="37.69681819682295" lon="15.046458699857864"><ele>1444.0</ele><time>2026-04-19T14:27:41Z</time></trkpt><trkpt lat="37.69699000747393" lon="15.046392702329584"><ele>1448.0</ele><time>2026-04-19T14:27:42Z</time></trkpt><trkpt lat="37.6971791904503" lon="15.046279043240247"><ele>1448.6666666666667</ele><time>2026-04-19T14:27:43Z</time></trkpt><trkpt lat="37.69735917610263" lon="15.046160791012966"><ele>1449.3333333333333</ele><time>2026-04-19T14:27:44Z</time></trkpt><trkpt lat="37.697486790975994" lon="15.046063944695254"><ele>1450.0</ele><time>2026-04-19T14:27:45Z</time></trkpt><trkpt lat="37.69758761689575" lon="15.04596863533358"><ele>1450.0</ele><time>2026-04-19T14:27:46Z</time></trkpt><trkpt lat="37.6976540296678" lon="15.045851452744051"><ele>1450.0</ele><time>2026-04-19T14:27:47Z</time></trkpt><trkpt lat="37.69766872231439" lon="15.045707966073731"><ele>1450.0</ele><time>2026-04-19T14:27:48Z</time></trkpt><trkpt lat="37.697628198428156" lon="15.045551740433114"><ele>1450.0</ele><time>2026-04-19T14:27:49Z</time></trkpt><trkpt lat="37.69755316574334" lon="15.045432073378358"><ele>1454.5</ele><time>2026-04-19T14:27:50Z</time></trkpt><trkpt lat="37.69746995497375" lon="15.045368791439033"><ele>1459.0</ele><time>2026-04-19T14:27:51Z</time></trkpt><trkpt lat="37.697349882639884" lon="15.045358702819692"><ele>1463.5</ele><time>2026-04-19T14:27:52Z</time></trkpt><trkpt lat="37.69721288355288" lon="15.045403448253063"><ele>1468.0</ele><time>2026-04-19T14:27:53Z</time></trkpt><trkpt lat="37.69707602451793" lon="15.045471930450885"><ele>1468.0</ele><time>2026-04-19T14:27:54Z</time></trkpt><trkpt lat="37.69695283175846" lon="15.04549667306134"><ele>1468.0</ele><time>2026-04-19T14:27:55Z</time></trkpt><trkpt lat="37.69682402041207" lon="15.045451344200409"><ele>1468.0</ele><time>2026-04-19T14:27:56Z</time></trkpt><trkpt lat="37.69671901018825" lon="15.045348610000136"><ele>1468.0</ele><time>2026-04-19T14:27:57Z</time></trkpt><trkpt lat="37.69663983451175" lon="15.045212961206968"><ele>1467.6666666666665</ele><time>2026-04-19T14:27:58Z</time></trkpt><trkpt lat="37.69659130596416" lon="15.045052229244948"><ele>1467.3333333333333</ele><time>2026-04-19T14:27:59Z</time></trkpt><trkpt lat="37.69657122142737" lon="15.044861760158746"><ele>1467.0</ele><time>2026-04-19T14:28:00Z</time></trkpt><trkpt lat="37.696564151807834" lon="15.044620895501053"><ele>1467.0</ele><time>2026-04-19T14:28:01Z</time></trkpt><trkpt lat="37.69654993939524" lon="15.044337694399282"><ele>1467.0</ele><time>2026-04-19T14:28:02Z</time></trkpt><trkpt lat="37.69653399237599" lon="15.04400975193723"><ele>1469.0</ele><time>2026-04-19T14:28:03Z</time></trkpt><trkpt lat="37.69652553878352" lon="15.043668442203016"><ele>1471.0</ele><time>2026-04-19T14:28:04Z</time></trkpt><trkpt lat="37.69651872197793" lon="15.04335917490078"><ele>1473.3333333333333</ele><time>2026-04-19T14:28:05Z</time></trkpt><trkpt lat="37.69651322325644" lon="15.043090351481315"><ele>1475.6666666666667</ele><time>2026-04-19T14:28:06Z</time></trkpt><trkpt lat="37.6965065018983" lon="15.042836855617445"><ele>1478.0</ele><time>2026-04-19T14:28:07Z</time></trkpt><trkpt lat="37.696481035871436" lon="15.04256294498516"><ele>1480.5</ele><time>2026-04-19T14:28:08Z</time></trkpt><trkpt lat="37.6964069747959" lon="15.04225830876596"><ele>1483.0</ele><time>2026-04-19T14:28:09Z</time></trkpt><trkpt lat="37.69629755219974" lon="15.041919307648769"><ele>1485.0</ele><time>2026-04-19T14:28:10Z</time></trkpt><trkpt lat="37.69618631080216" lon="15.041569467056773"><ele>1487.0</ele><time>2026-04-19T14:28:11Z</time></trkpt><trkpt lat="37.69610034471078" lon="15.041278095289265"><ele>1486.3333333333335</ele><time>2026-04-19T14:28:12Z</time></trkpt><trkpt lat="37.69603682453728" lon="15.04104934962526"><ele>1485.6666666666667</ele><time>2026-04-19T14:28:13Z</time></trkpt><trkpt lat="37.69599058356846" lon="15.040850237673926"><ele>1485.0</ele><time>2026-04-19T14:28:14Z</time></trkpt><trkpt lat="37.69596020050922" lon="15.040609907571266"><ele>1487.6666666666667</ele><time>2026-04-19T14:28:15Z</time></trkpt><trkpt lat="37.69596204740598" lon="15.040351320613446"><ele>1490.3333333333335</ele><time>2026-04-19T14:28:16Z</time></trkpt><trkpt lat="37.6959887221375" lon="15.040099704446543"><ele>1493.0</ele><time>2026-04-19T14:28:17Z</time></trkpt><trkpt lat="37.69603653547249" lon="15.039889812835185"><ele>1495.6666666666667</ele><time>2026-04-19T14:28:18Z</time></trkpt><trkpt lat="37.6961211770278" lon="15.039693921407057"><ele>1498.3333333333333</ele><time>2026-04-19T14:28:19Z</time></trkpt><trkpt lat="37.69623294742959" lon="15.039508887877348"><ele>1501.0</ele><time>2026-04-19T14:28:20Z</time></trkpt><trkpt lat="37.69634813493244" lon="15.039343620442716"><ele>1501.0</ele><time>2026-04-19T14:28:21Z</time></trkpt><trkpt lat="37.69647992236162" lon="15.039204207757363"><ele>1501.0</ele><time>2026-04-19T14:28:22Z</time></trkpt><trkpt lat="37.696626230845226" lon="15.039083910513025"><ele>1501.0</ele><time>2026-04-19T14:28:23Z</time></trkpt><trkpt lat="37.69679504117003" lon="15.038999613477671"><ele>1510.3333333333333</ele><time>2026-04-19T14:28:24Z</time></trkpt><trkpt lat="37.69696913135534" lon="15.03892884435943"><ele>1519.6666666666667</ele><time>2026-04-19T14:28:25Z</time></trkpt><trkpt lat="37.69712131074011" lon="15.038864007202188"><ele>1529.0</ele><time>2026-04-19T14:28:26Z</time></trkpt><trkpt lat="37.69726065601422" lon="15.038830857534386"><ele>1529.0</ele><time>2026-04-19T14:28:27Z</time></trkpt><trkpt lat="37.69740033042159" lon="15.038842232791254"><ele>1529.0</ele><time>2026-04-19T14:28:28Z</time></trkpt><trkpt lat="37.69753782466176" lon="15.038897596569914"><ele>1529.0</ele><time>2026-04-19T14:28:29Z</time></trkpt><trkpt lat="37.697667020631656" lon="15.039006527649384"><ele>1529.0</ele><time>2026-04-19T14:28:30Z</time></trkpt><trkpt lat="37.69781128181096" lon="15.039182043381716"><ele>1540.0</ele><time>2026-04-19T14:28:31Z</time></trkpt><trkpt lat="37.69795941349492" lon="15.039426840263657"><ele>1551.0</ele><time>2026-04-19T14:28:32Z</time></trkpt><trkpt lat="37.69814545461993" lon="15.039686257453207"><ele>1551.0</ele><time>2026-04-19T14:28:33Z</time></trkpt><trkpt lat="37.69836041679384" lon="15.039963741510482"><ele>1551.0</ele><time>2026-04-19T14:28:34Z</time></trkpt><trkpt lat="37.69860618933595" lon="15.040247523918374"><ele>1557.0</ele><time>2026-04-19T14:28:35Z</time></trkpt><trkpt lat="37.698842212305856" lon="15.040486629764585"><ele>1563.0</ele><time>2026-04-19T14:28:36Z</time></trkpt><trkpt lat="37.69905966134972" lon="15.040678239811694"><ele>1562.5</ele><time>2026-04-19T14:28:37Z</time></trkpt><trkpt lat="37.69926774983582" lon="15.0408368754116"><ele>1562.0</ele><time>2026-04-19T14:28:38Z</time></trkpt><trkpt lat="37.699468394109104" lon="15.040968822688368"><ele>1562.0</ele><time>2026-04-19T14:28:39Z</time></trkpt><trkpt lat="37.69967796517433" lon="15.041075698280695"><ele>1562.0</ele><time>2026-04-19T14:28:40Z</time></trkpt><trkpt lat="37.69987652318534" lon="15.041147278578686"><ele>1562.0</ele><time>2026-04-19T14:28:41Z</time></trkpt><trkpt lat="37.70004834882428" lon="15.041208975616465"><ele>1562.0</ele><time>2026-04-19T14:28:42Z</time></trkpt><trkpt lat="37.700179479627366" lon="15.041310179075595"><ele>1562.0</ele><time>2026-04-19T14:28:43Z</time></trkpt><trkpt lat="37.70030349990024" lon="15.041464310285372"><ele>1562.0</ele><time>2026-04-19T14:28:44Z</time></trkpt><trkpt lat="37.70041814772938" lon="15.041668911644537"><ele>1561.0</ele><time>2026-04-19T14:28:45Z</time></trkpt><trkpt lat="37.70050533141425" lon="15.041862915584188"><ele>1560.0</ele><time>2026-04-19T14:28:46Z</time></trkpt><trkpt lat="37.70057837434296" lon="15.04200842139085"><ele>1559.0</ele><time>2026-04-19T14:28:47Z</time></trkpt><trkpt lat="37.700682106649275" lon="15.042089022734125"><ele>1558.0</ele><time>2026-04-19T14:28:48Z</time></trkpt><trkpt lat="37.70080735563812" lon="15.042110966639239"><ele>1558.0</ele><time>2026-04-19T14:28:49Z</time></trkpt><trkpt lat="37.70091952096339" lon="15.042057015209346"><ele>1558.0</ele><time>2026-04-19T14:28:50Z</time></trkpt><trkpt lat="37.70100011343495" lon="15.041941985643737"><ele>1558.0</ele><time>2026-04-19T14:28:51Z</time></trkpt><trkpt lat="37.7010461177128" lon="15.041783489005129"><ele>1558.0</ele><time>2026-04-19T14:28:52Z</time></trkpt><trkpt lat="37.70104267689439" lon="15.041606556597038"><ele>1566.3333333333335</ele><time>2026-04-19T14:28:53Z</time></trkpt><trkpt lat="37.700985618476025" lon="15.041469682939503"><ele>1574.6666666666665</ele><time>2026-04-19T14:28:54Z</time></trkpt><trkpt lat="37.70086400266009" lon="15.041363809491939"><ele>1583.0</ele><time>2026-04-19T14:28:55Z</time></trkpt><trkpt lat="37.70069456501092" lon="15.04128847467785"><ele>1583.0</ele><time>2026-04-19T14:28:56Z</time></trkpt><trkpt lat="37.70053668823837" lon="15.041165802230093"><ele>1583.0</ele><time>2026-04-19T14:28:57Z</time></trkpt><trkpt lat="37.700385784867514" lon="15.040982608211786"><ele>1583.0</ele><time>2026-04-19T14:28:58Z</time></trkpt><trkpt lat="37.70021915682105" lon="15.040727893407112"><ele>1581.5</ele><time>2026-04-19T14:28:59Z</time></trkpt><trkpt lat="37.7000300170996" lon="15.040422914231987"><ele>1580.0</ele><time>2026-04-19T14:29:00Z</time></trkpt><trkpt lat="37.699841570735366" lon="15.040120833316589"><ele>1589.0</ele><time>2026-04-19T14:29:01Z</time></trkpt><trkpt lat="37.69966593028259" lon="15.039857856628153"><ele>1598.0</ele><time>2026-04-19T14:29:02Z</time></trkpt><trkpt lat="37.69955145893212" lon="15.039616692939429"><ele>1598.0</ele><time>2026-04-19T14:29:03Z</time></trkpt><trkpt lat="37.69942441876733" lon="15.03946413646414"><ele>1598.0</ele><time>2026-04-19T14:29:04Z</time></trkpt><trkpt lat="37.69925930246996" lon="15.039356907042158"><ele>1598.0</ele><time>2026-04-19T14:29:05Z</time></trkpt><trkpt lat="37.69909622896891" lon="15.039286127153018"><ele>1598.75</ele><time>2026-04-19T14:29:06Z</time></trkpt><trkpt lat="37.69894920071556" lon="15.03918277232888"><ele>1599.5</ele><time>2026-04-19T14:29:07Z</time></trkpt><trkpt lat="37.69888214811624" lon="15.039073799235108"><ele>1600.25</ele><time>2026-04-19T14:29:08Z</time></trkpt><trkpt lat="37.698859308680305" lon="15.03897831376848"><ele>1601.0</ele><time>2026-04-19T14:29:09Z</time></trkpt><trkpt lat="37.698790585073255" lon="15.038821698317147"><ele>1601.0</ele><time>2026-04-19T14:29:11Z</time></trkpt><trkpt lat="37.69877534500302" lon="15.038731574323972"><ele>1601.0</ele><time>2026-04-19T14:29:12Z</time></trkpt><trkpt lat="37.69877191196288" lon="15.038630132024108"><ele>1601.0</ele><time>2026-04-19T14:29:13Z</time></trkpt><trkpt lat="37.698773985046756" lon="15.038519200000437"><ele>1601.0</ele><time>2026-04-19T14:29:14Z</time></trkpt><trkpt lat="37.69877598744489" lon="15.038347948393383"><ele>1601.0</ele><time>2026-04-19T14:29:15Z</time></trkpt><trkpt lat="37.69876826336288" lon="15.038186706386618"><ele>1602.6666666666665</ele><time>2026-04-19T14:29:16Z</time></trkpt><trkpt lat="37.69878124152369" lon="15.037992996206599"><ele>1604.3333333333335</ele><time>2026-04-19T14:29:17Z</time></trkpt><trkpt lat="37.69887650865949" lon="15.037671500962096"><ele>1606.0</ele><time>2026-04-19T14:29:18Z</time></trkpt><trkpt lat="37.69898830702764" lon="15.037324640093745"><ele>1606.0</ele><time>2026-04-19T14:29:19Z</time></trkpt><trkpt lat="37.69907591360985" lon="15.0369992579419"><ele>1606.0</ele><time>2026-04-19T14:29:20Z</time></trkpt><trkpt lat="37.69918145787881" lon="15.036586118155057"><ele>1604.0</ele><time>2026-04-19T14:29:21Z</time></trkpt><trkpt lat="37.699301330095096" lon="15.036139355541266"><ele>1602.0</ele><time>2026-04-19T14:29:22Z</time></trkpt><trkpt lat="37.69944966148829" lon="15.035724513378607"><ele>1614.5</ele><time>2026-04-19T14:29:23Z</time></trkpt><trkpt lat="37.699578151481454" lon="15.035369866043606"><ele>1627.0</ele><time>2026-04-19T14:29:24Z</time></trkpt><trkpt lat="37.699689170145106" lon="15.035053369224693"><ele>1627.3333333333335</ele><time>2026-04-19T14:29:25Z</time></trkpt><trkpt lat="37.69976095129684" lon="15.03482809041223"><ele>1627.6666666666665</ele><time>2026-04-19T14:29:26Z</time></trkpt><trkpt lat="37.69985274150646" lon="15.034562896768596"><ele>1628.0</ele><time>2026-04-19T14:29:27Z</time></trkpt><trkpt lat="37.69989478776872" lon="15.034377218867757"><ele>1628.0</ele><time>2026-04-19T14:29:28Z</time></trkpt><trkpt lat="37.699872293143045" lon="15.034210078662566"><ele>1628.0</ele><time>2026-04-19T14:29:29Z</time></trkpt><trkpt lat="37.699830337382515" lon="15.034037192419481"><ele>1628.0</ele><time>2026-04-19T14:29:30Z</time></trkpt><trkpt lat="37.69973735621919" lon="15.033832700489882"><ele>1626.0</ele><time>2026-04-19T14:29:31Z</time></trkpt><trkpt lat="37.69959444075395" lon="15.03367544429856"><ele>1624.0</ele><time>2026-04-19T14:29:32Z</time></trkpt><trkpt lat="37.69946034977698" lon="15.033495933147355"><ele>1622.0</ele><time>2026-04-19T14:29:33Z</time></trkpt><trkpt lat="37.69937073781981" lon="15.033326148684141"><ele>1624.3333333333333</ele><time>2026-04-19T14:29:34Z</time></trkpt><trkpt lat="37.699325319851596" lon="15.033106799045614"><ele>1626.6666666666665</ele><time>2026-04-19T14:29:35Z</time></trkpt><trkpt lat="37.69928737538731" lon="15.032919283535463"><ele>1629.0</ele><time>2026-04-19T14:29:36Z</time></trkpt><trkpt lat="37.69927901773119" lon="15.032697018053172"><ele>1632.0</ele><time>2026-04-19T14:29:37Z</time></trkpt><trkpt lat="37.69934065351716" lon="15.03244366302292"><ele>1635.0</ele><time>2026-04-19T14:29:38Z</time></trkpt><trkpt lat="37.69942762576392" lon="15.03221201484709"><ele>1638.0</ele><time>2026-04-19T14:29:39Z</time></trkpt><trkpt lat="37.699496120366845" lon="15.032014667335389"><ele>1642.3333333333335</ele><time>2026-04-19T14:29:40Z</time></trkpt><trkpt lat="37.69951392681711" lon="15.03179399881553"><ele>1646.6666666666667</ele><time>2026-04-19T14:29:41Z</time></trkpt><trkpt lat="37.69946443570346" lon="15.031544695034558"><ele>1651.0</ele><time>2026-04-19T14:29:42Z</time></trkpt><trkpt lat="37.699358002398775" lon="15.031293317342163"><ele>1651.0</ele><time>2026-04-19T14:29:43Z</time></trkpt><trkpt lat="37.69921514809375" lon="15.031058794396658"><ele>1651.0</ele><time>2026-04-19T14:29:44Z</time></trkpt><trkpt lat="37.69906932064712" lon="15.030835008880977"><ele>1655.3333333333335</ele><time>2026-04-19T14:29:45Z</time></trkpt><trkpt lat="37.698960653450854" lon="15.03060703385482"><ele>1659.6666666666665</ele><time>2026-04-19T14:29:46Z</time></trkpt><trkpt lat="37.69887808468487" lon="15.030379159609133"><ele>1664.0</ele><time>2026-04-19T14:29:47Z</time></trkpt><trkpt lat="37.698806942451846" lon="15.030077624760604"><ele>1670.0</ele><time>2026-04-19T14:29:48Z</time></trkpt><trkpt lat="37.69876390442582" lon="15.02970505440634"><ele>1676.0</ele><time>2026-04-19T14:29:49Z</time></trkpt><trkpt lat="37.698699643277024" lon="15.029380471044167"><ele>1681.5</ele><time>2026-04-19T14:29:50Z</time></trkpt><trkpt lat="37.69860827514416" lon="15.029041003140065"><ele>1687.0</ele><time>2026-04-19T14:29:51Z</time></trkpt><trkpt lat="37.69856953157353" lon="15.02883356957403"><ele>1688.3333333333335</ele><time>2026-04-19T14:29:52Z</time></trkpt><trkpt lat="37.69854818779255" lon="15.028671148388012"><ele>1689.6666666666665</ele><time>2026-04-19T14:29:53Z</time></trkpt><trkpt lat="37.69856390335504" lon="15.028457409547135"><ele>1691.0</ele><time>2026-04-19T14:29:54Z</time></trkpt><trkpt lat="37.6986429671638" lon="15.028230749508475"><ele>1691.0</ele><time>2026-04-19T14:29:55Z</time></trkpt><trkpt lat="37.698719642133945" lon="15.027985674052434"><ele>1691.0</ele><time>2026-04-19T14:29:56Z</time></trkpt><trkpt lat="37.69872123034737" lon="15.027695044485005"><ele>1691.0</ele><time>2026-04-19T14:29:57Z</time></trkpt><trkpt lat="37.698666746627964" lon="15.027395242864989"><ele>1685.5</ele><time>2026-04-19T14:29:58Z</time></trkpt><trkpt lat="37.69857628111784" lon="15.027101543530213"><ele>1680.0</ele><time>2026-04-19T14:29:59Z</time></trkpt><trkpt lat="37.69846614750359" lon="15.02682342885012"><ele>1690.5</ele><time>2026-04-19T14:30:00Z</time></trkpt><trkpt lat="37.698328364338764" lon="15.026544114128622"><ele>1701.0</ele><time>2026-04-19T14:30:01Z</time></trkpt><trkpt lat="37.69816940770517" lon="15.026284886531208"><ele>1701.0</ele><time>2026-04-19T14:30:02Z</time></trkpt><trkpt lat="37.69803830376592" lon="15.026101285323374"><ele>1701.0</ele><time>2026-04-19T14:30:03Z</time></trkpt><trkpt lat="37.69791864855002" lon="15.025904036453475"><ele>1701.0</ele><time>2026-04-19T14:30:04Z</time></trkpt><trkpt lat="37.6978553053191" lon="15.025716105898624"><ele>1702.6666666666665</ele><time>2026-04-19T14:30:05Z</time></trkpt><trkpt lat="37.69781694317538" lon="15.02548677408813"><ele>1704.3333333333333</ele><time>2026-04-19T14:30:06Z</time></trkpt><trkpt lat="37.69780208948884" lon="15.025244631590727"><ele>1706.0</ele><time>2026-04-19T14:30:07Z</time></trkpt><trkpt lat="37.69781718830129" lon="15.02501765991921"><ele>1709.0</ele><time>2026-04-19T14:30:08Z</time></trkpt><trkpt lat="37.69786494257474" lon="15.024783798260811"><ele>1712.0</ele><time>2026-04-19T14:30:09Z</time></trkpt><trkpt lat="37.69793901570247" lon="15.024538346506636"><ele>1715.0</ele><time>2026-04-19T14:30:10Z</time></trkpt><trkpt lat="37.698037875511375" lon="15.024223142443248"><ele>1717.6666666666665</ele><time>2026-04-19T14:30:11Z</time></trkpt><trkpt lat="37.69809922262426" lon="15.023977172239062"><ele>1720.3333333333335</ele><time>2026-04-19T14:30:12Z</time></trkpt><trkpt lat="37.698147651493244" lon="15.023770894925647"><ele>1723.0</ele><time>2026-04-19T14:30:13Z</time></trkpt><trkpt lat="37.69814433407028" lon="15.023550136060054"><ele>1726.5</ele><time>2026-04-19T14:30:14Z</time></trkpt><trkpt lat="37.69810337905233" lon="15.023270754026942"><ele>1730.0</ele><time>2026-04-19T14:30:15Z</time></trkpt><trkpt lat="37.69804002529675" lon="15.022925272475383"><ele>1730.0</ele><time>2026-04-19T14:30:16Z</time></trkpt><trkpt lat="37.697987947080414" lon="15.022530755264482"><ele>1730.0</ele><time>2026-04-19T14:30:17Z</time></trkpt><trkpt lat="37.69793622891412" lon="15.022103556385456"><ele>1733.0</ele><time>2026-04-19T14:30:18Z</time></trkpt><trkpt lat="37.69787811240144" lon="15.02165296347554"><ele>1736.0</ele><time>2026-04-19T14:30:19Z</time></trkpt><trkpt lat="37.697820199269536" lon="15.021208313576041"><ele>1741.0</ele><time>2026-04-19T14:30:20Z</time></trkpt><trkpt lat="37.69777677303211" lon="15.020855426767254"><ele>1746.0</ele><time>2026-04-19T14:30:21Z</time></trkpt><trkpt lat="37.697742159537654" lon="15.020551528075819"><ele>1742.0</ele><time>2026-04-19T14:30:22Z</time></trkpt><trkpt lat="37.69771255192502" lon="15.020297508532394"><ele>1738.0</ele><time>2026-04-19T14:30:23Z</time></trkpt><trkpt lat="37.697692345525056" lon="15.02005469179835"><ele>1734.0</ele><time>2026-04-19T14:30:24Z</time></trkpt><trkpt lat="37.69768664927658" lon="15.019791562229107"><ele>1734.0</ele><time>2026-04-19T14:30:25Z</time></trkpt><trkpt lat="37.69770538998635" lon="15.01952301714188"><ele>1734.0</ele><time>2026-04-19T14:30:26Z</time></trkpt><trkpt lat="37.69773945999854" lon="15.019321860214314"><ele>1734.0</ele><time>2026-04-19T14:30:27Z</time></trkpt><trkpt lat="37.697771082119566" lon="15.01919623835212"><ele>1737.8000000000002</ele><time>2026-04-19T14:30:28Z</time></trkpt><trkpt lat="37.697816476040224" lon="15.019108431658063"><ele>1741.6000000000001</ele><time>2026-04-19T14:30:29Z</time></trkpt><trkpt lat="37.69789626005314" lon="15.019058846076899"><ele>1745.4</ele><time>2026-04-19T14:30:30Z</time></trkpt><trkpt lat="37.69800155349679" lon="15.019074065744254"><ele>1749.2</ele><time>2026-04-19T14:30:31Z</time></trkpt><trkpt lat="37.6980833810604" lon="15.019156529996001"><ele>1753.0</ele><time>2026-04-19T14:30:32Z</time></trkpt><trkpt lat="37.69811922082508" lon="15.019299140644334"><ele>1753.0</ele><time>2026-04-19T14:30:33Z</time></trkpt><trkpt lat="37.69812899627555" lon="15.01948895374901"><ele>1753.0</ele><time>2026-04-19T14:30:34Z</time></trkpt><trkpt lat="37.69813848112851" lon="15.019724684537938"><ele>1753.0</ele><time>2026-04-19T14:30:35Z</time></trkpt><trkpt lat="37.6981599117608" lon="15.019985950218674"><ele>1752.3333333333335</ele><time>2026-04-19T14:30:36Z</time></trkpt><trkpt lat="37.698195439179365" lon="15.020271603236454"><ele>1751.6666666666665</ele><time>2026-04-19T14:30:37Z</time></trkpt><trkpt lat="37.698224822923976" lon="15.020527859533546"><ele>1751.0</ele><time>2026-04-19T14:30:38Z</time></trkpt><trkpt lat="37.69825106367257" lon="15.020730261605813"><ele>1750.0</ele><time>2026-04-19T14:30:39Z</time></trkpt><trkpt lat="37.69827224780753" lon="15.020891648407552"><ele>1749.0</ele><time>2026-04-19T14:30:40Z</time></trkpt><trkpt lat="37.69831291377127" lon="15.02100313312303"><ele>1748.0</ele><time>2026-04-19T14:30:41Z</time></trkpt><trkpt lat="37.69839414366789" lon="15.02107319555561"><ele>1747.0</ele><time>2026-04-19T14:30:42Z</time></trkpt><trkpt lat="37.698500781427114" lon="15.021063751075223"><ele>1746.0</ele><time>2026-04-19T14:30:43Z</time></trkpt><trkpt lat="37.69857528432578" lon="15.021014072195"><ele>1752.0</ele><time>2026-04-19T14:30:44Z</time></trkpt><trkpt lat="37.6986311803333" lon="15.020934680393298"><ele>1758.0</ele><time>2026-04-19T14:30:45Z</time></trkpt><trkpt lat="37.698664578469874" lon="15.020812957828175"><ele>1764.0</ele><time>2026-04-19T14:30:46Z</time></trkpt><trkpt lat="37.69868122836524" lon="15.020651878599077"><ele>1770.0</ele><time>2026-04-19T14:30:47Z</time></trkpt><trkpt lat="37.69869399589381" lon="15.020471036914534"><ele>1771.6666666666665</ele><time>2026-04-19T14:30:48Z</time></trkpt><trkpt lat="37.69869543823473" lon="15.020270164057278"><ele>1773.3333333333333</ele><time>2026-04-19T14:30:49Z</time></trkpt><trkpt lat="37.69871793579051" lon="15.020038682911492"><ele>1775.0</ele><time>2026-04-19T14:30:50Z</time></trkpt><trkpt lat="37.69875941097878" lon="15.019755396962207"><ele>1776.0</ele><time>2026-04-19T14:30:51Z</time></trkpt><trkpt lat="37.69878506314699" lon="15.019463489965048"><ele>1777.0</ele><time>2026-04-19T14:30:52Z</time></trkpt><trkpt lat="37.698809631331876" lon="15.019220116797744"><ele>1778.0</ele><time>2026-04-19T14:30:53Z</time></trkpt><trkpt lat="37.698838459450904" lon="15.01901467775761"><ele>1779.0</ele><time>2026-04-19T14:30:54Z</time></trkpt><trkpt lat="37.69889465768964" lon="15.01880842787509"><ele>1780.0</ele><time>2026-04-19T14:30:55Z</time></trkpt><trkpt lat="37.69897229986183" lon="15.018597831524442"><ele>1781.0</ele><time>2026-04-19T14:30:56Z</time></trkpt><trkpt lat="37.69905165619097" lon="15.018386794994168"><ele>1780.3333333333333</ele><time>2026-04-19T14:30:57Z</time></trkpt><trkpt lat="37.699121540936886" lon="15.018174368073046"><ele>1779.6666666666665</ele><time>2026-04-19T14:30:58Z</time></trkpt><trkpt lat="37.69920279052937" lon="15.017958087823981"><ele>1779.0</ele><time>2026-04-19T14:30:59Z</time></trkpt><trkpt lat="37.69927632672618" lon="15.017736631849234"><ele>1779.0</ele><time>2026-04-19T14:31:00Z</time></trkpt><trkpt lat="37.69935723516541" lon="15.017516746836211"><ele>1779.0</ele><time>2026-04-19T14:31:01Z</time></trkpt><trkpt lat="37.69942965153593" lon="15.017302244636081"><ele>1779.0</ele><time>2026-04-19T14:31:02Z</time></trkpt><trkpt lat="37.699503266830334" lon="15.017092012296525"><ele>1785.3333333333335</ele><time>2026-04-19T14:31:03Z</time></trkpt><trkpt lat="37.699577446071785" lon="15.016884309289782"><ele>1791.6666666666667</ele><time>2026-04-19T14:31:04Z</time></trkpt><trkpt lat="37.69964781841313" lon="15.01667887714596"><ele>1798.0</ele><time>2026-04-19T14:31:05Z</time></trkpt><trkpt lat="37.69971675096613" lon="15.016489192853971"><ele>1798.0</ele><time>2026-04-19T14:31:06Z</time></trkpt><trkpt lat="37.699774513000456" lon="15.016335553356555"><ele>1798.0</ele><time>2026-04-19T14:31:07Z</time></trkpt><trkpt lat="37.69982133498785" lon="15.016193743547985"><ele>1798.0</ele><time>2026-04-19T14:31:08Z</time></trkpt><trkpt lat="37.69984251386287" lon="15.016032827361945"><ele>1798.0</ele><time>2026-04-19T14:31:09Z</time></trkpt><trkpt lat="37.69982242096522" lon="15.01584665532334"><ele>1798.5</ele><time>2026-04-19T14:31:10Z</time></trkpt><trkpt lat="37.699773549503455" lon="15.015679730941443"><ele>1799.0</ele><time>2026-04-19T14:31:11Z</time></trkpt><trkpt lat="37.69972538165048" lon="15.015526289182025"><ele>1799.5</ele><time>2026-04-19T14:31:12Z</time></trkpt><trkpt lat="37.699720727511384" lon="15.015384897084466"><ele>1800.0</ele><time>2026-04-19T14:31:13Z</time></trkpt><trkpt lat="37.69977588099642" lon="15.015265940124554"><ele>1800.0</ele><time>2026-04-19T14:31:14Z</time></trkpt><trkpt lat="37.69988352979054" lon="15.015191544603228"><ele>1800.0</ele><time>2026-04-19T14:31:15Z</time></trkpt><trkpt lat="37.70000658692458" lon="15.01518657625352"><ele>1800.0</ele><time>2026-04-19T14:31:16Z</time></trkpt><trkpt lat="37.70012199709476" lon="15.015257561994597"><ele>1800.0</ele><time>2026-04-19T14:31:17Z</time></trkpt><trkpt lat="37.70021135978129" lon="15.015384263485787"><ele>1800.0</ele><time>2026-04-19T14:31:18Z</time></trkpt><trkpt lat="37.70025101728036" lon="15.015498838607265"><ele>1800.0</ele><time>2026-04-19T14:31:19Z</time></trkpt><trkpt lat="37.70024336754022" lon="15.015659000947839"><ele>1800.0</ele><time>2026-04-19T14:31:20Z</time></trkpt><trkpt lat="37.7002407485663" lon="15.015869007539958"><ele>1800.0</ele><time>2026-04-19T14:31:21Z</time></trkpt><trkpt lat="37.70024038918318" lon="15.01613728725535"><ele>1814.0</ele><time>2026-04-19T14:31:22Z</time></trkpt><trkpt lat="37.700256794237205" lon="15.016467454140741"><ele>1828.0</ele><time>2026-04-19T14:31:23Z</time></trkpt><trkpt lat="37.700267141506295" lon="15.01677210921764"><ele>1829.75</ele><time>2026-04-19T14:31:24Z</time></trkpt><trkpt lat="37.70027662131633" lon="15.017011229582327"><ele>1831.5</ele><time>2026-04-19T14:31:25Z</time></trkpt><trkpt lat="37.70028392083402" lon="15.017199900702044"><ele>1833.25</ele><time>2026-04-19T14:31:26Z</time></trkpt><trkpt lat="37.70029738489479" lon="15.017335829902391"><ele>1835.0</ele><time>2026-04-19T14:31:27Z</time></trkpt><trkpt lat="37.70033154636875" lon="15.017437457175525"><ele>1835.0</ele><time>2026-04-19T14:31:28Z</time></trkpt><trkpt lat="37.70040825127856" lon="15.01751172194953"><ele>1835.0</ele><time>2026-04-19T14:31:29Z</time></trkpt><trkpt lat="37.70052042233984" lon="15.017529710824034"><ele>1835.0</ele><time>2026-04-19T14:31:30Z</time></trkpt><trkpt lat="37.70062866175427" lon="15.017475996619034"><ele>1835.0</ele><time>2026-04-19T14:31:31Z</time></trkpt><trkpt lat="37.700698753538006" lon="15.017351641681405"><ele>1835.0</ele><time>2026-04-19T14:31:32Z</time></trkpt><trkpt lat="37.70073231828249" lon="15.01717959173068"><ele>1835.0</ele><time>2026-04-19T14:31:33Z</time></trkpt><trkpt lat="37.7007467242683" lon="15.016966031699496"><ele>1835.0</ele><time>2026-04-19T14:31:34Z</time></trkpt><trkpt lat="37.700778800072726" lon="15.016699809143745"><ele>1835.0</ele><time>2026-04-19T14:31:35Z</time></trkpt><trkpt lat="37.700837842293446" lon="15.016381955797492"><ele>1831.5</ele><time>2026-04-19T14:31:36Z</time></trkpt><trkpt lat="37.70089521633235" lon="15.016073937873402"><ele>1828.0</ele><time>2026-04-19T14:31:37Z</time></trkpt><trkpt lat="37.70095071351778" lon="15.015830443363564"><ele>1827.0</ele><time>2026-04-19T14:31:38Z</time></trkpt><trkpt lat="37.70100948235194" lon="15.015641084359242"><ele>1826.0</ele><time>2026-04-19T14:31:39Z</time></trkpt><trkpt lat="37.70107042453312" lon="15.015474314217524"><ele>1825.0</ele><time>2026-04-19T14:31:40Z</time></trkpt><trkpt lat="37.70112966501389" lon="15.015318325986572"><ele>1824.0</ele><time>2026-04-19T14:31:41Z</time></trkpt><trkpt lat="37.70118589407611" lon="15.015169631188122"><ele>1828.1666666666667</ele><time>2026-04-19T14:31:42Z</time></trkpt><trkpt lat="37.70123650796195" lon="15.015041455046168"><ele>1832.3333333333335</ele><time>2026-04-19T14:31:43Z</time></trkpt><trkpt lat="37.701278828752294" lon="15.014935337389359"><ele>1836.5</ele><time>2026-04-19T14:31:44Z</time></trkpt><trkpt lat="37.70132119359622" lon="15.014845405409353"><ele>1840.6666666666667</ele><time>2026-04-19T14:31:45Z</time></trkpt><trkpt lat="37.701349675794376" lon="15.014772486227752"><ele>1844.8333333333335</ele><time>2026-04-19T14:31:46Z</time></trkpt><trkpt lat="37.70138857836645" lon="15.014691110452773"><ele>1849.0</ele><time>2026-04-19T14:31:48Z</time></trkpt><trkpt lat="37.70144690430106" lon="15.014591552517992"><ele>1849.0</ele><time>2026-04-19T14:32:03Z</time></trkpt><trkpt lat="37.70150085900123" lon="15.014490753578482"><ele>1849.0</ele><time>2026-04-19T14:32:04Z</time></trkpt><trkpt lat="37.70156382366404" lon="15.014382606907736"><ele>1849.0</ele><time>2026-04-19T14:32:05Z</time></trkpt><trkpt lat="37.701626978362114" lon="15.014286784564403"><ele>1849.0</ele><time>2026-04-19T14:32:06Z</time></trkpt><trkpt lat="37.701690883803195" lon="15.014183436403362"><ele>1849.0</ele><time>2026-04-19T14:32:07Z</time></trkpt><trkpt lat="37.70174726394428" lon="15.014051005033986"><ele>1849.3333333333335</ele><time>2026-04-19T14:32:08Z</time></trkpt><trkpt lat="37.701787246896906" lon="15.013884699145821"><ele>1849.6666666666665</ele><time>2026-04-19T14:32:09Z</time></trkpt><trkpt lat="37.701803158059526" lon="15.013684769386611"><ele>1850.0</ele><time>2026-04-19T14:32:10Z</time></trkpt><trkpt lat="37.70180621258835" lon="15.013454575314727"><ele>1851.0</ele><time>2026-04-19T14:32:11Z</time></trkpt><trkpt lat="37.70182315234416" lon="15.013211306984289"><ele>1852.0</ele><time>2026-04-19T14:32:12Z</time></trkpt><trkpt lat="37.70184629753207" lon="15.012958739773403"><ele>1853.0</ele><time>2026-04-19T14:32:13Z</time></trkpt><trkpt lat="37.70186895058879" lon="15.012712566006648"><ele>1853.0</ele><time>2026-04-19T14:32:14Z</time></trkpt><trkpt lat="37.701888349682974" lon="15.012509968870296"><ele>1853.0</ele><time>2026-04-19T14:32:15Z</time></trkpt><trkpt lat="37.70190590233975" lon="15.01233026489389"><ele>1853.0</ele><time>2026-04-19T14:32:16Z</time></trkpt><trkpt lat="37.70191623768386" lon="15.012158701328726"><ele>1853.0</ele><time>2026-04-19T14:32:17Z</time></trkpt><trkpt lat="37.7019134372706" lon="15.012024492518773"><ele>1854.6000000000001</ele><time>2026-04-19T14:32:18Z</time></trkpt><trkpt lat="37.70189598366835" lon="15.01192698309256"><ele>1856.2000000000003</ele><time>2026-04-19T14:32:19Z</time></trkpt><trkpt lat="37.701859083808124" lon="15.011833591440256"><ele>1857.8</ele><time>2026-04-19T14:32:20Z</time></trkpt><trkpt lat="37.70180382740381" lon="15.011721024994296"><ele>1859.4</ele><time>2026-04-19T14:32:21Z</time></trkpt><trkpt lat="37.70172269508098" lon="15.011577215777093"><ele>1861.0</ele><time>2026-04-19T14:32:22Z</time></trkpt><trkpt lat="37.70160161196443" lon="15.01138256636816"><ele>1868.5</ele><time>2026-04-19T14:32:23Z</time></trkpt><trkpt lat="37.70146631015109" lon="15.011163269012508"><ele>1876.0</ele><time>2026-04-19T14:32:24Z</time></trkpt><trkpt lat="37.70132282171197" lon="15.010925018543729"><ele>1875.0</ele><time>2026-04-19T14:32:25Z</time></trkpt><trkpt lat="37.70118429335284" lon="15.010709780183277"><ele>1874.0</ele><time>2026-04-19T14:32:26Z</time></trkpt><trkpt lat="37.701053771372976" lon="15.010477400741987"><ele>1873.0</ele><time>2026-04-19T14:32:27Z</time></trkpt><trkpt lat="37.700924274614145" lon="15.010244730219712"><ele>1873.0</ele><time>2026-04-19T14:32:28Z</time></trkpt><trkpt lat="37.70079271080202" lon="15.010023789623249"><ele>1873.0</ele><time>2026-04-19T14:32:29Z</time></trkpt><trkpt lat="37.70066113454481" lon="15.009803995032778"><ele>1873.0</ele><time>2026-04-19T14:32:30Z</time></trkpt><trkpt lat="37.700534819142725" lon="15.009588619737254"><ele>1877.0</ele><time>2026-04-19T14:32:31Z</time></trkpt><trkpt lat="37.700422288856565" lon="15.009399174015746"><ele>1881.0</ele><time>2026-04-19T14:32:32Z</time></trkpt><trkpt lat="37.700322893603804" lon="15.009225006187508"><ele>1885.0</ele><time>2026-04-19T14:32:33Z</time></trkpt><trkpt lat="37.70024184640079" lon="15.009055270846064"><ele>1885.0</ele><time>2026-04-19T14:32:34Z</time></trkpt><trkpt lat="37.70013240110894" lon="15.008873261831845"><ele>1885.0</ele><time>2026-04-19T14:32:35Z</time></trkpt><trkpt lat="37.70002264390591" lon="15.008690362560776"><ele>1885.0</ele><time>2026-04-19T14:32:36Z</time></trkpt><trkpt lat="37.699911047692886" lon="15.00850368626317"><ele>1885.0</ele><time>2026-04-19T14:32:37Z</time></trkpt><trkpt lat="37.69978233189569" lon="15.00832677974979"><ele>1885.0</ele><time>2026-04-19T14:32:38Z</time></trkpt><trkpt lat="37.699636999615365" lon="15.008170458769486"><ele>1885.0</ele><time>2026-04-19T14:32:39Z</time></trkpt><trkpt lat="37.69948345951774" lon="15.00803240344985"><ele>1884.6666666666667</ele><time>2026-04-19T14:32:40Z</time></trkpt><trkpt lat="37.69935097809798" lon="15.007907911183986"><ele>1884.3333333333335</ele><time>2026-04-19T14:32:41Z</time></trkpt><trkpt lat="37.699243865282384" lon="15.0077836914324"><ele>1884.0</ele><time>2026-04-19T14:32:42Z</time></trkpt><trkpt lat="37.69916319966397" lon="15.007640054233303"><ele>1888.3333333333335</ele><time>2026-04-19T14:32:43Z</time></trkpt><trkpt lat="37.699119934006006" lon="15.007463862094891"><ele>1892.6666666666667</ele><time>2026-04-19T14:32:44Z</time></trkpt><trkpt lat="37.699098370872505" lon="15.007258085056653"><ele>1897.0</ele><time>2026-04-19T14:32:45Z</time></trkpt><trkpt lat="37.69907528500018" lon="15.007022247658801"><ele>1897.0</ele><time>2026-04-19T14:32:46Z</time></trkpt><trkpt lat="37.699045139697766" lon="15.006772200357164"><ele>1897.0</ele><time>2026-04-19T14:32:47Z</time></trkpt><trkpt lat="37.69901462305009" lon="15.006506677960385"><ele>1897.0</ele><time>2026-04-19T14:32:48Z</time></trkpt><trkpt lat="37.69898309211574" lon="15.006234624329458"><ele>1901.0</ele><time>2026-04-19T14:32:49Z</time></trkpt><trkpt lat="37.69896023627501" lon="15.006004514998795"><ele>1905.0</ele><time>2026-04-19T14:32:50Z</time></trkpt><trkpt lat="37.69894584979705" lon="15.005800135382072"><ele>1909.0</ele><time>2026-04-19T14:32:51Z</time></trkpt><trkpt lat="37.698944660657816" lon="15.005610625148496"><ele>1909.8000000000002</ele><time>2026-04-19T14:32:52Z</time></trkpt><trkpt lat="37.69894580244105" lon="15.005436920419086"><ele>1910.6000000000001</ele><time>2026-04-19T14:32:53Z</time></trkpt><trkpt lat="37.69895153177497" lon="15.005285376063448"><ele>1911.4</ele><time>2026-04-19T14:32:54Z</time></trkpt><trkpt lat="37.69895907362835" lon="15.005158577487443"><ele>1912.2</ele><time>2026-04-19T14:32:55Z</time></trkpt><trkpt lat="37.69896557334188" lon="15.00505348847417"><ele>1913.0</ele><time>2026-04-19T14:32:56Z</time></trkpt><trkpt lat="37.69897192822473" lon="15.004972810218659"><ele>1911.2</ele><time>2026-04-19T14:32:57Z</time></trkpt><trkpt lat="37.698983547198566" lon="15.004859307327074"><ele>1909.4</ele><time>2026-04-19T14:32:59Z</time></trkpt><trkpt lat="37.69900136805981" lon="15.00477310830105"><ele>1907.6000000000001</ele><time>2026-04-19T14:33:01Z</time></trkpt><trkpt lat="37.69901991493827" lon="15.00463529659955"><ele>1905.8000000000002</ele><time>2026-04-19T14:33:03Z</time></trkpt><trkpt lat="37.69902690372437" lon="15.004544750273196"><ele>1904.0</ele><time>2026-04-19T14:33:04Z</time></trkpt><trkpt lat="37.6990306533585" lon="15.004402070216509"><ele>1904.0</ele><time>2026-04-19T14:33:06Z</time></trkpt><trkpt lat="37.69904417603178" lon="15.00426154635844"><ele>1904.0</ele><time>2026-04-19T14:33:08Z</time></trkpt><trkpt lat="37.69905258163476" lon="15.004151862653657"><ele>1904.0</ele><time>2026-04-19T14:33:10Z</time></trkpt><trkpt lat="37.69906273122211" lon="15.004046824396674"><ele>1904.0</ele><time>2026-04-19T14:33:12Z</time></trkpt><trkpt lat="37.69907574403577" lon="15.003952807466394"><ele>1904.0</ele><time>2026-04-19T14:33:14Z</time></trkpt><trkpt lat="37.69907838728496" lon="15.003830832188628"><ele>1902.6666666666665</ele><time>2026-04-19T14:33:16Z</time></trkpt><trkpt lat="37.69910405410334" lon="15.003676366082962"><ele>1901.3333333333333</ele><time>2026-04-19T14:33:18Z</time></trkpt><trkpt lat="37.699115868557534" lon="15.003594753577572"><ele>1900.0</ele><time>2026-04-19T14:33:19Z</time></trkpt><trkpt lat="37.69912920184005" lon="15.003512885454267"><ele>1898.6666666666665</ele><time>2026-04-19T14:33:20Z</time></trkpt><trkpt lat="37.69913597896777" lon="15.003429057451369"><ele>1897.3333333333333</ele><time>2026-04-19T14:33:21Z</time></trkpt><trkpt lat="37.69914109863936" lon="15.00334369658492"><ele>1896.0</ele><time>2026-04-19T14:33:22Z</time></trkpt><trkpt lat="37.69914954863344" lon="15.00325734649851"><ele>1895.8</ele><time>2026-04-19T14:33:23Z</time></trkpt><trkpt lat="37.699163264298576" lon="15.003165169310453"><ele>1895.6</ele><time>2026-04-19T14:33:24Z</time></trkpt><trkpt lat="37.69918776743037" lon="15.003053673310452"><ele>1895.4</ele><time>2026-04-19T14:33:25Z</time></trkpt><trkpt lat="37.699213450749696" lon="15.002932620340868"><ele>1895.2</ele><time>2026-04-19T14:33:26Z</time></trkpt><trkpt lat="37.699228553955784" lon="15.002792508800965"><ele>1895.0</ele><time>2026-04-19T14:33:27Z</time></trkpt><trkpt lat="37.69924409325008" lon="15.002635709978993"><ele>1894.25</ele><time>2026-04-19T14:33:28Z</time></trkpt><trkpt lat="37.69926312553331" lon="15.002463344625726"><ele>1893.5</ele><time>2026-04-19T14:33:29Z</time></trkpt><trkpt lat="37.69928479206068" lon="15.00228986118433"><ele>1892.75</ele><time>2026-04-19T14:33:30Z</time></trkpt><trkpt lat="37.699310273054095" lon="15.002102006424296"><ele>1892.0</ele><time>2026-04-19T14:33:31Z</time></trkpt><trkpt lat="37.6993395467552" lon="15.001905263146375"><ele>1892.0</ele><time>2026-04-19T14:33:32Z</time></trkpt><trkpt lat="37.69937514086919" lon="15.001699396649299"><ele>1892.0</ele><time>2026-04-19T14:33:33Z</time></trkpt><trkpt lat="37.699418572565484" lon="15.001488922986999"><ele>1892.0</ele><time>2026-04-19T14:33:34Z</time></trkpt><trkpt lat="37.6994697909607" lon="15.00127291814134"><ele>1894.5</ele><time>2026-04-19T14:33:35Z</time></trkpt><trkpt lat="37.699519385144804" lon="15.001093342695516"><ele>1897.0</ele><time>2026-04-19T14:33:36Z</time></trkpt><trkpt lat="37.699567687290326" lon="15.000932781050201"><ele>1899.5</ele><time>2026-04-19T14:33:37Z</time></trkpt><trkpt lat="37.69960920300699" lon="15.000766891863858"><ele>1902.0</ele><time>2026-04-19T14:33:38Z</time></trkpt><trkpt lat="37.69963841017048" lon="15.000591866806108"><ele>1902.0</ele><time>2026-04-19T14:33:39Z</time></trkpt><trkpt lat="37.69967132413128" lon="15.00041297868224"><ele>1902.0</ele><time>2026-04-19T14:33:40Z</time></trkpt><trkpt lat="37.69970211565091" lon="15.00025573711127"><ele>1902.0</ele><time>2026-04-19T14:33:41Z</time></trkpt><trkpt lat="37.69973232335152" lon="15.00011526421969"><ele>1902.0</ele><time>2026-04-19T14:33:42Z</time></trkpt><trkpt lat="37.69975643963115" lon="14.999990850062156"><ele>1902.0</ele><time>2026-04-19T14:33:43Z</time></trkpt><trkpt lat="37.69977709259156" lon="14.999889976814549"><ele>1902.0</ele><time>2026-04-19T14:33:44Z</time></trkpt><trkpt lat="37.699794746374586" lon="14.999794761160008"><ele>1902.0</ele><time>2026-04-19T14:33:45Z</time></trkpt><trkpt lat="37.699816891477994" lon="14.99965217153893"><ele>1902.0</ele><time>2026-04-19T14:33:47Z</time></trkpt><trkpt lat="37.699826849168794" lon="14.999552738726383"><ele>1902.0</ele><time>2026-04-19T14:33:49Z</time></trkpt><trkpt lat="37.69982883715867" lon="14.999461582736686"><ele>1902.0</ele><time>2026-04-19T14:33:54Z</time></trkpt><trkpt lat="37.699869001062844" lon="14.999359734779985"><ele>1902.0</ele><time>2026-04-19T14:33:57Z</time></trkpt><trkpt lat="37.699892345450806" lon="14.999257400847874"><ele>1902.0</ele><time>2026-04-19T14:34:00Z</time></trkpt><trkpt lat="37.69965216125628" lon="14.999072126517309"><ele>1902.0</ele><time>2026-04-19T14:34:03Z</time></trkpt><trkpt lat="37.699624589518514" lon="14.99899225948214"><ele>1902.0</ele><time>2026-04-19T14:34:05Z</time></trkpt><trkpt lat="37.699586688977284" lon="14.998909387653502"><ele>1902.2857142857142</ele><time>2026-04-19T14:34:08Z</time></trkpt><trkpt lat="37.69964339846624" lon="14.998953979100726"><ele>1902.5714285714287</ele><time>2026-04-19T14:35:23Z</time></trkpt><trkpt lat="37.699680370142275" lon="14.998888115751527"><ele>1902.857142857143</ele><time>2026-04-19T14:35:51Z</time></trkpt><trkpt lat="37.69970313353113" lon="14.998805129958752"><ele>1903.142857142857</ele><time>2026-04-19T14:36:02Z</time></trkpt><trkpt lat="37.69972472386796" lon="14.998711889715835"><ele>1903.4285714285716</ele><time>2026-04-19T14:36:15Z</time></trkpt><trkpt lat="37.69976153687398" lon="14.998645372635858"><ele>1903.7142857142858</ele><time>2026-04-19T14:37:36Z</time></trkpt><trkpt lat="37.69968194281954" lon="14.998627874998371"><ele>1904.0</ele><time>2026-04-19T14:37:39Z</time></trkpt><trkpt lat="37.69958352080239" lon="14.998628587264538"><ele>1904.0</ele><time>2026-04-19T14:37:44Z</time></trkpt><trkpt lat="37.699589044939934" lon="14.998756342014556"><ele>1904.0</ele><time>2026-04-19T14:37:49.072Z</time></trkpt><trkpt lat="37.69981916577428" lon="14.99868833101097"><ele>1904.0</ele><time>2026-04-19T14:37:52.074Z</time></trkpt><trkpt lat="37.699874157355914" lon="14.998633228511306"><ele>1904.0</ele><time>2026-04-19T14:37:53.068Z</time></trkpt><trkpt lat="37.69979411096905" lon="14.998779827019204"><ele>1904.0</ele><time>2026-04-19T14:37:58.072Z</time></trkpt><trkpt lat="37.69980720027184" lon="14.998863149299403"><ele>1904.0</ele><time>2026-04-19T14:38:14.072Z</time></trkpt><trkpt lat="37.69986171191997" lon="14.999281025966873"><ele>1904.0</ele><time>2026-04-19T14:38:21Z</time></trkpt><trkpt lat="37.699745927610294" lon="14.99850728958984"><ele>1904.0</ele><time>2026-04-19T14:38:24Z</time></trkpt><trkpt lat="37.69977806883853" lon="14.998427074847285"><ele>1904.0</ele><time>2026-04-19T14:38:28Z</time></trkpt><trkpt lat="37.699775778762664" lon="14.998557338727375"><ele>1904.0</ele><time>2026-04-19T14:39:25Z</time></trkpt></trkseg></trk></gpx>